<?xml version="1.0" encoding="UTF-8" standalone="no" ?>
<gpx xmlns="http://www.topografix.com/GPX/1/1" xmlns:xsi="http://www.w3.org/2001/XMLSchema-instance" xsi:schemaLocation="http://www.topografix.com/GPX/1/1 http://www.topografix.com/GPX/1/1/gpx.xsd" version="1.1" creator="VisuGPX - https://www.visugpx.com">
  <metadata>
    <name>Balade vélo départ lannion, via Pluzunet et La Roche Derrien</name>
    <desc><![CDATA[balade vélo Lannion, Tonquédec, Pluzunet, La Roche Derrien, Lannion]]></desc>
  </metadata>
  <trk>
    <name><![CDATA[3 nov. 2015 13:58:43]]></name>
    <cmt><![CDATA[3 nov. 2015 13:58:43]]></cmt>
    <trkseg>
      <trkpt lat="48.73618" lon="-3.46355">
        <ele>47.5</ele>
        <time>2015-11-03T12:59:32Z</time>
      </trkpt>
      <trkpt lat="48.73602" lon="-3.46418">
        <ele>42.9</ele>
        <time>2015-11-03T12:59:55Z</time>
      </trkpt>
      <trkpt lat="48.73605" lon="-3.46449">
        <ele>4</ele>
        <time>2015-11-03T13:00:02Z</time>
      </trkpt>
      <trkpt lat="48.73587" lon="-3.46459">
        <ele>3</ele>
        <time>2015-11-03T13:00:10Z</time>
      </trkpt>
      <trkpt lat="48.73571" lon="-3.46462">
        <ele>3</ele>
        <time>2015-11-03T13:00:14Z</time>
      </trkpt>
      <trkpt lat="48.73563" lon="-3.46464">
        <ele>3</ele>
        <time>2015-11-03T13:00:16Z</time>
      </trkpt>
      <trkpt lat="48.73553" lon="-3.46468">
        <ele>2</ele>
        <time>2015-11-03T13:00:18Z</time>
      </trkpt>
      <trkpt lat="48.73542" lon="-3.46471">
        <ele>2</ele>
        <time>2015-11-03T13:00:20Z</time>
      </trkpt>
      <trkpt lat="48.73531" lon="-3.46475">
        <ele>2</ele>
        <time>2015-11-03T13:00:22Z</time>
      </trkpt>
      <trkpt lat="48.73512" lon="-3.46481">
        <ele>2</ele>
        <time>2015-11-03T13:00:25Z</time>
      </trkpt>
      <trkpt lat="48.73497" lon="-3.46485">
        <ele>2</ele>
        <time>2015-11-03T13:00:27Z</time>
      </trkpt>
      <trkpt lat="48.73481" lon="-3.46489">
        <ele>2</ele>
        <time>2015-11-03T13:00:29Z</time>
      </trkpt>
      <trkpt lat="48.73472" lon="-3.46491">
        <ele>1</ele>
        <time>2015-11-03T13:00:30Z</time>
      </trkpt>
      <trkpt lat="48.73454" lon="-3.46494">
        <ele>1</ele>
        <time>2015-11-03T13:00:32Z</time>
      </trkpt>
      <trkpt lat="48.73445" lon="-3.46495">
        <ele>1</ele>
        <time>2015-11-03T13:00:33Z</time>
      </trkpt>
      <trkpt lat="48.73436" lon="-3.46495">
        <ele>1</ele>
        <time>2015-11-03T13:00:34Z</time>
      </trkpt>
      <trkpt lat="48.73427" lon="-3.46494">
        <ele>1</ele>
        <time>2015-11-03T13:00:35Z</time>
      </trkpt>
      <trkpt lat="48.73413" lon="-3.46495">
        <ele>1</ele>
        <time>2015-11-03T13:00:37Z</time>
      </trkpt>
      <trkpt lat="48.73404" lon="-3.46507">
        <ele>1</ele>
        <time>2015-11-03T13:00:39Z</time>
      </trkpt>
      <trkpt lat="48.73405" lon="-3.46523">
        <ele>25.3</ele>
        <time>2015-11-03T13:00:41Z</time>
      </trkpt>
      <trkpt lat="48.73414" lon="-3.46543">
        <ele>24.7</ele>
        <time>2015-11-03T13:00:44Z</time>
      </trkpt>
      <trkpt lat="48.73422" lon="-3.46556">
        <ele>24.6</ele>
        <time>2015-11-03T13:00:46Z</time>
      </trkpt>
      <trkpt lat="48.7343" lon="-3.4657">
        <ele>24.4</ele>
        <time>2015-11-03T13:00:48Z</time>
      </trkpt>
      <trkpt lat="48.73437" lon="-3.46583">
        <ele>-1</ele>
        <time>2015-11-03T13:00:50Z</time>
      </trkpt>
      <trkpt lat="48.7344" lon="-3.46596">
        <ele>-1</ele>
        <time>2015-11-03T13:00:54Z</time>
      </trkpt>
      <trkpt lat="48.73433" lon="-3.46606">
        <ele>-1</ele>
        <time>2015-11-03T13:00:57Z</time>
      </trkpt>
      <trkpt lat="48.73423" lon="-3.46608">
        <ele>-1</ele>
        <time>2015-11-03T13:00:59Z</time>
      </trkpt>
      <trkpt lat="48.73406" lon="-3.4661">
        <ele>-2</ele>
        <time>2015-11-03T13:01:02Z</time>
      </trkpt>
      <trkpt lat="48.73393" lon="-3.46612">
        <ele>-2</ele>
        <time>2015-11-03T13:01:04Z</time>
      </trkpt>
      <trkpt lat="48.73379" lon="-3.46614">
        <ele>-2</ele>
        <time>2015-11-03T13:01:06Z</time>
      </trkpt>
      <trkpt lat="48.73357" lon="-3.46614">
        <ele>-2</ele>
        <time>2015-11-03T13:01:09Z</time>
      </trkpt>
      <trkpt lat="48.73329" lon="-3.46596">
        <ele>-2</ele>
        <time>2015-11-03T13:01:13Z</time>
      </trkpt>
      <trkpt lat="48.73317" lon="-3.46579">
        <ele>-2</ele>
        <time>2015-11-03T13:01:15Z</time>
      </trkpt>
      <trkpt lat="48.73307" lon="-3.46558">
        <ele>-3</ele>
        <time>2015-11-03T13:01:17Z</time>
      </trkpt>
      <trkpt lat="48.73301" lon="-3.46536">
        <ele>-3</ele>
        <time>2015-11-03T13:01:19Z</time>
      </trkpt>
      <trkpt lat="48.73296" lon="-3.46514">
        <ele>-3</ele>
        <time>2015-11-03T13:01:21Z</time>
      </trkpt>
      <trkpt lat="48.73292" lon="-3.4648">
        <ele>-3</ele>
        <time>2015-11-03T13:01:24Z</time>
      </trkpt>
      <trkpt lat="48.7329" lon="-3.46447">
        <ele>-4</ele>
        <time>2015-11-03T13:01:27Z</time>
      </trkpt>
      <trkpt lat="48.7329" lon="-3.46415">
        <ele>-4</ele>
        <time>2015-11-03T13:01:30Z</time>
      </trkpt>
      <trkpt lat="48.7329" lon="-3.46379">
        <ele>-5</ele>
        <time>2015-11-03T13:01:34Z</time>
      </trkpt>
      <trkpt lat="48.73294" lon="-3.46344">
        <ele>-5</ele>
        <time>2015-11-03T13:01:37Z</time>
      </trkpt>
      <trkpt lat="48.73297" lon="-3.46321">
        <ele>-6</ele>
        <time>2015-11-03T13:01:39Z</time>
      </trkpt>
      <trkpt lat="48.7329" lon="-3.46287">
        <ele>-6</ele>
        <time>2015-11-03T13:01:43Z</time>
      </trkpt>
      <trkpt lat="48.73275" lon="-3.46272">
        <ele>-7</ele>
        <time>2015-11-03T13:01:47Z</time>
      </trkpt>
      <trkpt lat="48.73259" lon="-3.46278">
        <ele>-8</ele>
        <time>2015-11-03T13:01:51Z</time>
      </trkpt>
      <trkpt lat="48.73248" lon="-3.46257">
        <ele>-9</ele>
        <time>2015-11-03T13:01:56Z</time>
      </trkpt>
      <trkpt lat="48.73246" lon="-3.46234">
        <ele>-9</ele>
        <time>2015-11-03T13:01:59Z</time>
      </trkpt>
      <trkpt lat="48.73236" lon="-3.46212">
        <ele>-10</ele>
        <time>2015-11-03T13:02:03Z</time>
      </trkpt>
      <trkpt lat="48.73223" lon="-3.46191">
        <ele>-11</ele>
        <time>2015-11-03T13:02:08Z</time>
      </trkpt>
      <trkpt lat="48.73208" lon="-3.4618">
        <ele>-13</ele>
        <time>2015-11-03T13:02:13Z</time>
      </trkpt>
      <trkpt lat="48.73191" lon="-3.46176">
        <ele>-14</ele>
        <time>2015-11-03T13:02:17Z</time>
      </trkpt>
      <trkpt lat="48.73175" lon="-3.46164">
        <ele>-15</ele>
        <time>2015-11-03T13:02:21Z</time>
      </trkpt>
      <trkpt lat="48.7316" lon="-3.46148">
        <ele>-17</ele>
        <time>2015-11-03T13:02:25Z</time>
      </trkpt>
      <trkpt lat="48.73147" lon="-3.46127">
        <ele>-18</ele>
        <time>2015-11-03T13:02:29Z</time>
      </trkpt>
      <trkpt lat="48.73133" lon="-3.46106">
        <ele>-19</ele>
        <time>2015-11-03T13:02:33Z</time>
      </trkpt>
      <trkpt lat="48.73118" lon="-3.46085">
        <ele>-20</ele>
        <time>2015-11-03T13:02:37Z</time>
      </trkpt>
      <trkpt lat="48.73111" lon="-3.46064">
        <ele>-20</ele>
        <time>2015-11-03T13:02:40Z</time>
      </trkpt>
      <trkpt lat="48.73106" lon="-3.4605">
        <ele>-21</ele>
        <time>2015-11-03T13:02:42Z</time>
      </trkpt>
      <trkpt lat="48.73096" lon="-3.46025">
        <ele>-22</ele>
        <time>2015-11-03T13:02:46Z</time>
      </trkpt>
      <trkpt lat="48.73092" lon="-3.46014">
        <ele>-22</ele>
        <time>2015-11-03T13:02:48Z</time>
      </trkpt>
      <trkpt lat="48.73088" lon="-3.46">
        <ele>-23</ele>
        <time>2015-11-03T13:02:51Z</time>
      </trkpt>
      <trkpt lat="48.7308" lon="-3.45996">
        <ele>-24</ele>
        <time>2015-11-03T13:02:54Z</time>
      </trkpt>
      <trkpt lat="48.73071" lon="-3.45996">
        <ele>-24</ele>
        <time>2015-11-03T13:02:57Z</time>
      </trkpt>
      <trkpt lat="48.73062" lon="-3.45991">
        <ele>-25</ele>
        <time>2015-11-03T13:03:00Z</time>
      </trkpt>
      <trkpt lat="48.73053" lon="-3.45983">
        <ele>-26</ele>
        <time>2015-11-03T13:03:03Z</time>
      </trkpt>
      <trkpt lat="48.73044" lon="-3.45975">
        <ele>-26</ele>
        <time>2015-11-03T13:03:05Z</time>
      </trkpt>
      <trkpt lat="48.7303" lon="-3.45961">
        <ele>-27</ele>
        <time>2015-11-03T13:03:08Z</time>
      </trkpt>
      <trkpt lat="48.73016" lon="-3.45947">
        <ele>-27</ele>
        <time>2015-11-03T13:03:11Z</time>
      </trkpt>
      <trkpt lat="48.73002" lon="-3.45937">
        <ele>-28</ele>
        <time>2015-11-03T13:03:14Z</time>
      </trkpt>
      <trkpt lat="48.72984" lon="-3.45927">
        <ele>-28</ele>
        <time>2015-11-03T13:03:18Z</time>
      </trkpt>
      <trkpt lat="48.72967" lon="-3.45914">
        <ele>-28</ele>
        <time>2015-11-03T13:03:22Z</time>
      </trkpt>
      <trkpt lat="48.72954" lon="-3.45901">
        <ele>-29</ele>
        <time>2015-11-03T13:03:25Z</time>
      </trkpt>
      <trkpt lat="48.7293" lon="-3.45881">
        <ele>-29</ele>
        <time>2015-11-03T13:03:30Z</time>
      </trkpt>
      <trkpt lat="48.72916" lon="-3.4587">
        <ele>-29</ele>
        <time>2015-11-03T13:03:33Z</time>
      </trkpt>
      <trkpt lat="48.72901" lon="-3.45857">
        <ele>-29</ele>
        <time>2015-11-03T13:03:36Z</time>
      </trkpt>
      <trkpt lat="48.72886" lon="-3.45848">
        <ele>-30</ele>
        <time>2015-11-03T13:03:39Z</time>
      </trkpt>
      <trkpt lat="48.72872" lon="-3.45838">
        <ele>-30</ele>
        <time>2015-11-03T13:03:42Z</time>
      </trkpt>
      <trkpt lat="48.72858" lon="-3.45827">
        <ele>-30</ele>
        <time>2015-11-03T13:03:45Z</time>
      </trkpt>
      <trkpt lat="48.72844" lon="-3.45816">
        <ele>-30</ele>
        <time>2015-11-03T13:03:48Z</time>
      </trkpt>
      <trkpt lat="48.72826" lon="-3.45804">
        <ele>-30</ele>
        <time>2015-11-03T13:03:52Z</time>
      </trkpt>
      <trkpt lat="48.72809" lon="-3.45795">
        <ele>-30</ele>
        <time>2015-11-03T13:03:56Z</time>
      </trkpt>
      <trkpt lat="48.72791" lon="-3.45785">
        <ele>-30</ele>
        <time>2015-11-03T13:04:00Z</time>
      </trkpt>
      <trkpt lat="48.72775" lon="-3.45773">
        <ele>-30</ele>
        <time>2015-11-03T13:04:04Z</time>
      </trkpt>
      <trkpt lat="48.72761" lon="-3.4576">
        <ele>-30</ele>
        <time>2015-11-03T13:04:07Z</time>
      </trkpt>
      <trkpt lat="48.72748" lon="-3.45745">
        <ele>-29</ele>
        <time>2015-11-03T13:04:10Z</time>
      </trkpt>
      <trkpt lat="48.72734" lon="-3.45731">
        <ele>-29</ele>
        <time>2015-11-03T13:04:13Z</time>
      </trkpt>
      <trkpt lat="48.7272" lon="-3.45716">
        <ele>-29</ele>
        <time>2015-11-03T13:04:16Z</time>
      </trkpt>
      <trkpt lat="48.72712" lon="-3.45706">
        <ele>-29</ele>
        <time>2015-11-03T13:04:18Z</time>
      </trkpt>
      <trkpt lat="48.72696" lon="-3.45685">
        <ele>-29</ele>
        <time>2015-11-03T13:04:22Z</time>
      </trkpt>
      <trkpt lat="48.72682" lon="-3.45663">
        <ele>-29</ele>
        <time>2015-11-03T13:04:26Z</time>
      </trkpt>
      <trkpt lat="48.72673" lon="-3.45643">
        <ele>-29</ele>
        <time>2015-11-03T13:04:29Z</time>
      </trkpt>
      <trkpt lat="48.72664" lon="-3.45623">
        <ele>-29</ele>
        <time>2015-11-03T13:04:32Z</time>
      </trkpt>
      <trkpt lat="48.72655" lon="-3.45603">
        <ele>-29</ele>
        <time>2015-11-03T13:04:35Z</time>
      </trkpt>
      <trkpt lat="48.72647" lon="-3.45582">
        <ele>-29</ele>
        <time>2015-11-03T13:04:38Z</time>
      </trkpt>
      <trkpt lat="48.72639" lon="-3.4556">
        <ele>-29</ele>
        <time>2015-11-03T13:04:41Z</time>
      </trkpt>
      <trkpt lat="48.72634" lon="-3.45546">
        <ele>-29</ele>
        <time>2015-11-03T13:04:43Z</time>
      </trkpt>
      <trkpt lat="48.72625" lon="-3.4552">
        <ele>-29</ele>
        <time>2015-11-03T13:04:47Z</time>
      </trkpt>
      <trkpt lat="48.72619" lon="-3.45493">
        <ele>-29</ele>
        <time>2015-11-03T13:04:51Z</time>
      </trkpt>
      <trkpt lat="48.72615" lon="-3.45474">
        <ele>-29</ele>
        <time>2015-11-03T13:04:54Z</time>
      </trkpt>
      <trkpt lat="48.72613" lon="-3.45462">
        <ele>-29</ele>
        <time>2015-11-03T13:04:56Z</time>
      </trkpt>
      <trkpt lat="48.7261" lon="-3.45449">
        <ele>-29</ele>
        <time>2015-11-03T13:04:58Z</time>
      </trkpt>
      <trkpt lat="48.72606" lon="-3.45425">
        <ele>-29</ele>
        <time>2015-11-03T13:05:02Z</time>
      </trkpt>
      <trkpt lat="48.72604" lon="-3.45401">
        <ele>-29</ele>
        <time>2015-11-03T13:05:06Z</time>
      </trkpt>
      <trkpt lat="48.72603" lon="-3.45383">
        <ele>-29</ele>
        <time>2015-11-03T13:05:09Z</time>
      </trkpt>
      <trkpt lat="48.72602" lon="-3.45365">
        <ele>-29</ele>
        <time>2015-11-03T13:05:12Z</time>
      </trkpt>
      <trkpt lat="48.726" lon="-3.45337">
        <ele>-29</ele>
        <time>2015-11-03T13:05:17Z</time>
      </trkpt>
      <trkpt lat="48.72599" lon="-3.45311">
        <ele>-28</ele>
        <time>2015-11-03T13:05:22Z</time>
      </trkpt>
      <trkpt lat="48.72599" lon="-3.45296">
        <ele>-28</ele>
        <time>2015-11-03T13:05:25Z</time>
      </trkpt>
      <trkpt lat="48.726" lon="-3.4527">
        <ele>-28</ele>
        <time>2015-11-03T13:05:30Z</time>
      </trkpt>
      <trkpt lat="48.72601" lon="-3.45254">
        <ele>-28</ele>
        <time>2015-11-03T13:05:33Z</time>
      </trkpt>
      <trkpt lat="48.72601" lon="-3.45229">
        <ele>-28</ele>
        <time>2015-11-03T13:05:38Z</time>
      </trkpt>
      <trkpt lat="48.72602" lon="-3.45203">
        <ele>-28</ele>
        <time>2015-11-03T13:05:43Z</time>
      </trkpt>
      <trkpt lat="48.72593" lon="-3.45182">
        <ele>-28</ele>
        <time>2015-11-03T13:05:48Z</time>
      </trkpt>
      <trkpt lat="48.72585" lon="-3.45179">
        <ele>-27</ele>
        <time>2015-11-03T13:05:50Z</time>
      </trkpt>
      <trkpt lat="48.72574" lon="-3.45179">
        <ele>-27</ele>
        <time>2015-11-03T13:05:52Z</time>
      </trkpt>
      <trkpt lat="48.7256" lon="-3.45177">
        <ele>-27</ele>
        <time>2015-11-03T13:05:54Z</time>
      </trkpt>
      <trkpt lat="48.7254" lon="-3.45167">
        <ele>-27</ele>
        <time>2015-11-03T13:05:57Z</time>
      </trkpt>
      <trkpt lat="48.72521" lon="-3.45157">
        <ele>-27</ele>
        <time>2015-11-03T13:06:00Z</time>
      </trkpt>
      <trkpt lat="48.72504" lon="-3.45143">
        <ele>-27</ele>
        <time>2015-11-03T13:06:03Z</time>
      </trkpt>
      <trkpt lat="48.7249" lon="-3.45124">
        <ele>-28</ele>
        <time>2015-11-03T13:06:08Z</time>
      </trkpt>
      <trkpt lat="48.72477" lon="-3.45102">
        <ele>-29</ele>
        <time>2015-11-03T13:06:12Z</time>
      </trkpt>
      <trkpt lat="48.72467" lon="-3.4508">
        <ele>-30</ele>
        <time>2015-11-03T13:06:15Z</time>
      </trkpt>
      <trkpt lat="48.72457" lon="-3.45052">
        <ele>-31</ele>
        <time>2015-11-03T13:06:18Z</time>
      </trkpt>
      <trkpt lat="48.72449" lon="-3.45027">
        <ele>-32</ele>
        <time>2015-11-03T13:06:21Z</time>
      </trkpt>
      <trkpt lat="48.72441" lon="-3.45002">
        <ele>-33</ele>
        <time>2015-11-03T13:06:25Z</time>
      </trkpt>
      <trkpt lat="48.72432" lon="-3.44995">
        <ele>-34</ele>
        <time>2015-11-03T13:06:28Z</time>
      </trkpt>
      <trkpt lat="48.72416" lon="-3.44992">
        <ele>-34</ele>
        <time>2015-11-03T13:06:32Z</time>
      </trkpt>
      <trkpt lat="48.72399" lon="-3.44996">
        <ele>-35</ele>
        <time>2015-11-03T13:06:35Z</time>
      </trkpt>
      <trkpt lat="48.72382" lon="-3.45002">
        <ele>-35</ele>
        <time>2015-11-03T13:06:39Z</time>
      </trkpt>
      <trkpt lat="48.72373" lon="-3.44987">
        <ele>-35</ele>
        <time>2015-11-03T13:06:44Z</time>
      </trkpt>
      <trkpt lat="48.7237" lon="-3.44971">
        <ele>-35</ele>
        <time>2015-11-03T13:06:47Z</time>
      </trkpt>
      <trkpt lat="48.7236" lon="-3.44947">
        <ele>-35</ele>
        <time>2015-11-03T13:06:51Z</time>
      </trkpt>
      <trkpt lat="48.72354" lon="-3.44934">
        <ele>-35</ele>
        <time>2015-11-03T13:06:53Z</time>
      </trkpt>
      <trkpt lat="48.72345" lon="-3.44916">
        <ele>-35</ele>
        <time>2015-11-03T13:06:56Z</time>
      </trkpt>
      <trkpt lat="48.72339" lon="-3.44899">
        <ele>-35</ele>
        <time>2015-11-03T13:06:59Z</time>
      </trkpt>
      <trkpt lat="48.72331" lon="-3.44873">
        <ele>-35</ele>
        <time>2015-11-03T13:07:04Z</time>
      </trkpt>
      <trkpt lat="48.72325" lon="-3.44852">
        <ele>-35</ele>
        <time>2015-11-03T13:07:08Z</time>
      </trkpt>
      <trkpt lat="48.72321" lon="-3.44826">
        <ele>-35</ele>
        <time>2015-11-03T13:07:13Z</time>
      </trkpt>
      <trkpt lat="48.72317" lon="-3.44797">
        <ele>-35</ele>
        <time>2015-11-03T13:07:18Z</time>
      </trkpt>
      <trkpt lat="48.72313" lon="-3.44772">
        <ele>-34</ele>
        <time>2015-11-03T13:07:22Z</time>
      </trkpt>
      <trkpt lat="48.72307" lon="-3.44709">
        <ele>-35</ele>
        <time>2015-11-03T13:07:31Z</time>
      </trkpt>
      <trkpt lat="48.72298" lon="-3.44672">
        <ele>-35</ele>
        <time>2015-11-03T13:07:36Z</time>
      </trkpt>
      <trkpt lat="48.7229" lon="-3.44644">
        <ele>-35</ele>
        <time>2015-11-03T13:07:40Z</time>
      </trkpt>
      <trkpt lat="48.72283" lon="-3.44623">
        <ele>-35</ele>
        <time>2015-11-03T13:07:43Z</time>
      </trkpt>
      <trkpt lat="48.72275" lon="-3.44595">
        <ele>-35</ele>
        <time>2015-11-03T13:07:47Z</time>
      </trkpt>
      <trkpt lat="48.72277" lon="-3.44567">
        <ele>-35</ele>
        <time>2015-11-03T13:07:52Z</time>
      </trkpt>
      <trkpt lat="48.7229" lon="-3.44556">
        <ele>-35</ele>
        <time>2015-11-03T13:07:56Z</time>
      </trkpt>
      <trkpt lat="48.72299" lon="-3.4453">
        <ele>-35</ele>
        <time>2015-11-03T13:08:01Z</time>
      </trkpt>
      <trkpt lat="48.72298" lon="-3.44504">
        <ele>-35</ele>
        <time>2015-11-03T13:08:05Z</time>
      </trkpt>
      <trkpt lat="48.72297" lon="-3.4449">
        <ele>-35</ele>
        <time>2015-11-03T13:08:07Z</time>
      </trkpt>
      <trkpt lat="48.72295" lon="-3.44475">
        <ele>-35</ele>
        <time>2015-11-03T13:08:09Z</time>
      </trkpt>
      <trkpt lat="48.72292" lon="-3.4446">
        <ele>-35</ele>
        <time>2015-11-03T13:08:11Z</time>
      </trkpt>
      <trkpt lat="48.72287" lon="-3.44438">
        <ele>-35</ele>
        <time>2015-11-03T13:08:14Z</time>
      </trkpt>
      <trkpt lat="48.72284" lon="-3.44423">
        <ele>-34</ele>
        <time>2015-11-03T13:08:16Z</time>
      </trkpt>
      <trkpt lat="48.72281" lon="-3.44409">
        <ele>-34</ele>
        <time>2015-11-03T13:08:18Z</time>
      </trkpt>
      <trkpt lat="48.72277" lon="-3.44395">
        <ele>-34</ele>
        <time>2015-11-03T13:08:20Z</time>
      </trkpt>
      <trkpt lat="48.7227" lon="-3.44368">
        <ele>-34</ele>
        <time>2015-11-03T13:08:24Z</time>
      </trkpt>
      <trkpt lat="48.72266" lon="-3.44354">
        <ele>-33</ele>
        <time>2015-11-03T13:08:26Z</time>
      </trkpt>
      <trkpt lat="48.72258" lon="-3.44326">
        <ele>-33</ele>
        <time>2015-11-03T13:08:30Z</time>
      </trkpt>
      <trkpt lat="48.72251" lon="-3.44306">
        <ele>-33</ele>
        <time>2015-11-03T13:08:33Z</time>
      </trkpt>
      <trkpt lat="48.72244" lon="-3.44278">
        <ele>-33</ele>
        <time>2015-11-03T13:08:37Z</time>
      </trkpt>
      <trkpt lat="48.72237" lon="-3.44251">
        <ele>-32</ele>
        <time>2015-11-03T13:08:41Z</time>
      </trkpt>
      <trkpt lat="48.72229" lon="-3.44226">
        <ele>-32</ele>
        <time>2015-11-03T13:08:45Z</time>
      </trkpt>
      <trkpt lat="48.72221" lon="-3.44203">
        <ele>-31</ele>
        <time>2015-11-03T13:08:49Z</time>
      </trkpt>
      <trkpt lat="48.72211" lon="-3.44183">
        <ele>-31</ele>
        <time>2015-11-03T13:08:53Z</time>
      </trkpt>
      <trkpt lat="48.72201" lon="-3.44162">
        <ele>-31</ele>
        <time>2015-11-03T13:08:57Z</time>
      </trkpt>
      <trkpt lat="48.7219" lon="-3.44142">
        <ele>-31</ele>
        <time>2015-11-03T13:09:01Z</time>
      </trkpt>
      <trkpt lat="48.72181" lon="-3.44122">
        <ele>-31</ele>
        <time>2015-11-03T13:09:05Z</time>
      </trkpt>
      <trkpt lat="48.72175" lon="-3.44106">
        <ele>-30</ele>
        <time>2015-11-03T13:09:08Z</time>
      </trkpt>
      <trkpt lat="48.72165" lon="-3.44081">
        <ele>-30</ele>
        <time>2015-11-03T13:09:13Z</time>
      </trkpt>
      <trkpt lat="48.72156" lon="-3.4406">
        <ele>-30</ele>
        <time>2015-11-03T13:09:17Z</time>
      </trkpt>
      <trkpt lat="48.72145" lon="-3.44038">
        <ele>-30</ele>
        <time>2015-11-03T13:09:22Z</time>
      </trkpt>
      <trkpt lat="48.72136" lon="-3.44019">
        <ele>-30</ele>
        <time>2015-11-03T13:09:26Z</time>
      </trkpt>
      <trkpt lat="48.7212" lon="-3.43991">
        <ele>-30</ele>
        <time>2015-11-03T13:09:31Z</time>
      </trkpt>
      <trkpt lat="48.72102" lon="-3.43963">
        <ele>-30</ele>
        <time>2015-11-03T13:09:36Z</time>
      </trkpt>
      <trkpt lat="48.72083" lon="-3.43937">
        <ele>-30</ele>
        <time>2015-11-03T13:09:40Z</time>
      </trkpt>
      <trkpt lat="48.72066" lon="-3.43911">
        <ele>-30</ele>
        <time>2015-11-03T13:09:44Z</time>
      </trkpt>
      <trkpt lat="48.72048" lon="-3.43878">
        <ele>-30</ele>
        <time>2015-11-03T13:09:49Z</time>
      </trkpt>
      <trkpt lat="48.72008" lon="-3.43762">
        <ele>-30</ele>
        <time>2015-11-03T13:10:07Z</time>
      </trkpt>
      <trkpt lat="48.71999" lon="-3.43734">
        <ele>-31</ele>
        <time>2015-11-03T13:10:11Z</time>
      </trkpt>
      <trkpt lat="48.71991" lon="-3.43708">
        <ele>-32</ele>
        <time>2015-11-03T13:10:15Z</time>
      </trkpt>
      <trkpt lat="48.71981" lon="-3.43681">
        <ele>-32</ele>
        <time>2015-11-03T13:10:20Z</time>
      </trkpt>
      <trkpt lat="48.71948" lon="-3.43569">
        <ele>-34</ele>
        <time>2015-11-03T13:10:39Z</time>
      </trkpt>
      <trkpt lat="48.7194" lon="-3.43542">
        <ele>-34</ele>
        <time>2015-11-03T13:10:43Z</time>
      </trkpt>
      <trkpt lat="48.71934" lon="-3.43517">
        <ele>-34</ele>
        <time>2015-11-03T13:10:47Z</time>
      </trkpt>
      <trkpt lat="48.71929" lon="-3.43487">
        <ele>-35</ele>
        <time>2015-11-03T13:10:53Z</time>
      </trkpt>
      <trkpt lat="48.71922" lon="-3.43463">
        <ele>-34</ele>
        <time>2015-11-03T13:10:58Z</time>
      </trkpt>
      <trkpt lat="48.71913" lon="-3.43438">
        <ele>-34</ele>
        <time>2015-11-03T13:11:03Z</time>
      </trkpt>
      <trkpt lat="48.71906" lon="-3.43417">
        <ele>-33</ele>
        <time>2015-11-03T13:11:07Z</time>
      </trkpt>
      <trkpt lat="48.71895" lon="-3.43389">
        <ele>-33</ele>
        <time>2015-11-03T13:11:13Z</time>
      </trkpt>
      <trkpt lat="48.71886" lon="-3.43364">
        <ele>-32</ele>
        <time>2015-11-03T13:11:18Z</time>
      </trkpt>
      <trkpt lat="48.71879" lon="-3.43342">
        <ele>-32</ele>
        <time>2015-11-03T13:11:22Z</time>
      </trkpt>
      <trkpt lat="48.71869" lon="-3.43318">
        <ele>-31</ele>
        <time>2015-11-03T13:11:26Z</time>
      </trkpt>
      <trkpt lat="48.71818" lon="-3.43161">
        <ele>-30</ele>
        <time>2015-11-03T13:11:51Z</time>
      </trkpt>
      <trkpt lat="48.71813" lon="-3.43135">
        <ele>-30</ele>
        <time>2015-11-03T13:11:55Z</time>
      </trkpt>
      <trkpt lat="48.71807" lon="-3.431">
        <ele>-31</ele>
        <time>2015-11-03T13:12:00Z</time>
      </trkpt>
      <trkpt lat="48.71801" lon="-3.43065">
        <ele>-31</ele>
        <time>2015-11-03T13:12:05Z</time>
      </trkpt>
      <trkpt lat="48.71796" lon="-3.43039">
        <ele>-32</ele>
        <time>2015-11-03T13:12:09Z</time>
      </trkpt>
      <trkpt lat="48.71792" lon="-3.43012">
        <ele>-32</ele>
        <time>2015-11-03T13:12:13Z</time>
      </trkpt>
      <trkpt lat="48.71789" lon="-3.42985">
        <ele>-32</ele>
        <time>2015-11-03T13:12:17Z</time>
      </trkpt>
      <trkpt lat="48.71786" lon="-3.42952">
        <ele>-32</ele>
        <time>2015-11-03T13:12:22Z</time>
      </trkpt>
      <trkpt lat="48.71785" lon="-3.42925">
        <ele>-32</ele>
        <time>2015-11-03T13:12:26Z</time>
      </trkpt>
      <trkpt lat="48.71783" lon="-3.4289">
        <ele>-32</ele>
        <time>2015-11-03T13:12:31Z</time>
      </trkpt>
      <trkpt lat="48.71777" lon="-3.42863">
        <ele>-31</ele>
        <time>2015-11-03T13:12:35Z</time>
      </trkpt>
      <trkpt lat="48.71767" lon="-3.42837">
        <ele>-31</ele>
        <time>2015-11-03T13:12:39Z</time>
      </trkpt>
      <trkpt lat="48.71753" lon="-3.42795">
        <ele>-30</ele>
        <time>2015-11-03T13:12:45Z</time>
      </trkpt>
      <trkpt lat="48.71744" lon="-3.42769">
        <ele>-29</ele>
        <time>2015-11-03T13:12:49Z</time>
      </trkpt>
      <trkpt lat="48.71732" lon="-3.42745">
        <ele>-29</ele>
        <time>2015-11-03T13:12:53Z</time>
      </trkpt>
      <trkpt lat="48.71717" lon="-3.42722">
        <ele>-27</ele>
        <time>2015-11-03T13:12:57Z</time>
      </trkpt>
      <trkpt lat="48.71652" lon="-3.42646">
        <ele>-27</ele>
        <time>2015-11-03T13:13:11Z</time>
      </trkpt>
      <trkpt lat="48.71627" lon="-3.42585">
        <ele>15.9</ele>
        <time>2015-11-03T13:13:20Z</time>
      </trkpt>
      <trkpt lat="48.71617" lon="-3.42552">
        <ele>-27</ele>
        <time>2015-11-03T13:13:24Z</time>
      </trkpt>
      <trkpt lat="48.71563" lon="-3.42329">
        <ele>13.3</ele>
        <time>2015-11-03T13:13:55Z</time>
      </trkpt>
      <trkpt lat="48.71512" lon="-3.42222">
        <ele>-30</ele>
        <time>2015-11-03T13:14:15Z</time>
      </trkpt>
      <trkpt lat="48.71495" lon="-3.42211">
        <ele>-30</ele>
        <time>2015-11-03T13:14:20Z</time>
      </trkpt>
      <trkpt lat="48.7148" lon="-3.42203">
        <ele>-30</ele>
        <time>2015-11-03T13:14:25Z</time>
      </trkpt>
      <trkpt lat="48.71445" lon="-3.4218">
        <ele>-30</ele>
        <time>2015-11-03T13:14:36Z</time>
      </trkpt>
      <trkpt lat="48.71431" lon="-3.42169">
        <ele>-29</ele>
        <time>2015-11-03T13:14:40Z</time>
      </trkpt>
      <trkpt lat="48.71417" lon="-3.42157">
        <ele>-29</ele>
        <time>2015-11-03T13:14:44Z</time>
      </trkpt>
      <trkpt lat="48.71391" lon="-3.42138">
        <ele>-28</ele>
        <time>2015-11-03T13:14:52Z</time>
      </trkpt>
      <trkpt lat="48.71377" lon="-3.42126">
        <ele>-27</ele>
        <time>2015-11-03T13:14:58Z</time>
      </trkpt>
      <trkpt lat="48.71358" lon="-3.42109">
        <ele>-26</ele>
        <time>2015-11-03T13:15:06Z</time>
      </trkpt>
      <trkpt lat="48.71343" lon="-3.42098">
        <ele>-25</ele>
        <time>2015-11-03T13:15:11Z</time>
      </trkpt>
      <trkpt lat="48.71328" lon="-3.42086">
        <ele>-24</ele>
        <time>2015-11-03T13:15:15Z</time>
      </trkpt>
      <trkpt lat="48.7131" lon="-3.42072">
        <ele>-23</ele>
        <time>2015-11-03T13:15:19Z</time>
      </trkpt>
      <trkpt lat="48.71297" lon="-3.4206">
        <ele>-23</ele>
        <time>2015-11-03T13:15:23Z</time>
      </trkpt>
      <trkpt lat="48.71282" lon="-3.42047">
        <ele>-22</ele>
        <time>2015-11-03T13:15:28Z</time>
      </trkpt>
      <trkpt lat="48.71287" lon="-3.42036">
        <ele>-21</ele>
        <time>2015-11-03T13:15:34Z</time>
      </trkpt>
      <trkpt lat="48.71297" lon="-3.4204">
        <ele>-20</ele>
        <time>2015-11-03T13:15:39Z</time>
      </trkpt>
      <trkpt lat="48.71306" lon="-3.42045">
        <ele>-20</ele>
        <time>2015-11-03T13:15:43Z</time>
      </trkpt>
      <trkpt lat="48.71322" lon="-3.42055">
        <ele>-19</ele>
        <time>2015-11-03T13:15:50Z</time>
      </trkpt>
      <trkpt lat="48.71338" lon="-3.42066">
        <ele>-19</ele>
        <time>2015-11-03T13:15:57Z</time>
      </trkpt>
      <trkpt lat="48.71357" lon="-3.42077">
        <ele>-19</ele>
        <time>2015-11-03T13:16:07Z</time>
      </trkpt>
      <trkpt lat="48.71388" lon="-3.42096">
        <ele>-20</ele>
        <time>2015-11-03T13:16:25Z</time>
      </trkpt>
      <trkpt lat="48.71402" lon="-3.4211">
        <ele>-19</ele>
        <time>2015-11-03T13:16:31Z</time>
      </trkpt>
      <trkpt lat="48.71413" lon="-3.4212">
        <ele>-19</ele>
        <time>2015-11-03T13:16:36Z</time>
      </trkpt>
      <trkpt lat="48.71422" lon="-3.42126">
        <ele>-19</ele>
        <time>2015-11-03T13:16:40Z</time>
      </trkpt>
      <trkpt lat="48.71437" lon="-3.42132">
        <ele>-19</ele>
        <time>2015-11-03T13:16:48Z</time>
      </trkpt>
      <trkpt lat="48.71447" lon="-3.42132">
        <ele>-19</ele>
        <time>2015-11-03T13:16:54Z</time>
      </trkpt>
      <trkpt lat="48.71456" lon="-3.42128">
        <ele>-18</ele>
        <time>2015-11-03T13:16:59Z</time>
      </trkpt>
      <trkpt lat="48.7147" lon="-3.42118">
        <ele>-18</ele>
        <time>2015-11-03T13:17:07Z</time>
      </trkpt>
      <trkpt lat="48.71482" lon="-3.42103">
        <ele>-17</ele>
        <time>2015-11-03T13:17:15Z</time>
      </trkpt>
      <trkpt lat="48.71488" lon="-3.42091">
        <ele>-17</ele>
        <time>2015-11-03T13:17:19Z</time>
      </trkpt>
      <trkpt lat="48.71498" lon="-3.42071">
        <ele>-17</ele>
        <time>2015-11-03T13:17:26Z</time>
      </trkpt>
      <trkpt lat="48.71503" lon="-3.42059">
        <ele>-16</ele>
        <time>2015-11-03T13:17:30Z</time>
      </trkpt>
      <trkpt lat="48.71507" lon="-3.42046">
        <ele>-16</ele>
        <time>2015-11-03T13:17:34Z</time>
      </trkpt>
      <trkpt lat="48.71511" lon="-3.42035">
        <ele>-15</ele>
        <time>2015-11-03T13:17:38Z</time>
      </trkpt>
      <trkpt lat="48.71515" lon="-3.42023">
        <ele>-15</ele>
        <time>2015-11-03T13:17:42Z</time>
      </trkpt>
      <trkpt lat="48.7152" lon="-3.42012">
        <ele>-14</ele>
        <time>2015-11-03T13:17:46Z</time>
      </trkpt>
      <trkpt lat="48.71524" lon="-3.42">
        <ele>-14</ele>
        <time>2015-11-03T13:17:50Z</time>
      </trkpt>
      <trkpt lat="48.71529" lon="-3.4199">
        <ele>-13</ele>
        <time>2015-11-03T13:17:54Z</time>
      </trkpt>
      <trkpt lat="48.71535" lon="-3.41979">
        <ele>-13</ele>
        <time>2015-11-03T13:17:58Z</time>
      </trkpt>
      <trkpt lat="48.71545" lon="-3.4196">
        <ele>-12</ele>
        <time>2015-11-03T13:18:06Z</time>
      </trkpt>
      <trkpt lat="48.71552" lon="-3.41948">
        <ele>-12</ele>
        <time>2015-11-03T13:18:12Z</time>
      </trkpt>
      <trkpt lat="48.71559" lon="-3.41939">
        <ele>-11</ele>
        <time>2015-11-03T13:18:17Z</time>
      </trkpt>
      <trkpt lat="48.7157" lon="-3.41925">
        <ele>-11</ele>
        <time>2015-11-03T13:18:24Z</time>
      </trkpt>
      <trkpt lat="48.7158" lon="-3.41916">
        <ele>-10</ele>
        <time>2015-11-03T13:18:29Z</time>
      </trkpt>
      <trkpt lat="48.71593" lon="-3.41912">
        <ele>-9</ele>
        <time>2015-11-03T13:18:35Z</time>
      </trkpt>
      <trkpt lat="48.71607" lon="-3.41914">
        <ele>-9</ele>
        <time>2015-11-03T13:18:42Z</time>
      </trkpt>
      <trkpt lat="48.71617" lon="-3.41917">
        <ele>-8</ele>
        <time>2015-11-03T13:18:47Z</time>
      </trkpt>
      <trkpt lat="48.71626" lon="-3.41919">
        <ele>-8</ele>
        <time>2015-11-03T13:18:51Z</time>
      </trkpt>
      <trkpt lat="48.71636" lon="-3.41919">
        <ele>-7</ele>
        <time>2015-11-03T13:18:55Z</time>
      </trkpt>
      <trkpt lat="48.71645" lon="-3.41917">
        <ele>-7</ele>
        <time>2015-11-03T13:18:59Z</time>
      </trkpt>
      <trkpt lat="48.7166" lon="-3.4191">
        <ele>-7</ele>
        <time>2015-11-03T13:19:06Z</time>
      </trkpt>
      <trkpt lat="48.71672" lon="-3.41904">
        <ele>-6</ele>
        <time>2015-11-03T13:19:12Z</time>
      </trkpt>
      <trkpt lat="48.71681" lon="-3.419">
        <ele>-6</ele>
        <time>2015-11-03T13:19:16Z</time>
      </trkpt>
      <trkpt lat="48.71689" lon="-3.41894">
        <ele>-6</ele>
        <time>2015-11-03T13:19:20Z</time>
      </trkpt>
      <trkpt lat="48.71696" lon="-3.41886">
        <ele>-5</ele>
        <time>2015-11-03T13:19:24Z</time>
      </trkpt>
      <trkpt lat="48.71702" lon="-3.41875">
        <ele>-5</ele>
        <time>2015-11-03T13:19:28Z</time>
      </trkpt>
      <trkpt lat="48.71707" lon="-3.41864">
        <ele>-5</ele>
        <time>2015-11-03T13:19:32Z</time>
      </trkpt>
      <trkpt lat="48.71711" lon="-3.41852">
        <ele>-4</ele>
        <time>2015-11-03T13:19:36Z</time>
      </trkpt>
      <trkpt lat="48.71715" lon="-3.4184">
        <ele>-3</ele>
        <time>2015-11-03T13:19:40Z</time>
      </trkpt>
      <trkpt lat="48.71717" lon="-3.41827">
        <ele>-3</ele>
        <time>2015-11-03T13:19:44Z</time>
      </trkpt>
      <trkpt lat="48.71719" lon="-3.41813">
        <ele>-2</ele>
        <time>2015-11-03T13:19:48Z</time>
      </trkpt>
      <trkpt lat="48.7172" lon="-3.418">
        <ele>-2</ele>
        <time>2015-11-03T13:19:52Z</time>
      </trkpt>
      <trkpt lat="48.71721" lon="-3.41787">
        <ele>-1</ele>
        <time>2015-11-03T13:19:56Z</time>
      </trkpt>
      <trkpt lat="48.71723" lon="-3.41774">
        <ele>-1</ele>
        <time>2015-11-03T13:20:00Z</time>
      </trkpt>
      <trkpt lat="48.71725" lon="-3.41762">
        <ele>48.1</ele>
        <time>2015-11-03T13:20:04Z</time>
      </trkpt>
      <trkpt lat="48.71728" lon="-3.41749">
        <ele>1</ele>
        <time>2015-11-03T13:20:08Z</time>
      </trkpt>
      <trkpt lat="48.71731" lon="-3.41736">
        <ele>1</ele>
        <time>2015-11-03T13:20:12Z</time>
      </trkpt>
      <trkpt lat="48.71734" lon="-3.41723">
        <ele>2</ele>
        <time>2015-11-03T13:20:16Z</time>
      </trkpt>
      <trkpt lat="48.71738" lon="-3.41711">
        <ele>2</ele>
        <time>2015-11-03T13:20:20Z</time>
      </trkpt>
      <trkpt lat="48.71744" lon="-3.41698">
        <ele>3</ele>
        <time>2015-11-03T13:20:25Z</time>
      </trkpt>
      <trkpt lat="48.7175" lon="-3.41688">
        <ele>3</ele>
        <time>2015-11-03T13:20:29Z</time>
      </trkpt>
      <trkpt lat="48.71756" lon="-3.4168">
        <ele>4</ele>
        <time>2015-11-03T13:20:33Z</time>
      </trkpt>
      <trkpt lat="48.71763" lon="-3.41672">
        <ele>4</ele>
        <time>2015-11-03T13:20:37Z</time>
      </trkpt>
      <trkpt lat="48.71776" lon="-3.41655">
        <ele>5</ele>
        <time>2015-11-03T13:20:45Z</time>
      </trkpt>
      <trkpt lat="48.71782" lon="-3.41645">
        <ele>5</ele>
        <time>2015-11-03T13:20:49Z</time>
      </trkpt>
      <trkpt lat="48.71788" lon="-3.41634">
        <ele>6</ele>
        <time>2015-11-03T13:20:53Z</time>
      </trkpt>
      <trkpt lat="48.71795" lon="-3.41614">
        <ele>7</ele>
        <time>2015-11-03T13:20:59Z</time>
      </trkpt>
      <trkpt lat="48.71798" lon="-3.4159">
        <ele>7</ele>
        <time>2015-11-03T13:21:05Z</time>
      </trkpt>
      <trkpt lat="48.71797" lon="-3.41574">
        <ele>8</ele>
        <time>2015-11-03T13:21:09Z</time>
      </trkpt>
      <trkpt lat="48.71795" lon="-3.41559">
        <ele>9</ele>
        <time>2015-11-03T13:21:13Z</time>
      </trkpt>
      <trkpt lat="48.71791" lon="-3.41544">
        <ele>9</ele>
        <time>2015-11-03T13:21:17Z</time>
      </trkpt>
      <trkpt lat="48.71788" lon="-3.4153">
        <ele>10</ele>
        <time>2015-11-03T13:21:21Z</time>
      </trkpt>
      <trkpt lat="48.71784" lon="-3.41511">
        <ele>11</ele>
        <time>2015-11-03T13:21:26Z</time>
      </trkpt>
      <trkpt lat="48.71783" lon="-3.4149">
        <ele>12</ele>
        <time>2015-11-03T13:21:32Z</time>
      </trkpt>
      <trkpt lat="48.71782" lon="-3.41476">
        <ele>13</ele>
        <time>2015-11-03T13:21:36Z</time>
      </trkpt>
      <trkpt lat="48.71778" lon="-3.41452">
        <ele>13</ele>
        <time>2015-11-03T13:21:43Z</time>
      </trkpt>
      <trkpt lat="48.71777" lon="-3.41438">
        <ele>14</ele>
        <time>2015-11-03T13:21:47Z</time>
      </trkpt>
      <trkpt lat="48.71775" lon="-3.41425">
        <ele>14</ele>
        <time>2015-11-03T13:21:51Z</time>
      </trkpt>
      <trkpt lat="48.71772" lon="-3.41413">
        <ele>15</ele>
        <time>2015-11-03T13:21:55Z</time>
      </trkpt>
      <trkpt lat="48.7177" lon="-3.41401">
        <ele>15</ele>
        <time>2015-11-03T13:21:59Z</time>
      </trkpt>
      <trkpt lat="48.71768" lon="-3.41389">
        <ele>16</ele>
        <time>2015-11-03T13:22:03Z</time>
      </trkpt>
      <trkpt lat="48.71766" lon="-3.41373">
        <ele>16</ele>
        <time>2015-11-03T13:22:08Z</time>
      </trkpt>
      <trkpt lat="48.71766" lon="-3.41358">
        <ele>17</ele>
        <time>2015-11-03T13:22:12Z</time>
      </trkpt>
      <trkpt lat="48.71766" lon="-3.41343">
        <ele>17</ele>
        <time>2015-11-03T13:22:15Z</time>
      </trkpt>
      <trkpt lat="48.71764" lon="-3.41317">
        <ele>17</ele>
        <time>2015-11-03T13:22:20Z</time>
      </trkpt>
      <trkpt lat="48.71756" lon="-3.41293">
        <ele>18</ele>
        <time>2015-11-03T13:22:25Z</time>
      </trkpt>
      <trkpt lat="48.7175" lon="-3.41279">
        <ele>18</ele>
        <time>2015-11-03T13:22:28Z</time>
      </trkpt>
      <trkpt lat="48.71743" lon="-3.41264">
        <ele>19</ele>
        <time>2015-11-03T13:22:32Z</time>
      </trkpt>
      <trkpt lat="48.71736" lon="-3.41246">
        <ele>20</ele>
        <time>2015-11-03T13:22:37Z</time>
      </trkpt>
      <trkpt lat="48.71731" lon="-3.41233">
        <ele>20</ele>
        <time>2015-11-03T13:22:41Z</time>
      </trkpt>
      <trkpt lat="48.71727" lon="-3.41221">
        <ele>21</ele>
        <time>2015-11-03T13:22:45Z</time>
      </trkpt>
      <trkpt lat="48.71722" lon="-3.4121">
        <ele>22</ele>
        <time>2015-11-03T13:22:49Z</time>
      </trkpt>
      <trkpt lat="48.71719" lon="-3.41198">
        <ele>22</ele>
        <time>2015-11-03T13:22:53Z</time>
      </trkpt>
      <trkpt lat="48.71716" lon="-3.41185">
        <ele>23</ele>
        <time>2015-11-03T13:22:57Z</time>
      </trkpt>
      <trkpt lat="48.71713" lon="-3.41169">
        <ele>23</ele>
        <time>2015-11-03T13:23:02Z</time>
      </trkpt>
      <trkpt lat="48.7171" lon="-3.41143">
        <ele>24</ele>
        <time>2015-11-03T13:23:10Z</time>
      </trkpt>
      <trkpt lat="48.71707" lon="-3.41131">
        <ele>24</ele>
        <time>2015-11-03T13:23:14Z</time>
      </trkpt>
      <trkpt lat="48.71705" lon="-3.41118">
        <ele>24</ele>
        <time>2015-11-03T13:23:18Z</time>
      </trkpt>
      <trkpt lat="48.71703" lon="-3.41101">
        <ele>25</ele>
        <time>2015-11-03T13:23:23Z</time>
      </trkpt>
      <trkpt lat="48.71701" lon="-3.41088">
        <ele>25</ele>
        <time>2015-11-03T13:23:27Z</time>
      </trkpt>
      <trkpt lat="48.71693" lon="-3.41075">
        <ele>25</ele>
        <time>2015-11-03T13:23:32Z</time>
      </trkpt>
      <trkpt lat="48.71681" lon="-3.41068">
        <ele>26</ele>
        <time>2015-11-03T13:23:40Z</time>
      </trkpt>
      <trkpt lat="48.71666" lon="-3.41056">
        <ele>26</ele>
        <time>2015-11-03T13:23:44Z</time>
      </trkpt>
      <trkpt lat="48.7166" lon="-3.41048">
        <ele>27</ele>
        <time>2015-11-03T13:23:46Z</time>
      </trkpt>
      <trkpt lat="48.71654" lon="-3.41039">
        <ele>27</ele>
        <time>2015-11-03T13:23:48Z</time>
      </trkpt>
      <trkpt lat="48.71644" lon="-3.41027">
        <ele>27</ele>
        <time>2015-11-03T13:23:51Z</time>
      </trkpt>
      <trkpt lat="48.71635" lon="-3.41018">
        <ele>28</ele>
        <time>2015-11-03T13:23:54Z</time>
      </trkpt>
      <trkpt lat="48.71625" lon="-3.4101">
        <ele>28</ele>
        <time>2015-11-03T13:23:57Z</time>
      </trkpt>
      <trkpt lat="48.71614" lon="-3.41003">
        <ele>29</ele>
        <time>2015-11-03T13:24:00Z</time>
      </trkpt>
      <trkpt lat="48.716" lon="-3.40989">
        <ele>29</ele>
        <time>2015-11-03T13:24:04Z</time>
      </trkpt>
      <trkpt lat="48.71594" lon="-3.4098">
        <ele>29</ele>
        <time>2015-11-03T13:24:06Z</time>
      </trkpt>
      <trkpt lat="48.71581" lon="-3.4096">
        <ele>30</ele>
        <time>2015-11-03T13:24:10Z</time>
      </trkpt>
      <trkpt lat="48.71568" lon="-3.40943">
        <ele>30</ele>
        <time>2015-11-03T13:24:14Z</time>
      </trkpt>
      <trkpt lat="48.71562" lon="-3.40934">
        <ele>30</ele>
        <time>2015-11-03T13:24:16Z</time>
      </trkpt>
      <trkpt lat="48.71556" lon="-3.40925">
        <ele>31</ele>
        <time>2015-11-03T13:24:18Z</time>
      </trkpt>
      <trkpt lat="48.7155" lon="-3.40915">
        <ele>31</ele>
        <time>2015-11-03T13:24:20Z</time>
      </trkpt>
      <trkpt lat="48.71542" lon="-3.40899">
        <ele>31</ele>
        <time>2015-11-03T13:24:23Z</time>
      </trkpt>
      <trkpt lat="48.71537" lon="-3.40889">
        <ele>32</ele>
        <time>2015-11-03T13:24:25Z</time>
      </trkpt>
      <trkpt lat="48.71527" lon="-3.40866">
        <ele>32</ele>
        <time>2015-11-03T13:24:29Z</time>
      </trkpt>
      <trkpt lat="48.71519" lon="-3.40848">
        <ele>32</ele>
        <time>2015-11-03T13:24:32Z</time>
      </trkpt>
      <trkpt lat="48.71513" lon="-3.40835">
        <ele>33</ele>
        <time>2015-11-03T13:24:34Z</time>
      </trkpt>
      <trkpt lat="48.71507" lon="-3.40823">
        <ele>33</ele>
        <time>2015-11-03T13:24:36Z</time>
      </trkpt>
      <trkpt lat="48.71499" lon="-3.40811">
        <ele>33</ele>
        <time>2015-11-03T13:24:38Z</time>
      </trkpt>
      <trkpt lat="48.71491" lon="-3.408">
        <ele>33</ele>
        <time>2015-11-03T13:24:40Z</time>
      </trkpt>
      <trkpt lat="48.71483" lon="-3.40789">
        <ele>33</ele>
        <time>2015-11-03T13:24:42Z</time>
      </trkpt>
      <trkpt lat="48.71475" lon="-3.40776">
        <ele>33</ele>
        <time>2015-11-03T13:24:44Z</time>
      </trkpt>
      <trkpt lat="48.71466" lon="-3.40751">
        <ele>33</ele>
        <time>2015-11-03T13:24:47Z</time>
      </trkpt>
      <trkpt lat="48.71461" lon="-3.40734">
        <ele>34</ele>
        <time>2015-11-03T13:24:49Z</time>
      </trkpt>
      <trkpt lat="48.71458" lon="-3.40717">
        <ele>34</ele>
        <time>2015-11-03T13:24:51Z</time>
      </trkpt>
      <trkpt lat="48.71454" lon="-3.40692">
        <ele>34</ele>
        <time>2015-11-03T13:24:54Z</time>
      </trkpt>
      <trkpt lat="48.71449" lon="-3.40665">
        <ele>34</ele>
        <time>2015-11-03T13:24:57Z</time>
      </trkpt>
      <trkpt lat="48.71444" lon="-3.40635">
        <ele>34</ele>
        <time>2015-11-03T13:25:00Z</time>
      </trkpt>
      <trkpt lat="48.71439" lon="-3.40603">
        <ele>34</ele>
        <time>2015-11-03T13:25:03Z</time>
      </trkpt>
      <trkpt lat="48.71434" lon="-3.4057">
        <ele>34</ele>
        <time>2015-11-03T13:25:06Z</time>
      </trkpt>
      <trkpt lat="48.7143" lon="-3.40536">
        <ele>34</ele>
        <time>2015-11-03T13:25:09Z</time>
      </trkpt>
      <trkpt lat="48.71427" lon="-3.40503">
        <ele>34</ele>
        <time>2015-11-03T13:25:12Z</time>
      </trkpt>
      <trkpt lat="48.71425" lon="-3.40481">
        <ele>34</ele>
        <time>2015-11-03T13:25:14Z</time>
      </trkpt>
      <trkpt lat="48.71423" lon="-3.40449">
        <ele>34</ele>
        <time>2015-11-03T13:25:17Z</time>
      </trkpt>
      <trkpt lat="48.71419" lon="-3.40419">
        <ele>34</ele>
        <time>2015-11-03T13:25:20Z</time>
      </trkpt>
      <trkpt lat="48.71414" lon="-3.40401">
        <ele>34</ele>
        <time>2015-11-03T13:25:22Z</time>
      </trkpt>
      <trkpt lat="48.71407" lon="-3.40386">
        <ele>34</ele>
        <time>2015-11-03T13:25:24Z</time>
      </trkpt>
      <trkpt lat="48.71392" lon="-3.40366">
        <ele>34</ele>
        <time>2015-11-03T13:25:28Z</time>
      </trkpt>
      <trkpt lat="48.71382" lon="-3.40357">
        <ele>34</ele>
        <time>2015-11-03T13:25:30Z</time>
      </trkpt>
      <trkpt lat="48.71372" lon="-3.4035">
        <ele>34</ele>
        <time>2015-11-03T13:25:32Z</time>
      </trkpt>
      <trkpt lat="48.71355" lon="-3.40336">
        <ele>34</ele>
        <time>2015-11-03T13:25:36Z</time>
      </trkpt>
      <trkpt lat="48.71339" lon="-3.40324">
        <ele>34</ele>
        <time>2015-11-03T13:25:40Z</time>
      </trkpt>
      <trkpt lat="48.71324" lon="-3.40313">
        <ele>33</ele>
        <time>2015-11-03T13:25:44Z</time>
      </trkpt>
      <trkpt lat="48.71317" lon="-3.40307">
        <ele>33</ele>
        <time>2015-11-03T13:25:46Z</time>
      </trkpt>
      <trkpt lat="48.71302" lon="-3.40297">
        <ele>33</ele>
        <time>2015-11-03T13:25:50Z</time>
      </trkpt>
      <trkpt lat="48.71287" lon="-3.40288">
        <ele>33</ele>
        <time>2015-11-03T13:25:54Z</time>
      </trkpt>
      <trkpt lat="48.71276" lon="-3.40283">
        <ele>33</ele>
        <time>2015-11-03T13:25:57Z</time>
      </trkpt>
      <trkpt lat="48.7126" lon="-3.40277">
        <ele>33</ele>
        <time>2015-11-03T13:26:01Z</time>
      </trkpt>
      <trkpt lat="48.71246" lon="-3.40274">
        <ele>33</ele>
        <time>2015-11-03T13:26:05Z</time>
      </trkpt>
      <trkpt lat="48.71232" lon="-3.40272">
        <ele>33</ele>
        <time>2015-11-03T13:26:09Z</time>
      </trkpt>
      <trkpt lat="48.71222" lon="-3.40272">
        <ele>33</ele>
        <time>2015-11-03T13:26:12Z</time>
      </trkpt>
      <trkpt lat="48.71213" lon="-3.40271">
        <ele>33</ele>
        <time>2015-11-03T13:26:15Z</time>
      </trkpt>
      <trkpt lat="48.71204" lon="-3.40269">
        <ele>33</ele>
        <time>2015-11-03T13:26:18Z</time>
      </trkpt>
      <trkpt lat="48.71186" lon="-3.40266">
        <ele>33</ele>
        <time>2015-11-03T13:26:24Z</time>
      </trkpt>
      <trkpt lat="48.71177" lon="-3.40265">
        <ele>33</ele>
        <time>2015-11-03T13:26:27Z</time>
      </trkpt>
      <trkpt lat="48.71168" lon="-3.40264">
        <ele>33</ele>
        <time>2015-11-03T13:26:30Z</time>
      </trkpt>
      <trkpt lat="48.7116" lon="-3.40262">
        <ele>33</ele>
        <time>2015-11-03T13:26:33Z</time>
      </trkpt>
      <trkpt lat="48.71151" lon="-3.40261">
        <ele>33</ele>
        <time>2015-11-03T13:26:36Z</time>
      </trkpt>
      <trkpt lat="48.71139" lon="-3.40256">
        <ele>32</ele>
        <time>2015-11-03T13:26:41Z</time>
      </trkpt>
      <trkpt lat="48.71132" lon="-3.4025">
        <ele>32</ele>
        <time>2015-11-03T13:26:45Z</time>
      </trkpt>
      <trkpt lat="48.71125" lon="-3.40241">
        <ele>31</ele>
        <time>2015-11-03T13:26:49Z</time>
      </trkpt>
      <trkpt lat="48.71118" lon="-3.40229">
        <ele>31</ele>
        <time>2015-11-03T13:26:54Z</time>
      </trkpt>
      <trkpt lat="48.71112" lon="-3.40216">
        <ele>31</ele>
        <time>2015-11-03T13:26:59Z</time>
      </trkpt>
      <trkpt lat="48.71106" lon="-3.40205">
        <ele>30</ele>
        <time>2015-11-03T13:27:04Z</time>
      </trkpt>
      <trkpt lat="48.71097" lon="-3.40202">
        <ele>31</ele>
        <time>2015-11-03T13:27:09Z</time>
      </trkpt>
      <trkpt lat="48.71089" lon="-3.4021">
        <ele>31</ele>
        <time>2015-11-03T13:27:13Z</time>
      </trkpt>
      <trkpt lat="48.7108" lon="-3.4022">
        <ele>31</ele>
        <time>2015-11-03T13:27:17Z</time>
      </trkpt>
      <trkpt lat="48.71073" lon="-3.40228">
        <ele>31</ele>
        <time>2015-11-03T13:27:20Z</time>
      </trkpt>
      <trkpt lat="48.71066" lon="-3.40235">
        <ele>31</ele>
        <time>2015-11-03T13:27:23Z</time>
      </trkpt>
      <trkpt lat="48.71059" lon="-3.40242">
        <ele>31</ele>
        <time>2015-11-03T13:27:26Z</time>
      </trkpt>
      <trkpt lat="48.71051" lon="-3.40247">
        <ele>32</ele>
        <time>2015-11-03T13:27:29Z</time>
      </trkpt>
      <trkpt lat="48.71043" lon="-3.40251">
        <ele>32</ele>
        <time>2015-11-03T13:27:32Z</time>
      </trkpt>
      <trkpt lat="48.71033" lon="-3.40256">
        <ele>32</ele>
        <time>2015-11-03T13:27:36Z</time>
      </trkpt>
      <trkpt lat="48.71022" lon="-3.4026">
        <ele>33</ele>
        <time>2015-11-03T13:27:40Z</time>
      </trkpt>
      <trkpt lat="48.71013" lon="-3.40262">
        <ele>33</ele>
        <time>2015-11-03T13:27:44Z</time>
      </trkpt>
      <trkpt lat="48.71003" lon="-3.40264">
        <ele>34</ele>
        <time>2015-11-03T13:27:48Z</time>
      </trkpt>
      <trkpt lat="48.70994" lon="-3.40265">
        <ele>34</ele>
        <time>2015-11-03T13:27:52Z</time>
      </trkpt>
      <trkpt lat="48.70986" lon="-3.40266">
        <ele>35</ele>
        <time>2015-11-03T13:27:56Z</time>
      </trkpt>
      <trkpt lat="48.70975" lon="-3.40267">
        <ele>35</ele>
        <time>2015-11-03T13:28:01Z</time>
      </trkpt>
      <trkpt lat="48.70966" lon="-3.40267">
        <ele>36</ele>
        <time>2015-11-03T13:28:05Z</time>
      </trkpt>
      <trkpt lat="48.70957" lon="-3.40266">
        <ele>36</ele>
        <time>2015-11-03T13:28:09Z</time>
      </trkpt>
      <trkpt lat="48.70947" lon="-3.40265">
        <ele>37</ele>
        <time>2015-11-03T13:28:13Z</time>
      </trkpt>
      <trkpt lat="48.70939" lon="-3.40264">
        <ele>37</ele>
        <time>2015-11-03T13:28:16Z</time>
      </trkpt>
      <trkpt lat="48.70929" lon="-3.40263">
        <ele>37</ele>
        <time>2015-11-03T13:28:19Z</time>
      </trkpt>
      <trkpt lat="48.70913" lon="-3.40262">
        <ele>38</ele>
        <time>2015-11-03T13:28:24Z</time>
      </trkpt>
      <trkpt lat="48.70903" lon="-3.40261">
        <ele>38</ele>
        <time>2015-11-03T13:28:27Z</time>
      </trkpt>
      <trkpt lat="48.70892" lon="-3.40259">
        <ele>38</ele>
        <time>2015-11-03T13:28:30Z</time>
      </trkpt>
      <trkpt lat="48.70881" lon="-3.40258">
        <ele>38</ele>
        <time>2015-11-03T13:28:33Z</time>
      </trkpt>
      <trkpt lat="48.7087" lon="-3.40256">
        <ele>38</ele>
        <time>2015-11-03T13:28:36Z</time>
      </trkpt>
      <trkpt lat="48.70859" lon="-3.40254">
        <ele>39</ele>
        <time>2015-11-03T13:28:39Z</time>
      </trkpt>
      <trkpt lat="48.70848" lon="-3.40252">
        <ele>39</ele>
        <time>2015-11-03T13:28:42Z</time>
      </trkpt>
      <trkpt lat="48.70838" lon="-3.4025">
        <ele>39</ele>
        <time>2015-11-03T13:28:45Z</time>
      </trkpt>
      <trkpt lat="48.70828" lon="-3.40248">
        <ele>39</ele>
        <time>2015-11-03T13:28:48Z</time>
      </trkpt>
      <trkpt lat="48.70818" lon="-3.40246">
        <ele>40</ele>
        <time>2015-11-03T13:28:51Z</time>
      </trkpt>
      <trkpt lat="48.70809" lon="-3.40244">
        <ele>40</ele>
        <time>2015-11-03T13:28:54Z</time>
      </trkpt>
      <trkpt lat="48.708" lon="-3.40242">
        <ele>40</ele>
        <time>2015-11-03T13:28:57Z</time>
      </trkpt>
      <trkpt lat="48.70791" lon="-3.4024">
        <ele>41</ele>
        <time>2015-11-03T13:29:00Z</time>
      </trkpt>
      <trkpt lat="48.70782" lon="-3.40238">
        <ele>41</ele>
        <time>2015-11-03T13:29:03Z</time>
      </trkpt>
      <trkpt lat="48.70772" lon="-3.40237">
        <ele>41</ele>
        <time>2015-11-03T13:29:06Z</time>
      </trkpt>
      <trkpt lat="48.7076" lon="-3.40235">
        <ele>41</ele>
        <time>2015-11-03T13:29:09Z</time>
      </trkpt>
      <trkpt lat="48.70752" lon="-3.40234">
        <ele>42</ele>
        <time>2015-11-03T13:29:11Z</time>
      </trkpt>
      <trkpt lat="48.70743" lon="-3.40233">
        <ele>42</ele>
        <time>2015-11-03T13:29:13Z</time>
      </trkpt>
      <trkpt lat="48.70733" lon="-3.4023">
        <ele>42</ele>
        <time>2015-11-03T13:29:15Z</time>
      </trkpt>
      <trkpt lat="48.70724" lon="-3.40227">
        <ele>42</ele>
        <time>2015-11-03T13:29:17Z</time>
      </trkpt>
      <trkpt lat="48.70715" lon="-3.40224">
        <ele>43</ele>
        <time>2015-11-03T13:29:19Z</time>
      </trkpt>
      <trkpt lat="48.70706" lon="-3.4022">
        <ele>43</ele>
        <time>2015-11-03T13:29:21Z</time>
      </trkpt>
      <trkpt lat="48.70697" lon="-3.40217">
        <ele>43</ele>
        <time>2015-11-03T13:29:23Z</time>
      </trkpt>
      <trkpt lat="48.70689" lon="-3.40213">
        <ele>43</ele>
        <time>2015-11-03T13:29:25Z</time>
      </trkpt>
      <trkpt lat="48.7068" lon="-3.4021">
        <ele>43</ele>
        <time>2015-11-03T13:29:27Z</time>
      </trkpt>
      <trkpt lat="48.70671" lon="-3.40208">
        <ele>44</ele>
        <time>2015-11-03T13:29:29Z</time>
      </trkpt>
      <trkpt lat="48.70661" lon="-3.40207">
        <ele>44</ele>
        <time>2015-11-03T13:29:31Z</time>
      </trkpt>
      <trkpt lat="48.70651" lon="-3.40206">
        <ele>44</ele>
        <time>2015-11-03T13:29:33Z</time>
      </trkpt>
      <trkpt lat="48.70641" lon="-3.40207">
        <ele>44</ele>
        <time>2015-11-03T13:29:35Z</time>
      </trkpt>
      <trkpt lat="48.70631" lon="-3.40208">
        <ele>44</ele>
        <time>2015-11-03T13:29:37Z</time>
      </trkpt>
      <trkpt lat="48.70621" lon="-3.40209">
        <ele>44</ele>
        <time>2015-11-03T13:29:39Z</time>
      </trkpt>
      <trkpt lat="48.70601" lon="-3.40211">
        <ele>44</ele>
        <time>2015-11-03T13:29:43Z</time>
      </trkpt>
      <trkpt lat="48.70589" lon="-3.40212">
        <ele>45</ele>
        <time>2015-11-03T13:29:45Z</time>
      </trkpt>
      <trkpt lat="48.70576" lon="-3.40214">
        <ele>45</ele>
        <time>2015-11-03T13:29:47Z</time>
      </trkpt>
      <trkpt lat="48.70564" lon="-3.40218">
        <ele>45</ele>
        <time>2015-11-03T13:29:49Z</time>
      </trkpt>
      <trkpt lat="48.70546" lon="-3.40224">
        <ele>45</ele>
        <time>2015-11-03T13:29:52Z</time>
      </trkpt>
      <trkpt lat="48.70529" lon="-3.4023">
        <ele>45</ele>
        <time>2015-11-03T13:29:55Z</time>
      </trkpt>
      <trkpt lat="48.70518" lon="-3.40234">
        <ele>45</ele>
        <time>2015-11-03T13:29:57Z</time>
      </trkpt>
      <trkpt lat="48.70501" lon="-3.40242">
        <ele>45</ele>
        <time>2015-11-03T13:30:00Z</time>
      </trkpt>
      <trkpt lat="48.70491" lon="-3.40248">
        <ele>45</ele>
        <time>2015-11-03T13:30:02Z</time>
      </trkpt>
      <trkpt lat="48.7048" lon="-3.40253">
        <ele>45</ele>
        <time>2015-11-03T13:30:04Z</time>
      </trkpt>
      <trkpt lat="48.70464" lon="-3.40261">
        <ele>45</ele>
        <time>2015-11-03T13:30:07Z</time>
      </trkpt>
      <trkpt lat="48.70453" lon="-3.40266">
        <ele>46</ele>
        <time>2015-11-03T13:30:09Z</time>
      </trkpt>
      <trkpt lat="48.70442" lon="-3.4027">
        <ele>46</ele>
        <time>2015-11-03T13:30:11Z</time>
      </trkpt>
      <trkpt lat="48.70431" lon="-3.40274">
        <ele>46</ele>
        <time>2015-11-03T13:30:13Z</time>
      </trkpt>
      <trkpt lat="48.7042" lon="-3.40277">
        <ele>46</ele>
        <time>2015-11-03T13:30:15Z</time>
      </trkpt>
      <trkpt lat="48.70403" lon="-3.40279">
        <ele>46</ele>
        <time>2015-11-03T13:30:18Z</time>
      </trkpt>
      <trkpt lat="48.70392" lon="-3.4028">
        <ele>46</ele>
        <time>2015-11-03T13:30:20Z</time>
      </trkpt>
      <trkpt lat="48.7038" lon="-3.4028">
        <ele>46</ele>
        <time>2015-11-03T13:30:22Z</time>
      </trkpt>
      <trkpt lat="48.70369" lon="-3.40281">
        <ele>47</ele>
        <time>2015-11-03T13:30:24Z</time>
      </trkpt>
      <trkpt lat="48.70353" lon="-3.40281">
        <ele>47</ele>
        <time>2015-11-03T13:30:27Z</time>
      </trkpt>
      <trkpt lat="48.70336" lon="-3.4028">
        <ele>47</ele>
        <time>2015-11-03T13:30:30Z</time>
      </trkpt>
      <trkpt lat="48.70324" lon="-3.40279">
        <ele>47</ele>
        <time>2015-11-03T13:30:32Z</time>
      </trkpt>
      <trkpt lat="48.70313" lon="-3.40278">
        <ele>47</ele>
        <time>2015-11-03T13:30:34Z</time>
      </trkpt>
      <trkpt lat="48.70296" lon="-3.40277">
        <ele>48</ele>
        <time>2015-11-03T13:30:37Z</time>
      </trkpt>
      <trkpt lat="48.70284" lon="-3.40277">
        <ele>48</ele>
        <time>2015-11-03T13:30:39Z</time>
      </trkpt>
      <trkpt lat="48.70273" lon="-3.40278">
        <ele>48</ele>
        <time>2015-11-03T13:30:41Z</time>
      </trkpt>
      <trkpt lat="48.70263" lon="-3.4028">
        <ele>48</ele>
        <time>2015-11-03T13:30:43Z</time>
      </trkpt>
      <trkpt lat="48.70252" lon="-3.40283">
        <ele>48</ele>
        <time>2015-11-03T13:30:45Z</time>
      </trkpt>
      <trkpt lat="48.70238" lon="-3.40288">
        <ele>48</ele>
        <time>2015-11-03T13:30:48Z</time>
      </trkpt>
      <trkpt lat="48.70227" lon="-3.40293">
        <ele>48</ele>
        <time>2015-11-03T13:30:51Z</time>
      </trkpt>
      <trkpt lat="48.70218" lon="-3.40297">
        <ele>48</ele>
        <time>2015-11-03T13:30:54Z</time>
      </trkpt>
      <trkpt lat="48.70209" lon="-3.40301">
        <ele>48</ele>
        <time>2015-11-03T13:30:57Z</time>
      </trkpt>
      <trkpt lat="48.70199" lon="-3.40305">
        <ele>49</ele>
        <time>2015-11-03T13:31:00Z</time>
      </trkpt>
      <trkpt lat="48.7019" lon="-3.40308">
        <ele>49</ele>
        <time>2015-11-03T13:31:03Z</time>
      </trkpt>
      <trkpt lat="48.70182" lon="-3.40311">
        <ele>49</ele>
        <time>2015-11-03T13:31:06Z</time>
      </trkpt>
      <trkpt lat="48.70173" lon="-3.40313">
        <ele>49</ele>
        <time>2015-11-03T13:31:09Z</time>
      </trkpt>
      <trkpt lat="48.70163" lon="-3.40314">
        <ele>49</ele>
        <time>2015-11-03T13:31:12Z</time>
      </trkpt>
      <trkpt lat="48.70154" lon="-3.40316">
        <ele>49</ele>
        <time>2015-11-03T13:31:15Z</time>
      </trkpt>
      <trkpt lat="48.70145" lon="-3.40317">
        <ele>49</ele>
        <time>2015-11-03T13:31:18Z</time>
      </trkpt>
      <trkpt lat="48.70129" lon="-3.40319">
        <ele>50</ele>
        <time>2015-11-03T13:31:23Z</time>
      </trkpt>
      <trkpt lat="48.7012" lon="-3.4032">
        <ele>50</ele>
        <time>2015-11-03T13:31:26Z</time>
      </trkpt>
      <trkpt lat="48.70111" lon="-3.40321">
        <ele>50</ele>
        <time>2015-11-03T13:31:29Z</time>
      </trkpt>
      <trkpt lat="48.70102" lon="-3.40321">
        <ele>50</ele>
        <time>2015-11-03T13:31:32Z</time>
      </trkpt>
      <trkpt lat="48.70092" lon="-3.40322">
        <ele>50</ele>
        <time>2015-11-03T13:31:35Z</time>
      </trkpt>
      <trkpt lat="48.7008" lon="-3.40322">
        <ele>50</ele>
        <time>2015-11-03T13:31:38Z</time>
      </trkpt>
      <trkpt lat="48.70068" lon="-3.40324">
        <ele>50</ele>
        <time>2015-11-03T13:31:41Z</time>
      </trkpt>
      <trkpt lat="48.70057" lon="-3.40326">
        <ele>50</ele>
        <time>2015-11-03T13:31:44Z</time>
      </trkpt>
      <trkpt lat="48.70038" lon="-3.40329">
        <ele>50</ele>
        <time>2015-11-03T13:31:49Z</time>
      </trkpt>
      <trkpt lat="48.70026" lon="-3.4033">
        <ele>50</ele>
        <time>2015-11-03T13:31:52Z</time>
      </trkpt>
      <trkpt lat="48.70015" lon="-3.40331">
        <ele>50</ele>
        <time>2015-11-03T13:31:55Z</time>
      </trkpt>
      <trkpt lat="48.70004" lon="-3.40333">
        <ele>50</ele>
        <time>2015-11-03T13:31:58Z</time>
      </trkpt>
      <trkpt lat="48.69993" lon="-3.40334">
        <ele>51</ele>
        <time>2015-11-03T13:32:01Z</time>
      </trkpt>
      <trkpt lat="48.69982" lon="-3.40334">
        <ele>51</ele>
        <time>2015-11-03T13:32:04Z</time>
      </trkpt>
      <trkpt lat="48.6997" lon="-3.40336">
        <ele>51</ele>
        <time>2015-11-03T13:32:07Z</time>
      </trkpt>
      <trkpt lat="48.69952" lon="-3.40338">
        <ele>51</ele>
        <time>2015-11-03T13:32:12Z</time>
      </trkpt>
      <trkpt lat="48.6994" lon="-3.40339">
        <ele>51</ele>
        <time>2015-11-03T13:32:15Z</time>
      </trkpt>
      <trkpt lat="48.69928" lon="-3.4034">
        <ele>52</ele>
        <time>2015-11-03T13:32:18Z</time>
      </trkpt>
      <trkpt lat="48.69913" lon="-3.40341">
        <ele>52</ele>
        <time>2015-11-03T13:32:22Z</time>
      </trkpt>
      <trkpt lat="48.699" lon="-3.40342">
        <ele>52</ele>
        <time>2015-11-03T13:32:25Z</time>
      </trkpt>
      <trkpt lat="48.69891" lon="-3.40342">
        <ele>52</ele>
        <time>2015-11-03T13:32:27Z</time>
      </trkpt>
      <trkpt lat="48.69872" lon="-3.40345">
        <ele>52</ele>
        <time>2015-11-03T13:32:31Z</time>
      </trkpt>
      <trkpt lat="48.69854" lon="-3.40351">
        <ele>52</ele>
        <time>2015-11-03T13:32:35Z</time>
      </trkpt>
      <trkpt lat="48.69845" lon="-3.40356">
        <ele>52</ele>
        <time>2015-11-03T13:32:37Z</time>
      </trkpt>
      <trkpt lat="48.69836" lon="-3.4036">
        <ele>53</ele>
        <time>2015-11-03T13:32:39Z</time>
      </trkpt>
      <trkpt lat="48.69818" lon="-3.40372">
        <ele>53</ele>
        <time>2015-11-03T13:32:43Z</time>
      </trkpt>
      <trkpt lat="48.698" lon="-3.40383">
        <ele>53</ele>
        <time>2015-11-03T13:32:47Z</time>
      </trkpt>
      <trkpt lat="48.69781" lon="-3.40392">
        <ele>54</ele>
        <time>2015-11-03T13:32:51Z</time>
      </trkpt>
      <trkpt lat="48.69771" lon="-3.40396">
        <ele>54</ele>
        <time>2015-11-03T13:32:53Z</time>
      </trkpt>
      <trkpt lat="48.69755" lon="-3.40401">
        <ele>54</ele>
        <time>2015-11-03T13:32:56Z</time>
      </trkpt>
      <trkpt lat="48.69743" lon="-3.40403">
        <ele>53</ele>
        <time>2015-11-03T13:32:58Z</time>
      </trkpt>
      <trkpt lat="48.6973" lon="-3.40405">
        <ele>53</ele>
        <time>2015-11-03T13:33:00Z</time>
      </trkpt>
      <trkpt lat="48.6971" lon="-3.40407">
        <ele>53</ele>
        <time>2015-11-03T13:33:03Z</time>
      </trkpt>
      <trkpt lat="48.69697" lon="-3.40407">
        <ele>53</ele>
        <time>2015-11-03T13:33:05Z</time>
      </trkpt>
      <trkpt lat="48.69684" lon="-3.40407">
        <ele>53</ele>
        <time>2015-11-03T13:33:07Z</time>
      </trkpt>
      <trkpt lat="48.6967" lon="-3.40408">
        <ele>53</ele>
        <time>2015-11-03T13:33:09Z</time>
      </trkpt>
      <trkpt lat="48.6965" lon="-3.40411">
        <ele>53</ele>
        <time>2015-11-03T13:33:12Z</time>
      </trkpt>
      <trkpt lat="48.6963" lon="-3.40414">
        <ele>53</ele>
        <time>2015-11-03T13:33:15Z</time>
      </trkpt>
      <trkpt lat="48.69618" lon="-3.40415">
        <ele>53</ele>
        <time>2015-11-03T13:33:17Z</time>
      </trkpt>
      <trkpt lat="48.69599" lon="-3.40414">
        <ele>53</ele>
        <time>2015-11-03T13:33:20Z</time>
      </trkpt>
      <trkpt lat="48.69586" lon="-3.40412">
        <ele>53</ele>
        <time>2015-11-03T13:33:22Z</time>
      </trkpt>
      <trkpt lat="48.69574" lon="-3.40408">
        <ele>53</ele>
        <time>2015-11-03T13:33:24Z</time>
      </trkpt>
      <trkpt lat="48.69561" lon="-3.40403">
        <ele>53</ele>
        <time>2015-11-03T13:33:26Z</time>
      </trkpt>
      <trkpt lat="48.69542" lon="-3.40397">
        <ele>53</ele>
        <time>2015-11-03T13:33:29Z</time>
      </trkpt>
      <trkpt lat="48.69517" lon="-3.40388">
        <ele>52</ele>
        <time>2015-11-03T13:33:33Z</time>
      </trkpt>
      <trkpt lat="48.69504" lon="-3.40384">
        <ele>52</ele>
        <time>2015-11-03T13:33:35Z</time>
      </trkpt>
      <trkpt lat="48.69486" lon="-3.4038">
        <ele>52</ele>
        <time>2015-11-03T13:33:38Z</time>
      </trkpt>
      <trkpt lat="48.69474" lon="-3.40378">
        <ele>52</ele>
        <time>2015-11-03T13:33:40Z</time>
      </trkpt>
      <trkpt lat="48.69463" lon="-3.40376">
        <ele>52</ele>
        <time>2015-11-03T13:33:42Z</time>
      </trkpt>
      <trkpt lat="48.69452" lon="-3.40376">
        <ele>52</ele>
        <time>2015-11-03T13:33:44Z</time>
      </trkpt>
      <trkpt lat="48.69436" lon="-3.40375">
        <ele>52</ele>
        <time>2015-11-03T13:33:47Z</time>
      </trkpt>
      <trkpt lat="48.69425" lon="-3.40375">
        <ele>51</ele>
        <time>2015-11-03T13:33:49Z</time>
      </trkpt>
      <trkpt lat="48.69408" lon="-3.40373">
        <ele>51</ele>
        <time>2015-11-03T13:33:52Z</time>
      </trkpt>
      <trkpt lat="48.69397" lon="-3.4037">
        <ele>51</ele>
        <time>2015-11-03T13:33:54Z</time>
      </trkpt>
      <trkpt lat="48.6938" lon="-3.40366">
        <ele>51</ele>
        <time>2015-11-03T13:33:57Z</time>
      </trkpt>
      <trkpt lat="48.69368" lon="-3.40362">
        <ele>51</ele>
        <time>2015-11-03T13:33:59Z</time>
      </trkpt>
      <trkpt lat="48.69357" lon="-3.40356">
        <ele>51</ele>
        <time>2015-11-03T13:34:01Z</time>
      </trkpt>
      <trkpt lat="48.69339" lon="-3.40347">
        <ele>51</ele>
        <time>2015-11-03T13:34:04Z</time>
      </trkpt>
      <trkpt lat="48.69328" lon="-3.40341">
        <ele>51</ele>
        <time>2015-11-03T13:34:06Z</time>
      </trkpt>
      <trkpt lat="48.69316" lon="-3.40334">
        <ele>50</ele>
        <time>2015-11-03T13:34:08Z</time>
      </trkpt>
      <trkpt lat="48.69304" lon="-3.40327">
        <ele>50</ele>
        <time>2015-11-03T13:34:10Z</time>
      </trkpt>
      <trkpt lat="48.69286" lon="-3.40313">
        <ele>50</ele>
        <time>2015-11-03T13:34:13Z</time>
      </trkpt>
      <trkpt lat="48.69275" lon="-3.40302">
        <ele>50</ele>
        <time>2015-11-03T13:34:15Z</time>
      </trkpt>
      <trkpt lat="48.69259" lon="-3.40283">
        <ele>50</ele>
        <time>2015-11-03T13:34:18Z</time>
      </trkpt>
      <trkpt lat="48.69243" lon="-3.40265">
        <ele>50</ele>
        <time>2015-11-03T13:34:21Z</time>
      </trkpt>
      <trkpt lat="48.69226" lon="-3.40248">
        <ele>50</ele>
        <time>2015-11-03T13:34:24Z</time>
      </trkpt>
      <trkpt lat="48.6921" lon="-3.40231">
        <ele>50</ele>
        <time>2015-11-03T13:34:27Z</time>
      </trkpt>
      <trkpt lat="48.69192" lon="-3.40214">
        <ele>50</ele>
        <time>2015-11-03T13:34:30Z</time>
      </trkpt>
      <trkpt lat="48.69181" lon="-3.40203">
        <ele>50</ele>
        <time>2015-11-03T13:34:32Z</time>
      </trkpt>
      <trkpt lat="48.69163" lon="-3.40189">
        <ele>49</ele>
        <time>2015-11-03T13:34:35Z</time>
      </trkpt>
      <trkpt lat="48.69144" lon="-3.40176">
        <ele>49</ele>
        <time>2015-11-03T13:34:38Z</time>
      </trkpt>
      <trkpt lat="48.69127" lon="-3.40163">
        <ele>49</ele>
        <time>2015-11-03T13:34:41Z</time>
      </trkpt>
      <trkpt lat="48.69109" lon="-3.40149">
        <ele>49</ele>
        <time>2015-11-03T13:34:44Z</time>
      </trkpt>
      <trkpt lat="48.69092" lon="-3.40135">
        <ele>49</ele>
        <time>2015-11-03T13:34:47Z</time>
      </trkpt>
      <trkpt lat="48.69082" lon="-3.40124">
        <ele>49</ele>
        <time>2015-11-03T13:34:49Z</time>
      </trkpt>
      <trkpt lat="48.69065" lon="-3.40109">
        <ele>48</ele>
        <time>2015-11-03T13:34:52Z</time>
      </trkpt>
      <trkpt lat="48.69049" lon="-3.40094">
        <ele>48</ele>
        <time>2015-11-03T13:34:55Z</time>
      </trkpt>
      <trkpt lat="48.69032" lon="-3.40079">
        <ele>48</ele>
        <time>2015-11-03T13:34:58Z</time>
      </trkpt>
      <trkpt lat="48.69015" lon="-3.40066">
        <ele>48</ele>
        <time>2015-11-03T13:35:01Z</time>
      </trkpt>
      <trkpt lat="48.68996" lon="-3.40055">
        <ele>48</ele>
        <time>2015-11-03T13:35:04Z</time>
      </trkpt>
      <trkpt lat="48.68978" lon="-3.40046">
        <ele>47</ele>
        <time>2015-11-03T13:35:07Z</time>
      </trkpt>
      <trkpt lat="48.68959" lon="-3.4004">
        <ele>47</ele>
        <time>2015-11-03T13:35:10Z</time>
      </trkpt>
      <trkpt lat="48.68942" lon="-3.40034">
        <ele>47</ele>
        <time>2015-11-03T13:35:13Z</time>
      </trkpt>
      <trkpt lat="48.68925" lon="-3.40029">
        <ele>47</ele>
        <time>2015-11-03T13:35:16Z</time>
      </trkpt>
      <trkpt lat="48.68908" lon="-3.40026">
        <ele>47</ele>
        <time>2015-11-03T13:35:19Z</time>
      </trkpt>
      <trkpt lat="48.68891" lon="-3.40024">
        <ele>47</ele>
        <time>2015-11-03T13:35:22Z</time>
      </trkpt>
      <trkpt lat="48.68881" lon="-3.40023">
        <ele>47</ele>
        <time>2015-11-03T13:35:24Z</time>
      </trkpt>
      <trkpt lat="48.68865" lon="-3.40022">
        <ele>46</ele>
        <time>2015-11-03T13:35:27Z</time>
      </trkpt>
      <trkpt lat="48.6885" lon="-3.40021">
        <ele>46</ele>
        <time>2015-11-03T13:35:30Z</time>
      </trkpt>
      <trkpt lat="48.6883" lon="-3.40016">
        <ele>46</ele>
        <time>2015-11-03T13:35:34Z</time>
      </trkpt>
      <trkpt lat="48.68811" lon="-3.40011">
        <ele>46</ele>
        <time>2015-11-03T13:35:38Z</time>
      </trkpt>
      <trkpt lat="48.68792" lon="-3.40004">
        <ele>46</ele>
        <time>2015-11-03T13:35:42Z</time>
      </trkpt>
      <trkpt lat="48.68774" lon="-3.39998">
        <ele>46</ele>
        <time>2015-11-03T13:35:46Z</time>
      </trkpt>
      <trkpt lat="48.68755" lon="-3.39991">
        <ele>45</ele>
        <time>2015-11-03T13:35:50Z</time>
      </trkpt>
      <trkpt lat="48.68736" lon="-3.39985">
        <ele>45</ele>
        <time>2015-11-03T13:35:54Z</time>
      </trkpt>
      <trkpt lat="48.68718" lon="-3.3998">
        <ele>45</ele>
        <time>2015-11-03T13:35:58Z</time>
      </trkpt>
      <trkpt lat="48.68699" lon="-3.39974">
        <ele>45</ele>
        <time>2015-11-03T13:36:02Z</time>
      </trkpt>
      <trkpt lat="48.6868" lon="-3.39969">
        <ele>45</ele>
        <time>2015-11-03T13:36:06Z</time>
      </trkpt>
      <trkpt lat="48.68671" lon="-3.39966">
        <ele>45</ele>
        <time>2015-11-03T13:36:08Z</time>
      </trkpt>
      <trkpt lat="48.68652" lon="-3.39959">
        <ele>45</ele>
        <time>2015-11-03T13:36:12Z</time>
      </trkpt>
      <trkpt lat="48.68633" lon="-3.39954">
        <ele>45</ele>
        <time>2015-11-03T13:36:16Z</time>
      </trkpt>
      <trkpt lat="48.68623" lon="-3.39951">
        <ele>45</ele>
        <time>2015-11-03T13:36:18Z</time>
      </trkpt>
      <trkpt lat="48.68603" lon="-3.39948">
        <ele>45</ele>
        <time>2015-11-03T13:36:22Z</time>
      </trkpt>
      <trkpt lat="48.68584" lon="-3.39947">
        <ele>45</ele>
        <time>2015-11-03T13:36:26Z</time>
      </trkpt>
      <trkpt lat="48.68574" lon="-3.39948">
        <ele>45</ele>
        <time>2015-11-03T13:36:28Z</time>
      </trkpt>
      <trkpt lat="48.68555" lon="-3.39952">
        <ele>45</ele>
        <time>2015-11-03T13:36:32Z</time>
      </trkpt>
      <trkpt lat="48.6854" lon="-3.39957">
        <ele>45</ele>
        <time>2015-11-03T13:36:35Z</time>
      </trkpt>
      <trkpt lat="48.6852" lon="-3.39963">
        <ele>45</ele>
        <time>2015-11-03T13:36:39Z</time>
      </trkpt>
      <trkpt lat="48.685" lon="-3.39969">
        <ele>45</ele>
        <time>2015-11-03T13:36:43Z</time>
      </trkpt>
      <trkpt lat="48.68481" lon="-3.39971">
        <ele>45</ele>
        <time>2015-11-03T13:36:47Z</time>
      </trkpt>
      <trkpt lat="48.68471" lon="-3.3997">
        <ele>45</ele>
        <time>2015-11-03T13:36:49Z</time>
      </trkpt>
      <trkpt lat="48.68443" lon="-3.39955">
        <ele>45</ele>
        <time>2015-11-03T13:36:55Z</time>
      </trkpt>
      <trkpt lat="48.68434" lon="-3.39947">
        <ele>45</ele>
        <time>2015-11-03T13:36:57Z</time>
      </trkpt>
      <trkpt lat="48.68421" lon="-3.39934">
        <ele>45</ele>
        <time>2015-11-03T13:37:00Z</time>
      </trkpt>
      <trkpt lat="48.68412" lon="-3.39926">
        <ele>44</ele>
        <time>2015-11-03T13:37:02Z</time>
      </trkpt>
      <trkpt lat="48.68395" lon="-3.39914">
        <ele>44</ele>
        <time>2015-11-03T13:37:06Z</time>
      </trkpt>
      <trkpt lat="48.68387" lon="-3.39909">
        <ele>44</ele>
        <time>2015-11-03T13:37:08Z</time>
      </trkpt>
      <trkpt lat="48.68377" lon="-3.39905">
        <ele>44</ele>
        <time>2015-11-03T13:37:10Z</time>
      </trkpt>
      <trkpt lat="48.68367" lon="-3.39901">
        <ele>44</ele>
        <time>2015-11-03T13:37:12Z</time>
      </trkpt>
      <trkpt lat="48.68356" lon="-3.39897">
        <ele>43</ele>
        <time>2015-11-03T13:37:14Z</time>
      </trkpt>
      <trkpt lat="48.68345" lon="-3.39894">
        <ele>43</ele>
        <time>2015-11-03T13:37:16Z</time>
      </trkpt>
      <trkpt lat="48.68334" lon="-3.3989">
        <ele>43</ele>
        <time>2015-11-03T13:37:18Z</time>
      </trkpt>
      <trkpt lat="48.68316" lon="-3.39884">
        <ele>43</ele>
        <time>2015-11-03T13:37:21Z</time>
      </trkpt>
      <trkpt lat="48.68299" lon="-3.39877">
        <ele>43</ele>
        <time>2015-11-03T13:37:24Z</time>
      </trkpt>
      <trkpt lat="48.68282" lon="-3.39871">
        <ele>42</ele>
        <time>2015-11-03T13:37:27Z</time>
      </trkpt>
      <trkpt lat="48.68265" lon="-3.39864">
        <ele>42</ele>
        <time>2015-11-03T13:37:30Z</time>
      </trkpt>
      <trkpt lat="48.68247" lon="-3.39855">
        <ele>42</ele>
        <time>2015-11-03T13:37:33Z</time>
      </trkpt>
      <trkpt lat="48.68231" lon="-3.39845">
        <ele>42</ele>
        <time>2015-11-03T13:37:36Z</time>
      </trkpt>
      <trkpt lat="48.68211" lon="-3.39828">
        <ele>42</ele>
        <time>2015-11-03T13:37:40Z</time>
      </trkpt>
      <trkpt lat="48.68197" lon="-3.39812">
        <ele>42</ele>
        <time>2015-11-03T13:37:43Z</time>
      </trkpt>
      <trkpt lat="48.68185" lon="-3.39795">
        <ele>42</ele>
        <time>2015-11-03T13:37:46Z</time>
      </trkpt>
      <trkpt lat="48.68172" lon="-3.39778">
        <ele>42</ele>
        <time>2015-11-03T13:37:49Z</time>
      </trkpt>
      <trkpt lat="48.6816" lon="-3.39763">
        <ele>42</ele>
        <time>2015-11-03T13:37:52Z</time>
      </trkpt>
      <trkpt lat="48.68152" lon="-3.39754">
        <ele>41</ele>
        <time>2015-11-03T13:37:54Z</time>
      </trkpt>
      <trkpt lat="48.68144" lon="-3.39746">
        <ele>41</ele>
        <time>2015-11-03T13:37:56Z</time>
      </trkpt>
      <trkpt lat="48.68132" lon="-3.39734">
        <ele>41</ele>
        <time>2015-11-03T13:37:59Z</time>
      </trkpt>
      <trkpt lat="48.68117" lon="-3.39718">
        <ele>41</ele>
        <time>2015-11-03T13:38:03Z</time>
      </trkpt>
      <trkpt lat="48.68109" lon="-3.39711">
        <ele>41</ele>
        <time>2015-11-03T13:38:05Z</time>
      </trkpt>
      <trkpt lat="48.68095" lon="-3.39699">
        <ele>41</ele>
        <time>2015-11-03T13:38:09Z</time>
      </trkpt>
      <trkpt lat="48.68079" lon="-3.39686">
        <ele>41</ele>
        <time>2015-11-03T13:38:14Z</time>
      </trkpt>
      <trkpt lat="48.68063" lon="-3.39673">
        <ele>41</ele>
        <time>2015-11-03T13:38:19Z</time>
      </trkpt>
      <trkpt lat="48.68054" lon="-3.39665">
        <ele>41</ele>
        <time>2015-11-03T13:38:22Z</time>
      </trkpt>
      <trkpt lat="48.68045" lon="-3.39657">
        <ele>41</ele>
        <time>2015-11-03T13:38:25Z</time>
      </trkpt>
      <trkpt lat="48.68036" lon="-3.3965">
        <ele>41</ele>
        <time>2015-11-03T13:38:28Z</time>
      </trkpt>
      <trkpt lat="48.68028" lon="-3.39643">
        <ele>41</ele>
        <time>2015-11-03T13:38:31Z</time>
      </trkpt>
      <trkpt lat="48.68017" lon="-3.39634">
        <ele>41</ele>
        <time>2015-11-03T13:38:35Z</time>
      </trkpt>
      <trkpt lat="48.68009" lon="-3.39628">
        <ele>41</ele>
        <time>2015-11-03T13:38:38Z</time>
      </trkpt>
      <trkpt lat="48.68001" lon="-3.39621">
        <ele>42</ele>
        <time>2015-11-03T13:38:41Z</time>
      </trkpt>
      <trkpt lat="48.67993" lon="-3.39615">
        <ele>42</ele>
        <time>2015-11-03T13:38:44Z</time>
      </trkpt>
      <trkpt lat="48.67985" lon="-3.39608">
        <ele>42</ele>
        <time>2015-11-03T13:38:47Z</time>
      </trkpt>
      <trkpt lat="48.67977" lon="-3.39602">
        <ele>42</ele>
        <time>2015-11-03T13:38:50Z</time>
      </trkpt>
      <trkpt lat="48.6796" lon="-3.39593">
        <ele>42</ele>
        <time>2015-11-03T13:38:56Z</time>
      </trkpt>
      <trkpt lat="48.6795" lon="-3.3959">
        <ele>42</ele>
        <time>2015-11-03T13:39:00Z</time>
      </trkpt>
      <trkpt lat="48.67941" lon="-3.39588">
        <ele>42</ele>
        <time>2015-11-03T13:39:04Z</time>
      </trkpt>
      <trkpt lat="48.67932" lon="-3.39586">
        <ele>42</ele>
        <time>2015-11-03T13:39:08Z</time>
      </trkpt>
      <trkpt lat="48.67923" lon="-3.39585">
        <ele>42</ele>
        <time>2015-11-03T13:39:12Z</time>
      </trkpt>
      <trkpt lat="48.6791" lon="-3.39584">
        <ele>43</ele>
        <time>2015-11-03T13:39:17Z</time>
      </trkpt>
      <trkpt lat="48.67901" lon="-3.39583">
        <ele>43</ele>
        <time>2015-11-03T13:39:20Z</time>
      </trkpt>
      <trkpt lat="48.67891" lon="-3.39581">
        <ele>42</ele>
        <time>2015-11-03T13:39:23Z</time>
      </trkpt>
      <trkpt lat="48.67882" lon="-3.3958">
        <ele>42</ele>
        <time>2015-11-03T13:39:25Z</time>
      </trkpt>
      <trkpt lat="48.67865" lon="-3.39578">
        <ele>42</ele>
        <time>2015-11-03T13:39:29Z</time>
      </trkpt>
      <trkpt lat="48.67856" lon="-3.39578">
        <ele>41</ele>
        <time>2015-11-03T13:39:31Z</time>
      </trkpt>
      <trkpt lat="48.67847" lon="-3.39579">
        <ele>41</ele>
        <time>2015-11-03T13:39:33Z</time>
      </trkpt>
      <trkpt lat="48.67832" lon="-3.39581">
        <ele>41</ele>
        <time>2015-11-03T13:39:36Z</time>
      </trkpt>
      <trkpt lat="48.67822" lon="-3.39581">
        <ele>40</ele>
        <time>2015-11-03T13:39:38Z</time>
      </trkpt>
      <trkpt lat="48.67813" lon="-3.39582">
        <ele>40</ele>
        <time>2015-11-03T13:39:40Z</time>
      </trkpt>
      <trkpt lat="48.67803" lon="-3.3958">
        <ele>40</ele>
        <time>2015-11-03T13:39:42Z</time>
      </trkpt>
      <trkpt lat="48.67794" lon="-3.39578">
        <ele>40</ele>
        <time>2015-11-03T13:39:44Z</time>
      </trkpt>
      <trkpt lat="48.67786" lon="-3.39575">
        <ele>40</ele>
        <time>2015-11-03T13:39:46Z</time>
      </trkpt>
      <trkpt lat="48.67777" lon="-3.39571">
        <ele>39</ele>
        <time>2015-11-03T13:39:48Z</time>
      </trkpt>
      <trkpt lat="48.67769" lon="-3.39567">
        <ele>39</ele>
        <time>2015-11-03T13:39:50Z</time>
      </trkpt>
      <trkpt lat="48.67761" lon="-3.39563">
        <ele>39</ele>
        <time>2015-11-03T13:39:52Z</time>
      </trkpt>
      <trkpt lat="48.67752" lon="-3.39559">
        <ele>39</ele>
        <time>2015-11-03T13:39:54Z</time>
      </trkpt>
      <trkpt lat="48.67744" lon="-3.39555">
        <ele>39</ele>
        <time>2015-11-03T13:39:56Z</time>
      </trkpt>
      <trkpt lat="48.67736" lon="-3.39552">
        <ele>39</ele>
        <time>2015-11-03T13:39:58Z</time>
      </trkpt>
      <trkpt lat="48.67724" lon="-3.39548">
        <ele>39</ele>
        <time>2015-11-03T13:40:01Z</time>
      </trkpt>
      <trkpt lat="48.67713" lon="-3.39545">
        <ele>39</ele>
        <time>2015-11-03T13:40:04Z</time>
      </trkpt>
      <trkpt lat="48.67702" lon="-3.39542">
        <ele>40</ele>
        <time>2015-11-03T13:40:07Z</time>
      </trkpt>
      <trkpt lat="48.67686" lon="-3.39537">
        <ele>40</ele>
        <time>2015-11-03T13:40:11Z</time>
      </trkpt>
      <trkpt lat="48.67675" lon="-3.39532">
        <ele>40</ele>
        <time>2015-11-03T13:40:14Z</time>
      </trkpt>
      <trkpt lat="48.67664" lon="-3.39526">
        <ele>40</ele>
        <time>2015-11-03T13:40:17Z</time>
      </trkpt>
      <trkpt lat="48.67654" lon="-3.3952">
        <ele>40</ele>
        <time>2015-11-03T13:40:20Z</time>
      </trkpt>
      <trkpt lat="48.6764" lon="-3.3951">
        <ele>41</ele>
        <time>2015-11-03T13:40:24Z</time>
      </trkpt>
      <trkpt lat="48.67629" lon="-3.39503">
        <ele>41</ele>
        <time>2015-11-03T13:40:27Z</time>
      </trkpt>
      <trkpt lat="48.67621" lon="-3.39498">
        <ele>41</ele>
        <time>2015-11-03T13:40:29Z</time>
      </trkpt>
      <trkpt lat="48.67612" lon="-3.39493">
        <ele>41</ele>
        <time>2015-11-03T13:40:31Z</time>
      </trkpt>
      <trkpt lat="48.67604" lon="-3.39488">
        <ele>42</ele>
        <time>2015-11-03T13:40:33Z</time>
      </trkpt>
      <trkpt lat="48.67595" lon="-3.39482">
        <ele>42</ele>
        <time>2015-11-03T13:40:35Z</time>
      </trkpt>
      <trkpt lat="48.67586" lon="-3.39477">
        <ele>42</ele>
        <time>2015-11-03T13:40:37Z</time>
      </trkpt>
      <trkpt lat="48.67576" lon="-3.39472">
        <ele>42</ele>
        <time>2015-11-03T13:40:39Z</time>
      </trkpt>
      <trkpt lat="48.67566" lon="-3.39467">
        <ele>42</ele>
        <time>2015-11-03T13:40:41Z</time>
      </trkpt>
      <trkpt lat="48.67556" lon="-3.39463">
        <ele>43</ele>
        <time>2015-11-03T13:40:43Z</time>
      </trkpt>
      <trkpt lat="48.67547" lon="-3.39459">
        <ele>43</ele>
        <time>2015-11-03T13:40:45Z</time>
      </trkpt>
      <trkpt lat="48.67537" lon="-3.39457">
        <ele>43</ele>
        <time>2015-11-03T13:40:47Z</time>
      </trkpt>
      <trkpt lat="48.67528" lon="-3.39455">
        <ele>43</ele>
        <time>2015-11-03T13:40:49Z</time>
      </trkpt>
      <trkpt lat="48.67514" lon="-3.39452">
        <ele>44</ele>
        <time>2015-11-03T13:40:52Z</time>
      </trkpt>
      <trkpt lat="48.67505" lon="-3.3945">
        <ele>44</ele>
        <time>2015-11-03T13:40:54Z</time>
      </trkpt>
      <trkpt lat="48.67497" lon="-3.39448">
        <ele>44</ele>
        <time>2015-11-03T13:40:56Z</time>
      </trkpt>
      <trkpt lat="48.6748" lon="-3.39442">
        <ele>45</ele>
        <time>2015-11-03T13:41:00Z</time>
      </trkpt>
      <trkpt lat="48.67465" lon="-3.39436">
        <ele>45</ele>
        <time>2015-11-03T13:41:04Z</time>
      </trkpt>
      <trkpt lat="48.6745" lon="-3.39428">
        <ele>45</ele>
        <time>2015-11-03T13:41:08Z</time>
      </trkpt>
      <trkpt lat="48.6744" lon="-3.39422">
        <ele>46</ele>
        <time>2015-11-03T13:41:11Z</time>
      </trkpt>
      <trkpt lat="48.6743" lon="-3.39415">
        <ele>46</ele>
        <time>2015-11-03T13:41:14Z</time>
      </trkpt>
      <trkpt lat="48.67419" lon="-3.39408">
        <ele>46</ele>
        <time>2015-11-03T13:41:17Z</time>
      </trkpt>
      <trkpt lat="48.67404" lon="-3.39401">
        <ele>46</ele>
        <time>2015-11-03T13:41:21Z</time>
      </trkpt>
      <trkpt lat="48.67389" lon="-3.39395">
        <ele>47</ele>
        <time>2015-11-03T13:41:25Z</time>
      </trkpt>
      <trkpt lat="48.67374" lon="-3.39389">
        <ele>47</ele>
        <time>2015-11-03T13:41:29Z</time>
      </trkpt>
      <trkpt lat="48.67362" lon="-3.39386">
        <ele>48</ele>
        <time>2015-11-03T13:41:32Z</time>
      </trkpt>
      <trkpt lat="48.67351" lon="-3.39384">
        <ele>48</ele>
        <time>2015-11-03T13:41:35Z</time>
      </trkpt>
      <trkpt lat="48.67339" lon="-3.39383">
        <ele>48</ele>
        <time>2015-11-03T13:41:38Z</time>
      </trkpt>
      <trkpt lat="48.6732" lon="-3.39385">
        <ele>49</ele>
        <time>2015-11-03T13:41:43Z</time>
      </trkpt>
      <trkpt lat="48.67302" lon="-3.39391">
        <ele>49</ele>
        <time>2015-11-03T13:41:48Z</time>
      </trkpt>
      <trkpt lat="48.67283" lon="-3.39399">
        <ele>49</ele>
        <time>2015-11-03T13:41:53Z</time>
      </trkpt>
      <trkpt lat="48.67273" lon="-3.39405">
        <ele>49</ele>
        <time>2015-11-03T13:41:56Z</time>
      </trkpt>
      <trkpt lat="48.67262" lon="-3.3941">
        <ele>50</ele>
        <time>2015-11-03T13:41:59Z</time>
      </trkpt>
      <trkpt lat="48.67251" lon="-3.39415">
        <ele>50</ele>
        <time>2015-11-03T13:42:02Z</time>
      </trkpt>
      <trkpt lat="48.67239" lon="-3.39419">
        <ele>50</ele>
        <time>2015-11-03T13:42:05Z</time>
      </trkpt>
      <trkpt lat="48.67228" lon="-3.39421">
        <ele>50</ele>
        <time>2015-11-03T13:42:08Z</time>
      </trkpt>
      <trkpt lat="48.67213" lon="-3.39425">
        <ele>51</ele>
        <time>2015-11-03T13:42:12Z</time>
      </trkpt>
      <trkpt lat="48.67201" lon="-3.39427">
        <ele>51</ele>
        <time>2015-11-03T13:42:15Z</time>
      </trkpt>
      <trkpt lat="48.67189" lon="-3.39429">
        <ele>51</ele>
        <time>2015-11-03T13:42:18Z</time>
      </trkpt>
      <trkpt lat="48.67178" lon="-3.39431">
        <ele>51</ele>
        <time>2015-11-03T13:42:21Z</time>
      </trkpt>
      <trkpt lat="48.67167" lon="-3.39433">
        <ele>51</ele>
        <time>2015-11-03T13:42:24Z</time>
      </trkpt>
      <trkpt lat="48.67155" lon="-3.39435">
        <ele>52</ele>
        <time>2015-11-03T13:42:27Z</time>
      </trkpt>
      <trkpt lat="48.67143" lon="-3.39437">
        <ele>52</ele>
        <time>2015-11-03T13:42:30Z</time>
      </trkpt>
      <trkpt lat="48.67131" lon="-3.3944">
        <ele>52</ele>
        <time>2015-11-03T13:42:33Z</time>
      </trkpt>
      <trkpt lat="48.67119" lon="-3.39443">
        <ele>52</ele>
        <time>2015-11-03T13:42:36Z</time>
      </trkpt>
      <trkpt lat="48.67111" lon="-3.39445">
        <ele>52</ele>
        <time>2015-11-03T13:42:38Z</time>
      </trkpt>
      <trkpt lat="48.67103" lon="-3.39446">
        <ele>52</ele>
        <time>2015-11-03T13:42:40Z</time>
      </trkpt>
      <trkpt lat="48.67094" lon="-3.39449">
        <ele>52</ele>
        <time>2015-11-03T13:42:42Z</time>
      </trkpt>
      <trkpt lat="48.67086" lon="-3.39452">
        <ele>53</ele>
        <time>2015-11-03T13:42:44Z</time>
      </trkpt>
      <trkpt lat="48.67077" lon="-3.39455">
        <ele>53</ele>
        <time>2015-11-03T13:42:46Z</time>
      </trkpt>
      <trkpt lat="48.67069" lon="-3.39458">
        <ele>53</ele>
        <time>2015-11-03T13:42:48Z</time>
      </trkpt>
      <trkpt lat="48.6706" lon="-3.39463">
        <ele>53</ele>
        <time>2015-11-03T13:42:50Z</time>
      </trkpt>
      <trkpt lat="48.67052" lon="-3.39469">
        <ele>53</ele>
        <time>2015-11-03T13:42:52Z</time>
      </trkpt>
      <trkpt lat="48.67045" lon="-3.3948">
        <ele>53</ele>
        <time>2015-11-03T13:42:54Z</time>
      </trkpt>
      <trkpt lat="48.67038" lon="-3.39492">
        <ele>53</ele>
        <time>2015-11-03T13:42:56Z</time>
      </trkpt>
      <trkpt lat="48.67032" lon="-3.39504">
        <ele>54</ele>
        <time>2015-11-03T13:42:58Z</time>
      </trkpt>
      <trkpt lat="48.67027" lon="-3.39517">
        <ele>54</ele>
        <time>2015-11-03T13:43:00Z</time>
      </trkpt>
      <trkpt lat="48.67022" lon="-3.3953">
        <ele>54</ele>
        <time>2015-11-03T13:43:02Z</time>
      </trkpt>
      <trkpt lat="48.67017" lon="-3.39542">
        <ele>54</ele>
        <time>2015-11-03T13:43:04Z</time>
      </trkpt>
      <trkpt lat="48.67009" lon="-3.39559">
        <ele>54</ele>
        <time>2015-11-03T13:43:07Z</time>
      </trkpt>
      <trkpt lat="48.67002" lon="-3.39568">
        <ele>54</ele>
        <time>2015-11-03T13:43:09Z</time>
      </trkpt>
      <trkpt lat="48.66993" lon="-3.39571">
        <ele>55</ele>
        <time>2015-11-03T13:43:11Z</time>
      </trkpt>
      <trkpt lat="48.66984" lon="-3.39572">
        <ele>55</ele>
        <time>2015-11-03T13:43:13Z</time>
      </trkpt>
      <trkpt lat="48.66976" lon="-3.39573">
        <ele>55</ele>
        <time>2015-11-03T13:43:15Z</time>
      </trkpt>
      <trkpt lat="48.66968" lon="-3.39575">
        <ele>55</ele>
        <time>2015-11-03T13:43:17Z</time>
      </trkpt>
      <trkpt lat="48.6696" lon="-3.39578">
        <ele>56</ele>
        <time>2015-11-03T13:43:19Z</time>
      </trkpt>
      <trkpt lat="48.66948" lon="-3.39585">
        <ele>56</ele>
        <time>2015-11-03T13:43:22Z</time>
      </trkpt>
      <trkpt lat="48.66937" lon="-3.3959">
        <ele>56</ele>
        <time>2015-11-03T13:43:25Z</time>
      </trkpt>
      <trkpt lat="48.66926" lon="-3.39596">
        <ele>57</ele>
        <time>2015-11-03T13:43:28Z</time>
      </trkpt>
      <trkpt lat="48.66915" lon="-3.39602">
        <ele>57</ele>
        <time>2015-11-03T13:43:31Z</time>
      </trkpt>
      <trkpt lat="48.66904" lon="-3.39607">
        <ele>57</ele>
        <time>2015-11-03T13:43:34Z</time>
      </trkpt>
      <trkpt lat="48.66894" lon="-3.39612">
        <ele>58</ele>
        <time>2015-11-03T13:43:37Z</time>
      </trkpt>
      <trkpt lat="48.66884" lon="-3.39622">
        <ele>58</ele>
        <time>2015-11-03T13:43:40Z</time>
      </trkpt>
      <trkpt lat="48.66876" lon="-3.39635">
        <ele>58</ele>
        <time>2015-11-03T13:43:43Z</time>
      </trkpt>
      <trkpt lat="48.66869" lon="-3.3965">
        <ele>58</ele>
        <time>2015-11-03T13:43:46Z</time>
      </trkpt>
      <trkpt lat="48.66864" lon="-3.39661">
        <ele>58</ele>
        <time>2015-11-03T13:43:48Z</time>
      </trkpt>
      <trkpt lat="48.66858" lon="-3.39676">
        <ele>58</ele>
        <time>2015-11-03T13:43:51Z</time>
      </trkpt>
      <trkpt lat="48.66849" lon="-3.39689">
        <ele>58</ele>
        <time>2015-11-03T13:43:54Z</time>
      </trkpt>
      <trkpt lat="48.66839" lon="-3.39698">
        <ele>58</ele>
        <time>2015-11-03T13:43:57Z</time>
      </trkpt>
      <trkpt lat="48.66828" lon="-3.39703">
        <ele>57</ele>
        <time>2015-11-03T13:44:00Z</time>
      </trkpt>
      <trkpt lat="48.66816" lon="-3.39707">
        <ele>57</ele>
        <time>2015-11-03T13:44:03Z</time>
      </trkpt>
      <trkpt lat="48.66805" lon="-3.3971">
        <ele>57</ele>
        <time>2015-11-03T13:44:06Z</time>
      </trkpt>
      <trkpt lat="48.66793" lon="-3.39713">
        <ele>57</ele>
        <time>2015-11-03T13:44:09Z</time>
      </trkpt>
      <trkpt lat="48.66783" lon="-3.39716">
        <ele>57</ele>
        <time>2015-11-03T13:44:12Z</time>
      </trkpt>
      <trkpt lat="48.66774" lon="-3.39718">
        <ele>57</ele>
        <time>2015-11-03T13:44:15Z</time>
      </trkpt>
      <trkpt lat="48.66766" lon="-3.39721">
        <ele>57</ele>
        <time>2015-11-03T13:44:18Z</time>
      </trkpt>
      <trkpt lat="48.66758" lon="-3.39723">
        <ele>58</ele>
        <time>2015-11-03T13:44:21Z</time>
      </trkpt>
      <trkpt lat="48.66749" lon="-3.39726">
        <ele>58</ele>
        <time>2015-11-03T13:44:24Z</time>
      </trkpt>
      <trkpt lat="48.6674" lon="-3.39729">
        <ele>58</ele>
        <time>2015-11-03T13:44:27Z</time>
      </trkpt>
      <trkpt lat="48.66731" lon="-3.39732">
        <ele>58</ele>
        <time>2015-11-03T13:44:30Z</time>
      </trkpt>
      <trkpt lat="48.66722" lon="-3.39734">
        <ele>59</ele>
        <time>2015-11-03T13:44:33Z</time>
      </trkpt>
      <trkpt lat="48.6671" lon="-3.39737">
        <ele>59</ele>
        <time>2015-11-03T13:44:37Z</time>
      </trkpt>
      <trkpt lat="48.66692" lon="-3.39739">
        <ele>59</ele>
        <time>2015-11-03T13:44:43Z</time>
      </trkpt>
      <trkpt lat="48.66683" lon="-3.39738">
        <ele>59</ele>
        <time>2015-11-03T13:44:46Z</time>
      </trkpt>
      <trkpt lat="48.66665" lon="-3.39734">
        <ele>59</ele>
        <time>2015-11-03T13:44:52Z</time>
      </trkpt>
      <trkpt lat="48.66649" lon="-3.39729">
        <ele>59</ele>
        <time>2015-11-03T13:44:58Z</time>
      </trkpt>
      <trkpt lat="48.66635" lon="-3.39724">
        <ele>59</ele>
        <time>2015-11-03T13:45:03Z</time>
      </trkpt>
      <trkpt lat="48.66619" lon="-3.39717">
        <ele>60</ele>
        <time>2015-11-03T13:45:09Z</time>
      </trkpt>
      <trkpt lat="48.66603" lon="-3.39712">
        <ele>60</ele>
        <time>2015-11-03T13:45:14Z</time>
      </trkpt>
      <trkpt lat="48.66585" lon="-3.39708">
        <ele>60</ele>
        <time>2015-11-03T13:45:19Z</time>
      </trkpt>
      <trkpt lat="48.66574" lon="-3.39706">
        <ele>61</ele>
        <time>2015-11-03T13:45:22Z</time>
      </trkpt>
      <trkpt lat="48.66556" lon="-3.39705">
        <ele>61</ele>
        <time>2015-11-03T13:45:27Z</time>
      </trkpt>
      <trkpt lat="48.66545" lon="-3.39703">
        <ele>62</ele>
        <time>2015-11-03T13:45:30Z</time>
      </trkpt>
      <trkpt lat="48.66535" lon="-3.39703">
        <ele>62</ele>
        <time>2015-11-03T13:45:33Z</time>
      </trkpt>
      <trkpt lat="48.66517" lon="-3.39703">
        <ele>62</ele>
        <time>2015-11-03T13:45:38Z</time>
      </trkpt>
      <trkpt lat="48.66499" lon="-3.39703">
        <ele>63</ele>
        <time>2015-11-03T13:45:43Z</time>
      </trkpt>
      <trkpt lat="48.66487" lon="-3.39703">
        <ele>63</ele>
        <time>2015-11-03T13:45:46Z</time>
      </trkpt>
      <trkpt lat="48.66479" lon="-3.39705">
        <ele>64</ele>
        <time>2015-11-03T13:45:48Z</time>
      </trkpt>
      <trkpt lat="48.66471" lon="-3.39707">
        <ele>64</ele>
        <time>2015-11-03T13:45:50Z</time>
      </trkpt>
      <trkpt lat="48.66462" lon="-3.39709">
        <ele>64</ele>
        <time>2015-11-03T13:45:52Z</time>
      </trkpt>
      <trkpt lat="48.66449" lon="-3.39713">
        <ele>64</ele>
        <time>2015-11-03T13:45:55Z</time>
      </trkpt>
      <trkpt lat="48.66441" lon="-3.39714">
        <ele>65</ele>
        <time>2015-11-03T13:45:57Z</time>
      </trkpt>
      <trkpt lat="48.66432" lon="-3.39715">
        <ele>65</ele>
        <time>2015-11-03T13:45:59Z</time>
      </trkpt>
      <trkpt lat="48.66423" lon="-3.39715">
        <ele>65</ele>
        <time>2015-11-03T13:46:01Z</time>
      </trkpt>
      <trkpt lat="48.66405" lon="-3.39712">
        <ele>65</ele>
        <time>2015-11-03T13:46:05Z</time>
      </trkpt>
      <trkpt lat="48.66397" lon="-3.3971">
        <ele>66</ele>
        <time>2015-11-03T13:46:07Z</time>
      </trkpt>
      <trkpt lat="48.66388" lon="-3.39707">
        <ele>66</ele>
        <time>2015-11-03T13:46:09Z</time>
      </trkpt>
      <trkpt lat="48.66371" lon="-3.39701">
        <ele>66</ele>
        <time>2015-11-03T13:46:13Z</time>
      </trkpt>
      <trkpt lat="48.66362" lon="-3.39698">
        <ele>66</ele>
        <time>2015-11-03T13:46:15Z</time>
      </trkpt>
      <trkpt lat="48.66345" lon="-3.39693">
        <ele>66</ele>
        <time>2015-11-03T13:46:19Z</time>
      </trkpt>
      <trkpt lat="48.66337" lon="-3.3969">
        <ele>67</ele>
        <time>2015-11-03T13:46:21Z</time>
      </trkpt>
      <trkpt lat="48.6632" lon="-3.39684">
        <ele>67</ele>
        <time>2015-11-03T13:46:25Z</time>
      </trkpt>
      <trkpt lat="48.6631" lon="-3.3968">
        <ele>67</ele>
        <time>2015-11-03T13:46:27Z</time>
      </trkpt>
      <trkpt lat="48.66301" lon="-3.39677">
        <ele>67</ele>
        <time>2015-11-03T13:46:29Z</time>
      </trkpt>
      <trkpt lat="48.66291" lon="-3.39673">
        <ele>68</ele>
        <time>2015-11-03T13:46:31Z</time>
      </trkpt>
      <trkpt lat="48.66281" lon="-3.3967">
        <ele>68</ele>
        <time>2015-11-03T13:46:33Z</time>
      </trkpt>
      <trkpt lat="48.66271" lon="-3.39666">
        <ele>68</ele>
        <time>2015-11-03T13:46:35Z</time>
      </trkpt>
      <trkpt lat="48.66255" lon="-3.39659">
        <ele>68</ele>
        <time>2015-11-03T13:46:38Z</time>
      </trkpt>
      <trkpt lat="48.66243" lon="-3.39654">
        <ele>68</ele>
        <time>2015-11-03T13:46:40Z</time>
      </trkpt>
      <trkpt lat="48.66232" lon="-3.39649">
        <ele>68</ele>
        <time>2015-11-03T13:46:42Z</time>
      </trkpt>
      <trkpt lat="48.66215" lon="-3.39642">
        <ele>68</ele>
        <time>2015-11-03T13:46:45Z</time>
      </trkpt>
      <trkpt lat="48.66199" lon="-3.39633">
        <ele>68</ele>
        <time>2015-11-03T13:46:48Z</time>
      </trkpt>
      <trkpt lat="48.66183" lon="-3.39626">
        <ele>69</ele>
        <time>2015-11-03T13:46:51Z</time>
      </trkpt>
      <trkpt lat="48.66167" lon="-3.39619">
        <ele>69</ele>
        <time>2015-11-03T13:46:54Z</time>
      </trkpt>
      <trkpt lat="48.66152" lon="-3.39611">
        <ele>69</ele>
        <time>2015-11-03T13:46:57Z</time>
      </trkpt>
      <trkpt lat="48.66137" lon="-3.39603">
        <ele>69</ele>
        <time>2015-11-03T13:47:00Z</time>
      </trkpt>
      <trkpt lat="48.66121" lon="-3.39593">
        <ele>69</ele>
        <time>2015-11-03T13:47:03Z</time>
      </trkpt>
      <trkpt lat="48.66104" lon="-3.39589">
        <ele>69</ele>
        <time>2015-11-03T13:47:06Z</time>
      </trkpt>
      <trkpt lat="48.66088" lon="-3.39586">
        <ele>70</ele>
        <time>2015-11-03T13:47:09Z</time>
      </trkpt>
      <trkpt lat="48.66072" lon="-3.39581">
        <ele>70</ele>
        <time>2015-11-03T13:47:12Z</time>
      </trkpt>
      <trkpt lat="48.66061" lon="-3.39577">
        <ele>70</ele>
        <time>2015-11-03T13:47:14Z</time>
      </trkpt>
      <trkpt lat="48.66045" lon="-3.39572">
        <ele>70</ele>
        <time>2015-11-03T13:47:17Z</time>
      </trkpt>
      <trkpt lat="48.66029" lon="-3.39566">
        <ele>70</ele>
        <time>2015-11-03T13:47:20Z</time>
      </trkpt>
      <trkpt lat="48.66018" lon="-3.39562">
        <ele>70</ele>
        <time>2015-11-03T13:47:22Z</time>
      </trkpt>
      <trkpt lat="48.66007" lon="-3.39558">
        <ele>70</ele>
        <time>2015-11-03T13:47:24Z</time>
      </trkpt>
      <trkpt lat="48.65992" lon="-3.39552">
        <ele>70</ele>
        <time>2015-11-03T13:47:27Z</time>
      </trkpt>
      <trkpt lat="48.65976" lon="-3.39545">
        <ele>70</ele>
        <time>2015-11-03T13:47:30Z</time>
      </trkpt>
      <trkpt lat="48.65966" lon="-3.3954">
        <ele>70</ele>
        <time>2015-11-03T13:47:32Z</time>
      </trkpt>
      <trkpt lat="48.65951" lon="-3.39532">
        <ele>71</ele>
        <time>2015-11-03T13:47:35Z</time>
      </trkpt>
      <trkpt lat="48.65935" lon="-3.39525">
        <ele>71</ele>
        <time>2015-11-03T13:47:38Z</time>
      </trkpt>
      <trkpt lat="48.6592" lon="-3.39518">
        <ele>71</ele>
        <time>2015-11-03T13:47:41Z</time>
      </trkpt>
      <trkpt lat="48.65905" lon="-3.39512">
        <ele>71</ele>
        <time>2015-11-03T13:47:44Z</time>
      </trkpt>
      <trkpt lat="48.65889" lon="-3.39506">
        <ele>71</ele>
        <time>2015-11-03T13:47:47Z</time>
      </trkpt>
      <trkpt lat="48.65874" lon="-3.395">
        <ele>71</ele>
        <time>2015-11-03T13:47:50Z</time>
      </trkpt>
      <trkpt lat="48.65854" lon="-3.39494">
        <ele>72</ele>
        <time>2015-11-03T13:47:54Z</time>
      </trkpt>
      <trkpt lat="48.65834" lon="-3.39488">
        <ele>72</ele>
        <time>2015-11-03T13:47:58Z</time>
      </trkpt>
      <trkpt lat="48.65824" lon="-3.39486">
        <ele>72</ele>
        <time>2015-11-03T13:48:00Z</time>
      </trkpt>
      <trkpt lat="48.65814" lon="-3.39484">
        <ele>72</ele>
        <time>2015-11-03T13:48:02Z</time>
      </trkpt>
      <trkpt lat="48.65804" lon="-3.39482">
        <ele>72</ele>
        <time>2015-11-03T13:48:04Z</time>
      </trkpt>
      <trkpt lat="48.65794" lon="-3.39481">
        <ele>72</ele>
        <time>2015-11-03T13:48:06Z</time>
      </trkpt>
      <trkpt lat="48.65774" lon="-3.39479">
        <ele>73</ele>
        <time>2015-11-03T13:48:10Z</time>
      </trkpt>
      <trkpt lat="48.65759" lon="-3.39478">
        <ele>73</ele>
        <time>2015-11-03T13:48:13Z</time>
      </trkpt>
      <trkpt lat="48.65739" lon="-3.39478">
        <ele>73</ele>
        <time>2015-11-03T13:48:17Z</time>
      </trkpt>
      <trkpt lat="48.65724" lon="-3.39479">
        <ele>73</ele>
        <time>2015-11-03T13:48:20Z</time>
      </trkpt>
      <trkpt lat="48.65714" lon="-3.39481">
        <ele>73</ele>
        <time>2015-11-03T13:48:22Z</time>
      </trkpt>
      <trkpt lat="48.65703" lon="-3.39482">
        <ele>73</ele>
        <time>2015-11-03T13:48:24Z</time>
      </trkpt>
      <trkpt lat="48.65693" lon="-3.39483">
        <ele>73</ele>
        <time>2015-11-03T13:48:26Z</time>
      </trkpt>
      <trkpt lat="48.65683" lon="-3.39483">
        <ele>73</ele>
        <time>2015-11-03T13:48:28Z</time>
      </trkpt>
      <trkpt lat="48.65672" lon="-3.39483">
        <ele>73</ele>
        <time>2015-11-03T13:48:30Z</time>
      </trkpt>
      <trkpt lat="48.65656" lon="-3.39483">
        <ele>73</ele>
        <time>2015-11-03T13:48:33Z</time>
      </trkpt>
      <trkpt lat="48.6564" lon="-3.39482">
        <ele>73</ele>
        <time>2015-11-03T13:48:36Z</time>
      </trkpt>
      <trkpt lat="48.65625" lon="-3.39481">
        <ele>74</ele>
        <time>2015-11-03T13:48:39Z</time>
      </trkpt>
      <trkpt lat="48.6561" lon="-3.39478">
        <ele>74</ele>
        <time>2015-11-03T13:48:42Z</time>
      </trkpt>
      <trkpt lat="48.65599" lon="-3.39475">
        <ele>74</ele>
        <time>2015-11-03T13:48:44Z</time>
      </trkpt>
      <trkpt lat="48.65589" lon="-3.39472">
        <ele>74</ele>
        <time>2015-11-03T13:48:46Z</time>
      </trkpt>
      <trkpt lat="48.65578" lon="-3.39469">
        <ele>74</ele>
        <time>2015-11-03T13:48:48Z</time>
      </trkpt>
      <trkpt lat="48.65568" lon="-3.39468">
        <ele>74</ele>
        <time>2015-11-03T13:48:50Z</time>
      </trkpt>
      <trkpt lat="48.65557" lon="-3.39469">
        <ele>74</ele>
        <time>2015-11-03T13:48:52Z</time>
      </trkpt>
      <trkpt lat="48.65546" lon="-3.3947">
        <ele>74</ele>
        <time>2015-11-03T13:48:54Z</time>
      </trkpt>
      <trkpt lat="48.65535" lon="-3.39474">
        <ele>74</ele>
        <time>2015-11-03T13:48:56Z</time>
      </trkpt>
      <trkpt lat="48.65524" lon="-3.39479">
        <ele>74</ele>
        <time>2015-11-03T13:48:58Z</time>
      </trkpt>
      <trkpt lat="48.65514" lon="-3.39485">
        <ele>74</ele>
        <time>2015-11-03T13:49:00Z</time>
      </trkpt>
      <trkpt lat="48.65498" lon="-3.39493">
        <ele>74</ele>
        <time>2015-11-03T13:49:03Z</time>
      </trkpt>
      <trkpt lat="48.65488" lon="-3.39497">
        <ele>74</ele>
        <time>2015-11-03T13:49:05Z</time>
      </trkpt>
      <trkpt lat="48.65472" lon="-3.39502">
        <ele>73</ele>
        <time>2015-11-03T13:49:08Z</time>
      </trkpt>
      <trkpt lat="48.65462" lon="-3.39503">
        <ele>73</ele>
        <time>2015-11-03T13:49:10Z</time>
      </trkpt>
      <trkpt lat="48.65442" lon="-3.39504">
        <ele>73</ele>
        <time>2015-11-03T13:49:14Z</time>
      </trkpt>
      <trkpt lat="48.65422" lon="-3.395">
        <ele>73</ele>
        <time>2015-11-03T13:49:18Z</time>
      </trkpt>
      <trkpt lat="48.65403" lon="-3.39494">
        <ele>73</ele>
        <time>2015-11-03T13:49:22Z</time>
      </trkpt>
      <trkpt lat="48.65384" lon="-3.39489">
        <ele>73</ele>
        <time>2015-11-03T13:49:26Z</time>
      </trkpt>
      <trkpt lat="48.65365" lon="-3.39484">
        <ele>73</ele>
        <time>2015-11-03T13:49:30Z</time>
      </trkpt>
      <trkpt lat="48.65347" lon="-3.3948">
        <ele>73</ele>
        <time>2015-11-03T13:49:34Z</time>
      </trkpt>
      <trkpt lat="48.65329" lon="-3.39476">
        <ele>73</ele>
        <time>2015-11-03T13:49:38Z</time>
      </trkpt>
      <trkpt lat="48.65315" lon="-3.39473">
        <ele>73</ele>
        <time>2015-11-03T13:49:41Z</time>
      </trkpt>
      <trkpt lat="48.653" lon="-3.3947">
        <ele>73</ele>
        <time>2015-11-03T13:49:44Z</time>
      </trkpt>
      <trkpt lat="48.65291" lon="-3.39468">
        <ele>73</ele>
        <time>2015-11-03T13:49:46Z</time>
      </trkpt>
      <trkpt lat="48.65281" lon="-3.39466">
        <ele>73</ele>
        <time>2015-11-03T13:49:48Z</time>
      </trkpt>
      <trkpt lat="48.65261" lon="-3.39461">
        <ele>73</ele>
        <time>2015-11-03T13:49:52Z</time>
      </trkpt>
      <trkpt lat="48.65241" lon="-3.39457">
        <ele>73</ele>
        <time>2015-11-03T13:49:56Z</time>
      </trkpt>
      <trkpt lat="48.65231" lon="-3.39454">
        <ele>73</ele>
        <time>2015-11-03T13:49:58Z</time>
      </trkpt>
      <trkpt lat="48.65221" lon="-3.39451">
        <ele>73</ele>
        <time>2015-11-03T13:50:00Z</time>
      </trkpt>
      <trkpt lat="48.65201" lon="-3.39447">
        <ele>73</ele>
        <time>2015-11-03T13:50:04Z</time>
      </trkpt>
      <trkpt lat="48.65181" lon="-3.39442">
        <ele>73</ele>
        <time>2015-11-03T13:50:08Z</time>
      </trkpt>
      <trkpt lat="48.65166" lon="-3.39437">
        <ele>74</ele>
        <time>2015-11-03T13:50:11Z</time>
      </trkpt>
      <trkpt lat="48.65156" lon="-3.39434">
        <ele>73</ele>
        <time>2015-11-03T13:50:13Z</time>
      </trkpt>
      <trkpt lat="48.65146" lon="-3.39431">
        <ele>73</ele>
        <time>2015-11-03T13:50:15Z</time>
      </trkpt>
      <trkpt lat="48.65132" lon="-3.39426">
        <ele>73</ele>
        <time>2015-11-03T13:50:18Z</time>
      </trkpt>
      <trkpt lat="48.65124" lon="-3.39423">
        <ele>73</ele>
        <time>2015-11-03T13:50:20Z</time>
      </trkpt>
      <trkpt lat="48.6511" lon="-3.39418">
        <ele>73</ele>
        <time>2015-11-03T13:50:23Z</time>
      </trkpt>
      <trkpt lat="48.65102" lon="-3.39415">
        <ele>73</ele>
        <time>2015-11-03T13:50:25Z</time>
      </trkpt>
      <trkpt lat="48.65084" lon="-3.3941">
        <ele>73</ele>
        <time>2015-11-03T13:50:29Z</time>
      </trkpt>
      <trkpt lat="48.65066" lon="-3.39406">
        <ele>73</ele>
        <time>2015-11-03T13:50:33Z</time>
      </trkpt>
      <trkpt lat="48.65047" lon="-3.39402">
        <ele>72</ele>
        <time>2015-11-03T13:50:37Z</time>
      </trkpt>
      <trkpt lat="48.65038" lon="-3.394">
        <ele>72</ele>
        <time>2015-11-03T13:50:39Z</time>
      </trkpt>
      <trkpt lat="48.65024" lon="-3.39399">
        <ele>72</ele>
        <time>2015-11-03T13:50:42Z</time>
      </trkpt>
      <trkpt lat="48.65016" lon="-3.39399">
        <ele>72</ele>
        <time>2015-11-03T13:50:44Z</time>
      </trkpt>
      <trkpt lat="48.65004" lon="-3.39397">
        <ele>72</ele>
        <time>2015-11-03T13:50:47Z</time>
      </trkpt>
      <trkpt lat="48.64996" lon="-3.39389">
        <ele>72</ele>
        <time>2015-11-03T13:50:50Z</time>
      </trkpt>
      <trkpt lat="48.64997" lon="-3.39373">
        <ele>72</ele>
        <time>2015-11-03T13:50:53Z</time>
      </trkpt>
      <trkpt lat="48.65001" lon="-3.39347">
        <ele>72</ele>
        <time>2015-11-03T13:50:57Z</time>
      </trkpt>
      <trkpt lat="48.65003" lon="-3.39332">
        <ele>72</ele>
        <time>2015-11-03T13:50:59Z</time>
      </trkpt>
      <trkpt lat="48.65005" lon="-3.39316">
        <ele>71</ele>
        <time>2015-11-03T13:51:01Z</time>
      </trkpt>
      <trkpt lat="48.65006" lon="-3.393">
        <ele>71</ele>
        <time>2015-11-03T13:51:03Z</time>
      </trkpt>
      <trkpt lat="48.65008" lon="-3.39284">
        <ele>71</ele>
        <time>2015-11-03T13:51:05Z</time>
      </trkpt>
      <trkpt lat="48.6501" lon="-3.39269">
        <ele>71</ele>
        <time>2015-11-03T13:51:07Z</time>
      </trkpt>
      <trkpt lat="48.65012" lon="-3.39253">
        <ele>71</ele>
        <time>2015-11-03T13:51:09Z</time>
      </trkpt>
      <trkpt lat="48.65015" lon="-3.3923">
        <ele>71</ele>
        <time>2015-11-03T13:51:12Z</time>
      </trkpt>
      <trkpt lat="48.65017" lon="-3.39214">
        <ele>71</ele>
        <time>2015-11-03T13:51:14Z</time>
      </trkpt>
      <trkpt lat="48.65019" lon="-3.39199">
        <ele>71</ele>
        <time>2015-11-03T13:51:16Z</time>
      </trkpt>
      <trkpt lat="48.65021" lon="-3.39184">
        <ele>71</ele>
        <time>2015-11-03T13:51:18Z</time>
      </trkpt>
      <trkpt lat="48.65023" lon="-3.3917">
        <ele>71</ele>
        <time>2015-11-03T13:51:20Z</time>
      </trkpt>
      <trkpt lat="48.65024" lon="-3.39155">
        <ele>71</ele>
        <time>2015-11-03T13:51:22Z</time>
      </trkpt>
      <trkpt lat="48.65028" lon="-3.39127">
        <ele>71</ele>
        <time>2015-11-03T13:51:26Z</time>
      </trkpt>
      <trkpt lat="48.65031" lon="-3.39097">
        <ele>71</ele>
        <time>2015-11-03T13:51:30Z</time>
      </trkpt>
      <trkpt lat="48.65032" lon="-3.39082">
        <ele>71</ele>
        <time>2015-11-03T13:51:32Z</time>
      </trkpt>
      <trkpt lat="48.65033" lon="-3.39067">
        <ele>71</ele>
        <time>2015-11-03T13:51:34Z</time>
      </trkpt>
      <trkpt lat="48.65034" lon="-3.39043">
        <ele>71</ele>
        <time>2015-11-03T13:51:37Z</time>
      </trkpt>
      <trkpt lat="48.65032" lon="-3.3902">
        <ele>71</ele>
        <time>2015-11-03T13:51:40Z</time>
      </trkpt>
      <trkpt lat="48.6503" lon="-3.38996">
        <ele>71</ele>
        <time>2015-11-03T13:51:43Z</time>
      </trkpt>
      <trkpt lat="48.65025" lon="-3.38973">
        <ele>71</ele>
        <time>2015-11-03T13:51:46Z</time>
      </trkpt>
      <trkpt lat="48.6502" lon="-3.3895">
        <ele>72</ele>
        <time>2015-11-03T13:51:49Z</time>
      </trkpt>
      <trkpt lat="48.65011" lon="-3.38929">
        <ele>72</ele>
        <time>2015-11-03T13:51:52Z</time>
      </trkpt>
      <trkpt lat="48.65" lon="-3.38912">
        <ele>72</ele>
        <time>2015-11-03T13:51:55Z</time>
      </trkpt>
      <trkpt lat="48.64983" lon="-3.38895">
        <ele>72</ele>
        <time>2015-11-03T13:51:59Z</time>
      </trkpt>
      <trkpt lat="48.64965" lon="-3.38881">
        <ele>72</ele>
        <time>2015-11-03T13:52:03Z</time>
      </trkpt>
      <trkpt lat="48.64947" lon="-3.38867">
        <ele>72</ele>
        <time>2015-11-03T13:52:07Z</time>
      </trkpt>
      <trkpt lat="48.64929" lon="-3.38854">
        <ele>72</ele>
        <time>2015-11-03T13:52:11Z</time>
      </trkpt>
      <trkpt lat="48.64912" lon="-3.38841">
        <ele>72</ele>
        <time>2015-11-03T13:52:15Z</time>
      </trkpt>
      <trkpt lat="48.64899" lon="-3.38832">
        <ele>72</ele>
        <time>2015-11-03T13:52:18Z</time>
      </trkpt>
      <trkpt lat="48.64891" lon="-3.38826">
        <ele>73</ele>
        <time>2015-11-03T13:52:20Z</time>
      </trkpt>
      <trkpt lat="48.64882" lon="-3.3882">
        <ele>73</ele>
        <time>2015-11-03T13:52:22Z</time>
      </trkpt>
      <trkpt lat="48.64865" lon="-3.38808">
        <ele>73</ele>
        <time>2015-11-03T13:52:26Z</time>
      </trkpt>
      <trkpt lat="48.64848" lon="-3.38794">
        <ele>73</ele>
        <time>2015-11-03T13:52:30Z</time>
      </trkpt>
      <trkpt lat="48.64841" lon="-3.38785">
        <ele>73</ele>
        <time>2015-11-03T13:52:32Z</time>
      </trkpt>
      <trkpt lat="48.64827" lon="-3.38763">
        <ele>73</ele>
        <time>2015-11-03T13:52:36Z</time>
      </trkpt>
      <trkpt lat="48.64817" lon="-3.38745">
        <ele>73</ele>
        <time>2015-11-03T13:52:39Z</time>
      </trkpt>
      <trkpt lat="48.6481" lon="-3.38733">
        <ele>73</ele>
        <time>2015-11-03T13:52:41Z</time>
      </trkpt>
      <trkpt lat="48.64803" lon="-3.3872">
        <ele>73</ele>
        <time>2015-11-03T13:52:43Z</time>
      </trkpt>
      <trkpt lat="48.64796" lon="-3.38707">
        <ele>73</ele>
        <time>2015-11-03T13:52:45Z</time>
      </trkpt>
      <trkpt lat="48.64785" lon="-3.38689">
        <ele>73</ele>
        <time>2015-11-03T13:52:48Z</time>
      </trkpt>
      <trkpt lat="48.64774" lon="-3.3867">
        <ele>73</ele>
        <time>2015-11-03T13:52:51Z</time>
      </trkpt>
      <trkpt lat="48.64763" lon="-3.38651">
        <ele>73</ele>
        <time>2015-11-03T13:52:54Z</time>
      </trkpt>
      <trkpt lat="48.64753" lon="-3.38632">
        <ele>73</ele>
        <time>2015-11-03T13:52:57Z</time>
      </trkpt>
      <trkpt lat="48.64743" lon="-3.38611">
        <ele>73</ele>
        <time>2015-11-03T13:53:00Z</time>
      </trkpt>
      <trkpt lat="48.64738" lon="-3.38595">
        <ele>73</ele>
        <time>2015-11-03T13:53:02Z</time>
      </trkpt>
      <trkpt lat="48.6473" lon="-3.38571">
        <ele>73</ele>
        <time>2015-11-03T13:53:05Z</time>
      </trkpt>
      <trkpt lat="48.64723" lon="-3.38555">
        <ele>72</ele>
        <time>2015-11-03T13:53:07Z</time>
      </trkpt>
      <trkpt lat="48.64717" lon="-3.38539">
        <ele>72</ele>
        <time>2015-11-03T13:53:09Z</time>
      </trkpt>
      <trkpt lat="48.64709" lon="-3.38523">
        <ele>72</ele>
        <time>2015-11-03T13:53:11Z</time>
      </trkpt>
      <trkpt lat="48.64699" lon="-3.385">
        <ele>71</ele>
        <time>2015-11-03T13:53:14Z</time>
      </trkpt>
      <trkpt lat="48.64688" lon="-3.38476">
        <ele>71</ele>
        <time>2015-11-03T13:53:17Z</time>
      </trkpt>
      <trkpt lat="48.64677" lon="-3.38451">
        <ele>71</ele>
        <time>2015-11-03T13:53:20Z</time>
      </trkpt>
      <trkpt lat="48.6467" lon="-3.38435">
        <ele>71</ele>
        <time>2015-11-03T13:53:22Z</time>
      </trkpt>
      <trkpt lat="48.64661" lon="-3.3842">
        <ele>71</ele>
        <time>2015-11-03T13:53:24Z</time>
      </trkpt>
      <trkpt lat="48.64648" lon="-3.38398">
        <ele>71</ele>
        <time>2015-11-03T13:53:27Z</time>
      </trkpt>
      <trkpt lat="48.64638" lon="-3.38386">
        <ele>71</ele>
        <time>2015-11-03T13:53:29Z</time>
      </trkpt>
      <trkpt lat="48.64627" lon="-3.38376">
        <ele>70</ele>
        <time>2015-11-03T13:53:31Z</time>
      </trkpt>
      <trkpt lat="48.64615" lon="-3.38366">
        <ele>70</ele>
        <time>2015-11-03T13:53:33Z</time>
      </trkpt>
      <trkpt lat="48.646" lon="-3.38349">
        <ele>70</ele>
        <time>2015-11-03T13:53:36Z</time>
      </trkpt>
      <trkpt lat="48.64587" lon="-3.38329">
        <ele>70</ele>
        <time>2015-11-03T13:53:39Z</time>
      </trkpt>
      <trkpt lat="48.64578" lon="-3.38305">
        <ele>70</ele>
        <time>2015-11-03T13:53:42Z</time>
      </trkpt>
      <trkpt lat="48.64573" lon="-3.38288">
        <ele>70</ele>
        <time>2015-11-03T13:53:44Z</time>
      </trkpt>
      <trkpt lat="48.64569" lon="-3.38271">
        <ele>70</ele>
        <time>2015-11-03T13:53:46Z</time>
      </trkpt>
      <trkpt lat="48.64566" lon="-3.38253">
        <ele>70</ele>
        <time>2015-11-03T13:53:48Z</time>
      </trkpt>
      <trkpt lat="48.64563" lon="-3.38235">
        <ele>70</ele>
        <time>2015-11-03T13:53:50Z</time>
      </trkpt>
      <trkpt lat="48.64561" lon="-3.38218">
        <ele>70</ele>
        <time>2015-11-03T13:53:52Z</time>
      </trkpt>
      <trkpt lat="48.64558" lon="-3.382">
        <ele>70</ele>
        <time>2015-11-03T13:53:54Z</time>
      </trkpt>
      <trkpt lat="48.64555" lon="-3.38181">
        <ele>69</ele>
        <time>2015-11-03T13:53:56Z</time>
      </trkpt>
      <trkpt lat="48.64552" lon="-3.38161">
        <ele>69</ele>
        <time>2015-11-03T13:53:58Z</time>
      </trkpt>
      <trkpt lat="48.64548" lon="-3.38139">
        <ele>69</ele>
        <time>2015-11-03T13:54:00Z</time>
      </trkpt>
      <trkpt lat="48.64543" lon="-3.38117">
        <ele>69</ele>
        <time>2015-11-03T13:54:02Z</time>
      </trkpt>
      <trkpt lat="48.64538" lon="-3.38095">
        <ele>69</ele>
        <time>2015-11-03T13:54:04Z</time>
      </trkpt>
      <trkpt lat="48.64532" lon="-3.38074">
        <ele>69</ele>
        <time>2015-11-03T13:54:06Z</time>
      </trkpt>
      <trkpt lat="48.64526" lon="-3.38055">
        <ele>69</ele>
        <time>2015-11-03T13:54:08Z</time>
      </trkpt>
      <trkpt lat="48.64522" lon="-3.38038">
        <ele>69</ele>
        <time>2015-11-03T13:54:10Z</time>
      </trkpt>
      <trkpt lat="48.64517" lon="-3.38023">
        <ele>69</ele>
        <time>2015-11-03T13:54:12Z</time>
      </trkpt>
      <trkpt lat="48.64511" lon="-3.38003">
        <ele>69</ele>
        <time>2015-11-03T13:54:15Z</time>
      </trkpt>
      <trkpt lat="48.64505" lon="-3.37981">
        <ele>69</ele>
        <time>2015-11-03T13:54:19Z</time>
      </trkpt>
      <trkpt lat="48.64499" lon="-3.37967">
        <ele>69</ele>
        <time>2015-11-03T13:54:22Z</time>
      </trkpt>
      <trkpt lat="48.64489" lon="-3.37945">
        <ele>69</ele>
        <time>2015-11-03T13:54:27Z</time>
      </trkpt>
      <trkpt lat="48.64482" lon="-3.37933">
        <ele>69</ele>
        <time>2015-11-03T13:54:30Z</time>
      </trkpt>
      <trkpt lat="48.64475" lon="-3.37921">
        <ele>69</ele>
        <time>2015-11-03T13:54:33Z</time>
      </trkpt>
      <trkpt lat="48.64462" lon="-3.37903">
        <ele>68</ele>
        <time>2015-11-03T13:54:38Z</time>
      </trkpt>
      <trkpt lat="48.6445" lon="-3.37887">
        <ele>68</ele>
        <time>2015-11-03T13:54:42Z</time>
      </trkpt>
      <trkpt lat="48.64438" lon="-3.37871">
        <ele>68</ele>
        <time>2015-11-03T13:54:46Z</time>
      </trkpt>
      <trkpt lat="48.64428" lon="-3.37858">
        <ele>68</ele>
        <time>2015-11-03T13:54:49Z</time>
      </trkpt>
      <trkpt lat="48.64421" lon="-3.3785">
        <ele>68</ele>
        <time>2015-11-03T13:54:51Z</time>
      </trkpt>
      <trkpt lat="48.64414" lon="-3.37842">
        <ele>68</ele>
        <time>2015-11-03T13:54:53Z</time>
      </trkpt>
      <trkpt lat="48.64403" lon="-3.3783">
        <ele>68</ele>
        <time>2015-11-03T13:54:56Z</time>
      </trkpt>
      <trkpt lat="48.64389" lon="-3.37815">
        <ele>68</ele>
        <time>2015-11-03T13:55:00Z</time>
      </trkpt>
      <trkpt lat="48.64375" lon="-3.378">
        <ele>68</ele>
        <time>2015-11-03T13:55:04Z</time>
      </trkpt>
      <trkpt lat="48.64366" lon="-3.37788">
        <ele>69</ele>
        <time>2015-11-03T13:55:07Z</time>
      </trkpt>
      <trkpt lat="48.64358" lon="-3.37775">
        <ele>69</ele>
        <time>2015-11-03T13:55:10Z</time>
      </trkpt>
      <trkpt lat="48.64346" lon="-3.37743">
        <ele>69</ele>
        <time>2015-11-03T13:55:15Z</time>
      </trkpt>
      <trkpt lat="48.64341" lon="-3.37727">
        <ele>69</ele>
        <time>2015-11-03T13:55:17Z</time>
      </trkpt>
      <trkpt lat="48.64335" lon="-3.37702">
        <ele>69</ele>
        <time>2015-11-03T13:55:20Z</time>
      </trkpt>
      <trkpt lat="48.64328" lon="-3.37674">
        <ele>69</ele>
        <time>2015-11-03T13:55:23Z</time>
      </trkpt>
      <trkpt lat="48.64323" lon="-3.37655">
        <ele>69</ele>
        <time>2015-11-03T13:55:25Z</time>
      </trkpt>
      <trkpt lat="48.64319" lon="-3.37636">
        <ele>69</ele>
        <time>2015-11-03T13:55:27Z</time>
      </trkpt>
      <trkpt lat="48.64312" lon="-3.37607">
        <ele>69</ele>
        <time>2015-11-03T13:55:30Z</time>
      </trkpt>
      <trkpt lat="48.64309" lon="-3.37586">
        <ele>69</ele>
        <time>2015-11-03T13:55:32Z</time>
      </trkpt>
      <trkpt lat="48.64305" lon="-3.37565">
        <ele>69</ele>
        <time>2015-11-03T13:55:34Z</time>
      </trkpt>
      <trkpt lat="48.643" lon="-3.37532">
        <ele>69</ele>
        <time>2015-11-03T13:55:37Z</time>
      </trkpt>
      <trkpt lat="48.64295" lon="-3.37501">
        <ele>69</ele>
        <time>2015-11-03T13:55:40Z</time>
      </trkpt>
      <trkpt lat="48.6429" lon="-3.37477">
        <ele>69</ele>
        <time>2015-11-03T13:55:43Z</time>
      </trkpt>
      <trkpt lat="48.64288" lon="-3.37457">
        <ele>68</ele>
        <time>2015-11-03T13:55:46Z</time>
      </trkpt>
      <trkpt lat="48.64289" lon="-3.37432">
        <ele>68</ele>
        <time>2015-11-03T13:55:51Z</time>
      </trkpt>
      <trkpt lat="48.6429" lon="-3.37418">
        <ele>67</ele>
        <time>2015-11-03T13:55:54Z</time>
      </trkpt>
      <trkpt lat="48.64295" lon="-3.37393">
        <ele>66</ele>
        <time>2015-11-03T13:56:00Z</time>
      </trkpt>
      <trkpt lat="48.64298" lon="-3.37378">
        <ele>66</ele>
        <time>2015-11-03T13:56:04Z</time>
      </trkpt>
      <trkpt lat="48.64301" lon="-3.37365">
        <ele>65</ele>
        <time>2015-11-03T13:56:08Z</time>
      </trkpt>
      <trkpt lat="48.64303" lon="-3.37352">
        <ele>65</ele>
        <time>2015-11-03T13:56:12Z</time>
      </trkpt>
      <trkpt lat="48.64304" lon="-3.37339">
        <ele>65</ele>
        <time>2015-11-03T13:56:16Z</time>
      </trkpt>
      <trkpt lat="48.64303" lon="-3.37315">
        <ele>64</ele>
        <time>2015-11-03T13:56:23Z</time>
      </trkpt>
      <trkpt lat="48.64296" lon="-3.37297">
        <ele>64</ele>
        <time>2015-11-03T13:56:29Z</time>
      </trkpt>
      <trkpt lat="48.64289" lon="-3.37287">
        <ele>64</ele>
        <time>2015-11-03T13:56:34Z</time>
      </trkpt>
      <trkpt lat="48.64274" lon="-3.37277">
        <ele>64</ele>
        <time>2015-11-03T13:56:43Z</time>
      </trkpt>
      <trkpt lat="48.64259" lon="-3.37275">
        <ele>64</ele>
        <time>2015-11-03T13:56:51Z</time>
      </trkpt>
      <trkpt lat="48.6425" lon="-3.37277">
        <ele>64</ele>
        <time>2015-11-03T13:56:55Z</time>
      </trkpt>
      <trkpt lat="48.64239" lon="-3.37282">
        <ele>64</ele>
        <time>2015-11-03T13:57:00Z</time>
      </trkpt>
      <trkpt lat="48.64231" lon="-3.37287">
        <ele>64</ele>
        <time>2015-11-03T13:57:04Z</time>
      </trkpt>
      <trkpt lat="48.64223" lon="-3.37291">
        <ele>65</ele>
        <time>2015-11-03T13:57:08Z</time>
      </trkpt>
      <trkpt lat="48.64208" lon="-3.37298">
        <ele>65</ele>
        <time>2015-11-03T13:57:15Z</time>
      </trkpt>
      <trkpt lat="48.64192" lon="-3.37302">
        <ele>66</ele>
        <time>2015-11-03T13:57:23Z</time>
      </trkpt>
      <trkpt lat="48.64182" lon="-3.37301">
        <ele>66</ele>
        <time>2015-11-03T13:57:28Z</time>
      </trkpt>
      <trkpt lat="48.64173" lon="-3.37296">
        <ele>66</ele>
        <time>2015-11-03T13:57:33Z</time>
      </trkpt>
      <trkpt lat="48.64165" lon="-3.3729">
        <ele>66</ele>
        <time>2015-11-03T13:57:37Z</time>
      </trkpt>
      <trkpt lat="48.64157" lon="-3.37281">
        <ele>66</ele>
        <time>2015-11-03T13:57:42Z</time>
      </trkpt>
      <trkpt lat="48.64149" lon="-3.37269">
        <ele>66</ele>
        <time>2015-11-03T13:57:47Z</time>
      </trkpt>
      <trkpt lat="48.64143" lon="-3.3726">
        <ele>66</ele>
        <time>2015-11-03T13:57:51Z</time>
      </trkpt>
      <trkpt lat="48.64136" lon="-3.3725">
        <ele>66</ele>
        <time>2015-11-03T13:57:55Z</time>
      </trkpt>
      <trkpt lat="48.64129" lon="-3.37241">
        <ele>67</ele>
        <time>2015-11-03T13:57:59Z</time>
      </trkpt>
      <trkpt lat="48.64122" lon="-3.37232">
        <ele>67</ele>
        <time>2015-11-03T13:58:03Z</time>
      </trkpt>
      <trkpt lat="48.64116" lon="-3.37222">
        <ele>68</ele>
        <time>2015-11-03T13:58:07Z</time>
      </trkpt>
      <trkpt lat="48.64119" lon="-3.37199">
        <ele>68</ele>
        <time>2015-11-03T13:58:14Z</time>
      </trkpt>
      <trkpt lat="48.64138" lon="-3.37176">
        <ele>69</ele>
        <time>2015-11-03T13:58:24Z</time>
      </trkpt>
      <trkpt lat="48.64146" lon="-3.37167">
        <ele>69</ele>
        <time>2015-11-03T13:58:28Z</time>
      </trkpt>
      <trkpt lat="48.64158" lon="-3.37148">
        <ele>70</ele>
        <time>2015-11-03T13:58:35Z</time>
      </trkpt>
      <trkpt lat="48.64172" lon="-3.37133">
        <ele>70</ele>
        <time>2015-11-03T13:58:40Z</time>
      </trkpt>
      <trkpt lat="48.64184" lon="-3.37116">
        <ele>71</ele>
        <time>2015-11-03T13:58:44Z</time>
      </trkpt>
      <trkpt lat="48.6419" lon="-3.37093">
        <ele>71</ele>
        <time>2015-11-03T13:58:47Z</time>
      </trkpt>
      <trkpt lat="48.64192" lon="-3.37075">
        <ele>71</ele>
        <time>2015-11-03T13:58:49Z</time>
      </trkpt>
      <trkpt lat="48.64194" lon="-3.37054">
        <ele>71</ele>
        <time>2015-11-03T13:58:51Z</time>
      </trkpt>
      <trkpt lat="48.64197" lon="-3.37031">
        <ele>72</ele>
        <time>2015-11-03T13:58:53Z</time>
      </trkpt>
      <trkpt lat="48.642" lon="-3.37007">
        <ele>72</ele>
        <time>2015-11-03T13:58:55Z</time>
      </trkpt>
      <trkpt lat="48.64202" lon="-3.36983">
        <ele>72</ele>
        <time>2015-11-03T13:58:57Z</time>
      </trkpt>
      <trkpt lat="48.64206" lon="-3.36959">
        <ele>72</ele>
        <time>2015-11-03T13:58:59Z</time>
      </trkpt>
      <trkpt lat="48.6421" lon="-3.36935">
        <ele>72</ele>
        <time>2015-11-03T13:59:01Z</time>
      </trkpt>
      <trkpt lat="48.64213" lon="-3.36923">
        <ele>72</ele>
        <time>2015-11-03T13:59:02Z</time>
      </trkpt>
      <trkpt lat="48.64218" lon="-3.36899">
        <ele>72</ele>
        <time>2015-11-03T13:59:04Z</time>
      </trkpt>
      <trkpt lat="48.6422" lon="-3.36887">
        <ele>72</ele>
        <time>2015-11-03T13:59:05Z</time>
      </trkpt>
      <trkpt lat="48.64225" lon="-3.36863">
        <ele>72</ele>
        <time>2015-11-03T13:59:07Z</time>
      </trkpt>
      <trkpt lat="48.64227" lon="-3.36851">
        <ele>72</ele>
        <time>2015-11-03T13:59:08Z</time>
      </trkpt>
      <trkpt lat="48.64232" lon="-3.36826">
        <ele>72</ele>
        <time>2015-11-03T13:59:10Z</time>
      </trkpt>
      <trkpt lat="48.64234" lon="-3.36814">
        <ele>73</ele>
        <time>2015-11-03T13:59:11Z</time>
      </trkpt>
      <trkpt lat="48.64236" lon="-3.36801">
        <ele>73</ele>
        <time>2015-11-03T13:59:12Z</time>
      </trkpt>
      <trkpt lat="48.64239" lon="-3.36788">
        <ele>73</ele>
        <time>2015-11-03T13:59:13Z</time>
      </trkpt>
      <trkpt lat="48.64243" lon="-3.36775">
        <ele>73</ele>
        <time>2015-11-03T13:59:14Z</time>
      </trkpt>
      <trkpt lat="48.64246" lon="-3.36763">
        <ele>73</ele>
        <time>2015-11-03T13:59:15Z</time>
      </trkpt>
      <trkpt lat="48.6425" lon="-3.3675">
        <ele>73</ele>
        <time>2015-11-03T13:59:16Z</time>
      </trkpt>
      <trkpt lat="48.64254" lon="-3.36737">
        <ele>73</ele>
        <time>2015-11-03T13:59:17Z</time>
      </trkpt>
      <trkpt lat="48.64262" lon="-3.36711">
        <ele>72</ele>
        <time>2015-11-03T13:59:19Z</time>
      </trkpt>
      <trkpt lat="48.64266" lon="-3.36698">
        <ele>72</ele>
        <time>2015-11-03T13:59:20Z</time>
      </trkpt>
      <trkpt lat="48.6427" lon="-3.36686">
        <ele>72</ele>
        <time>2015-11-03T13:59:21Z</time>
      </trkpt>
      <trkpt lat="48.64274" lon="-3.36673">
        <ele>72</ele>
        <time>2015-11-03T13:59:22Z</time>
      </trkpt>
      <trkpt lat="48.64278" lon="-3.3666">
        <ele>72</ele>
        <time>2015-11-03T13:59:23Z</time>
      </trkpt>
      <trkpt lat="48.64282" lon="-3.36647">
        <ele>72</ele>
        <time>2015-11-03T13:59:24Z</time>
      </trkpt>
      <trkpt lat="48.64286" lon="-3.36633">
        <ele>72</ele>
        <time>2015-11-03T13:59:25Z</time>
      </trkpt>
      <trkpt lat="48.6429" lon="-3.36619">
        <ele>72</ele>
        <time>2015-11-03T13:59:26Z</time>
      </trkpt>
      <trkpt lat="48.64293" lon="-3.36604">
        <ele>72</ele>
        <time>2015-11-03T13:59:27Z</time>
      </trkpt>
      <trkpt lat="48.64297" lon="-3.36589">
        <ele>72</ele>
        <time>2015-11-03T13:59:28Z</time>
      </trkpt>
      <trkpt lat="48.643" lon="-3.36574">
        <ele>72</ele>
        <time>2015-11-03T13:59:29Z</time>
      </trkpt>
      <trkpt lat="48.64303" lon="-3.36558">
        <ele>72</ele>
        <time>2015-11-03T13:59:30Z</time>
      </trkpt>
      <trkpt lat="48.64306" lon="-3.36542">
        <ele>72</ele>
        <time>2015-11-03T13:59:31Z</time>
      </trkpt>
      <trkpt lat="48.6431" lon="-3.36525">
        <ele>72</ele>
        <time>2015-11-03T13:59:32Z</time>
      </trkpt>
      <trkpt lat="48.64313" lon="-3.36509">
        <ele>72</ele>
        <time>2015-11-03T13:59:33Z</time>
      </trkpt>
      <trkpt lat="48.64321" lon="-3.36476">
        <ele>72</ele>
        <time>2015-11-03T13:59:35Z</time>
      </trkpt>
      <trkpt lat="48.64325" lon="-3.3646">
        <ele>72</ele>
        <time>2015-11-03T13:59:36Z</time>
      </trkpt>
      <trkpt lat="48.64329" lon="-3.36445">
        <ele>72</ele>
        <time>2015-11-03T13:59:37Z</time>
      </trkpt>
      <trkpt lat="48.64333" lon="-3.36429">
        <ele>72</ele>
        <time>2015-11-03T13:59:38Z</time>
      </trkpt>
      <trkpt lat="48.64336" lon="-3.36414">
        <ele>72</ele>
        <time>2015-11-03T13:59:39Z</time>
      </trkpt>
      <trkpt lat="48.6434" lon="-3.36399">
        <ele>72</ele>
        <time>2015-11-03T13:59:40Z</time>
      </trkpt>
      <trkpt lat="48.64344" lon="-3.36385">
        <ele>72</ele>
        <time>2015-11-03T13:59:41Z</time>
      </trkpt>
      <trkpt lat="48.64348" lon="-3.36371">
        <ele>71</ele>
        <time>2015-11-03T13:59:42Z</time>
      </trkpt>
      <trkpt lat="48.64351" lon="-3.36358">
        <ele>71</ele>
        <time>2015-11-03T13:59:43Z</time>
      </trkpt>
      <trkpt lat="48.64354" lon="-3.36345">
        <ele>71</ele>
        <time>2015-11-03T13:59:44Z</time>
      </trkpt>
      <trkpt lat="48.64357" lon="-3.36333">
        <ele>71</ele>
        <time>2015-11-03T13:59:45Z</time>
      </trkpt>
      <trkpt lat="48.6436" lon="-3.3631">
        <ele>70</ele>
        <time>2015-11-03T13:59:47Z</time>
      </trkpt>
      <trkpt lat="48.64363" lon="-3.36291">
        <ele>70</ele>
        <time>2015-11-03T13:59:49Z</time>
      </trkpt>
      <trkpt lat="48.64365" lon="-3.36276">
        <ele>69</ele>
        <time>2015-11-03T13:59:51Z</time>
      </trkpt>
      <trkpt lat="48.64369" lon="-3.36252">
        <ele>68</ele>
        <time>2015-11-03T13:59:56Z</time>
      </trkpt>
      <trkpt lat="48.64371" lon="-3.36237">
        <ele>67</ele>
        <time>2015-11-03T14:00:01Z</time>
      </trkpt>
      <trkpt lat="48.64374" lon="-3.36212">
        <ele>64</ele>
        <time>2015-11-03T14:00:10Z</time>
      </trkpt>
      <trkpt lat="48.64376" lon="-3.36199">
        <ele>63</ele>
        <time>2015-11-03T14:00:15Z</time>
      </trkpt>
      <trkpt lat="48.64381" lon="-3.36176">
        <ele>62</ele>
        <time>2015-11-03T14:00:24Z</time>
      </trkpt>
      <trkpt lat="48.64385" lon="-3.36161">
        <ele>61</ele>
        <time>2015-11-03T14:00:30Z</time>
      </trkpt>
      <trkpt lat="48.6439" lon="-3.36149">
        <ele>60</ele>
        <time>2015-11-03T14:00:34Z</time>
      </trkpt>
      <trkpt lat="48.64394" lon="-3.36137">
        <ele>60</ele>
        <time>2015-11-03T14:00:38Z</time>
      </trkpt>
      <trkpt lat="48.64399" lon="-3.36124">
        <ele>59</ele>
        <time>2015-11-03T14:00:42Z</time>
      </trkpt>
      <trkpt lat="48.64402" lon="-3.36113">
        <ele>59</ele>
        <time>2015-11-03T14:00:45Z</time>
      </trkpt>
      <trkpt lat="48.64408" lon="-3.36089">
        <ele>59</ele>
        <time>2015-11-03T14:00:50Z</time>
      </trkpt>
      <trkpt lat="48.64411" lon="-3.36074">
        <ele>59</ele>
        <time>2015-11-03T14:00:53Z</time>
      </trkpt>
      <trkpt lat="48.64415" lon="-3.36047">
        <ele>59</ele>
        <time>2015-11-03T14:00:58Z</time>
      </trkpt>
      <trkpt lat="48.64418" lon="-3.3603">
        <ele>59</ele>
        <time>2015-11-03T14:01:01Z</time>
      </trkpt>
      <trkpt lat="48.6442" lon="-3.36018">
        <ele>59</ele>
        <time>2015-11-03T14:01:03Z</time>
      </trkpt>
      <trkpt lat="48.64425" lon="-3.36001">
        <ele>59</ele>
        <time>2015-11-03T14:01:06Z</time>
      </trkpt>
      <trkpt lat="48.64429" lon="-3.35985">
        <ele>59</ele>
        <time>2015-11-03T14:01:09Z</time>
      </trkpt>
      <trkpt lat="48.64437" lon="-3.35964">
        <ele>59</ele>
        <time>2015-11-03T14:01:13Z</time>
      </trkpt>
      <trkpt lat="48.64442" lon="-3.35949">
        <ele>59</ele>
        <time>2015-11-03T14:01:16Z</time>
      </trkpt>
      <trkpt lat="48.64451" lon="-3.35926">
        <ele>59</ele>
        <time>2015-11-03T14:01:21Z</time>
      </trkpt>
      <trkpt lat="48.64459" lon="-3.35906">
        <ele>59</ele>
        <time>2015-11-03T14:01:25Z</time>
      </trkpt>
      <trkpt lat="48.64466" lon="-3.35892">
        <ele>59</ele>
        <time>2015-11-03T14:01:28Z</time>
      </trkpt>
      <trkpt lat="48.64466" lon="-3.35879">
        <ele>59</ele>
        <time>2015-11-03T14:01:31Z</time>
      </trkpt>
      <trkpt lat="48.64466" lon="-3.3587">
        <ele>60</ele>
        <time>2015-11-03T14:03:28Z</time>
      </trkpt>
      <trkpt lat="48.64481" lon="-3.35864">
        <ele>63</ele>
        <time>2015-11-03T14:08:18Z</time>
      </trkpt>
      <trkpt lat="48.64486" lon="-3.35854">
        <ele>63</ele>
        <time>2015-11-03T14:08:21Z</time>
      </trkpt>
      <trkpt lat="48.64496" lon="-3.35831">
        <ele>64</ele>
        <time>2015-11-03T14:08:27Z</time>
      </trkpt>
      <trkpt lat="48.64504" lon="-3.35813">
        <ele>64</ele>
        <time>2015-11-03T14:08:31Z</time>
      </trkpt>
      <trkpt lat="48.64512" lon="-3.35791">
        <ele>65</ele>
        <time>2015-11-03T14:08:35Z</time>
      </trkpt>
      <trkpt lat="48.64519" lon="-3.35766">
        <ele>65</ele>
        <time>2015-11-03T14:08:39Z</time>
      </trkpt>
      <trkpt lat="48.64523" lon="-3.35751">
        <ele>65</ele>
        <time>2015-11-03T14:08:41Z</time>
      </trkpt>
      <trkpt lat="48.64527" lon="-3.35736">
        <ele>65</ele>
        <time>2015-11-03T14:08:43Z</time>
      </trkpt>
      <trkpt lat="48.64533" lon="-3.35713">
        <ele>65</ele>
        <time>2015-11-03T14:08:46Z</time>
      </trkpt>
      <trkpt lat="48.64539" lon="-3.35688">
        <ele>65</ele>
        <time>2015-11-03T14:08:49Z</time>
      </trkpt>
      <trkpt lat="48.64547" lon="-3.35664">
        <ele>65</ele>
        <time>2015-11-03T14:08:52Z</time>
      </trkpt>
      <trkpt lat="48.64553" lon="-3.35649">
        <ele>65</ele>
        <time>2015-11-03T14:08:54Z</time>
      </trkpt>
      <trkpt lat="48.6456" lon="-3.35634">
        <ele>66</ele>
        <time>2015-11-03T14:08:56Z</time>
      </trkpt>
      <trkpt lat="48.64566" lon="-3.3562">
        <ele>66</ele>
        <time>2015-11-03T14:08:58Z</time>
      </trkpt>
      <trkpt lat="48.64572" lon="-3.35607">
        <ele>65</ele>
        <time>2015-11-03T14:09:00Z</time>
      </trkpt>
      <trkpt lat="48.64582" lon="-3.35589">
        <ele>65</ele>
        <time>2015-11-03T14:09:03Z</time>
      </trkpt>
      <trkpt lat="48.64589" lon="-3.35579">
        <ele>65</ele>
        <time>2015-11-03T14:09:05Z</time>
      </trkpt>
      <trkpt lat="48.64607" lon="-3.35538">
        <ele>65</ele>
        <time>2015-11-03T14:09:12Z</time>
      </trkpt>
      <trkpt lat="48.64615" lon="-3.35516">
        <ele>65</ele>
        <time>2015-11-03T14:09:15Z</time>
      </trkpt>
      <trkpt lat="48.6463" lon="-3.35472">
        <ele>65</ele>
        <time>2015-11-03T14:09:21Z</time>
      </trkpt>
      <trkpt lat="48.64638" lon="-3.3545">
        <ele>65</ele>
        <time>2015-11-03T14:09:24Z</time>
      </trkpt>
      <trkpt lat="48.64645" lon="-3.3543">
        <ele>65</ele>
        <time>2015-11-03T14:09:27Z</time>
      </trkpt>
      <trkpt lat="48.64655" lon="-3.35403">
        <ele>64</ele>
        <time>2015-11-03T14:09:31Z</time>
      </trkpt>
      <trkpt lat="48.64662" lon="-3.35382">
        <ele>64</ele>
        <time>2015-11-03T14:09:34Z</time>
      </trkpt>
      <trkpt lat="48.6467" lon="-3.35361">
        <ele>64</ele>
        <time>2015-11-03T14:09:37Z</time>
      </trkpt>
      <trkpt lat="48.64676" lon="-3.35338">
        <ele>64</ele>
        <time>2015-11-03T14:09:40Z</time>
      </trkpt>
      <trkpt lat="48.6468" lon="-3.35313">
        <ele>64</ele>
        <time>2015-11-03T14:09:43Z</time>
      </trkpt>
      <trkpt lat="48.64683" lon="-3.3529">
        <ele>64</ele>
        <time>2015-11-03T14:09:46Z</time>
      </trkpt>
      <trkpt lat="48.64687" lon="-3.35267">
        <ele>64</ele>
        <time>2015-11-03T14:09:49Z</time>
      </trkpt>
      <trkpt lat="48.64691" lon="-3.35237">
        <ele>64</ele>
        <time>2015-11-03T14:09:53Z</time>
      </trkpt>
      <trkpt lat="48.64696" lon="-3.35208">
        <ele>64</ele>
        <time>2015-11-03T14:09:57Z</time>
      </trkpt>
      <trkpt lat="48.64701" lon="-3.35185">
        <ele>64</ele>
        <time>2015-11-03T14:10:00Z</time>
      </trkpt>
      <trkpt lat="48.64706" lon="-3.35162">
        <ele>64</ele>
        <time>2015-11-03T14:10:03Z</time>
      </trkpt>
      <trkpt lat="48.64711" lon="-3.3514">
        <ele>64</ele>
        <time>2015-11-03T14:10:06Z</time>
      </trkpt>
      <trkpt lat="48.6472" lon="-3.35103">
        <ele>64</ele>
        <time>2015-11-03T14:10:11Z</time>
      </trkpt>
      <trkpt lat="48.64725" lon="-3.35081">
        <ele>63</ele>
        <time>2015-11-03T14:10:14Z</time>
      </trkpt>
      <trkpt lat="48.6473" lon="-3.35058">
        <ele>63</ele>
        <time>2015-11-03T14:10:17Z</time>
      </trkpt>
      <trkpt lat="48.64736" lon="-3.35035">
        <ele>63</ele>
        <time>2015-11-03T14:10:20Z</time>
      </trkpt>
      <trkpt lat="48.64739" lon="-3.35021">
        <ele>63</ele>
        <time>2015-11-03T14:10:22Z</time>
      </trkpt>
      <trkpt lat="48.64743" lon="-3.35007">
        <ele>63</ele>
        <time>2015-11-03T14:10:24Z</time>
      </trkpt>
      <trkpt lat="48.64746" lon="-3.34993">
        <ele>64</ele>
        <time>2015-11-03T14:10:26Z</time>
      </trkpt>
      <trkpt lat="48.6475" lon="-3.34979">
        <ele>64</ele>
        <time>2015-11-03T14:10:28Z</time>
      </trkpt>
      <trkpt lat="48.64753" lon="-3.34967">
        <ele>64</ele>
        <time>2015-11-03T14:10:30Z</time>
      </trkpt>
      <trkpt lat="48.64759" lon="-3.34942">
        <ele>64</ele>
        <time>2015-11-03T14:10:34Z</time>
      </trkpt>
      <trkpt lat="48.64762" lon="-3.3493">
        <ele>64</ele>
        <time>2015-11-03T14:10:36Z</time>
      </trkpt>
      <trkpt lat="48.64765" lon="-3.34918">
        <ele>64</ele>
        <time>2015-11-03T14:10:38Z</time>
      </trkpt>
      <trkpt lat="48.64769" lon="-3.34906">
        <ele>64</ele>
        <time>2015-11-03T14:10:40Z</time>
      </trkpt>
      <trkpt lat="48.64772" lon="-3.34895">
        <ele>65</ele>
        <time>2015-11-03T14:10:42Z</time>
      </trkpt>
      <trkpt lat="48.64776" lon="-3.34884">
        <ele>65</ele>
        <time>2015-11-03T14:10:44Z</time>
      </trkpt>
      <trkpt lat="48.64781" lon="-3.34867">
        <ele>65</ele>
        <time>2015-11-03T14:10:47Z</time>
      </trkpt>
      <trkpt lat="48.64788" lon="-3.34852">
        <ele>65</ele>
        <time>2015-11-03T14:10:50Z</time>
      </trkpt>
      <trkpt lat="48.64796" lon="-3.34838">
        <ele>66</ele>
        <time>2015-11-03T14:10:53Z</time>
      </trkpt>
      <trkpt lat="48.64802" lon="-3.3483">
        <ele>66</ele>
        <time>2015-11-03T14:10:55Z</time>
      </trkpt>
      <trkpt lat="48.64812" lon="-3.34818">
        <ele>66</ele>
        <time>2015-11-03T14:10:58Z</time>
      </trkpt>
      <trkpt lat="48.6482" lon="-3.34811">
        <ele>66</ele>
        <time>2015-11-03T14:11:00Z</time>
      </trkpt>
      <trkpt lat="48.64836" lon="-3.34798">
        <ele>67</ele>
        <time>2015-11-03T14:11:04Z</time>
      </trkpt>
      <trkpt lat="48.64844" lon="-3.34791">
        <ele>67</ele>
        <time>2015-11-03T14:11:06Z</time>
      </trkpt>
      <trkpt lat="48.64853" lon="-3.34785">
        <ele>67</ele>
        <time>2015-11-03T14:11:08Z</time>
      </trkpt>
      <trkpt lat="48.64861" lon="-3.34779">
        <ele>67</ele>
        <time>2015-11-03T14:11:10Z</time>
      </trkpt>
      <trkpt lat="48.6487" lon="-3.34774">
        <ele>67</ele>
        <time>2015-11-03T14:11:12Z</time>
      </trkpt>
      <trkpt lat="48.64879" lon="-3.3477">
        <ele>67</ele>
        <time>2015-11-03T14:11:14Z</time>
      </trkpt>
      <trkpt lat="48.64889" lon="-3.34766">
        <ele>67</ele>
        <time>2015-11-03T14:11:16Z</time>
      </trkpt>
      <trkpt lat="48.649" lon="-3.34762">
        <ele>67</ele>
        <time>2015-11-03T14:11:18Z</time>
      </trkpt>
      <trkpt lat="48.64916" lon="-3.34757">
        <ele>68</ele>
        <time>2015-11-03T14:11:21Z</time>
      </trkpt>
      <trkpt lat="48.64931" lon="-3.34751">
        <ele>68</ele>
        <time>2015-11-03T14:11:24Z</time>
      </trkpt>
      <trkpt lat="48.64941" lon="-3.34747">
        <ele>68</ele>
        <time>2015-11-03T14:11:26Z</time>
      </trkpt>
      <trkpt lat="48.6495" lon="-3.34743">
        <ele>68</ele>
        <time>2015-11-03T14:11:28Z</time>
      </trkpt>
      <trkpt lat="48.64968" lon="-3.34732">
        <ele>68</ele>
        <time>2015-11-03T14:11:32Z</time>
      </trkpt>
      <trkpt lat="48.64982" lon="-3.34722">
        <ele>68</ele>
        <time>2015-11-03T14:11:35Z</time>
      </trkpt>
      <trkpt lat="48.64992" lon="-3.34716">
        <ele>68</ele>
        <time>2015-11-03T14:11:37Z</time>
      </trkpt>
      <trkpt lat="48.6501" lon="-3.34702">
        <ele>68</ele>
        <time>2015-11-03T14:11:41Z</time>
      </trkpt>
      <trkpt lat="48.65028" lon="-3.3469">
        <ele>68</ele>
        <time>2015-11-03T14:11:45Z</time>
      </trkpt>
      <trkpt lat="48.65041" lon="-3.34683">
        <ele>68</ele>
        <time>2015-11-03T14:11:48Z</time>
      </trkpt>
      <trkpt lat="48.65059" lon="-3.34673">
        <ele>68</ele>
        <time>2015-11-03T14:11:52Z</time>
      </trkpt>
      <trkpt lat="48.65077" lon="-3.34664">
        <ele>68</ele>
        <time>2015-11-03T14:11:56Z</time>
      </trkpt>
      <trkpt lat="48.65092" lon="-3.34655">
        <ele>68</ele>
        <time>2015-11-03T14:11:59Z</time>
      </trkpt>
      <trkpt lat="48.65109" lon="-3.34646">
        <ele>68</ele>
        <time>2015-11-03T14:12:02Z</time>
      </trkpt>
      <trkpt lat="48.65121" lon="-3.3464">
        <ele>68</ele>
        <time>2015-11-03T14:12:04Z</time>
      </trkpt>
      <trkpt lat="48.65133" lon="-3.34633">
        <ele>68</ele>
        <time>2015-11-03T14:12:06Z</time>
      </trkpt>
      <trkpt lat="48.65144" lon="-3.34626">
        <ele>68</ele>
        <time>2015-11-03T14:12:08Z</time>
      </trkpt>
      <trkpt lat="48.65208" lon="-3.34567">
        <ele>110</ele>
        <time>2015-11-03T14:12:23Z</time>
      </trkpt>
      <trkpt lat="48.65366" lon="-3.34405">
        <ele>67</ele>
        <time>2015-11-03T14:12:55Z</time>
      </trkpt>
      <trkpt lat="48.65378" lon="-3.34386">
        <ele>66</ele>
        <time>2015-11-03T14:12:58Z</time>
      </trkpt>
      <trkpt lat="48.65394" lon="-3.34354">
        <ele>66</ele>
        <time>2015-11-03T14:13:03Z</time>
      </trkpt>
      <trkpt lat="48.65405" lon="-3.34329">
        <ele>66</ele>
        <time>2015-11-03T14:13:07Z</time>
      </trkpt>
      <trkpt lat="48.65424" lon="-3.34287">
        <ele>66</ele>
        <time>2015-11-03T14:13:14Z</time>
      </trkpt>
      <trkpt lat="48.65444" lon="-3.3424">
        <ele>67</ele>
        <time>2015-11-03T14:13:21Z</time>
      </trkpt>
      <trkpt lat="48.65492" lon="-3.341">
        <ele>67</ele>
        <time>2015-11-03T14:13:38Z</time>
      </trkpt>
      <trkpt lat="48.65503" lon="-3.34066">
        <ele>67</ele>
        <time>2015-11-03T14:13:42Z</time>
      </trkpt>
      <trkpt lat="48.65526" lon="-3.34016">
        <ele>67</ele>
        <time>2015-11-03T14:13:49Z</time>
      </trkpt>
      <trkpt lat="48.65539" lon="-3.33996">
        <ele>67</ele>
        <time>2015-11-03T14:13:52Z</time>
      </trkpt>
      <trkpt lat="48.65571" lon="-3.33961">
        <ele>67</ele>
        <time>2015-11-03T14:13:58Z</time>
      </trkpt>
      <trkpt lat="48.65591" lon="-3.33948">
        <ele>67</ele>
        <time>2015-11-03T14:14:01Z</time>
      </trkpt>
      <trkpt lat="48.65611" lon="-3.3394">
        <ele>67</ele>
        <time>2015-11-03T14:14:04Z</time>
      </trkpt>
      <trkpt lat="48.6563" lon="-3.33933">
        <ele>67</ele>
        <time>2015-11-03T14:14:07Z</time>
      </trkpt>
      <trkpt lat="48.65648" lon="-3.33926">
        <ele>67</ele>
        <time>2015-11-03T14:14:10Z</time>
      </trkpt>
      <trkpt lat="48.65667" lon="-3.33918">
        <ele>67</ele>
        <time>2015-11-03T14:14:13Z</time>
      </trkpt>
      <trkpt lat="48.65685" lon="-3.33908">
        <ele>67</ele>
        <time>2015-11-03T14:14:16Z</time>
      </trkpt>
      <trkpt lat="48.65719" lon="-3.33882">
        <ele>67</ele>
        <time>2015-11-03T14:14:22Z</time>
      </trkpt>
      <trkpt lat="48.65732" lon="-3.33863">
        <ele>66</ele>
        <time>2015-11-03T14:14:25Z</time>
      </trkpt>
      <trkpt lat="48.65744" lon="-3.33845">
        <ele>67</ele>
        <time>2015-11-03T14:14:28Z</time>
      </trkpt>
      <trkpt lat="48.65753" lon="-3.33837">
        <ele>67</ele>
        <time>2015-11-03T14:14:30Z</time>
      </trkpt>
      <trkpt lat="48.65769" lon="-3.33828">
        <ele>67</ele>
        <time>2015-11-03T14:14:33Z</time>
      </trkpt>
      <trkpt lat="48.65781" lon="-3.33814">
        <ele>67</ele>
        <time>2015-11-03T14:14:36Z</time>
      </trkpt>
      <trkpt lat="48.65795" lon="-3.33794">
        <ele>67</ele>
        <time>2015-11-03T14:14:40Z</time>
      </trkpt>
      <trkpt lat="48.65808" lon="-3.33774">
        <ele>67</ele>
        <time>2015-11-03T14:14:44Z</time>
      </trkpt>
      <trkpt lat="48.65815" lon="-3.33763">
        <ele>67</ele>
        <time>2015-11-03T14:14:46Z</time>
      </trkpt>
      <trkpt lat="48.65826" lon="-3.33746">
        <ele>67</ele>
        <time>2015-11-03T14:14:49Z</time>
      </trkpt>
      <trkpt lat="48.65837" lon="-3.3373">
        <ele>67</ele>
        <time>2015-11-03T14:14:52Z</time>
      </trkpt>
      <trkpt lat="48.6585" lon="-3.33716">
        <ele>66</ele>
        <time>2015-11-03T14:14:55Z</time>
      </trkpt>
      <trkpt lat="48.65864" lon="-3.33709">
        <ele>67</ele>
        <time>2015-11-03T14:14:58Z</time>
      </trkpt>
      <trkpt lat="48.65875" lon="-3.33707">
        <ele>66</ele>
        <time>2015-11-03T14:15:00Z</time>
      </trkpt>
      <trkpt lat="48.65892" lon="-3.3371">
        <ele>67</ele>
        <time>2015-11-03T14:15:03Z</time>
      </trkpt>
      <trkpt lat="48.6591" lon="-3.33718">
        <ele>67</ele>
        <time>2015-11-03T14:15:06Z</time>
      </trkpt>
      <trkpt lat="48.65927" lon="-3.33737">
        <ele>67</ele>
        <time>2015-11-03T14:15:09Z</time>
      </trkpt>
      <trkpt lat="48.65939" lon="-3.33751">
        <ele>67</ele>
        <time>2015-11-03T14:15:11Z</time>
      </trkpt>
      <trkpt lat="48.65952" lon="-3.33767">
        <ele>67</ele>
        <time>2015-11-03T14:15:13Z</time>
      </trkpt>
      <trkpt lat="48.65965" lon="-3.33782">
        <ele>67</ele>
        <time>2015-11-03T14:15:15Z</time>
      </trkpt>
      <trkpt lat="48.65979" lon="-3.33795">
        <ele>67</ele>
        <time>2015-11-03T14:15:17Z</time>
      </trkpt>
      <trkpt lat="48.65993" lon="-3.33807">
        <ele>67</ele>
        <time>2015-11-03T14:15:19Z</time>
      </trkpt>
      <trkpt lat="48.66008" lon="-3.33817">
        <ele>67</ele>
        <time>2015-11-03T14:15:21Z</time>
      </trkpt>
      <trkpt lat="48.66023" lon="-3.33826">
        <ele>67</ele>
        <time>2015-11-03T14:15:23Z</time>
      </trkpt>
      <trkpt lat="48.66038" lon="-3.33831">
        <ele>67</ele>
        <time>2015-11-03T14:15:25Z</time>
      </trkpt>
      <trkpt lat="48.66054" lon="-3.33834">
        <ele>67</ele>
        <time>2015-11-03T14:15:27Z</time>
      </trkpt>
      <trkpt lat="48.66076" lon="-3.33834">
        <ele>67</ele>
        <time>2015-11-03T14:15:30Z</time>
      </trkpt>
      <trkpt lat="48.66097" lon="-3.33835">
        <ele>67</ele>
        <time>2015-11-03T14:15:33Z</time>
      </trkpt>
      <trkpt lat="48.66112" lon="-3.33836">
        <ele>67</ele>
        <time>2015-11-03T14:15:35Z</time>
      </trkpt>
      <trkpt lat="48.66126" lon="-3.33835">
        <ele>67</ele>
        <time>2015-11-03T14:15:37Z</time>
      </trkpt>
      <trkpt lat="48.6614" lon="-3.33835">
        <ele>67</ele>
        <time>2015-11-03T14:15:39Z</time>
      </trkpt>
      <trkpt lat="48.66161" lon="-3.33834">
        <ele>67</ele>
        <time>2015-11-03T14:15:42Z</time>
      </trkpt>
      <trkpt lat="48.66174" lon="-3.33833">
        <ele>67</ele>
        <time>2015-11-03T14:15:44Z</time>
      </trkpt>
      <trkpt lat="48.66195" lon="-3.33831">
        <ele>67</ele>
        <time>2015-11-03T14:15:47Z</time>
      </trkpt>
      <trkpt lat="48.66217" lon="-3.33829">
        <ele>67</ele>
        <time>2015-11-03T14:15:50Z</time>
      </trkpt>
      <trkpt lat="48.66239" lon="-3.33827">
        <ele>67</ele>
        <time>2015-11-03T14:15:53Z</time>
      </trkpt>
      <trkpt lat="48.66261" lon="-3.33824">
        <ele>68</ele>
        <time>2015-11-03T14:15:56Z</time>
      </trkpt>
      <trkpt lat="48.66282" lon="-3.33822">
        <ele>68</ele>
        <time>2015-11-03T14:15:59Z</time>
      </trkpt>
      <trkpt lat="48.66301" lon="-3.33821">
        <ele>68</ele>
        <time>2015-11-03T14:16:02Z</time>
      </trkpt>
      <trkpt lat="48.66315" lon="-3.33815">
        <ele>68</ele>
        <time>2015-11-03T14:16:06Z</time>
      </trkpt>
      <trkpt lat="48.66313" lon="-3.33801">
        <ele>68</ele>
        <time>2015-11-03T14:16:09Z</time>
      </trkpt>
      <trkpt lat="48.66302" lon="-3.33797">
        <ele>68</ele>
        <time>2015-11-03T14:16:12Z</time>
      </trkpt>
      <trkpt lat="48.66288" lon="-3.33785">
        <ele>68</ele>
        <time>2015-11-03T14:16:17Z</time>
      </trkpt>
      <trkpt lat="48.66284" lon="-3.33766">
        <ele>68</ele>
        <time>2015-11-03T14:16:28Z</time>
      </trkpt>
      <trkpt lat="48.66295" lon="-3.33745">
        <ele>68</ele>
        <time>2015-11-03T14:16:36Z</time>
      </trkpt>
      <trkpt lat="48.66309" lon="-3.33733">
        <ele>68</ele>
        <time>2015-11-03T14:16:40Z</time>
      </trkpt>
      <trkpt lat="48.66316" lon="-3.33727">
        <ele>69</ele>
        <time>2015-11-03T14:16:42Z</time>
      </trkpt>
      <trkpt lat="48.66332" lon="-3.33712">
        <ele>68</ele>
        <time>2015-11-03T14:16:46Z</time>
      </trkpt>
      <trkpt lat="48.66349" lon="-3.33696">
        <ele>68</ele>
        <time>2015-11-03T14:16:50Z</time>
      </trkpt>
      <trkpt lat="48.66364" lon="-3.33683">
        <ele>68</ele>
        <time>2015-11-03T14:16:53Z</time>
      </trkpt>
      <trkpt lat="48.66379" lon="-3.33671">
        <ele>68</ele>
        <time>2015-11-03T14:16:56Z</time>
      </trkpt>
      <trkpt lat="48.66409" lon="-3.33646">
        <ele>68</ele>
        <time>2015-11-03T14:17:02Z</time>
      </trkpt>
      <trkpt lat="48.66424" lon="-3.33631">
        <ele>68</ele>
        <time>2015-11-03T14:17:05Z</time>
      </trkpt>
      <trkpt lat="48.6644" lon="-3.33614">
        <ele>67</ele>
        <time>2015-11-03T14:17:08Z</time>
      </trkpt>
      <trkpt lat="48.66458" lon="-3.33596">
        <ele>67</ele>
        <time>2015-11-03T14:17:11Z</time>
      </trkpt>
      <trkpt lat="48.66474" lon="-3.33577">
        <ele>67</ele>
        <time>2015-11-03T14:17:14Z</time>
      </trkpt>
      <trkpt lat="48.66484" lon="-3.33565">
        <ele>67</ele>
        <time>2015-11-03T14:17:16Z</time>
      </trkpt>
      <trkpt lat="48.66495" lon="-3.33552">
        <ele>67</ele>
        <time>2015-11-03T14:17:18Z</time>
      </trkpt>
      <trkpt lat="48.66511" lon="-3.33533">
        <ele>67</ele>
        <time>2015-11-03T14:17:21Z</time>
      </trkpt>
      <trkpt lat="48.66522" lon="-3.3352">
        <ele>66</ele>
        <time>2015-11-03T14:17:23Z</time>
      </trkpt>
      <trkpt lat="48.66534" lon="-3.33508">
        <ele>66</ele>
        <time>2015-11-03T14:17:25Z</time>
      </trkpt>
      <trkpt lat="48.6655" lon="-3.3349">
        <ele>66</ele>
        <time>2015-11-03T14:17:28Z</time>
      </trkpt>
      <trkpt lat="48.66566" lon="-3.33472">
        <ele>66</ele>
        <time>2015-11-03T14:17:31Z</time>
      </trkpt>
      <trkpt lat="48.66582" lon="-3.33455">
        <ele>66</ele>
        <time>2015-11-03T14:17:34Z</time>
      </trkpt>
      <trkpt lat="48.66597" lon="-3.33438">
        <ele>66</ele>
        <time>2015-11-03T14:17:37Z</time>
      </trkpt>
      <trkpt lat="48.66607" lon="-3.33426">
        <ele>65</ele>
        <time>2015-11-03T14:17:39Z</time>
      </trkpt>
      <trkpt lat="48.66622" lon="-3.3341">
        <ele>65</ele>
        <time>2015-11-03T14:17:42Z</time>
      </trkpt>
      <trkpt lat="48.66636" lon="-3.33396">
        <ele>65</ele>
        <time>2015-11-03T14:17:45Z</time>
      </trkpt>
      <trkpt lat="48.66649" lon="-3.3338">
        <ele>65</ele>
        <time>2015-11-03T14:17:48Z</time>
      </trkpt>
      <trkpt lat="48.66662" lon="-3.33366">
        <ele>64</ele>
        <time>2015-11-03T14:17:51Z</time>
      </trkpt>
      <trkpt lat="48.66675" lon="-3.33354">
        <ele>64</ele>
        <time>2015-11-03T14:17:54Z</time>
      </trkpt>
      <trkpt lat="48.66689" lon="-3.3334">
        <ele>64</ele>
        <time>2015-11-03T14:17:57Z</time>
      </trkpt>
      <trkpt lat="48.66703" lon="-3.33325">
        <ele>64</ele>
        <time>2015-11-03T14:18:00Z</time>
      </trkpt>
      <trkpt lat="48.66713" lon="-3.33315">
        <ele>63</ele>
        <time>2015-11-03T14:18:02Z</time>
      </trkpt>
      <trkpt lat="48.66737" lon="-3.3329">
        <ele>63</ele>
        <time>2015-11-03T14:18:07Z</time>
      </trkpt>
      <trkpt lat="48.66753" lon="-3.33274">
        <ele>63</ele>
        <time>2015-11-03T14:18:10Z</time>
      </trkpt>
      <trkpt lat="48.66768" lon="-3.33259">
        <ele>63</ele>
        <time>2015-11-03T14:18:13Z</time>
      </trkpt>
      <trkpt lat="48.66783" lon="-3.33244">
        <ele>63</ele>
        <time>2015-11-03T14:18:16Z</time>
      </trkpt>
      <trkpt lat="48.66797" lon="-3.3323">
        <ele>63</ele>
        <time>2015-11-03T14:18:19Z</time>
      </trkpt>
      <trkpt lat="48.66811" lon="-3.33216">
        <ele>63</ele>
        <time>2015-11-03T14:18:22Z</time>
      </trkpt>
      <trkpt lat="48.66824" lon="-3.33203">
        <ele>63</ele>
        <time>2015-11-03T14:18:25Z</time>
      </trkpt>
      <trkpt lat="48.66838" lon="-3.33188">
        <ele>63</ele>
        <time>2015-11-03T14:18:28Z</time>
      </trkpt>
      <trkpt lat="48.66848" lon="-3.33178">
        <ele>62</ele>
        <time>2015-11-03T14:18:30Z</time>
      </trkpt>
      <trkpt lat="48.66857" lon="-3.33169">
        <ele>62</ele>
        <time>2015-11-03T14:18:32Z</time>
      </trkpt>
      <trkpt lat="48.66866" lon="-3.33159">
        <ele>62</ele>
        <time>2015-11-03T14:18:34Z</time>
      </trkpt>
      <trkpt lat="48.66879" lon="-3.33144">
        <ele>62</ele>
        <time>2015-11-03T14:18:37Z</time>
      </trkpt>
      <trkpt lat="48.66891" lon="-3.33129">
        <ele>62</ele>
        <time>2015-11-03T14:18:40Z</time>
      </trkpt>
      <trkpt lat="48.66907" lon="-3.3311">
        <ele>62</ele>
        <time>2015-11-03T14:18:45Z</time>
      </trkpt>
      <trkpt lat="48.66926" lon="-3.33086">
        <ele>62</ele>
        <time>2015-11-03T14:18:50Z</time>
      </trkpt>
      <trkpt lat="48.66939" lon="-3.3307">
        <ele>62</ele>
        <time>2015-11-03T14:18:53Z</time>
      </trkpt>
      <trkpt lat="48.66956" lon="-3.33048">
        <ele>62</ele>
        <time>2015-11-03T14:18:57Z</time>
      </trkpt>
      <trkpt lat="48.66969" lon="-3.3303">
        <ele>62</ele>
        <time>2015-11-03T14:19:00Z</time>
      </trkpt>
      <trkpt lat="48.66982" lon="-3.33014">
        <ele>62</ele>
        <time>2015-11-03T14:19:03Z</time>
      </trkpt>
      <trkpt lat="48.66994" lon="-3.32997">
        <ele>61</ele>
        <time>2015-11-03T14:19:06Z</time>
      </trkpt>
      <trkpt lat="48.67005" lon="-3.32978">
        <ele>61</ele>
        <time>2015-11-03T14:19:09Z</time>
      </trkpt>
      <trkpt lat="48.67017" lon="-3.32959">
        <ele>61</ele>
        <time>2015-11-03T14:19:12Z</time>
      </trkpt>
      <trkpt lat="48.67028" lon="-3.32939">
        <ele>61</ele>
        <time>2015-11-03T14:19:15Z</time>
      </trkpt>
      <trkpt lat="48.6704" lon="-3.32919">
        <ele>61</ele>
        <time>2015-11-03T14:19:18Z</time>
      </trkpt>
      <trkpt lat="48.67048" lon="-3.32906">
        <ele>61</ele>
        <time>2015-11-03T14:19:20Z</time>
      </trkpt>
      <trkpt lat="48.67056" lon="-3.32892">
        <ele>61</ele>
        <time>2015-11-03T14:19:22Z</time>
      </trkpt>
      <trkpt lat="48.67064" lon="-3.32878">
        <ele>61</ele>
        <time>2015-11-03T14:19:24Z</time>
      </trkpt>
      <trkpt lat="48.67072" lon="-3.32864">
        <ele>62</ele>
        <time>2015-11-03T14:19:26Z</time>
      </trkpt>
      <trkpt lat="48.67085" lon="-3.32844">
        <ele>62</ele>
        <time>2015-11-03T14:19:29Z</time>
      </trkpt>
      <trkpt lat="48.67097" lon="-3.32824">
        <ele>62</ele>
        <time>2015-11-03T14:19:32Z</time>
      </trkpt>
      <trkpt lat="48.67109" lon="-3.32803">
        <ele>62</ele>
        <time>2015-11-03T14:19:35Z</time>
      </trkpt>
      <trkpt lat="48.67118" lon="-3.3279">
        <ele>62</ele>
        <time>2015-11-03T14:19:37Z</time>
      </trkpt>
      <trkpt lat="48.67127" lon="-3.32778">
        <ele>62</ele>
        <time>2015-11-03T14:19:39Z</time>
      </trkpt>
      <trkpt lat="48.67135" lon="-3.32766">
        <ele>62</ele>
        <time>2015-11-03T14:19:41Z</time>
      </trkpt>
      <trkpt lat="48.67148" lon="-3.32747">
        <ele>62</ele>
        <time>2015-11-03T14:19:44Z</time>
      </trkpt>
      <trkpt lat="48.67157" lon="-3.32735">
        <ele>63</ele>
        <time>2015-11-03T14:19:46Z</time>
      </trkpt>
      <trkpt lat="48.67165" lon="-3.32722">
        <ele>63</ele>
        <time>2015-11-03T14:19:48Z</time>
      </trkpt>
      <trkpt lat="48.67178" lon="-3.32703">
        <ele>63</ele>
        <time>2015-11-03T14:19:51Z</time>
      </trkpt>
      <trkpt lat="48.67186" lon="-3.32691">
        <ele>63</ele>
        <time>2015-11-03T14:19:53Z</time>
      </trkpt>
      <trkpt lat="48.67194" lon="-3.32678">
        <ele>63</ele>
        <time>2015-11-03T14:19:55Z</time>
      </trkpt>
      <trkpt lat="48.67206" lon="-3.32659">
        <ele>63</ele>
        <time>2015-11-03T14:19:58Z</time>
      </trkpt>
      <trkpt lat="48.67218" lon="-3.32641">
        <ele>63</ele>
        <time>2015-11-03T14:20:01Z</time>
      </trkpt>
      <trkpt lat="48.67231" lon="-3.32622">
        <ele>63</ele>
        <time>2015-11-03T14:20:04Z</time>
      </trkpt>
      <trkpt lat="48.67239" lon="-3.3261">
        <ele>63</ele>
        <time>2015-11-03T14:20:06Z</time>
      </trkpt>
      <trkpt lat="48.67247" lon="-3.32597">
        <ele>63</ele>
        <time>2015-11-03T14:20:08Z</time>
      </trkpt>
      <trkpt lat="48.67259" lon="-3.32577">
        <ele>64</ele>
        <time>2015-11-03T14:20:11Z</time>
      </trkpt>
      <trkpt lat="48.67266" lon="-3.32563">
        <ele>64</ele>
        <time>2015-11-03T14:20:13Z</time>
      </trkpt>
      <trkpt lat="48.67274" lon="-3.32549">
        <ele>64</ele>
        <time>2015-11-03T14:20:15Z</time>
      </trkpt>
      <trkpt lat="48.67281" lon="-3.32536">
        <ele>64</ele>
        <time>2015-11-03T14:20:17Z</time>
      </trkpt>
      <trkpt lat="48.67291" lon="-3.32517">
        <ele>64</ele>
        <time>2015-11-03T14:20:20Z</time>
      </trkpt>
      <trkpt lat="48.67298" lon="-3.32504">
        <ele>64</ele>
        <time>2015-11-03T14:20:22Z</time>
      </trkpt>
      <trkpt lat="48.67305" lon="-3.32492">
        <ele>65</ele>
        <time>2015-11-03T14:20:24Z</time>
      </trkpt>
      <trkpt lat="48.67312" lon="-3.32479">
        <ele>65</ele>
        <time>2015-11-03T14:20:26Z</time>
      </trkpt>
      <trkpt lat="48.67319" lon="-3.32466">
        <ele>65</ele>
        <time>2015-11-03T14:20:28Z</time>
      </trkpt>
      <trkpt lat="48.67326" lon="-3.32453">
        <ele>65</ele>
        <time>2015-11-03T14:20:30Z</time>
      </trkpt>
      <trkpt lat="48.67333" lon="-3.32441">
        <ele>65</ele>
        <time>2015-11-03T14:20:32Z</time>
      </trkpt>
      <trkpt lat="48.6734" lon="-3.32428">
        <ele>65</ele>
        <time>2015-11-03T14:20:34Z</time>
      </trkpt>
      <trkpt lat="48.67351" lon="-3.32409">
        <ele>66</ele>
        <time>2015-11-03T14:20:37Z</time>
      </trkpt>
      <trkpt lat="48.67359" lon="-3.32396">
        <ele>66</ele>
        <time>2015-11-03T14:20:39Z</time>
      </trkpt>
      <trkpt lat="48.67366" lon="-3.32384">
        <ele>66</ele>
        <time>2015-11-03T14:20:41Z</time>
      </trkpt>
      <trkpt lat="48.67374" lon="-3.32372">
        <ele>66</ele>
        <time>2015-11-03T14:20:43Z</time>
      </trkpt>
      <trkpt lat="48.67382" lon="-3.32361">
        <ele>66</ele>
        <time>2015-11-03T14:20:45Z</time>
      </trkpt>
      <trkpt lat="48.6739" lon="-3.32349">
        <ele>66</ele>
        <time>2015-11-03T14:20:47Z</time>
      </trkpt>
      <trkpt lat="48.67398" lon="-3.32338">
        <ele>66</ele>
        <time>2015-11-03T14:20:49Z</time>
      </trkpt>
      <trkpt lat="48.67407" lon="-3.32327">
        <ele>66</ele>
        <time>2015-11-03T14:20:51Z</time>
      </trkpt>
      <trkpt lat="48.67416" lon="-3.32316">
        <ele>66</ele>
        <time>2015-11-03T14:20:53Z</time>
      </trkpt>
      <trkpt lat="48.67425" lon="-3.32305">
        <ele>66</ele>
        <time>2015-11-03T14:20:55Z</time>
      </trkpt>
      <trkpt lat="48.67439" lon="-3.3229">
        <ele>66</ele>
        <time>2015-11-03T14:20:58Z</time>
      </trkpt>
      <trkpt lat="48.67449" lon="-3.32281">
        <ele>66</ele>
        <time>2015-11-03T14:21:00Z</time>
      </trkpt>
      <trkpt lat="48.67459" lon="-3.32273">
        <ele>66</ele>
        <time>2015-11-03T14:21:02Z</time>
      </trkpt>
      <trkpt lat="48.67469" lon="-3.32265">
        <ele>66</ele>
        <time>2015-11-03T14:21:04Z</time>
      </trkpt>
      <trkpt lat="48.67479" lon="-3.32257">
        <ele>66</ele>
        <time>2015-11-03T14:21:06Z</time>
      </trkpt>
      <trkpt lat="48.67495" lon="-3.32244">
        <ele>66</ele>
        <time>2015-11-03T14:21:09Z</time>
      </trkpt>
      <trkpt lat="48.67505" lon="-3.32235">
        <ele>66</ele>
        <time>2015-11-03T14:21:11Z</time>
      </trkpt>
      <trkpt lat="48.67515" lon="-3.32226">
        <ele>66</ele>
        <time>2015-11-03T14:21:13Z</time>
      </trkpt>
      <trkpt lat="48.67525" lon="-3.32217">
        <ele>66</ele>
        <time>2015-11-03T14:21:15Z</time>
      </trkpt>
      <trkpt lat="48.67536" lon="-3.32208">
        <ele>67</ele>
        <time>2015-11-03T14:21:17Z</time>
      </trkpt>
      <trkpt lat="48.67546" lon="-3.32199">
        <ele>67</ele>
        <time>2015-11-03T14:21:19Z</time>
      </trkpt>
      <trkpt lat="48.67562" lon="-3.32184">
        <ele>67</ele>
        <time>2015-11-03T14:21:22Z</time>
      </trkpt>
      <trkpt lat="48.67572" lon="-3.32174">
        <ele>67</ele>
        <time>2015-11-03T14:21:24Z</time>
      </trkpt>
      <trkpt lat="48.67583" lon="-3.32164">
        <ele>67</ele>
        <time>2015-11-03T14:21:26Z</time>
      </trkpt>
      <trkpt lat="48.67593" lon="-3.32154">
        <ele>67</ele>
        <time>2015-11-03T14:21:28Z</time>
      </trkpt>
      <trkpt lat="48.67609" lon="-3.3214">
        <ele>67</ele>
        <time>2015-11-03T14:21:31Z</time>
      </trkpt>
      <trkpt lat="48.67619" lon="-3.32131">
        <ele>67</ele>
        <time>2015-11-03T14:21:33Z</time>
      </trkpt>
      <trkpt lat="48.67634" lon="-3.32117">
        <ele>67</ele>
        <time>2015-11-03T14:21:36Z</time>
      </trkpt>
      <trkpt lat="48.67644" lon="-3.32107">
        <ele>67</ele>
        <time>2015-11-03T14:21:38Z</time>
      </trkpt>
      <trkpt lat="48.67654" lon="-3.32097">
        <ele>67</ele>
        <time>2015-11-03T14:21:40Z</time>
      </trkpt>
      <trkpt lat="48.67669" lon="-3.32082">
        <ele>67</ele>
        <time>2015-11-03T14:21:43Z</time>
      </trkpt>
      <trkpt lat="48.67678" lon="-3.3207">
        <ele>67</ele>
        <time>2015-11-03T14:21:45Z</time>
      </trkpt>
      <trkpt lat="48.67688" lon="-3.32058">
        <ele>67</ele>
        <time>2015-11-03T14:21:47Z</time>
      </trkpt>
      <trkpt lat="48.67697" lon="-3.32047">
        <ele>67</ele>
        <time>2015-11-03T14:21:49Z</time>
      </trkpt>
      <trkpt lat="48.67711" lon="-3.3203">
        <ele>67</ele>
        <time>2015-11-03T14:21:52Z</time>
      </trkpt>
      <trkpt lat="48.67725" lon="-3.32013">
        <ele>67</ele>
        <time>2015-11-03T14:21:55Z</time>
      </trkpt>
      <trkpt lat="48.67739" lon="-3.31996">
        <ele>67</ele>
        <time>2015-11-03T14:21:58Z</time>
      </trkpt>
      <trkpt lat="48.67748" lon="-3.31985">
        <ele>67</ele>
        <time>2015-11-03T14:22:00Z</time>
      </trkpt>
      <trkpt lat="48.67758" lon="-3.31975">
        <ele>67</ele>
        <time>2015-11-03T14:22:02Z</time>
      </trkpt>
      <trkpt lat="48.67776" lon="-3.31956">
        <ele>67</ele>
        <time>2015-11-03T14:22:06Z</time>
      </trkpt>
      <trkpt lat="48.6779" lon="-3.31941">
        <ele>67</ele>
        <time>2015-11-03T14:22:09Z</time>
      </trkpt>
      <trkpt lat="48.67804" lon="-3.31927">
        <ele>67</ele>
        <time>2015-11-03T14:22:12Z</time>
      </trkpt>
      <trkpt lat="48.67833" lon="-3.31902">
        <ele>67</ele>
        <time>2015-11-03T14:22:18Z</time>
      </trkpt>
      <trkpt lat="48.67849" lon="-3.31891">
        <ele>67</ele>
        <time>2015-11-03T14:22:21Z</time>
      </trkpt>
      <trkpt lat="48.6786" lon="-3.31884">
        <ele>67</ele>
        <time>2015-11-03T14:22:23Z</time>
      </trkpt>
      <trkpt lat="48.67871" lon="-3.3188">
        <ele>67</ele>
        <time>2015-11-03T14:22:25Z</time>
      </trkpt>
      <trkpt lat="48.67889" lon="-3.31875">
        <ele>68</ele>
        <time>2015-11-03T14:22:28Z</time>
      </trkpt>
      <trkpt lat="48.67907" lon="-3.31872">
        <ele>67</ele>
        <time>2015-11-03T14:22:31Z</time>
      </trkpt>
      <trkpt lat="48.67919" lon="-3.31872">
        <ele>67</ele>
        <time>2015-11-03T14:22:33Z</time>
      </trkpt>
      <trkpt lat="48.67931" lon="-3.31872">
        <ele>67</ele>
        <time>2015-11-03T14:22:35Z</time>
      </trkpt>
      <trkpt lat="48.67959" lon="-3.31876">
        <ele>67</ele>
        <time>2015-11-03T14:22:40Z</time>
      </trkpt>
      <trkpt lat="48.67975" lon="-3.31878">
        <ele>67</ele>
        <time>2015-11-03T14:22:43Z</time>
      </trkpt>
      <trkpt lat="48.67993" lon="-3.31881">
        <ele>67</ele>
        <time>2015-11-03T14:22:46Z</time>
      </trkpt>
      <trkpt lat="48.68011" lon="-3.31884">
        <ele>66</ele>
        <time>2015-11-03T14:22:49Z</time>
      </trkpt>
      <trkpt lat="48.68024" lon="-3.31886">
        <ele>66</ele>
        <time>2015-11-03T14:22:51Z</time>
      </trkpt>
      <trkpt lat="48.68043" lon="-3.31887">
        <ele>66</ele>
        <time>2015-11-03T14:22:54Z</time>
      </trkpt>
      <trkpt lat="48.68062" lon="-3.31887">
        <ele>66</ele>
        <time>2015-11-03T14:22:57Z</time>
      </trkpt>
      <trkpt lat="48.68081" lon="-3.31886">
        <ele>66</ele>
        <time>2015-11-03T14:23:00Z</time>
      </trkpt>
      <trkpt lat="48.681" lon="-3.31885">
        <ele>65</ele>
        <time>2015-11-03T14:23:03Z</time>
      </trkpt>
      <trkpt lat="48.68118" lon="-3.31884">
        <ele>65</ele>
        <time>2015-11-03T14:23:06Z</time>
      </trkpt>
      <trkpt lat="48.68136" lon="-3.31882">
        <ele>65</ele>
        <time>2015-11-03T14:23:09Z</time>
      </trkpt>
      <trkpt lat="48.68154" lon="-3.31879">
        <ele>65</ele>
        <time>2015-11-03T14:23:12Z</time>
      </trkpt>
      <trkpt lat="48.68172" lon="-3.31876">
        <ele>65</ele>
        <time>2015-11-03T14:23:15Z</time>
      </trkpt>
      <trkpt lat="48.68191" lon="-3.31871">
        <ele>65</ele>
        <time>2015-11-03T14:23:18Z</time>
      </trkpt>
      <trkpt lat="48.6821" lon="-3.31866">
        <ele>65</ele>
        <time>2015-11-03T14:23:21Z</time>
      </trkpt>
      <trkpt lat="48.68234" lon="-3.31861">
        <ele>64</ele>
        <time>2015-11-03T14:23:25Z</time>
      </trkpt>
      <trkpt lat="48.68252" lon="-3.31857">
        <ele>64</ele>
        <time>2015-11-03T14:23:28Z</time>
      </trkpt>
      <trkpt lat="48.68264" lon="-3.31854">
        <ele>64</ele>
        <time>2015-11-03T14:23:30Z</time>
      </trkpt>
      <trkpt lat="48.68276" lon="-3.31851">
        <ele>64</ele>
        <time>2015-11-03T14:23:32Z</time>
      </trkpt>
      <trkpt lat="48.68295" lon="-3.31845">
        <ele>64</ele>
        <time>2015-11-03T14:23:35Z</time>
      </trkpt>
      <trkpt lat="48.68313" lon="-3.3184">
        <ele>63</ele>
        <time>2015-11-03T14:23:38Z</time>
      </trkpt>
      <trkpt lat="48.68331" lon="-3.31836">
        <ele>63</ele>
        <time>2015-11-03T14:23:41Z</time>
      </trkpt>
      <trkpt lat="48.68348" lon="-3.31834">
        <ele>63</ele>
        <time>2015-11-03T14:23:44Z</time>
      </trkpt>
      <trkpt lat="48.68432" lon="-3.31826">
        <ele>63</ele>
        <time>2015-11-03T14:23:57Z</time>
      </trkpt>
      <trkpt lat="48.6847" lon="-3.31822">
        <ele>63</ele>
        <time>2015-11-03T14:24:02Z</time>
      </trkpt>
      <trkpt lat="48.68553" lon="-3.31807">
        <ele>62</ele>
        <time>2015-11-03T14:24:13Z</time>
      </trkpt>
      <trkpt lat="48.68575" lon="-3.31801">
        <ele>61</ele>
        <time>2015-11-03T14:24:16Z</time>
      </trkpt>
      <trkpt lat="48.68595" lon="-3.31793">
        <ele>61</ele>
        <time>2015-11-03T14:24:19Z</time>
      </trkpt>
      <trkpt lat="48.68614" lon="-3.31781">
        <ele>61</ele>
        <time>2015-11-03T14:24:22Z</time>
      </trkpt>
      <trkpt lat="48.68626" lon="-3.31772">
        <ele>61</ele>
        <time>2015-11-03T14:24:24Z</time>
      </trkpt>
      <trkpt lat="48.68644" lon="-3.31759">
        <ele>60</ele>
        <time>2015-11-03T14:24:27Z</time>
      </trkpt>
      <trkpt lat="48.68657" lon="-3.31752">
        <ele>60</ele>
        <time>2015-11-03T14:24:29Z</time>
      </trkpt>
      <trkpt lat="48.6867" lon="-3.31746">
        <ele>60</ele>
        <time>2015-11-03T14:24:31Z</time>
      </trkpt>
      <trkpt lat="48.6869" lon="-3.31739">
        <ele>60</ele>
        <time>2015-11-03T14:24:34Z</time>
      </trkpt>
      <trkpt lat="48.68705" lon="-3.31738">
        <ele>60</ele>
        <time>2015-11-03T14:24:36Z</time>
      </trkpt>
      <trkpt lat="48.68731" lon="-3.3174">
        <ele>60</ele>
        <time>2015-11-03T14:24:39Z</time>
      </trkpt>
      <trkpt lat="48.68747" lon="-3.31742">
        <ele>60</ele>
        <time>2015-11-03T14:24:41Z</time>
      </trkpt>
      <trkpt lat="48.68764" lon="-3.31743">
        <ele>60</ele>
        <time>2015-11-03T14:24:43Z</time>
      </trkpt>
      <trkpt lat="48.6878" lon="-3.31744">
        <ele>60</ele>
        <time>2015-11-03T14:24:45Z</time>
      </trkpt>
      <trkpt lat="48.68795" lon="-3.31745">
        <ele>60</ele>
        <time>2015-11-03T14:24:47Z</time>
      </trkpt>
      <trkpt lat="48.68811" lon="-3.31745">
        <ele>60</ele>
        <time>2015-11-03T14:24:49Z</time>
      </trkpt>
      <trkpt lat="48.68827" lon="-3.31746">
        <ele>60</ele>
        <time>2015-11-03T14:24:51Z</time>
      </trkpt>
      <trkpt lat="48.68849" lon="-3.31748">
        <ele>60</ele>
        <time>2015-11-03T14:24:54Z</time>
      </trkpt>
      <trkpt lat="48.68871" lon="-3.3175">
        <ele>60</ele>
        <time>2015-11-03T14:24:57Z</time>
      </trkpt>
      <trkpt lat="48.68892" lon="-3.31753">
        <ele>59</ele>
        <time>2015-11-03T14:25:00Z</time>
      </trkpt>
      <trkpt lat="48.68912" lon="-3.31756">
        <ele>59</ele>
        <time>2015-11-03T14:25:03Z</time>
      </trkpt>
      <trkpt lat="48.6894" lon="-3.3176">
        <ele>59</ele>
        <time>2015-11-03T14:25:07Z</time>
      </trkpt>
      <trkpt lat="48.68967" lon="-3.31765">
        <ele>59</ele>
        <time>2015-11-03T14:25:11Z</time>
      </trkpt>
      <trkpt lat="48.68987" lon="-3.31769">
        <ele>59</ele>
        <time>2015-11-03T14:25:14Z</time>
      </trkpt>
      <trkpt lat="48.69012" lon="-3.31773">
        <ele>59</ele>
        <time>2015-11-03T14:25:18Z</time>
      </trkpt>
      <trkpt lat="48.69032" lon="-3.31776">
        <ele>58</ele>
        <time>2015-11-03T14:25:21Z</time>
      </trkpt>
      <trkpt lat="48.69051" lon="-3.31782">
        <ele>58</ele>
        <time>2015-11-03T14:25:24Z</time>
      </trkpt>
      <trkpt lat="48.69069" lon="-3.31787">
        <ele>58</ele>
        <time>2015-11-03T14:25:27Z</time>
      </trkpt>
      <trkpt lat="48.69089" lon="-3.31789">
        <ele>57</ele>
        <time>2015-11-03T14:25:30Z</time>
      </trkpt>
      <trkpt lat="48.6911" lon="-3.31789">
        <ele>56</ele>
        <time>2015-11-03T14:25:33Z</time>
      </trkpt>
      <trkpt lat="48.69137" lon="-3.31789">
        <ele>55</ele>
        <time>2015-11-03T14:25:37Z</time>
      </trkpt>
      <trkpt lat="48.6916" lon="-3.31787">
        <ele>54</ele>
        <time>2015-11-03T14:25:40Z</time>
      </trkpt>
      <trkpt lat="48.69176" lon="-3.31784">
        <ele>54</ele>
        <time>2015-11-03T14:25:42Z</time>
      </trkpt>
      <trkpt lat="48.69198" lon="-3.31779">
        <ele>53</ele>
        <time>2015-11-03T14:25:45Z</time>
      </trkpt>
      <trkpt lat="48.69219" lon="-3.31773">
        <ele>52</ele>
        <time>2015-11-03T14:25:48Z</time>
      </trkpt>
      <trkpt lat="48.69233" lon="-3.31768">
        <ele>52</ele>
        <time>2015-11-03T14:25:50Z</time>
      </trkpt>
      <trkpt lat="48.69254" lon="-3.31762">
        <ele>51</ele>
        <time>2015-11-03T14:25:53Z</time>
      </trkpt>
      <trkpt lat="48.69275" lon="-3.31755">
        <ele>51</ele>
        <time>2015-11-03T14:25:56Z</time>
      </trkpt>
      <trkpt lat="48.69297" lon="-3.31748">
        <ele>50</ele>
        <time>2015-11-03T14:25:59Z</time>
      </trkpt>
      <trkpt lat="48.69311" lon="-3.31744">
        <ele>50</ele>
        <time>2015-11-03T14:26:01Z</time>
      </trkpt>
      <trkpt lat="48.69333" lon="-3.3174">
        <ele>49</ele>
        <time>2015-11-03T14:26:04Z</time>
      </trkpt>
      <trkpt lat="48.69354" lon="-3.31736">
        <ele>49</ele>
        <time>2015-11-03T14:26:07Z</time>
      </trkpt>
      <trkpt lat="48.69376" lon="-3.31735">
        <ele>49</ele>
        <time>2015-11-03T14:26:10Z</time>
      </trkpt>
      <trkpt lat="48.69398" lon="-3.31734">
        <ele>49</ele>
        <time>2015-11-03T14:26:13Z</time>
      </trkpt>
      <trkpt lat="48.69412" lon="-3.31734">
        <ele>49</ele>
        <time>2015-11-03T14:26:15Z</time>
      </trkpt>
      <trkpt lat="48.69427" lon="-3.31733">
        <ele>49</ele>
        <time>2015-11-03T14:26:17Z</time>
      </trkpt>
      <trkpt lat="48.69446" lon="-3.31731">
        <ele>49</ele>
        <time>2015-11-03T14:26:20Z</time>
      </trkpt>
      <trkpt lat="48.69462" lon="-3.31726">
        <ele>49</ele>
        <time>2015-11-03T14:26:23Z</time>
      </trkpt>
      <trkpt lat="48.69477" lon="-3.31718">
        <ele>48</ele>
        <time>2015-11-03T14:26:26Z</time>
      </trkpt>
      <trkpt lat="48.69487" lon="-3.31711">
        <ele>48</ele>
        <time>2015-11-03T14:26:28Z</time>
      </trkpt>
      <trkpt lat="48.69498" lon="-3.31704">
        <ele>48</ele>
        <time>2015-11-03T14:26:30Z</time>
      </trkpt>
      <trkpt lat="48.6951" lon="-3.31696">
        <ele>48</ele>
        <time>2015-11-03T14:26:32Z</time>
      </trkpt>
      <trkpt lat="48.69528" lon="-3.31683">
        <ele>48</ele>
        <time>2015-11-03T14:26:35Z</time>
      </trkpt>
      <trkpt lat="48.69548" lon="-3.31665">
        <ele>48</ele>
        <time>2015-11-03T14:26:38Z</time>
      </trkpt>
      <trkpt lat="48.6956" lon="-3.31649">
        <ele>48</ele>
        <time>2015-11-03T14:26:40Z</time>
      </trkpt>
      <trkpt lat="48.69572" lon="-3.31632">
        <ele>48</ele>
        <time>2015-11-03T14:26:42Z</time>
      </trkpt>
      <trkpt lat="48.69583" lon="-3.31615">
        <ele>48</ele>
        <time>2015-11-03T14:26:44Z</time>
      </trkpt>
      <trkpt lat="48.69595" lon="-3.31599">
        <ele>47</ele>
        <time>2015-11-03T14:26:46Z</time>
      </trkpt>
      <trkpt lat="48.69607" lon="-3.31584">
        <ele>47</ele>
        <time>2015-11-03T14:26:48Z</time>
      </trkpt>
      <trkpt lat="48.69619" lon="-3.31571">
        <ele>47</ele>
        <time>2015-11-03T14:26:50Z</time>
      </trkpt>
      <trkpt lat="48.69638" lon="-3.31552">
        <ele>47</ele>
        <time>2015-11-03T14:26:53Z</time>
      </trkpt>
      <trkpt lat="48.69656" lon="-3.31533">
        <ele>47</ele>
        <time>2015-11-03T14:26:56Z</time>
      </trkpt>
      <trkpt lat="48.69673" lon="-3.31513">
        <ele>47</ele>
        <time>2015-11-03T14:26:59Z</time>
      </trkpt>
      <trkpt lat="48.6969" lon="-3.31492">
        <ele>47</ele>
        <time>2015-11-03T14:27:02Z</time>
      </trkpt>
      <trkpt lat="48.69706" lon="-3.31471">
        <ele>47</ele>
        <time>2015-11-03T14:27:05Z</time>
      </trkpt>
      <trkpt lat="48.69721" lon="-3.3145">
        <ele>47</ele>
        <time>2015-11-03T14:27:08Z</time>
      </trkpt>
      <trkpt lat="48.69742" lon="-3.31422">
        <ele>46</ele>
        <time>2015-11-03T14:27:12Z</time>
      </trkpt>
      <trkpt lat="48.69758" lon="-3.31403">
        <ele>46</ele>
        <time>2015-11-03T14:27:15Z</time>
      </trkpt>
      <trkpt lat="48.69776" lon="-3.31387">
        <ele>46</ele>
        <time>2015-11-03T14:27:18Z</time>
      </trkpt>
      <trkpt lat="48.69794" lon="-3.31372">
        <ele>46</ele>
        <time>2015-11-03T14:27:21Z</time>
      </trkpt>
      <trkpt lat="48.69812" lon="-3.31357">
        <ele>46</ele>
        <time>2015-11-03T14:27:24Z</time>
      </trkpt>
      <trkpt lat="48.69829" lon="-3.31341">
        <ele>45</ele>
        <time>2015-11-03T14:27:27Z</time>
      </trkpt>
      <trkpt lat="48.69841" lon="-3.31331">
        <ele>45</ele>
        <time>2015-11-03T14:27:29Z</time>
      </trkpt>
      <trkpt lat="48.69864" lon="-3.31308">
        <ele>45</ele>
        <time>2015-11-03T14:27:33Z</time>
      </trkpt>
      <trkpt lat="48.69876" lon="-3.31292">
        <ele>45</ele>
        <time>2015-11-03T14:27:35Z</time>
      </trkpt>
      <trkpt lat="48.69886" lon="-3.31274">
        <ele>45</ele>
        <time>2015-11-03T14:27:37Z</time>
      </trkpt>
      <trkpt lat="48.69903" lon="-3.31251">
        <ele>45</ele>
        <time>2015-11-03T14:27:40Z</time>
      </trkpt>
      <trkpt lat="48.69919" lon="-3.3123">
        <ele>45</ele>
        <time>2015-11-03T14:27:43Z</time>
      </trkpt>
      <trkpt lat="48.69936" lon="-3.3121">
        <ele>44</ele>
        <time>2015-11-03T14:27:46Z</time>
      </trkpt>
      <trkpt lat="48.69953" lon="-3.3119">
        <ele>44</ele>
        <time>2015-11-03T14:27:49Z</time>
      </trkpt>
      <trkpt lat="48.69971" lon="-3.31169">
        <ele>44</ele>
        <time>2015-11-03T14:27:52Z</time>
      </trkpt>
      <trkpt lat="48.69987" lon="-3.31147">
        <ele>44</ele>
        <time>2015-11-03T14:27:55Z</time>
      </trkpt>
      <trkpt lat="48.70002" lon="-3.31127">
        <ele>44</ele>
        <time>2015-11-03T14:27:58Z</time>
      </trkpt>
      <trkpt lat="48.7003" lon="-3.31091">
        <ele>43</ele>
        <time>2015-11-03T14:28:04Z</time>
      </trkpt>
      <trkpt lat="48.70047" lon="-3.31065">
        <ele>43</ele>
        <time>2015-11-03T14:28:08Z</time>
      </trkpt>
      <trkpt lat="48.70063" lon="-3.31037">
        <ele>43</ele>
        <time>2015-11-03T14:28:12Z</time>
      </trkpt>
      <trkpt lat="48.7008" lon="-3.31007">
        <ele>42</ele>
        <time>2015-11-03T14:28:16Z</time>
      </trkpt>
      <trkpt lat="48.70093" lon="-3.30982">
        <ele>42</ele>
        <time>2015-11-03T14:28:19Z</time>
      </trkpt>
      <trkpt lat="48.70106" lon="-3.30956">
        <ele>42</ele>
        <time>2015-11-03T14:28:22Z</time>
      </trkpt>
      <trkpt lat="48.70114" lon="-3.30939">
        <ele>41</ele>
        <time>2015-11-03T14:28:24Z</time>
      </trkpt>
      <trkpt lat="48.70135" lon="-3.30901">
        <ele>41</ele>
        <time>2015-11-03T14:28:29Z</time>
      </trkpt>
      <trkpt lat="48.70157" lon="-3.30866">
        <ele>40</ele>
        <time>2015-11-03T14:28:34Z</time>
      </trkpt>
      <trkpt lat="48.7017" lon="-3.30847">
        <ele>40</ele>
        <time>2015-11-03T14:28:37Z</time>
      </trkpt>
      <trkpt lat="48.70183" lon="-3.30828">
        <ele>40</ele>
        <time>2015-11-03T14:28:40Z</time>
      </trkpt>
      <trkpt lat="48.70197" lon="-3.30808">
        <ele>39</ele>
        <time>2015-11-03T14:28:43Z</time>
      </trkpt>
      <trkpt lat="48.7027" lon="-3.30718">
        <ele>38</ele>
        <time>2015-11-03T14:28:57Z</time>
      </trkpt>
      <trkpt lat="48.70297" lon="-3.30686">
        <ele>38</ele>
        <time>2015-11-03T14:29:01Z</time>
      </trkpt>
      <trkpt lat="48.70309" lon="-3.30669">
        <ele>37</ele>
        <time>2015-11-03T14:29:03Z</time>
      </trkpt>
      <trkpt lat="48.70322" lon="-3.30653">
        <ele>37</ele>
        <time>2015-11-03T14:29:05Z</time>
      </trkpt>
      <trkpt lat="48.70334" lon="-3.30638">
        <ele>36</ele>
        <time>2015-11-03T14:29:07Z</time>
      </trkpt>
      <trkpt lat="48.70346" lon="-3.30623">
        <ele>36</ele>
        <time>2015-11-03T14:29:09Z</time>
      </trkpt>
      <trkpt lat="48.70358" lon="-3.30608">
        <ele>36</ele>
        <time>2015-11-03T14:29:11Z</time>
      </trkpt>
      <trkpt lat="48.70369" lon="-3.30595">
        <ele>35</ele>
        <time>2015-11-03T14:29:13Z</time>
      </trkpt>
      <trkpt lat="48.70386" lon="-3.30576">
        <ele>35</ele>
        <time>2015-11-03T14:29:16Z</time>
      </trkpt>
      <trkpt lat="48.70403" lon="-3.30557">
        <ele>35</ele>
        <time>2015-11-03T14:29:19Z</time>
      </trkpt>
      <trkpt lat="48.70421" lon="-3.30539">
        <ele>34</ele>
        <time>2015-11-03T14:29:22Z</time>
      </trkpt>
      <trkpt lat="48.70433" lon="-3.30528">
        <ele>34</ele>
        <time>2015-11-03T14:29:24Z</time>
      </trkpt>
      <trkpt lat="48.70452" lon="-3.30511">
        <ele>33</ele>
        <time>2015-11-03T14:29:27Z</time>
      </trkpt>
      <trkpt lat="48.70465" lon="-3.305">
        <ele>33</ele>
        <time>2015-11-03T14:29:29Z</time>
      </trkpt>
      <trkpt lat="48.70478" lon="-3.30488">
        <ele>33</ele>
        <time>2015-11-03T14:29:31Z</time>
      </trkpt>
      <trkpt lat="48.70491" lon="-3.30477">
        <ele>33</ele>
        <time>2015-11-03T14:29:33Z</time>
      </trkpt>
      <trkpt lat="48.70509" lon="-3.3046">
        <ele>33</ele>
        <time>2015-11-03T14:29:36Z</time>
      </trkpt>
      <trkpt lat="48.70521" lon="-3.30448">
        <ele>33</ele>
        <time>2015-11-03T14:29:38Z</time>
      </trkpt>
      <trkpt lat="48.70539" lon="-3.30429">
        <ele>33</ele>
        <time>2015-11-03T14:29:41Z</time>
      </trkpt>
      <trkpt lat="48.70558" lon="-3.30409">
        <ele>33</ele>
        <time>2015-11-03T14:29:44Z</time>
      </trkpt>
      <trkpt lat="48.70571" lon="-3.30396">
        <ele>33</ele>
        <time>2015-11-03T14:29:46Z</time>
      </trkpt>
      <trkpt lat="48.7059" lon="-3.30379">
        <ele>32</ele>
        <time>2015-11-03T14:29:49Z</time>
      </trkpt>
      <trkpt lat="48.70608" lon="-3.30366">
        <ele>32</ele>
        <time>2015-11-03T14:29:52Z</time>
      </trkpt>
      <trkpt lat="48.7062" lon="-3.3036">
        <ele>32</ele>
        <time>2015-11-03T14:29:54Z</time>
      </trkpt>
      <trkpt lat="48.7063" lon="-3.30354">
        <ele>32</ele>
        <time>2015-11-03T14:29:56Z</time>
      </trkpt>
      <trkpt lat="48.70638" lon="-3.30348">
        <ele>32</ele>
        <time>2015-11-03T14:29:58Z</time>
      </trkpt>
      <trkpt lat="48.70646" lon="-3.30342">
        <ele>32</ele>
        <time>2015-11-03T14:30:00Z</time>
      </trkpt>
      <trkpt lat="48.70654" lon="-3.30336">
        <ele>32</ele>
        <time>2015-11-03T14:30:02Z</time>
      </trkpt>
      <trkpt lat="48.7067" lon="-3.30324">
        <ele>32</ele>
        <time>2015-11-03T14:30:06Z</time>
      </trkpt>
      <trkpt lat="48.70685" lon="-3.30313">
        <ele>32</ele>
        <time>2015-11-03T14:30:10Z</time>
      </trkpt>
      <trkpt lat="48.70696" lon="-3.30304">
        <ele>33</ele>
        <time>2015-11-03T14:30:13Z</time>
      </trkpt>
      <trkpt lat="48.70706" lon="-3.30295">
        <ele>33</ele>
        <time>2015-11-03T14:30:16Z</time>
      </trkpt>
      <trkpt lat="48.70715" lon="-3.30288">
        <ele>33</ele>
        <time>2015-11-03T14:30:19Z</time>
      </trkpt>
      <trkpt lat="48.70724" lon="-3.30281">
        <ele>33</ele>
        <time>2015-11-03T14:30:22Z</time>
      </trkpt>
      <trkpt lat="48.70741" lon="-3.30269">
        <ele>33</ele>
        <time>2015-11-03T14:30:27Z</time>
      </trkpt>
      <trkpt lat="48.70755" lon="-3.30259">
        <ele>33</ele>
        <time>2015-11-03T14:30:31Z</time>
      </trkpt>
      <trkpt lat="48.70772" lon="-3.30249">
        <ele>33</ele>
        <time>2015-11-03T14:30:36Z</time>
      </trkpt>
      <trkpt lat="48.70783" lon="-3.30243">
        <ele>33</ele>
        <time>2015-11-03T14:30:39Z</time>
      </trkpt>
      <trkpt lat="48.70793" lon="-3.30236">
        <ele>33</ele>
        <time>2015-11-03T14:30:42Z</time>
      </trkpt>
      <trkpt lat="48.70808" lon="-3.30226">
        <ele>33</ele>
        <time>2015-11-03T14:30:47Z</time>
      </trkpt>
      <trkpt lat="48.70825" lon="-3.30217">
        <ele>34</ele>
        <time>2015-11-03T14:30:52Z</time>
      </trkpt>
      <trkpt lat="48.70839" lon="-3.3021">
        <ele>34</ele>
        <time>2015-11-03T14:30:56Z</time>
      </trkpt>
      <trkpt lat="48.7085" lon="-3.30204">
        <ele>35</ele>
        <time>2015-11-03T14:30:59Z</time>
      </trkpt>
      <trkpt lat="48.70865" lon="-3.30197">
        <ele>35</ele>
        <time>2015-11-03T14:31:03Z</time>
      </trkpt>
      <trkpt lat="48.70874" lon="-3.30192">
        <ele>35</ele>
        <time>2015-11-03T14:31:06Z</time>
      </trkpt>
      <trkpt lat="48.70883" lon="-3.30188">
        <ele>35</ele>
        <time>2015-11-03T14:31:09Z</time>
      </trkpt>
      <trkpt lat="48.709" lon="-3.30178">
        <ele>35</ele>
        <time>2015-11-03T14:31:15Z</time>
      </trkpt>
      <trkpt lat="48.70915" lon="-3.30168">
        <ele>36</ele>
        <time>2015-11-03T14:31:20Z</time>
      </trkpt>
      <trkpt lat="48.7093" lon="-3.30156">
        <ele>36</ele>
        <time>2015-11-03T14:31:25Z</time>
      </trkpt>
      <trkpt lat="48.70947" lon="-3.3014">
        <ele>37</ele>
        <time>2015-11-03T14:31:31Z</time>
      </trkpt>
      <trkpt lat="48.70961" lon="-3.30126">
        <ele>37</ele>
        <time>2015-11-03T14:31:36Z</time>
      </trkpt>
      <trkpt lat="48.70973" lon="-3.30112">
        <ele>37</ele>
        <time>2015-11-03T14:31:40Z</time>
      </trkpt>
      <trkpt lat="48.70987" lon="-3.30096">
        <ele>37</ele>
        <time>2015-11-03T14:31:44Z</time>
      </trkpt>
      <trkpt lat="48.71001" lon="-3.30078">
        <ele>38</ele>
        <time>2015-11-03T14:31:48Z</time>
      </trkpt>
      <trkpt lat="48.71013" lon="-3.3006">
        <ele>38</ele>
        <time>2015-11-03T14:31:51Z</time>
      </trkpt>
      <trkpt lat="48.71038" lon="-3.30024">
        <ele>38</ele>
        <time>2015-11-03T14:31:57Z</time>
      </trkpt>
      <trkpt lat="48.71051" lon="-3.30006">
        <ele>38</ele>
        <time>2015-11-03T14:32:00Z</time>
      </trkpt>
      <trkpt lat="48.71064" lon="-3.29987">
        <ele>38</ele>
        <time>2015-11-03T14:32:03Z</time>
      </trkpt>
      <trkpt lat="48.71075" lon="-3.29969">
        <ele>38</ele>
        <time>2015-11-03T14:32:06Z</time>
      </trkpt>
      <trkpt lat="48.71088" lon="-3.29951">
        <ele>38</ele>
        <time>2015-11-03T14:32:09Z</time>
      </trkpt>
      <trkpt lat="48.71096" lon="-3.2994">
        <ele>39</ele>
        <time>2015-11-03T14:32:11Z</time>
      </trkpt>
      <trkpt lat="48.71108" lon="-3.29923">
        <ele>39</ele>
        <time>2015-11-03T14:32:14Z</time>
      </trkpt>
      <trkpt lat="48.71122" lon="-3.29907">
        <ele>39</ele>
        <time>2015-11-03T14:32:17Z</time>
      </trkpt>
      <trkpt lat="48.71135" lon="-3.29892">
        <ele>39</ele>
        <time>2015-11-03T14:32:20Z</time>
      </trkpt>
      <trkpt lat="48.71149" lon="-3.29878">
        <ele>39</ele>
        <time>2015-11-03T14:32:23Z</time>
      </trkpt>
      <trkpt lat="48.71167" lon="-3.29858">
        <ele>39</ele>
        <time>2015-11-03T14:32:27Z</time>
      </trkpt>
      <trkpt lat="48.71179" lon="-3.29844">
        <ele>39</ele>
        <time>2015-11-03T14:32:30Z</time>
      </trkpt>
      <trkpt lat="48.71196" lon="-3.29827">
        <ele>39</ele>
        <time>2015-11-03T14:32:34Z</time>
      </trkpt>
      <trkpt lat="48.7121" lon="-3.29808">
        <ele>39</ele>
        <time>2015-11-03T14:32:38Z</time>
      </trkpt>
      <trkpt lat="48.71224" lon="-3.29789">
        <ele>39</ele>
        <time>2015-11-03T14:32:42Z</time>
      </trkpt>
      <trkpt lat="48.71242" lon="-3.29764">
        <ele>39</ele>
        <time>2015-11-03T14:32:47Z</time>
      </trkpt>
      <trkpt lat="48.71267" lon="-3.29729">
        <ele>39</ele>
        <time>2015-11-03T14:32:54Z</time>
      </trkpt>
      <trkpt lat="48.71373" lon="-3.29572">
        <ele>85</ele>
        <time>2015-11-03T14:33:25Z</time>
      </trkpt>
      <trkpt lat="48.71509" lon="-3.2938">
        <ele>39</ele>
        <time>2015-11-03T14:33:59Z</time>
      </trkpt>
      <trkpt lat="48.71527" lon="-3.29359">
        <ele>40</ele>
        <time>2015-11-03T14:34:02Z</time>
      </trkpt>
      <trkpt lat="48.71546" lon="-3.29339">
        <ele>40</ele>
        <time>2015-11-03T14:34:05Z</time>
      </trkpt>
      <trkpt lat="48.71564" lon="-3.29322">
        <ele>40</ele>
        <time>2015-11-03T14:34:08Z</time>
      </trkpt>
      <trkpt lat="48.71582" lon="-3.29305">
        <ele>40</ele>
        <time>2015-11-03T14:34:11Z</time>
      </trkpt>
      <trkpt lat="48.716" lon="-3.2929">
        <ele>40</ele>
        <time>2015-11-03T14:34:14Z</time>
      </trkpt>
      <trkpt lat="48.71618" lon="-3.29276">
        <ele>40</ele>
        <time>2015-11-03T14:34:17Z</time>
      </trkpt>
      <trkpt lat="48.71636" lon="-3.29264">
        <ele>40</ele>
        <time>2015-11-03T14:34:20Z</time>
      </trkpt>
      <trkpt lat="48.71649" lon="-3.29256">
        <ele>40</ele>
        <time>2015-11-03T14:34:22Z</time>
      </trkpt>
      <trkpt lat="48.71669" lon="-3.29244">
        <ele>40</ele>
        <time>2015-11-03T14:34:25Z</time>
      </trkpt>
      <trkpt lat="48.71682" lon="-3.29237">
        <ele>39</ele>
        <time>2015-11-03T14:34:27Z</time>
      </trkpt>
      <trkpt lat="48.71696" lon="-3.29231">
        <ele>39</ele>
        <time>2015-11-03T14:34:29Z</time>
      </trkpt>
      <trkpt lat="48.7171" lon="-3.29225">
        <ele>39</ele>
        <time>2015-11-03T14:34:31Z</time>
      </trkpt>
      <trkpt lat="48.71732" lon="-3.29218">
        <ele>39</ele>
        <time>2015-11-03T14:34:34Z</time>
      </trkpt>
      <trkpt lat="48.71747" lon="-3.29214">
        <ele>39</ele>
        <time>2015-11-03T14:34:36Z</time>
      </trkpt>
      <trkpt lat="48.71763" lon="-3.2921">
        <ele>38</ele>
        <time>2015-11-03T14:34:38Z</time>
      </trkpt>
      <trkpt lat="48.71778" lon="-3.29207">
        <ele>38</ele>
        <time>2015-11-03T14:34:40Z</time>
      </trkpt>
      <trkpt lat="48.71795" lon="-3.29203">
        <ele>38</ele>
        <time>2015-11-03T14:34:42Z</time>
      </trkpt>
      <trkpt lat="48.7181" lon="-3.29199">
        <ele>38</ele>
        <time>2015-11-03T14:34:44Z</time>
      </trkpt>
      <trkpt lat="48.71826" lon="-3.29196">
        <ele>38</ele>
        <time>2015-11-03T14:34:46Z</time>
      </trkpt>
      <trkpt lat="48.71841" lon="-3.29193">
        <ele>38</ele>
        <time>2015-11-03T14:34:48Z</time>
      </trkpt>
      <trkpt lat="48.71856" lon="-3.2919">
        <ele>38</ele>
        <time>2015-11-03T14:34:50Z</time>
      </trkpt>
      <trkpt lat="48.71871" lon="-3.29186">
        <ele>38</ele>
        <time>2015-11-03T14:34:52Z</time>
      </trkpt>
      <trkpt lat="48.71892" lon="-3.29182">
        <ele>38</ele>
        <time>2015-11-03T14:34:55Z</time>
      </trkpt>
      <trkpt lat="48.71906" lon="-3.29178">
        <ele>38</ele>
        <time>2015-11-03T14:34:57Z</time>
      </trkpt>
      <trkpt lat="48.71921" lon="-3.29175">
        <ele>38</ele>
        <time>2015-11-03T14:34:59Z</time>
      </trkpt>
      <trkpt lat="48.71936" lon="-3.29172">
        <ele>38</ele>
        <time>2015-11-03T14:35:01Z</time>
      </trkpt>
      <trkpt lat="48.71951" lon="-3.29168">
        <ele>38</ele>
        <time>2015-11-03T14:35:03Z</time>
      </trkpt>
      <trkpt lat="48.71966" lon="-3.29165">
        <ele>38</ele>
        <time>2015-11-03T14:35:05Z</time>
      </trkpt>
      <trkpt lat="48.71981" lon="-3.29162">
        <ele>38</ele>
        <time>2015-11-03T14:35:07Z</time>
      </trkpt>
      <trkpt lat="48.71997" lon="-3.29158">
        <ele>38</ele>
        <time>2015-11-03T14:35:09Z</time>
      </trkpt>
      <trkpt lat="48.72012" lon="-3.29153">
        <ele>38</ele>
        <time>2015-11-03T14:35:11Z</time>
      </trkpt>
      <trkpt lat="48.72026" lon="-3.29148">
        <ele>38</ele>
        <time>2015-11-03T14:35:13Z</time>
      </trkpt>
      <trkpt lat="48.72041" lon="-3.29143">
        <ele>38</ele>
        <time>2015-11-03T14:35:15Z</time>
      </trkpt>
      <trkpt lat="48.72056" lon="-3.29138">
        <ele>38</ele>
        <time>2015-11-03T14:35:17Z</time>
      </trkpt>
      <trkpt lat="48.7207" lon="-3.29133">
        <ele>38</ele>
        <time>2015-11-03T14:35:19Z</time>
      </trkpt>
      <trkpt lat="48.72085" lon="-3.29128">
        <ele>38</ele>
        <time>2015-11-03T14:35:21Z</time>
      </trkpt>
      <trkpt lat="48.72106" lon="-3.29119">
        <ele>38</ele>
        <time>2015-11-03T14:35:24Z</time>
      </trkpt>
      <trkpt lat="48.7212" lon="-3.29112">
        <ele>38</ele>
        <time>2015-11-03T14:35:26Z</time>
      </trkpt>
      <trkpt lat="48.72133" lon="-3.29104">
        <ele>38</ele>
        <time>2015-11-03T14:35:28Z</time>
      </trkpt>
      <trkpt lat="48.72151" lon="-3.29091">
        <ele>38</ele>
        <time>2015-11-03T14:35:31Z</time>
      </trkpt>
      <trkpt lat="48.72168" lon="-3.29078">
        <ele>38</ele>
        <time>2015-11-03T14:35:34Z</time>
      </trkpt>
      <trkpt lat="48.7218" lon="-3.29069">
        <ele>38</ele>
        <time>2015-11-03T14:35:36Z</time>
      </trkpt>
      <trkpt lat="48.72192" lon="-3.29061">
        <ele>38</ele>
        <time>2015-11-03T14:35:38Z</time>
      </trkpt>
      <trkpt lat="48.7221" lon="-3.29047">
        <ele>38</ele>
        <time>2015-11-03T14:35:41Z</time>
      </trkpt>
      <trkpt lat="48.72228" lon="-3.29032">
        <ele>38</ele>
        <time>2015-11-03T14:35:44Z</time>
      </trkpt>
      <trkpt lat="48.72245" lon="-3.29018">
        <ele>38</ele>
        <time>2015-11-03T14:35:47Z</time>
      </trkpt>
      <trkpt lat="48.72257" lon="-3.29008">
        <ele>38</ele>
        <time>2015-11-03T14:35:49Z</time>
      </trkpt>
      <trkpt lat="48.72269" lon="-3.28999">
        <ele>38</ele>
        <time>2015-11-03T14:35:51Z</time>
      </trkpt>
      <trkpt lat="48.72282" lon="-3.28988">
        <ele>38</ele>
        <time>2015-11-03T14:35:53Z</time>
      </trkpt>
      <trkpt lat="48.723" lon="-3.28973">
        <ele>38</ele>
        <time>2015-11-03T14:35:56Z</time>
      </trkpt>
      <trkpt lat="48.72318" lon="-3.28957">
        <ele>38</ele>
        <time>2015-11-03T14:35:59Z</time>
      </trkpt>
      <trkpt lat="48.72333" lon="-3.28944">
        <ele>38</ele>
        <time>2015-11-03T14:36:02Z</time>
      </trkpt>
      <trkpt lat="48.72347" lon="-3.28932">
        <ele>37</ele>
        <time>2015-11-03T14:36:05Z</time>
      </trkpt>
      <trkpt lat="48.72361" lon="-3.28919">
        <ele>37</ele>
        <time>2015-11-03T14:36:08Z</time>
      </trkpt>
      <trkpt lat="48.72378" lon="-3.28904">
        <ele>37</ele>
        <time>2015-11-03T14:36:11Z</time>
      </trkpt>
      <trkpt lat="48.72391" lon="-3.28892">
        <ele>37</ele>
        <time>2015-11-03T14:36:13Z</time>
      </trkpt>
      <trkpt lat="48.72405" lon="-3.28878">
        <ele>37</ele>
        <time>2015-11-03T14:36:15Z</time>
      </trkpt>
      <trkpt lat="48.7242" lon="-3.28863">
        <ele>37</ele>
        <time>2015-11-03T14:36:17Z</time>
      </trkpt>
      <trkpt lat="48.72435" lon="-3.28848">
        <ele>37</ele>
        <time>2015-11-03T14:36:19Z</time>
      </trkpt>
      <trkpt lat="48.7245" lon="-3.28832">
        <ele>37</ele>
        <time>2015-11-03T14:36:21Z</time>
      </trkpt>
      <trkpt lat="48.72465" lon="-3.28816">
        <ele>37</ele>
        <time>2015-11-03T14:36:23Z</time>
      </trkpt>
      <trkpt lat="48.72473" lon="-3.28808">
        <ele>37</ele>
        <time>2015-11-03T14:36:24Z</time>
      </trkpt>
      <trkpt lat="48.72497" lon="-3.28785">
        <ele>36</ele>
        <time>2015-11-03T14:36:27Z</time>
      </trkpt>
      <trkpt lat="48.72513" lon="-3.2877">
        <ele>36</ele>
        <time>2015-11-03T14:36:29Z</time>
      </trkpt>
      <trkpt lat="48.72529" lon="-3.28755">
        <ele>36</ele>
        <time>2015-11-03T14:36:31Z</time>
      </trkpt>
      <trkpt lat="48.72546" lon="-3.28739">
        <ele>36</ele>
        <time>2015-11-03T14:36:33Z</time>
      </trkpt>
      <trkpt lat="48.72554" lon="-3.28732">
        <ele>36</ele>
        <time>2015-11-03T14:36:34Z</time>
      </trkpt>
      <trkpt lat="48.72688" lon="-3.28649">
        <ele>35</ele>
        <time>2015-11-03T14:36:49Z</time>
      </trkpt>
      <trkpt lat="48.72706" lon="-3.28637">
        <ele>35</ele>
        <time>2015-11-03T14:36:51Z</time>
      </trkpt>
      <trkpt lat="48.72723" lon="-3.28624">
        <ele>34</ele>
        <time>2015-11-03T14:36:53Z</time>
      </trkpt>
      <trkpt lat="48.72739" lon="-3.28611">
        <ele>34</ele>
        <time>2015-11-03T14:36:55Z</time>
      </trkpt>
      <trkpt lat="48.72756" lon="-3.28598">
        <ele>33</ele>
        <time>2015-11-03T14:36:57Z</time>
      </trkpt>
      <trkpt lat="48.72866" lon="-3.28513">
        <ele>31</ele>
        <time>2015-11-03T14:37:09Z</time>
      </trkpt>
      <trkpt lat="48.72876" lon="-3.28508">
        <ele>31</ele>
        <time>2015-11-03T14:37:10Z</time>
      </trkpt>
      <trkpt lat="48.72983" lon="-3.28441">
        <ele>28</ele>
        <time>2015-11-03T14:37:20Z</time>
      </trkpt>
      <trkpt lat="48.73003" lon="-3.28423">
        <ele>27</ele>
        <time>2015-11-03T14:37:22Z</time>
      </trkpt>
      <trkpt lat="48.73013" lon="-3.28413">
        <ele>27</ele>
        <time>2015-11-03T14:37:23Z</time>
      </trkpt>
      <trkpt lat="48.73032" lon="-3.28394">
        <ele>26</ele>
        <time>2015-11-03T14:37:25Z</time>
      </trkpt>
      <trkpt lat="48.73041" lon="-3.28384">
        <ele>25</ele>
        <time>2015-11-03T14:37:26Z</time>
      </trkpt>
      <trkpt lat="48.7305" lon="-3.28374">
        <ele>24</ele>
        <time>2015-11-03T14:37:27Z</time>
      </trkpt>
      <trkpt lat="48.73058" lon="-3.28363">
        <ele>23</ele>
        <time>2015-11-03T14:37:28Z</time>
      </trkpt>
      <trkpt lat="48.73066" lon="-3.28352">
        <ele>22</ele>
        <time>2015-11-03T14:37:29Z</time>
      </trkpt>
      <trkpt lat="48.73074" lon="-3.2834">
        <ele>21</ele>
        <time>2015-11-03T14:37:30Z</time>
      </trkpt>
      <trkpt lat="48.73081" lon="-3.28328">
        <ele>20</ele>
        <time>2015-11-03T14:37:31Z</time>
      </trkpt>
      <trkpt lat="48.73087" lon="-3.28316">
        <ele>19</ele>
        <time>2015-11-03T14:37:32Z</time>
      </trkpt>
      <trkpt lat="48.73092" lon="-3.28302">
        <ele>19</ele>
        <time>2015-11-03T14:37:33Z</time>
      </trkpt>
      <trkpt lat="48.73096" lon="-3.28289">
        <ele>18</ele>
        <time>2015-11-03T14:37:34Z</time>
      </trkpt>
      <trkpt lat="48.731" lon="-3.28276">
        <ele>17</ele>
        <time>2015-11-03T14:37:35Z</time>
      </trkpt>
      <trkpt lat="48.73104" lon="-3.28263">
        <ele>16</ele>
        <time>2015-11-03T14:37:36Z</time>
      </trkpt>
      <trkpt lat="48.73108" lon="-3.2825">
        <ele>15</ele>
        <time>2015-11-03T14:37:37Z</time>
      </trkpt>
      <trkpt lat="48.73122" lon="-3.28214">
        <ele>14</ele>
        <time>2015-11-03T14:37:40Z</time>
      </trkpt>
      <trkpt lat="48.73126" lon="-3.28202">
        <ele>14</ele>
        <time>2015-11-03T14:37:41Z</time>
      </trkpt>
      <trkpt lat="48.7313" lon="-3.28189">
        <ele>13</ele>
        <time>2015-11-03T14:37:42Z</time>
      </trkpt>
      <trkpt lat="48.73134" lon="-3.28176">
        <ele>13</ele>
        <time>2015-11-03T14:37:43Z</time>
      </trkpt>
      <trkpt lat="48.73139" lon="-3.28163">
        <ele>12</ele>
        <time>2015-11-03T14:37:44Z</time>
      </trkpt>
      <trkpt lat="48.73143" lon="-3.2815">
        <ele>11</ele>
        <time>2015-11-03T14:37:45Z</time>
      </trkpt>
      <trkpt lat="48.73147" lon="-3.28138">
        <ele>10</ele>
        <time>2015-11-03T14:37:46Z</time>
      </trkpt>
      <trkpt lat="48.73151" lon="-3.28125">
        <ele>10</ele>
        <time>2015-11-03T14:37:47Z</time>
      </trkpt>
      <trkpt lat="48.73155" lon="-3.28112">
        <ele>9</ele>
        <time>2015-11-03T14:37:48Z</time>
      </trkpt>
      <trkpt lat="48.73159" lon="-3.281">
        <ele>8</ele>
        <time>2015-11-03T14:37:49Z</time>
      </trkpt>
      <trkpt lat="48.73163" lon="-3.28088">
        <ele>8</ele>
        <time>2015-11-03T14:37:50Z</time>
      </trkpt>
      <trkpt lat="48.73167" lon="-3.28075">
        <ele>7</ele>
        <time>2015-11-03T14:37:51Z</time>
      </trkpt>
      <trkpt lat="48.73171" lon="-3.28063">
        <ele>6</ele>
        <time>2015-11-03T14:37:52Z</time>
      </trkpt>
      <trkpt lat="48.73185" lon="-3.28026">
        <ele>6</ele>
        <time>2015-11-03T14:37:55Z</time>
      </trkpt>
      <trkpt lat="48.73195" lon="-3.28004">
        <ele>5</ele>
        <time>2015-11-03T14:37:57Z</time>
      </trkpt>
      <trkpt lat="48.73207" lon="-3.27986">
        <ele>4</ele>
        <time>2015-11-03T14:37:59Z</time>
      </trkpt>
      <trkpt lat="48.7322" lon="-3.27969">
        <ele>4</ele>
        <time>2015-11-03T14:38:01Z</time>
      </trkpt>
      <trkpt lat="48.73232" lon="-3.27952">
        <ele>3</ele>
        <time>2015-11-03T14:38:03Z</time>
      </trkpt>
      <trkpt lat="48.73249" lon="-3.27927">
        <ele>2</ele>
        <time>2015-11-03T14:38:06Z</time>
      </trkpt>
      <trkpt lat="48.73266" lon="-3.279">
        <ele>13.2</ele>
        <time>2015-11-03T14:38:09Z</time>
      </trkpt>
      <trkpt lat="48.73275" lon="-3.27881">
        <ele>-1</ele>
        <time>2015-11-03T14:38:11Z</time>
      </trkpt>
      <trkpt lat="48.73286" lon="-3.27863">
        <ele>-2</ele>
        <time>2015-11-03T14:38:13Z</time>
      </trkpt>
      <trkpt lat="48.73296" lon="-3.27844">
        <ele>-3</ele>
        <time>2015-11-03T14:38:15Z</time>
      </trkpt>
      <trkpt lat="48.73314" lon="-3.27817">
        <ele>-4</ele>
        <time>2015-11-03T14:38:18Z</time>
      </trkpt>
      <trkpt lat="48.73325" lon="-3.278">
        <ele>-5</ele>
        <time>2015-11-03T14:38:20Z</time>
      </trkpt>
      <trkpt lat="48.73338" lon="-3.27784">
        <ele>-6</ele>
        <time>2015-11-03T14:38:22Z</time>
      </trkpt>
      <trkpt lat="48.73356" lon="-3.27766">
        <ele>-8</ele>
        <time>2015-11-03T14:38:25Z</time>
      </trkpt>
      <trkpt lat="48.73376" lon="-3.27755">
        <ele>-9</ele>
        <time>2015-11-03T14:38:28Z</time>
      </trkpt>
      <trkpt lat="48.73397" lon="-3.27746">
        <ele>-10</ele>
        <time>2015-11-03T14:38:31Z</time>
      </trkpt>
      <trkpt lat="48.73431" lon="-3.27731">
        <ele>-12</ele>
        <time>2015-11-03T14:38:36Z</time>
      </trkpt>
      <trkpt lat="48.7345" lon="-3.2772">
        <ele>-13</ele>
        <time>2015-11-03T14:38:39Z</time>
      </trkpt>
      <trkpt lat="48.73462" lon="-3.27711">
        <ele>-14</ele>
        <time>2015-11-03T14:38:41Z</time>
      </trkpt>
      <trkpt lat="48.7348" lon="-3.27695">
        <ele>-16</ele>
        <time>2015-11-03T14:38:44Z</time>
      </trkpt>
      <trkpt lat="48.7349" lon="-3.27684">
        <ele>-18</ele>
        <time>2015-11-03T14:38:46Z</time>
      </trkpt>
      <trkpt lat="48.73505" lon="-3.27667">
        <ele>-19</ele>
        <time>2015-11-03T14:38:49Z</time>
      </trkpt>
      <trkpt lat="48.73515" lon="-3.27655">
        <ele>-20</ele>
        <time>2015-11-03T14:38:51Z</time>
      </trkpt>
      <trkpt lat="48.73525" lon="-3.27643">
        <ele>-21</ele>
        <time>2015-11-03T14:38:53Z</time>
      </trkpt>
      <trkpt lat="48.73539" lon="-3.27625">
        <ele>-22</ele>
        <time>2015-11-03T14:38:56Z</time>
      </trkpt>
      <trkpt lat="48.73553" lon="-3.27606">
        <ele>-23</ele>
        <time>2015-11-03T14:38:59Z</time>
      </trkpt>
      <trkpt lat="48.73565" lon="-3.27586">
        <ele>-24</ele>
        <time>2015-11-03T14:39:02Z</time>
      </trkpt>
      <trkpt lat="48.73577" lon="-3.27565">
        <ele>-25</ele>
        <time>2015-11-03T14:39:05Z</time>
      </trkpt>
      <trkpt lat="48.73588" lon="-3.27546">
        <ele>-25</ele>
        <time>2015-11-03T14:39:08Z</time>
      </trkpt>
      <trkpt lat="48.73644" lon="-3.27428">
        <ele>-27</ele>
        <time>2015-11-03T14:39:26Z</time>
      </trkpt>
      <trkpt lat="48.73657" lon="-3.27404">
        <ele>-28</ele>
        <time>2015-11-03T14:39:30Z</time>
      </trkpt>
      <trkpt lat="48.73665" lon="-3.27388">
        <ele>-29</ele>
        <time>2015-11-03T14:39:33Z</time>
      </trkpt>
      <trkpt lat="48.73671" lon="-3.27376">
        <ele>-30</ele>
        <time>2015-11-03T14:39:35Z</time>
      </trkpt>
      <trkpt lat="48.73683" lon="-3.27355">
        <ele>-30</ele>
        <time>2015-11-03T14:39:39Z</time>
      </trkpt>
      <trkpt lat="48.73695" lon="-3.27333">
        <ele>-31</ele>
        <time>2015-11-03T14:39:43Z</time>
      </trkpt>
      <trkpt lat="48.73703" lon="-3.27316">
        <ele>-31</ele>
        <time>2015-11-03T14:39:46Z</time>
      </trkpt>
      <trkpt lat="48.73714" lon="-3.27294">
        <ele>-32</ele>
        <time>2015-11-03T14:39:50Z</time>
      </trkpt>
      <trkpt lat="48.73724" lon="-3.27274">
        <ele>-32</ele>
        <time>2015-11-03T14:39:54Z</time>
      </trkpt>
      <trkpt lat="48.73734" lon="-3.27254">
        <ele>-32</ele>
        <time>2015-11-03T14:39:58Z</time>
      </trkpt>
      <trkpt lat="48.73743" lon="-3.27231">
        <ele>-33</ele>
        <time>2015-11-03T14:40:02Z</time>
      </trkpt>
      <trkpt lat="48.73747" lon="-3.27219">
        <ele>-33</ele>
        <time>2015-11-03T14:40:04Z</time>
      </trkpt>
      <trkpt lat="48.73751" lon="-3.27206">
        <ele>-33</ele>
        <time>2015-11-03T14:40:06Z</time>
      </trkpt>
      <trkpt lat="48.73758" lon="-3.27179">
        <ele>-33</ele>
        <time>2015-11-03T14:40:10Z</time>
      </trkpt>
      <trkpt lat="48.73765" lon="-3.27153">
        <ele>-33</ele>
        <time>2015-11-03T14:40:14Z</time>
      </trkpt>
      <trkpt lat="48.73771" lon="-3.27127">
        <ele>-33</ele>
        <time>2015-11-03T14:40:18Z</time>
      </trkpt>
      <trkpt lat="48.73776" lon="-3.27102">
        <ele>-33</ele>
        <time>2015-11-03T14:40:22Z</time>
      </trkpt>
      <trkpt lat="48.73781" lon="-3.27079">
        <ele>-33</ele>
        <time>2015-11-03T14:40:26Z</time>
      </trkpt>
      <trkpt lat="48.73788" lon="-3.27054">
        <ele>-33</ele>
        <time>2015-11-03T14:40:31Z</time>
      </trkpt>
      <trkpt lat="48.73791" lon="-3.2704">
        <ele>-33</ele>
        <time>2015-11-03T14:40:34Z</time>
      </trkpt>
      <trkpt lat="48.73798" lon="-3.27015">
        <ele>-33</ele>
        <time>2015-11-03T14:40:40Z</time>
      </trkpt>
      <trkpt lat="48.73804" lon="-3.26995">
        <ele>-33</ele>
        <time>2015-11-03T14:40:45Z</time>
      </trkpt>
      <trkpt lat="48.73813" lon="-3.26975">
        <ele>-33</ele>
        <time>2015-11-03T14:40:51Z</time>
      </trkpt>
      <trkpt lat="48.73825" lon="-3.26955">
        <ele>-32</ele>
        <time>2015-11-03T14:40:58Z</time>
      </trkpt>
      <trkpt lat="48.73835" lon="-3.2694">
        <ele>-32</ele>
        <time>2015-11-03T14:41:04Z</time>
      </trkpt>
      <trkpt lat="48.73846" lon="-3.26927">
        <ele>-31</ele>
        <time>2015-11-03T14:41:10Z</time>
      </trkpt>
      <trkpt lat="48.73854" lon="-3.26917">
        <ele>-30</ele>
        <time>2015-11-03T14:41:14Z</time>
      </trkpt>
      <trkpt lat="48.73861" lon="-3.26909">
        <ele>-30</ele>
        <time>2015-11-03T14:41:18Z</time>
      </trkpt>
      <trkpt lat="48.73875" lon="-3.26894">
        <ele>-29</ele>
        <time>2015-11-03T14:41:26Z</time>
      </trkpt>
      <trkpt lat="48.73895" lon="-3.26879">
        <ele>-29</ele>
        <time>2015-11-03T14:41:37Z</time>
      </trkpt>
      <trkpt lat="48.7391" lon="-3.26868">
        <ele>-28</ele>
        <time>2015-11-03T14:41:45Z</time>
      </trkpt>
      <trkpt lat="48.73925" lon="-3.26857">
        <ele>-28</ele>
        <time>2015-11-03T14:41:52Z</time>
      </trkpt>
      <trkpt lat="48.73939" lon="-3.26847">
        <ele>-27</ele>
        <time>2015-11-03T14:41:58Z</time>
      </trkpt>
      <trkpt lat="48.73954" lon="-3.26834">
        <ele>-27</ele>
        <time>2015-11-03T14:42:02Z</time>
      </trkpt>
      <trkpt lat="48.73969" lon="-3.26821">
        <ele>-27</ele>
        <time>2015-11-03T14:42:06Z</time>
      </trkpt>
      <trkpt lat="48.73983" lon="-3.26807">
        <ele>-27</ele>
        <time>2015-11-03T14:42:10Z</time>
      </trkpt>
      <trkpt lat="48.74" lon="-3.26792">
        <ele>-26</ele>
        <time>2015-11-03T14:42:14Z</time>
      </trkpt>
      <trkpt lat="48.74008" lon="-3.26783">
        <ele>-26</ele>
        <time>2015-11-03T14:42:16Z</time>
      </trkpt>
      <trkpt lat="48.74021" lon="-3.26768">
        <ele>-26</ele>
        <time>2015-11-03T14:42:19Z</time>
      </trkpt>
      <trkpt lat="48.74035" lon="-3.26752">
        <ele>-26</ele>
        <time>2015-11-03T14:42:22Z</time>
      </trkpt>
      <trkpt lat="48.74049" lon="-3.26735">
        <ele>-26</ele>
        <time>2015-11-03T14:42:25Z</time>
      </trkpt>
      <trkpt lat="48.74064" lon="-3.26717">
        <ele>-25</ele>
        <time>2015-11-03T14:42:28Z</time>
      </trkpt>
      <trkpt lat="48.7408" lon="-3.26699">
        <ele>-25</ele>
        <time>2015-11-03T14:42:31Z</time>
      </trkpt>
      <trkpt lat="48.74108" lon="-3.26641">
        <ele>17.2</ele>
        <time>2015-11-03T14:42:37Z</time>
      </trkpt>
      <trkpt lat="48.74147" lon="-3.26566">
        <ele>-25</ele>
        <time>2015-11-03T14:42:45Z</time>
      </trkpt>
      <trkpt lat="48.7417" lon="-3.26545">
        <ele>-25</ele>
        <time>2015-11-03T14:42:49Z</time>
      </trkpt>
      <trkpt lat="48.74187" lon="-3.26537">
        <ele>-25</ele>
        <time>2015-11-03T14:42:52Z</time>
      </trkpt>
      <trkpt lat="48.74197" lon="-3.26531">
        <ele>-26</ele>
        <time>2015-11-03T14:42:54Z</time>
      </trkpt>
      <trkpt lat="48.74216" lon="-3.26518">
        <ele>-26</ele>
        <time>2015-11-03T14:42:58Z</time>
      </trkpt>
      <trkpt lat="48.7423" lon="-3.26506">
        <ele>-26</ele>
        <time>2015-11-03T14:43:01Z</time>
      </trkpt>
      <trkpt lat="48.74238" lon="-3.26497">
        <ele>-26</ele>
        <time>2015-11-03T14:43:03Z</time>
      </trkpt>
      <trkpt lat="48.74252" lon="-3.26477">
        <ele>-26</ele>
        <time>2015-11-03T14:43:07Z</time>
      </trkpt>
      <trkpt lat="48.74262" lon="-3.26459">
        <ele>-25</ele>
        <time>2015-11-03T14:43:10Z</time>
      </trkpt>
      <trkpt lat="48.74274" lon="-3.26442">
        <ele>-25</ele>
        <time>2015-11-03T14:43:13Z</time>
      </trkpt>
      <trkpt lat="48.74286" lon="-3.26425">
        <ele>-25</ele>
        <time>2015-11-03T14:43:16Z</time>
      </trkpt>
      <trkpt lat="48.74298" lon="-3.26408">
        <ele>-26</ele>
        <time>2015-11-03T14:43:19Z</time>
      </trkpt>
      <trkpt lat="48.74315" lon="-3.26389">
        <ele>-26</ele>
        <time>2015-11-03T14:43:23Z</time>
      </trkpt>
      <trkpt lat="48.74329" lon="-3.26379">
        <ele>-26</ele>
        <time>2015-11-03T14:43:26Z</time>
      </trkpt>
      <trkpt lat="48.74348" lon="-3.26368">
        <ele>-26</ele>
        <time>2015-11-03T14:43:30Z</time>
      </trkpt>
      <trkpt lat="48.74364" lon="-3.26359">
        <ele>-27</ele>
        <time>2015-11-03T14:43:33Z</time>
      </trkpt>
      <trkpt lat="48.7438" lon="-3.26346">
        <ele>-27</ele>
        <time>2015-11-03T14:43:36Z</time>
      </trkpt>
      <trkpt lat="48.74401" lon="-3.2633">
        <ele>-27</ele>
        <time>2015-11-03T14:43:39Z</time>
      </trkpt>
      <trkpt lat="48.74415" lon="-3.26316">
        <ele>-27</ele>
        <time>2015-11-03T14:43:41Z</time>
      </trkpt>
      <trkpt lat="48.74423" lon="-3.2631">
        <ele>-27</ele>
        <time>2015-11-03T14:43:42Z</time>
      </trkpt>
      <trkpt lat="48.74432" lon="-3.26303">
        <ele>-27</ele>
        <time>2015-11-03T14:43:43Z</time>
      </trkpt>
      <trkpt lat="48.74441" lon="-3.26297">
        <ele>-27</ele>
        <time>2015-11-03T14:43:44Z</time>
      </trkpt>
      <trkpt lat="48.7445" lon="-3.26289">
        <ele>-27</ele>
        <time>2015-11-03T14:43:45Z</time>
      </trkpt>
      <trkpt lat="48.74459" lon="-3.26281">
        <ele>-27</ele>
        <time>2015-11-03T14:43:46Z</time>
      </trkpt>
      <trkpt lat="48.74467" lon="-3.26273">
        <ele>-27</ele>
        <time>2015-11-03T14:43:47Z</time>
      </trkpt>
      <trkpt lat="48.74494" lon="-3.26246">
        <ele>-27</ele>
        <time>2015-11-03T14:43:51Z</time>
      </trkpt>
      <trkpt lat="48.74507" lon="-3.26231">
        <ele>-27</ele>
        <time>2015-11-03T14:43:54Z</time>
      </trkpt>
      <trkpt lat="48.74521" lon="-3.26213">
        <ele>-27</ele>
        <time>2015-11-03T14:44:00Z</time>
      </trkpt>
      <trkpt lat="48.74538" lon="-3.26199">
        <ele>-27</ele>
        <time>2015-11-03T14:44:20Z</time>
      </trkpt>
      <trkpt lat="48.74555" lon="-3.26197">
        <ele>-28</ele>
        <time>2015-11-03T14:44:28Z</time>
      </trkpt>
      <trkpt lat="48.74583" lon="-3.26174">
        <ele>-28</ele>
        <time>2015-11-03T14:44:41Z</time>
      </trkpt>
      <trkpt lat="48.74606" lon="-3.26181">
        <ele>-30</ele>
        <time>2015-11-03T14:44:59Z</time>
      </trkpt>
      <trkpt lat="48.74609" lon="-3.26199">
        <ele>-30</ele>
        <time>2015-11-03T14:45:46Z</time>
      </trkpt>
      <trkpt lat="48.74611" lon="-3.2622">
        <ele>-27</ele>
        <time>2015-11-03T14:45:54Z</time>
      </trkpt>
      <trkpt lat="48.74623" lon="-3.26249">
        <ele>-24</ele>
        <time>2015-11-03T14:46:06Z</time>
      </trkpt>
      <trkpt lat="48.74641" lon="-3.26265">
        <ele>-22</ele>
        <time>2015-11-03T14:46:17Z</time>
      </trkpt>
      <trkpt lat="48.74661" lon="-3.26298">
        <ele>-22</ele>
        <time>2015-11-03T14:46:33Z</time>
      </trkpt>
      <trkpt lat="48.74673" lon="-3.26327">
        <ele>-21</ele>
        <time>2015-11-03T14:46:39Z</time>
      </trkpt>
      <trkpt lat="48.74687" lon="-3.26347">
        <ele>-21</ele>
        <time>2015-11-03T14:46:43Z</time>
      </trkpt>
      <trkpt lat="48.74701" lon="-3.26364">
        <ele>-20</ele>
        <time>2015-11-03T14:46:46Z</time>
      </trkpt>
      <trkpt lat="48.74719" lon="-3.26382">
        <ele>-20</ele>
        <time>2015-11-03T14:46:49Z</time>
      </trkpt>
      <trkpt lat="48.74733" lon="-3.26394">
        <ele>-20</ele>
        <time>2015-11-03T14:46:51Z</time>
      </trkpt>
      <trkpt lat="48.74763" lon="-3.26426">
        <ele>-20</ele>
        <time>2015-11-03T14:46:56Z</time>
      </trkpt>
      <trkpt lat="48.74788" lon="-3.26454">
        <ele>-20</ele>
        <time>2015-11-03T14:47:00Z</time>
      </trkpt>
      <trkpt lat="48.74801" lon="-3.26469">
        <ele>-20</ele>
        <time>2015-11-03T14:47:02Z</time>
      </trkpt>
      <trkpt lat="48.74957" lon="-3.26652">
        <ele>-20</ele>
        <time>2015-11-03T14:47:23Z</time>
      </trkpt>
      <trkpt lat="48.74963" lon="-3.26666">
        <ele>-20</ele>
        <time>2015-11-03T14:47:24Z</time>
      </trkpt>
      <trkpt lat="48.74968" lon="-3.26679">
        <ele>-21</ele>
        <time>2015-11-03T14:47:25Z</time>
      </trkpt>
      <trkpt lat="48.74973" lon="-3.26693">
        <ele>-21</ele>
        <time>2015-11-03T14:47:26Z</time>
      </trkpt>
      <trkpt lat="48.74978" lon="-3.26706">
        <ele>-21</ele>
        <time>2015-11-03T14:47:27Z</time>
      </trkpt>
      <trkpt lat="48.74982" lon="-3.26719">
        <ele>-22</ele>
        <time>2015-11-03T14:47:28Z</time>
      </trkpt>
      <trkpt lat="48.74986" lon="-3.26732">
        <ele>-22</ele>
        <time>2015-11-03T14:47:29Z</time>
      </trkpt>
      <trkpt lat="48.74994" lon="-3.26777">
        <ele>-23</ele>
        <time>2015-11-03T14:47:33Z</time>
      </trkpt>
      <trkpt lat="48.74985" lon="-3.268">
        <ele>-24</ele>
        <time>2015-11-03T14:47:36Z</time>
      </trkpt>
      <trkpt lat="48.74966" lon="-3.26815">
        <ele>-25</ele>
        <time>2015-11-03T14:47:39Z</time>
      </trkpt>
      <trkpt lat="48.74948" lon="-3.26833">
        <ele>-26</ele>
        <time>2015-11-03T14:47:42Z</time>
      </trkpt>
      <trkpt lat="48.74934" lon="-3.26858">
        <ele>-27</ele>
        <time>2015-11-03T14:47:45Z</time>
      </trkpt>
      <trkpt lat="48.74921" lon="-3.26885">
        <ele>-28</ele>
        <time>2015-11-03T14:47:48Z</time>
      </trkpt>
      <trkpt lat="48.74914" lon="-3.26916">
        <ele>-29</ele>
        <time>2015-11-03T14:47:51Z</time>
      </trkpt>
      <trkpt lat="48.74911" lon="-3.26947">
        <ele>-30</ele>
        <time>2015-11-03T14:47:54Z</time>
      </trkpt>
      <trkpt lat="48.74907" lon="-3.26974">
        <ele>-31</ele>
        <time>2015-11-03T14:47:57Z</time>
      </trkpt>
      <trkpt lat="48.74906" lon="-3.27005">
        <ele>-32</ele>
        <time>2015-11-03T14:48:01Z</time>
      </trkpt>
      <trkpt lat="48.74908" lon="-3.27027">
        <ele>-33</ele>
        <time>2015-11-03T14:48:04Z</time>
      </trkpt>
      <trkpt lat="48.74912" lon="-3.27054">
        <ele>-34</ele>
        <time>2015-11-03T14:48:08Z</time>
      </trkpt>
      <trkpt lat="48.74917" lon="-3.27081">
        <ele>-34</ele>
        <time>2015-11-03T14:48:12Z</time>
      </trkpt>
      <trkpt lat="48.74923" lon="-3.27105">
        <ele>-35</ele>
        <time>2015-11-03T14:48:16Z</time>
      </trkpt>
      <trkpt lat="48.74928" lon="-3.27127">
        <ele>-35</ele>
        <time>2015-11-03T14:48:20Z</time>
      </trkpt>
      <trkpt lat="48.74932" lon="-3.27143">
        <ele>-36</ele>
        <time>2015-11-03T14:48:23Z</time>
      </trkpt>
      <trkpt lat="48.74938" lon="-3.27174">
        <ele>-36</ele>
        <time>2015-11-03T14:48:29Z</time>
      </trkpt>
      <trkpt lat="48.74941" lon="-3.2719">
        <ele>-36</ele>
        <time>2015-11-03T14:48:32Z</time>
      </trkpt>
      <trkpt lat="48.74944" lon="-3.27216">
        <ele>-36</ele>
        <time>2015-11-03T14:48:37Z</time>
      </trkpt>
      <trkpt lat="48.74949" lon="-3.27237">
        <ele>-36</ele>
        <time>2015-11-03T14:48:41Z</time>
      </trkpt>
      <trkpt lat="48.74953" lon="-3.27253">
        <ele>-36</ele>
        <time>2015-11-03T14:48:44Z</time>
      </trkpt>
      <trkpt lat="48.74959" lon="-3.27276">
        <ele>-36</ele>
        <time>2015-11-03T14:48:49Z</time>
      </trkpt>
      <trkpt lat="48.74964" lon="-3.27303">
        <ele>-35</ele>
        <time>2015-11-03T14:48:55Z</time>
      </trkpt>
      <trkpt lat="48.74969" lon="-3.27328">
        <ele>-35</ele>
        <time>2015-11-03T14:49:01Z</time>
      </trkpt>
      <trkpt lat="48.74974" lon="-3.27344">
        <ele>-35</ele>
        <time>2015-11-03T14:49:05Z</time>
      </trkpt>
      <trkpt lat="48.7498" lon="-3.27368">
        <ele>-35</ele>
        <time>2015-11-03T14:49:11Z</time>
      </trkpt>
      <trkpt lat="48.74988" lon="-3.27392">
        <ele>-34</ele>
        <time>2015-11-03T14:49:17Z</time>
      </trkpt>
      <trkpt lat="48.74999" lon="-3.27409">
        <ele>-34</ele>
        <time>2015-11-03T14:49:22Z</time>
      </trkpt>
      <trkpt lat="48.7501" lon="-3.27427">
        <ele>-35</ele>
        <time>2015-11-03T14:49:28Z</time>
      </trkpt>
      <trkpt lat="48.7502" lon="-3.27445">
        <ele>-36</ele>
        <time>2015-11-03T14:49:34Z</time>
      </trkpt>
      <trkpt lat="48.75031" lon="-3.27465">
        <ele>-37</ele>
        <time>2015-11-03T14:49:40Z</time>
      </trkpt>
      <trkpt lat="48.75043" lon="-3.27487">
        <ele>-37</ele>
        <time>2015-11-03T14:49:45Z</time>
      </trkpt>
      <trkpt lat="48.7507" lon="-3.27533">
        <ele>-37</ele>
        <time>2015-11-03T14:49:52Z</time>
      </trkpt>
      <trkpt lat="48.75082" lon="-3.27556">
        <ele>-37</ele>
        <time>2015-11-03T14:49:55Z</time>
      </trkpt>
      <trkpt lat="48.7509" lon="-3.27573">
        <ele>-37</ele>
        <time>2015-11-03T14:49:57Z</time>
      </trkpt>
      <trkpt lat="48.75102" lon="-3.27596">
        <ele>-37</ele>
        <time>2015-11-03T14:50:00Z</time>
      </trkpt>
      <trkpt lat="48.75114" lon="-3.27619">
        <ele>-36</ele>
        <time>2015-11-03T14:50:03Z</time>
      </trkpt>
      <trkpt lat="48.75126" lon="-3.27643">
        <ele>-36</ele>
        <time>2015-11-03T14:50:06Z</time>
      </trkpt>
      <trkpt lat="48.75134" lon="-3.27659">
        <ele>-35</ele>
        <time>2015-11-03T14:50:08Z</time>
      </trkpt>
      <trkpt lat="48.75143" lon="-3.27675">
        <ele>-34</ele>
        <time>2015-11-03T14:50:10Z</time>
      </trkpt>
      <trkpt lat="48.75151" lon="-3.27691">
        <ele>-34</ele>
        <time>2015-11-03T14:50:12Z</time>
      </trkpt>
      <trkpt lat="48.75159" lon="-3.27707">
        <ele>-34</ele>
        <time>2015-11-03T14:50:14Z</time>
      </trkpt>
      <trkpt lat="48.7517" lon="-3.27732">
        <ele>-33</ele>
        <time>2015-11-03T14:50:17Z</time>
      </trkpt>
      <trkpt lat="48.75179" lon="-3.27758">
        <ele>-33</ele>
        <time>2015-11-03T14:50:20Z</time>
      </trkpt>
      <trkpt lat="48.75181" lon="-3.27786">
        <ele>-33</ele>
        <time>2015-11-03T14:50:23Z</time>
      </trkpt>
      <trkpt lat="48.75182" lon="-3.27802">
        <ele>-32</ele>
        <time>2015-11-03T14:50:25Z</time>
      </trkpt>
      <trkpt lat="48.7518" lon="-3.27818">
        <ele>-32</ele>
        <time>2015-11-03T14:50:27Z</time>
      </trkpt>
      <trkpt lat="48.75171" lon="-3.27845">
        <ele>-32</ele>
        <time>2015-11-03T14:50:31Z</time>
      </trkpt>
      <trkpt lat="48.75167" lon="-3.27857">
        <ele>-32</ele>
        <time>2015-11-03T14:50:33Z</time>
      </trkpt>
      <trkpt lat="48.75161" lon="-3.27872">
        <ele>-31</ele>
        <time>2015-11-03T14:50:36Z</time>
      </trkpt>
      <trkpt lat="48.75151" lon="-3.2789">
        <ele>-31</ele>
        <time>2015-11-03T14:50:41Z</time>
      </trkpt>
      <trkpt lat="48.75146" lon="-3.27903">
        <ele>-30</ele>
        <time>2015-11-03T14:50:44Z</time>
      </trkpt>
      <trkpt lat="48.75143" lon="-3.27916">
        <ele>-30</ele>
        <time>2015-11-03T14:50:47Z</time>
      </trkpt>
      <trkpt lat="48.75136" lon="-3.27941">
        <ele>-29</ele>
        <time>2015-11-03T14:50:53Z</time>
      </trkpt>
      <trkpt lat="48.75128" lon="-3.27962">
        <ele>-29</ele>
        <time>2015-11-03T14:50:59Z</time>
      </trkpt>
      <trkpt lat="48.75124" lon="-3.27976">
        <ele>-28</ele>
        <time>2015-11-03T14:51:03Z</time>
      </trkpt>
      <trkpt lat="48.75119" lon="-3.2799">
        <ele>-27</ele>
        <time>2015-11-03T14:51:07Z</time>
      </trkpt>
      <trkpt lat="48.75113" lon="-3.28007">
        <ele>-27</ele>
        <time>2015-11-03T14:51:12Z</time>
      </trkpt>
      <trkpt lat="48.75108" lon="-3.2802">
        <ele>-26</ele>
        <time>2015-11-03T14:51:16Z</time>
      </trkpt>
      <trkpt lat="48.751" lon="-3.28043">
        <ele>-26</ele>
        <time>2015-11-03T14:51:23Z</time>
      </trkpt>
      <trkpt lat="48.75092" lon="-3.28064">
        <ele>-25</ele>
        <time>2015-11-03T14:51:31Z</time>
      </trkpt>
      <trkpt lat="48.75084" lon="-3.28087">
        <ele>-24</ele>
        <time>2015-11-03T14:51:40Z</time>
      </trkpt>
      <trkpt lat="48.7508" lon="-3.28099">
        <ele>-23</ele>
        <time>2015-11-03T14:51:45Z</time>
      </trkpt>
      <trkpt lat="48.7507" lon="-3.2812">
        <ele>-22</ele>
        <time>2015-11-03T14:51:54Z</time>
      </trkpt>
      <trkpt lat="48.75055" lon="-3.28132">
        <ele>-21</ele>
        <time>2015-11-03T14:52:01Z</time>
      </trkpt>
      <trkpt lat="48.75039" lon="-3.28145">
        <ele>-20</ele>
        <time>2015-11-03T14:52:07Z</time>
      </trkpt>
      <trkpt lat="48.75031" lon="-3.28152">
        <ele>-20</ele>
        <time>2015-11-03T14:52:10Z</time>
      </trkpt>
      <trkpt lat="48.75015" lon="-3.28177">
        <ele>-19</ele>
        <time>2015-11-03T14:52:18Z</time>
      </trkpt>
      <trkpt lat="48.75007" lon="-3.28195">
        <ele>-18</ele>
        <time>2015-11-03T14:52:23Z</time>
      </trkpt>
      <trkpt lat="48.74999" lon="-3.28219">
        <ele>-17</ele>
        <time>2015-11-03T14:52:29Z</time>
      </trkpt>
      <trkpt lat="48.74992" lon="-3.2824">
        <ele>-17</ele>
        <time>2015-11-03T14:52:34Z</time>
      </trkpt>
      <trkpt lat="48.74983" lon="-3.2827">
        <ele>-16</ele>
        <time>2015-11-03T14:52:40Z</time>
      </trkpt>
      <trkpt lat="48.74974" lon="-3.28295">
        <ele>-16</ele>
        <time>2015-11-03T14:52:44Z</time>
      </trkpt>
      <trkpt lat="48.74965" lon="-3.28326">
        <ele>-15</ele>
        <time>2015-11-03T14:52:49Z</time>
      </trkpt>
      <trkpt lat="48.74957" lon="-3.2835">
        <ele>-15</ele>
        <time>2015-11-03T14:52:53Z</time>
      </trkpt>
      <trkpt lat="48.74949" lon="-3.28374">
        <ele>-15</ele>
        <time>2015-11-03T14:52:57Z</time>
      </trkpt>
      <trkpt lat="48.74941" lon="-3.28397">
        <ele>-15</ele>
        <time>2015-11-03T14:53:01Z</time>
      </trkpt>
      <trkpt lat="48.74933" lon="-3.2842">
        <ele>-15</ele>
        <time>2015-11-03T14:53:05Z</time>
      </trkpt>
      <trkpt lat="48.74924" lon="-3.28443">
        <ele>-15</ele>
        <time>2015-11-03T14:53:09Z</time>
      </trkpt>
      <trkpt lat="48.74917" lon="-3.28467">
        <ele>-15</ele>
        <time>2015-11-03T14:53:13Z</time>
      </trkpt>
      <trkpt lat="48.7491" lon="-3.28492">
        <ele>-14</ele>
        <time>2015-11-03T14:53:17Z</time>
      </trkpt>
      <trkpt lat="48.74905" lon="-3.28519">
        <ele>-14</ele>
        <time>2015-11-03T14:53:21Z</time>
      </trkpt>
      <trkpt lat="48.74901" lon="-3.28547">
        <ele>-14</ele>
        <time>2015-11-03T14:53:25Z</time>
      </trkpt>
      <trkpt lat="48.74898" lon="-3.2857">
        <ele>-14</ele>
        <time>2015-11-03T14:53:28Z</time>
      </trkpt>
      <trkpt lat="48.74895" lon="-3.28587">
        <ele>-14</ele>
        <time>2015-11-03T14:53:30Z</time>
      </trkpt>
      <trkpt lat="48.74891" lon="-3.28614">
        <ele>-13</ele>
        <time>2015-11-03T14:53:33Z</time>
      </trkpt>
      <trkpt lat="48.74887" lon="-3.2864">
        <ele>-13</ele>
        <time>2015-11-03T14:53:36Z</time>
      </trkpt>
      <trkpt lat="48.74882" lon="-3.28665">
        <ele>-13</ele>
        <time>2015-11-03T14:53:39Z</time>
      </trkpt>
      <trkpt lat="48.74876" lon="-3.28691">
        <ele>-13</ele>
        <time>2015-11-03T14:53:42Z</time>
      </trkpt>
      <trkpt lat="48.74873" lon="-3.28708">
        <ele>-13</ele>
        <time>2015-11-03T14:53:44Z</time>
      </trkpt>
      <trkpt lat="48.74869" lon="-3.28725">
        <ele>-13</ele>
        <time>2015-11-03T14:53:46Z</time>
      </trkpt>
      <trkpt lat="48.74865" lon="-3.28743">
        <ele>-13</ele>
        <time>2015-11-03T14:53:48Z</time>
      </trkpt>
      <trkpt lat="48.74857" lon="-3.2877">
        <ele>-12</ele>
        <time>2015-11-03T14:53:51Z</time>
      </trkpt>
      <trkpt lat="48.74849" lon="-3.28802">
        <ele>-12</ele>
        <time>2015-11-03T14:53:54Z</time>
      </trkpt>
      <trkpt lat="48.74846" lon="-3.28814">
        <ele>-12</ele>
        <time>2015-11-03T14:53:55Z</time>
      </trkpt>
      <trkpt lat="48.74843" lon="-3.28827">
        <ele>-12</ele>
        <time>2015-11-03T14:53:56Z</time>
      </trkpt>
      <trkpt lat="48.74839" lon="-3.28853">
        <ele>-12</ele>
        <time>2015-11-03T14:53:58Z</time>
      </trkpt>
      <trkpt lat="48.74839" lon="-3.28879">
        <ele>-12</ele>
        <time>2015-11-03T14:54:00Z</time>
      </trkpt>
      <trkpt lat="48.74841" lon="-3.28904">
        <ele>-12</ele>
        <time>2015-11-03T14:54:02Z</time>
      </trkpt>
      <trkpt lat="48.74845" lon="-3.28926">
        <ele>-12</ele>
        <time>2015-11-03T14:54:04Z</time>
      </trkpt>
      <trkpt lat="48.74851" lon="-3.28946">
        <ele>-12</ele>
        <time>2015-11-03T14:54:06Z</time>
      </trkpt>
      <trkpt lat="48.74859" lon="-3.28974">
        <ele>-12</ele>
        <time>2015-11-03T14:54:09Z</time>
      </trkpt>
      <trkpt lat="48.74865" lon="-3.29001">
        <ele>-12</ele>
        <time>2015-11-03T14:54:12Z</time>
      </trkpt>
      <trkpt lat="48.74869" lon="-3.29018">
        <ele>-12</ele>
        <time>2015-11-03T14:54:14Z</time>
      </trkpt>
      <trkpt lat="48.74871" lon="-3.29032">
        <ele>-12</ele>
        <time>2015-11-03T14:54:16Z</time>
      </trkpt>
      <trkpt lat="48.74874" lon="-3.29059">
        <ele>-13</ele>
        <time>2015-11-03T14:54:20Z</time>
      </trkpt>
      <trkpt lat="48.74878" lon="-3.29083">
        <ele>-13</ele>
        <time>2015-11-03T14:54:24Z</time>
      </trkpt>
      <trkpt lat="48.7488" lon="-3.29098">
        <ele>-13</ele>
        <time>2015-11-03T14:54:27Z</time>
      </trkpt>
      <trkpt lat="48.74882" lon="-3.29112">
        <ele>-13</ele>
        <time>2015-11-03T14:54:30Z</time>
      </trkpt>
      <trkpt lat="48.74885" lon="-3.29135">
        <ele>-13</ele>
        <time>2015-11-03T14:54:35Z</time>
      </trkpt>
      <trkpt lat="48.74886" lon="-3.29158">
        <ele>-13</ele>
        <time>2015-11-03T14:54:40Z</time>
      </trkpt>
      <trkpt lat="48.74887" lon="-3.29172">
        <ele>-13</ele>
        <time>2015-11-03T14:54:43Z</time>
      </trkpt>
      <trkpt lat="48.74885" lon="-3.29206">
        <ele>-13</ele>
        <time>2015-11-03T14:54:50Z</time>
      </trkpt>
      <trkpt lat="48.74883" lon="-3.29221">
        <ele>-13</ele>
        <time>2015-11-03T14:54:53Z</time>
      </trkpt>
      <trkpt lat="48.74879" lon="-3.29245">
        <ele>-13</ele>
        <time>2015-11-03T14:54:58Z</time>
      </trkpt>
      <trkpt lat="48.74873" lon="-3.29268">
        <ele>-13</ele>
        <time>2015-11-03T14:55:03Z</time>
      </trkpt>
      <trkpt lat="48.7487" lon="-3.29282">
        <ele>-13</ele>
        <time>2015-11-03T14:55:06Z</time>
      </trkpt>
      <trkpt lat="48.74867" lon="-3.29296">
        <ele>-13</ele>
        <time>2015-11-03T14:55:09Z</time>
      </trkpt>
      <trkpt lat="48.74864" lon="-3.29309">
        <ele>-12</ele>
        <time>2015-11-03T14:55:12Z</time>
      </trkpt>
      <trkpt lat="48.74861" lon="-3.29323">
        <ele>-12</ele>
        <time>2015-11-03T14:55:15Z</time>
      </trkpt>
      <trkpt lat="48.74858" lon="-3.29336">
        <ele>-12</ele>
        <time>2015-11-03T14:55:18Z</time>
      </trkpt>
      <trkpt lat="48.74851" lon="-3.29358">
        <ele>-12</ele>
        <time>2015-11-03T14:55:23Z</time>
      </trkpt>
      <trkpt lat="48.74847" lon="-3.2938">
        <ele>-11</ele>
        <time>2015-11-03T14:55:28Z</time>
      </trkpt>
      <trkpt lat="48.74844" lon="-3.29404">
        <ele>-11</ele>
        <time>2015-11-03T14:55:33Z</time>
      </trkpt>
      <trkpt lat="48.74842" lon="-3.29419">
        <ele>-10</ele>
        <time>2015-11-03T14:55:36Z</time>
      </trkpt>
      <trkpt lat="48.74841" lon="-3.29434">
        <ele>-10</ele>
        <time>2015-11-03T14:55:39Z</time>
      </trkpt>
      <trkpt lat="48.7484" lon="-3.29451">
        <ele>-10</ele>
        <time>2015-11-03T14:55:42Z</time>
      </trkpt>
      <trkpt lat="48.74839" lon="-3.29472">
        <ele>-9</ele>
        <time>2015-11-03T14:55:46Z</time>
      </trkpt>
      <trkpt lat="48.74839" lon="-3.29488">
        <ele>-9</ele>
        <time>2015-11-03T14:55:49Z</time>
      </trkpt>
      <trkpt lat="48.74839" lon="-3.29512">
        <ele>-9</ele>
        <time>2015-11-03T14:55:53Z</time>
      </trkpt>
      <trkpt lat="48.74837" lon="-3.29536">
        <ele>-8</ele>
        <time>2015-11-03T14:55:57Z</time>
      </trkpt>
      <trkpt lat="48.74835" lon="-3.29553">
        <ele>-8</ele>
        <time>2015-11-03T14:56:00Z</time>
      </trkpt>
      <trkpt lat="48.74832" lon="-3.2957">
        <ele>-8</ele>
        <time>2015-11-03T14:56:03Z</time>
      </trkpt>
      <trkpt lat="48.74827" lon="-3.29597">
        <ele>-7</ele>
        <time>2015-11-03T14:56:08Z</time>
      </trkpt>
      <trkpt lat="48.74824" lon="-3.29613">
        <ele>-7</ele>
        <time>2015-11-03T14:56:11Z</time>
      </trkpt>
      <trkpt lat="48.74819" lon="-3.29639">
        <ele>-7</ele>
        <time>2015-11-03T14:56:16Z</time>
      </trkpt>
      <trkpt lat="48.74815" lon="-3.2966">
        <ele>-7</ele>
        <time>2015-11-03T14:56:20Z</time>
      </trkpt>
      <trkpt lat="48.7481" lon="-3.29688">
        <ele>-6</ele>
        <time>2015-11-03T14:56:25Z</time>
      </trkpt>
      <trkpt lat="48.74807" lon="-3.29705">
        <ele>-6</ele>
        <time>2015-11-03T14:56:28Z</time>
      </trkpt>
      <trkpt lat="48.74805" lon="-3.29722">
        <ele>-6</ele>
        <time>2015-11-03T14:56:31Z</time>
      </trkpt>
      <trkpt lat="48.74803" lon="-3.29739">
        <ele>-6</ele>
        <time>2015-11-03T14:56:34Z</time>
      </trkpt>
      <trkpt lat="48.74802" lon="-3.29756">
        <ele>-5</ele>
        <time>2015-11-03T14:56:37Z</time>
      </trkpt>
      <trkpt lat="48.74801" lon="-3.29773">
        <ele>-5</ele>
        <time>2015-11-03T14:56:40Z</time>
      </trkpt>
      <trkpt lat="48.74802" lon="-3.29792">
        <ele>-4</ele>
        <time>2015-11-03T14:56:43Z</time>
      </trkpt>
      <trkpt lat="48.74804" lon="-3.29817">
        <ele>-4</ele>
        <time>2015-11-03T14:56:47Z</time>
      </trkpt>
      <trkpt lat="48.74806" lon="-3.29838">
        <ele>-4</ele>
        <time>2015-11-03T14:56:50Z</time>
      </trkpt>
      <trkpt lat="48.74807" lon="-3.29861">
        <ele>-4</ele>
        <time>2015-11-03T14:56:53Z</time>
      </trkpt>
      <trkpt lat="48.74809" lon="-3.29877">
        <ele>-4</ele>
        <time>2015-11-03T14:56:55Z</time>
      </trkpt>
      <trkpt lat="48.74812" lon="-3.299">
        <ele>-4</ele>
        <time>2015-11-03T14:56:58Z</time>
      </trkpt>
      <trkpt lat="48.74815" lon="-3.29923">
        <ele>-3</ele>
        <time>2015-11-03T14:57:01Z</time>
      </trkpt>
      <trkpt lat="48.7482" lon="-3.29949">
        <ele>-3</ele>
        <time>2015-11-03T14:57:04Z</time>
      </trkpt>
      <trkpt lat="48.74825" lon="-3.29977">
        <ele>-3</ele>
        <time>2015-11-03T14:57:07Z</time>
      </trkpt>
      <trkpt lat="48.74828" lon="-3.29997">
        <ele>-3</ele>
        <time>2015-11-03T14:57:09Z</time>
      </trkpt>
      <trkpt lat="48.7483" lon="-3.30028">
        <ele>-3</ele>
        <time>2015-11-03T14:57:12Z</time>
      </trkpt>
      <trkpt lat="48.74829" lon="-3.30059">
        <ele>-3</ele>
        <time>2015-11-03T14:57:15Z</time>
      </trkpt>
      <trkpt lat="48.74828" lon="-3.30089">
        <ele>-3</ele>
        <time>2015-11-03T14:57:18Z</time>
      </trkpt>
      <trkpt lat="48.74827" lon="-3.30119">
        <ele>-3</ele>
        <time>2015-11-03T14:57:21Z</time>
      </trkpt>
      <trkpt lat="48.74825" lon="-3.30149">
        <ele>-3</ele>
        <time>2015-11-03T14:57:24Z</time>
      </trkpt>
      <trkpt lat="48.74819" lon="-3.30204">
        <ele>-2</ele>
        <time>2015-11-03T14:57:29Z</time>
      </trkpt>
      <trkpt lat="48.74817" lon="-3.30228">
        <ele>-2</ele>
        <time>2015-11-03T14:57:31Z</time>
      </trkpt>
      <trkpt lat="48.74815" lon="-3.30252">
        <ele>-2</ele>
        <time>2015-11-03T14:57:33Z</time>
      </trkpt>
      <trkpt lat="48.74814" lon="-3.30275">
        <ele>-2</ele>
        <time>2015-11-03T14:57:35Z</time>
      </trkpt>
      <trkpt lat="48.74813" lon="-3.30299">
        <ele>-2</ele>
        <time>2015-11-03T14:57:37Z</time>
      </trkpt>
      <trkpt lat="48.74812" lon="-3.30334">
        <ele>-2</ele>
        <time>2015-11-03T14:57:40Z</time>
      </trkpt>
      <trkpt lat="48.74813" lon="-3.30384">
        <ele>-3</ele>
        <time>2015-11-03T14:57:44Z</time>
      </trkpt>
      <trkpt lat="48.74814" lon="-3.30408">
        <ele>-3</ele>
        <time>2015-11-03T14:57:46Z</time>
      </trkpt>
      <trkpt lat="48.74815" lon="-3.30433">
        <ele>-3</ele>
        <time>2015-11-03T14:57:48Z</time>
      </trkpt>
      <trkpt lat="48.74817" lon="-3.30458">
        <ele>-3</ele>
        <time>2015-11-03T14:57:50Z</time>
      </trkpt>
      <trkpt lat="48.74819" lon="-3.30487">
        <ele>-4</ele>
        <time>2015-11-03T14:57:52Z</time>
      </trkpt>
      <trkpt lat="48.7482" lon="-3.30515">
        <ele>-4</ele>
        <time>2015-11-03T14:57:54Z</time>
      </trkpt>
      <trkpt lat="48.74813" lon="-3.30805">
        <ele>-5</ele>
        <time>2015-11-03T14:58:17Z</time>
      </trkpt>
      <trkpt lat="48.74806" lon="-3.30967">
        <ele>-7</ele>
        <time>2015-11-03T14:58:34Z</time>
      </trkpt>
      <trkpt lat="48.74808" lon="-3.30991">
        <ele>-8</ele>
        <time>2015-11-03T14:58:37Z</time>
      </trkpt>
      <trkpt lat="48.74811" lon="-3.31019">
        <ele>-10</ele>
        <time>2015-11-03T14:58:41Z</time>
      </trkpt>
      <trkpt lat="48.74813" lon="-3.31033">
        <ele>-10</ele>
        <time>2015-11-03T14:58:43Z</time>
      </trkpt>
      <trkpt lat="48.74816" lon="-3.31058">
        <ele>-11</ele>
        <time>2015-11-03T14:58:47Z</time>
      </trkpt>
      <trkpt lat="48.74818" lon="-3.31082">
        <ele>-12</ele>
        <time>2015-11-03T14:58:51Z</time>
      </trkpt>
      <trkpt lat="48.7482" lon="-3.31104">
        <ele>-13</ele>
        <time>2015-11-03T14:58:55Z</time>
      </trkpt>
      <trkpt lat="48.74824" lon="-3.31131">
        <ele>-14</ele>
        <time>2015-11-03T14:59:00Z</time>
      </trkpt>
      <trkpt lat="48.74827" lon="-3.31151">
        <ele>-14</ele>
        <time>2015-11-03T14:59:04Z</time>
      </trkpt>
      <trkpt lat="48.74828" lon="-3.31165">
        <ele>-14</ele>
        <time>2015-11-03T14:59:07Z</time>
      </trkpt>
      <trkpt lat="48.7483" lon="-3.31183">
        <ele>-15</ele>
        <time>2015-11-03T14:59:11Z</time>
      </trkpt>
      <trkpt lat="48.74832" lon="-3.31197">
        <ele>-15</ele>
        <time>2015-11-03T14:59:14Z</time>
      </trkpt>
      <trkpt lat="48.74834" lon="-3.31224">
        <ele>-15</ele>
        <time>2015-11-03T14:59:20Z</time>
      </trkpt>
      <trkpt lat="48.74835" lon="-3.31251">
        <ele>-15</ele>
        <time>2015-11-03T14:59:26Z</time>
      </trkpt>
      <trkpt lat="48.74835" lon="-3.31271">
        <ele>-15</ele>
        <time>2015-11-03T14:59:31Z</time>
      </trkpt>
      <trkpt lat="48.74835" lon="-3.31284">
        <ele>-15</ele>
        <time>2015-11-03T14:59:34Z</time>
      </trkpt>
      <trkpt lat="48.74835" lon="-3.31297">
        <ele>-15</ele>
        <time>2015-11-03T14:59:37Z</time>
      </trkpt>
      <trkpt lat="48.74834" lon="-3.3131">
        <ele>-15</ele>
        <time>2015-11-03T14:59:40Z</time>
      </trkpt>
      <trkpt lat="48.74834" lon="-3.31323">
        <ele>-14</ele>
        <time>2015-11-03T14:59:43Z</time>
      </trkpt>
      <trkpt lat="48.74833" lon="-3.31336">
        <ele>-14</ele>
        <time>2015-11-03T14:59:46Z</time>
      </trkpt>
      <trkpt lat="48.74833" lon="-3.31349">
        <ele>-14</ele>
        <time>2015-11-03T14:59:49Z</time>
      </trkpt>
      <trkpt lat="48.74832" lon="-3.31374">
        <ele>-14</ele>
        <time>2015-11-03T14:59:55Z</time>
      </trkpt>
      <trkpt lat="48.74831" lon="-3.31391">
        <ele>-14</ele>
        <time>2015-11-03T14:59:59Z</time>
      </trkpt>
      <trkpt lat="48.74828" lon="-3.31414">
        <ele>-14</ele>
        <time>2015-11-03T15:00:04Z</time>
      </trkpt>
      <trkpt lat="48.74825" lon="-3.31436">
        <ele>-14</ele>
        <time>2015-11-03T15:00:08Z</time>
      </trkpt>
      <trkpt lat="48.74822" lon="-3.31458">
        <ele>-13</ele>
        <time>2015-11-03T15:00:11Z</time>
      </trkpt>
      <trkpt lat="48.74818" lon="-3.31481">
        <ele>-13</ele>
        <time>2015-11-03T15:00:14Z</time>
      </trkpt>
      <trkpt lat="48.74815" lon="-3.31504">
        <ele>-13</ele>
        <time>2015-11-03T15:00:17Z</time>
      </trkpt>
      <trkpt lat="48.74812" lon="-3.3152">
        <ele>-12</ele>
        <time>2015-11-03T15:00:19Z</time>
      </trkpt>
      <trkpt lat="48.74811" lon="-3.31537">
        <ele>-12</ele>
        <time>2015-11-03T15:00:21Z</time>
      </trkpt>
      <trkpt lat="48.74809" lon="-3.31554">
        <ele>-12</ele>
        <time>2015-11-03T15:00:23Z</time>
      </trkpt>
      <trkpt lat="48.74807" lon="-3.31571">
        <ele>-12</ele>
        <time>2015-11-03T15:00:25Z</time>
      </trkpt>
      <trkpt lat="48.74805" lon="-3.31597">
        <ele>-11</ele>
        <time>2015-11-03T15:00:28Z</time>
      </trkpt>
      <trkpt lat="48.74802" lon="-3.31624">
        <ele>-11</ele>
        <time>2015-11-03T15:00:31Z</time>
      </trkpt>
      <trkpt lat="48.74799" lon="-3.31651">
        <ele>-11</ele>
        <time>2015-11-03T15:00:34Z</time>
      </trkpt>
      <trkpt lat="48.74795" lon="-3.31678">
        <ele>-11</ele>
        <time>2015-11-03T15:00:37Z</time>
      </trkpt>
      <trkpt lat="48.7479" lon="-3.31704">
        <ele>-11</ele>
        <time>2015-11-03T15:00:40Z</time>
      </trkpt>
      <trkpt lat="48.74787" lon="-3.31731">
        <ele>-11</ele>
        <time>2015-11-03T15:00:43Z</time>
      </trkpt>
      <trkpt lat="48.74782" lon="-3.31759">
        <ele>-11</ele>
        <time>2015-11-03T15:00:46Z</time>
      </trkpt>
      <trkpt lat="48.74777" lon="-3.31787">
        <ele>-11</ele>
        <time>2015-11-03T15:00:49Z</time>
      </trkpt>
      <trkpt lat="48.74772" lon="-3.31815">
        <ele>-11</ele>
        <time>2015-11-03T15:00:52Z</time>
      </trkpt>
      <trkpt lat="48.74765" lon="-3.31842">
        <ele>-10</ele>
        <time>2015-11-03T15:00:55Z</time>
      </trkpt>
      <trkpt lat="48.74757" lon="-3.31867">
        <ele>-10</ele>
        <time>2015-11-03T15:00:58Z</time>
      </trkpt>
      <trkpt lat="48.7475" lon="-3.31892">
        <ele>-10</ele>
        <time>2015-11-03T15:01:01Z</time>
      </trkpt>
      <trkpt lat="48.74743" lon="-3.31918">
        <ele>-10</ele>
        <time>2015-11-03T15:01:04Z</time>
      </trkpt>
      <trkpt lat="48.74737" lon="-3.31943">
        <ele>-10</ele>
        <time>2015-11-03T15:01:07Z</time>
      </trkpt>
      <trkpt lat="48.74732" lon="-3.31967">
        <ele>-9</ele>
        <time>2015-11-03T15:01:10Z</time>
      </trkpt>
      <trkpt lat="48.74728" lon="-3.31996">
        <ele>-9</ele>
        <time>2015-11-03T15:01:14Z</time>
      </trkpt>
      <trkpt lat="48.74727" lon="-3.32025">
        <ele>-9</ele>
        <time>2015-11-03T15:01:18Z</time>
      </trkpt>
      <trkpt lat="48.74728" lon="-3.32054">
        <ele>-8</ele>
        <time>2015-11-03T15:01:22Z</time>
      </trkpt>
      <trkpt lat="48.74727" lon="-3.32082">
        <ele>-8</ele>
        <time>2015-11-03T15:01:26Z</time>
      </trkpt>
      <trkpt lat="48.74727" lon="-3.32096">
        <ele>-8</ele>
        <time>2015-11-03T15:01:28Z</time>
      </trkpt>
      <trkpt lat="48.74725" lon="-3.3211">
        <ele>-8</ele>
        <time>2015-11-03T15:01:30Z</time>
      </trkpt>
      <trkpt lat="48.74722" lon="-3.32137">
        <ele>-8</ele>
        <time>2015-11-03T15:01:34Z</time>
      </trkpt>
      <trkpt lat="48.74718" lon="-3.32158">
        <ele>-7</ele>
        <time>2015-11-03T15:01:37Z</time>
      </trkpt>
      <trkpt lat="48.74714" lon="-3.32186">
        <ele>-7</ele>
        <time>2015-11-03T15:01:41Z</time>
      </trkpt>
      <trkpt lat="48.74712" lon="-3.322">
        <ele>-6</ele>
        <time>2015-11-03T15:01:43Z</time>
      </trkpt>
      <trkpt lat="48.74708" lon="-3.32229">
        <ele>-6</ele>
        <time>2015-11-03T15:01:47Z</time>
      </trkpt>
      <trkpt lat="48.74706" lon="-3.32243">
        <ele>-6</ele>
        <time>2015-11-03T15:01:49Z</time>
      </trkpt>
      <trkpt lat="48.74702" lon="-3.32271">
        <ele>-5</ele>
        <time>2015-11-03T15:01:53Z</time>
      </trkpt>
      <trkpt lat="48.74699" lon="-3.32284">
        <ele>-5</ele>
        <time>2015-11-03T15:01:55Z</time>
      </trkpt>
      <trkpt lat="48.74693" lon="-3.32312">
        <ele>-5</ele>
        <time>2015-11-03T15:01:59Z</time>
      </trkpt>
      <trkpt lat="48.7469" lon="-3.32325">
        <ele>-5</ele>
        <time>2015-11-03T15:02:01Z</time>
      </trkpt>
      <trkpt lat="48.74684" lon="-3.32353">
        <ele>-4</ele>
        <time>2015-11-03T15:02:05Z</time>
      </trkpt>
      <trkpt lat="48.74678" lon="-3.32379">
        <ele>-4</ele>
        <time>2015-11-03T15:02:09Z</time>
      </trkpt>
      <trkpt lat="48.74673" lon="-3.32404">
        <ele>-4</ele>
        <time>2015-11-03T15:02:13Z</time>
      </trkpt>
      <trkpt lat="48.74667" lon="-3.32429">
        <ele>-3</ele>
        <time>2015-11-03T15:02:17Z</time>
      </trkpt>
      <trkpt lat="48.7466" lon="-3.32454">
        <ele>-3</ele>
        <time>2015-11-03T15:02:21Z</time>
      </trkpt>
      <trkpt lat="48.74653" lon="-3.32478">
        <ele>-3</ele>
        <time>2015-11-03T15:02:25Z</time>
      </trkpt>
      <trkpt lat="48.74649" lon="-3.32491">
        <ele>-3</ele>
        <time>2015-11-03T15:02:27Z</time>
      </trkpt>
      <trkpt lat="48.74646" lon="-3.32503">
        <ele>-3</ele>
        <time>2015-11-03T15:02:29Z</time>
      </trkpt>
      <trkpt lat="48.74643" lon="-3.32516">
        <ele>-2</ele>
        <time>2015-11-03T15:02:31Z</time>
      </trkpt>
      <trkpt lat="48.74639" lon="-3.32543">
        <ele>-2</ele>
        <time>2015-11-03T15:02:35Z</time>
      </trkpt>
      <trkpt lat="48.74636" lon="-3.32556">
        <ele>-2</ele>
        <time>2015-11-03T15:02:37Z</time>
      </trkpt>
      <trkpt lat="48.74633" lon="-3.32576">
        <ele>-2</ele>
        <time>2015-11-03T15:02:40Z</time>
      </trkpt>
      <trkpt lat="48.74631" lon="-3.32589">
        <ele>-2</ele>
        <time>2015-11-03T15:02:42Z</time>
      </trkpt>
      <trkpt lat="48.74629" lon="-3.32604">
        <ele>-2</ele>
        <time>2015-11-03T15:02:44Z</time>
      </trkpt>
      <trkpt lat="48.74627" lon="-3.32625">
        <ele>-2</ele>
        <time>2015-11-03T15:02:47Z</time>
      </trkpt>
      <trkpt lat="48.74626" lon="-3.3264">
        <ele>-1</ele>
        <time>2015-11-03T15:02:49Z</time>
      </trkpt>
      <trkpt lat="48.74625" lon="-3.32656">
        <ele>-1</ele>
        <time>2015-11-03T15:02:51Z</time>
      </trkpt>
      <trkpt lat="48.74624" lon="-3.32681">
        <ele>-1</ele>
        <time>2015-11-03T15:02:54Z</time>
      </trkpt>
      <trkpt lat="48.74624" lon="-3.32698">
        <ele>-1</ele>
        <time>2015-11-03T15:02:56Z</time>
      </trkpt>
      <trkpt lat="48.74624" lon="-3.32716">
        <ele>-1</ele>
        <time>2015-11-03T15:02:58Z</time>
      </trkpt>
      <trkpt lat="48.74624" lon="-3.32733">
        <ele>-1</ele>
        <time>2015-11-03T15:03:00Z</time>
      </trkpt>
      <trkpt lat="48.74626" lon="-3.32758">
        <ele>44</ele>
        <time>2015-11-03T15:03:03Z</time>
      </trkpt>
      <trkpt lat="48.74628" lon="-3.32774">
        <ele>44</ele>
        <time>2015-11-03T15:03:05Z</time>
      </trkpt>
      <trkpt lat="48.7463" lon="-3.32792">
        <ele>43.7</ele>
        <time>2015-11-03T15:03:07Z</time>
      </trkpt>
      <trkpt lat="48.74633" lon="-3.32817">
        <ele>1</ele>
        <time>2015-11-03T15:03:10Z</time>
      </trkpt>
      <trkpt lat="48.74636" lon="-3.32842">
        <ele>1</ele>
        <time>2015-11-03T15:03:13Z</time>
      </trkpt>
      <trkpt lat="48.74637" lon="-3.32859">
        <ele>1</ele>
        <time>2015-11-03T15:03:15Z</time>
      </trkpt>
      <trkpt lat="48.74639" lon="-3.32876">
        <ele>1</ele>
        <time>2015-11-03T15:03:17Z</time>
      </trkpt>
      <trkpt lat="48.7464" lon="-3.32892">
        <ele>1</ele>
        <time>2015-11-03T15:03:19Z</time>
      </trkpt>
      <trkpt lat="48.74642" lon="-3.32909">
        <ele>2</ele>
        <time>2015-11-03T15:03:21Z</time>
      </trkpt>
      <trkpt lat="48.74643" lon="-3.32926">
        <ele>2</ele>
        <time>2015-11-03T15:03:23Z</time>
      </trkpt>
      <trkpt lat="48.74657" lon="-3.33054">
        <ele>2</ele>
        <time>2015-11-03T15:04:13Z</time>
      </trkpt>
      <trkpt lat="48.74648" lon="-3.33069">
        <ele>-1</ele>
        <time>2015-11-03T15:09:44Z</time>
      </trkpt>
      <trkpt lat="48.74648" lon="-3.33093">
        <ele>-1</ele>
        <time>2015-11-03T15:09:47Z</time>
      </trkpt>
      <trkpt lat="48.7465" lon="-3.33118">
        <ele>-2</ele>
        <time>2015-11-03T15:09:50Z</time>
      </trkpt>
      <trkpt lat="48.74654" lon="-3.33145">
        <ele>-3</ele>
        <time>2015-11-03T15:09:53Z</time>
      </trkpt>
      <trkpt lat="48.74658" lon="-3.33173">
        <ele>-4</ele>
        <time>2015-11-03T15:09:56Z</time>
      </trkpt>
      <trkpt lat="48.74662" lon="-3.332">
        <ele>-5</ele>
        <time>2015-11-03T15:09:59Z</time>
      </trkpt>
      <trkpt lat="48.74665" lon="-3.33227">
        <ele>-6</ele>
        <time>2015-11-03T15:10:02Z</time>
      </trkpt>
      <trkpt lat="48.74672" lon="-3.33274">
        <ele>-6</ele>
        <time>2015-11-03T15:10:07Z</time>
      </trkpt>
      <trkpt lat="48.74677" lon="-3.33303">
        <ele>-7</ele>
        <time>2015-11-03T15:10:10Z</time>
      </trkpt>
      <trkpt lat="48.74681" lon="-3.33332">
        <ele>-7</ele>
        <time>2015-11-03T15:10:13Z</time>
      </trkpt>
      <trkpt lat="48.74685" lon="-3.33362">
        <ele>-8</ele>
        <time>2015-11-03T15:10:16Z</time>
      </trkpt>
      <trkpt lat="48.7469" lon="-3.33409">
        <ele>-8</ele>
        <time>2015-11-03T15:10:21Z</time>
      </trkpt>
      <trkpt lat="48.74694" lon="-3.33437">
        <ele>-9</ele>
        <time>2015-11-03T15:10:24Z</time>
      </trkpt>
      <trkpt lat="48.74698" lon="-3.33465">
        <ele>-9</ele>
        <time>2015-11-03T15:10:27Z</time>
      </trkpt>
      <trkpt lat="48.74703" lon="-3.33495">
        <ele>-10</ele>
        <time>2015-11-03T15:10:30Z</time>
      </trkpt>
      <trkpt lat="48.74705" lon="-3.33525">
        <ele>-10</ele>
        <time>2015-11-03T15:10:33Z</time>
      </trkpt>
      <trkpt lat="48.74704" lon="-3.33556">
        <ele>-10</ele>
        <time>2015-11-03T15:10:36Z</time>
      </trkpt>
      <trkpt lat="48.74709" lon="-3.3362">
        <ele>-11</ele>
        <time>2015-11-03T15:10:42Z</time>
      </trkpt>
      <trkpt lat="48.7471" lon="-3.33644">
        <ele>-11</ele>
        <time>2015-11-03T15:10:44Z</time>
      </trkpt>
      <trkpt lat="48.7471" lon="-3.3367">
        <ele>-11</ele>
        <time>2015-11-03T15:10:46Z</time>
      </trkpt>
      <trkpt lat="48.74713" lon="-3.33697">
        <ele>-12</ele>
        <time>2015-11-03T15:10:48Z</time>
      </trkpt>
      <trkpt lat="48.74717" lon="-3.33724">
        <ele>-12</ele>
        <time>2015-11-03T15:10:50Z</time>
      </trkpt>
      <trkpt lat="48.74721" lon="-3.33749">
        <ele>-12</ele>
        <time>2015-11-03T15:10:52Z</time>
      </trkpt>
      <trkpt lat="48.74725" lon="-3.33772">
        <ele>-13</ele>
        <time>2015-11-03T15:10:54Z</time>
      </trkpt>
      <trkpt lat="48.74727" lon="-3.33805">
        <ele>-13</ele>
        <time>2015-11-03T15:10:57Z</time>
      </trkpt>
      <trkpt lat="48.74724" lon="-3.33836">
        <ele>-14</ele>
        <time>2015-11-03T15:11:00Z</time>
      </trkpt>
      <trkpt lat="48.74718" lon="-3.33866">
        <ele>-14</ele>
        <time>2015-11-03T15:11:03Z</time>
      </trkpt>
      <trkpt lat="48.74713" lon="-3.3389">
        <ele>-14</ele>
        <time>2015-11-03T15:11:07Z</time>
      </trkpt>
      <trkpt lat="48.74704" lon="-3.33913">
        <ele>-15</ele>
        <time>2015-11-03T15:11:13Z</time>
      </trkpt>
      <trkpt lat="48.74695" lon="-3.33935">
        <ele>-15</ele>
        <time>2015-11-03T15:11:18Z</time>
      </trkpt>
      <trkpt lat="48.74686" lon="-3.33956">
        <ele>-16</ele>
        <time>2015-11-03T15:11:23Z</time>
      </trkpt>
      <trkpt lat="48.74677" lon="-3.33978">
        <ele>-16</ele>
        <time>2015-11-03T15:11:28Z</time>
      </trkpt>
      <trkpt lat="48.74669" lon="-3.33999">
        <ele>-16</ele>
        <time>2015-11-03T15:11:33Z</time>
      </trkpt>
      <trkpt lat="48.74661" lon="-3.34021">
        <ele>-16</ele>
        <time>2015-11-03T15:11:38Z</time>
      </trkpt>
      <trkpt lat="48.74656" lon="-3.34045">
        <ele>-16</ele>
        <time>2015-11-03T15:11:43Z</time>
      </trkpt>
      <trkpt lat="48.74652" lon="-3.34072">
        <ele>-16</ele>
        <time>2015-11-03T15:11:48Z</time>
      </trkpt>
      <trkpt lat="48.74647" lon="-3.34097">
        <ele>-16</ele>
        <time>2015-11-03T15:11:53Z</time>
      </trkpt>
      <trkpt lat="48.74641" lon="-3.3412">
        <ele>-16</ele>
        <time>2015-11-03T15:11:58Z</time>
      </trkpt>
      <trkpt lat="48.74632" lon="-3.34143">
        <ele>-16</ele>
        <time>2015-11-03T15:12:04Z</time>
      </trkpt>
      <trkpt lat="48.74622" lon="-3.34155">
        <ele>-16</ele>
        <time>2015-11-03T15:12:08Z</time>
      </trkpt>
      <trkpt lat="48.74609" lon="-3.34171">
        <ele>-16</ele>
        <time>2015-11-03T15:12:13Z</time>
      </trkpt>
      <trkpt lat="48.74594" lon="-3.34185">
        <ele>-16</ele>
        <time>2015-11-03T15:12:18Z</time>
      </trkpt>
      <trkpt lat="48.74585" lon="-3.34194">
        <ele>-16</ele>
        <time>2015-11-03T15:12:21Z</time>
      </trkpt>
      <trkpt lat="48.74576" lon="-3.34203">
        <ele>-16</ele>
        <time>2015-11-03T15:12:24Z</time>
      </trkpt>
      <trkpt lat="48.74563" lon="-3.34222">
        <ele>-15</ele>
        <time>2015-11-03T15:12:29Z</time>
      </trkpt>
      <trkpt lat="48.74555" lon="-3.34235">
        <ele>-15</ele>
        <time>2015-11-03T15:12:32Z</time>
      </trkpt>
      <trkpt lat="48.74549" lon="-3.34251">
        <ele>-15</ele>
        <time>2015-11-03T15:12:35Z</time>
      </trkpt>
      <trkpt lat="48.74541" lon="-3.34272">
        <ele>-14</ele>
        <time>2015-11-03T15:12:39Z</time>
      </trkpt>
      <trkpt lat="48.74532" lon="-3.34294">
        <ele>-14</ele>
        <time>2015-11-03T15:12:43Z</time>
      </trkpt>
      <trkpt lat="48.74522" lon="-3.34315">
        <ele>-14</ele>
        <time>2015-11-03T15:12:47Z</time>
      </trkpt>
      <trkpt lat="48.74512" lon="-3.34335">
        <ele>-14</ele>
        <time>2015-11-03T15:12:51Z</time>
      </trkpt>
      <trkpt lat="48.74503" lon="-3.34356">
        <ele>-14</ele>
        <time>2015-11-03T15:12:55Z</time>
      </trkpt>
      <trkpt lat="48.7449" lon="-3.34385">
        <ele>-13</ele>
        <time>2015-11-03T15:13:01Z</time>
      </trkpt>
      <trkpt lat="48.74481" lon="-3.34408">
        <ele>-13</ele>
        <time>2015-11-03T15:13:06Z</time>
      </trkpt>
      <trkpt lat="48.74473" lon="-3.34432">
        <ele>-13</ele>
        <time>2015-11-03T15:13:11Z</time>
      </trkpt>
      <trkpt lat="48.74464" lon="-3.34455">
        <ele>-13</ele>
        <time>2015-11-03T15:13:16Z</time>
      </trkpt>
      <trkpt lat="48.74456" lon="-3.34478">
        <ele>-13</ele>
        <time>2015-11-03T15:13:21Z</time>
      </trkpt>
      <trkpt lat="48.74448" lon="-3.34504">
        <ele>-13</ele>
        <time>2015-11-03T15:13:26Z</time>
      </trkpt>
      <trkpt lat="48.7444" lon="-3.34525">
        <ele>-14</ele>
        <time>2015-11-03T15:13:30Z</time>
      </trkpt>
      <trkpt lat="48.7443" lon="-3.34547">
        <ele>-14</ele>
        <time>2015-11-03T15:13:34Z</time>
      </trkpt>
      <trkpt lat="48.7442" lon="-3.34565">
        <ele>-14</ele>
        <time>2015-11-03T15:13:37Z</time>
      </trkpt>
      <trkpt lat="48.74409" lon="-3.34583">
        <ele>-14</ele>
        <time>2015-11-03T15:13:40Z</time>
      </trkpt>
      <trkpt lat="48.74396" lon="-3.34601">
        <ele>-14</ele>
        <time>2015-11-03T15:13:43Z</time>
      </trkpt>
      <trkpt lat="48.74383" lon="-3.34617">
        <ele>-14</ele>
        <time>2015-11-03T15:13:46Z</time>
      </trkpt>
      <trkpt lat="48.7437" lon="-3.34633">
        <ele>-13</ele>
        <time>2015-11-03T15:13:49Z</time>
      </trkpt>
      <trkpt lat="48.74359" lon="-3.34651">
        <ele>-13</ele>
        <time>2015-11-03T15:13:52Z</time>
      </trkpt>
      <trkpt lat="48.74348" lon="-3.34671">
        <ele>-13</ele>
        <time>2015-11-03T15:13:55Z</time>
      </trkpt>
      <trkpt lat="48.74337" lon="-3.34691">
        <ele>-13</ele>
        <time>2015-11-03T15:13:58Z</time>
      </trkpt>
      <trkpt lat="48.74322" lon="-3.34708">
        <ele>-12</ele>
        <time>2015-11-03T15:14:01Z</time>
      </trkpt>
      <trkpt lat="48.74308" lon="-3.34722">
        <ele>-12</ele>
        <time>2015-11-03T15:14:04Z</time>
      </trkpt>
      <trkpt lat="48.74292" lon="-3.34734">
        <ele>-12</ele>
        <time>2015-11-03T15:14:07Z</time>
      </trkpt>
      <trkpt lat="48.74276" lon="-3.3475">
        <ele>-12</ele>
        <time>2015-11-03T15:14:10Z</time>
      </trkpt>
      <trkpt lat="48.74261" lon="-3.34767">
        <ele>-12</ele>
        <time>2015-11-03T15:14:13Z</time>
      </trkpt>
      <trkpt lat="48.74246" lon="-3.34784">
        <ele>-12</ele>
        <time>2015-11-03T15:14:16Z</time>
      </trkpt>
      <trkpt lat="48.74231" lon="-3.34802">
        <ele>-12</ele>
        <time>2015-11-03T15:14:19Z</time>
      </trkpt>
      <trkpt lat="48.74217" lon="-3.34821">
        <ele>-12</ele>
        <time>2015-11-03T15:14:22Z</time>
      </trkpt>
      <trkpt lat="48.74204" lon="-3.34841">
        <ele>-12</ele>
        <time>2015-11-03T15:14:25Z</time>
      </trkpt>
      <trkpt lat="48.7419" lon="-3.34864">
        <ele>-11</ele>
        <time>2015-11-03T15:14:28Z</time>
      </trkpt>
      <trkpt lat="48.74173" lon="-3.34901">
        <ele>-11</ele>
        <time>2015-11-03T15:14:32Z</time>
      </trkpt>
      <trkpt lat="48.74162" lon="-3.34929">
        <ele>-11</ele>
        <time>2015-11-03T15:14:35Z</time>
      </trkpt>
      <trkpt lat="48.74151" lon="-3.34956">
        <ele>-10</ele>
        <time>2015-11-03T15:14:38Z</time>
      </trkpt>
      <trkpt lat="48.7414" lon="-3.34981">
        <ele>-10</ele>
        <time>2015-11-03T15:14:41Z</time>
      </trkpt>
      <trkpt lat="48.74132" lon="-3.35002">
        <ele>-10</ele>
        <time>2015-11-03T15:14:44Z</time>
      </trkpt>
      <trkpt lat="48.74123" lon="-3.35028">
        <ele>-10</ele>
        <time>2015-11-03T15:14:48Z</time>
      </trkpt>
      <trkpt lat="48.74111" lon="-3.35059">
        <ele>-10</ele>
        <time>2015-11-03T15:14:53Z</time>
      </trkpt>
      <trkpt lat="48.74101" lon="-3.35085">
        <ele>-10</ele>
        <time>2015-11-03T15:14:57Z</time>
      </trkpt>
      <trkpt lat="48.74093" lon="-3.35106">
        <ele>-10</ele>
        <time>2015-11-03T15:15:00Z</time>
      </trkpt>
      <trkpt lat="48.74087" lon="-3.35128">
        <ele>-10</ele>
        <time>2015-11-03T15:15:03Z</time>
      </trkpt>
      <trkpt lat="48.74079" lon="-3.35151">
        <ele>-10</ele>
        <time>2015-11-03T15:15:06Z</time>
      </trkpt>
      <trkpt lat="48.7407" lon="-3.35174">
        <ele>-10</ele>
        <time>2015-11-03T15:15:09Z</time>
      </trkpt>
      <trkpt lat="48.74062" lon="-3.35197">
        <ele>-10</ele>
        <time>2015-11-03T15:15:12Z</time>
      </trkpt>
      <trkpt lat="48.74055" lon="-3.3522">
        <ele>-10</ele>
        <time>2015-11-03T15:15:15Z</time>
      </trkpt>
      <trkpt lat="48.74047" lon="-3.35242">
        <ele>-9</ele>
        <time>2015-11-03T15:15:18Z</time>
      </trkpt>
      <trkpt lat="48.74039" lon="-3.35263">
        <ele>-9</ele>
        <time>2015-11-03T15:15:21Z</time>
      </trkpt>
      <trkpt lat="48.7403" lon="-3.35289">
        <ele>-9</ele>
        <time>2015-11-03T15:15:25Z</time>
      </trkpt>
      <trkpt lat="48.74016" lon="-3.35336">
        <ele>-9</ele>
        <time>2015-11-03T15:15:32Z</time>
      </trkpt>
      <trkpt lat="48.74008" lon="-3.35364">
        <ele>-9</ele>
        <time>2015-11-03T15:15:36Z</time>
      </trkpt>
      <trkpt lat="48.74002" lon="-3.35385">
        <ele>-9</ele>
        <time>2015-11-03T15:15:39Z</time>
      </trkpt>
      <trkpt lat="48.73995" lon="-3.35408">
        <ele>-9</ele>
        <time>2015-11-03T15:15:42Z</time>
      </trkpt>
      <trkpt lat="48.73989" lon="-3.3543">
        <ele>-9</ele>
        <time>2015-11-03T15:15:45Z</time>
      </trkpt>
      <trkpt lat="48.73982" lon="-3.35452">
        <ele>-9</ele>
        <time>2015-11-03T15:15:48Z</time>
      </trkpt>
      <trkpt lat="48.73976" lon="-3.35474">
        <ele>-8</ele>
        <time>2015-11-03T15:15:51Z</time>
      </trkpt>
      <trkpt lat="48.73969" lon="-3.35497">
        <ele>-8</ele>
        <time>2015-11-03T15:15:54Z</time>
      </trkpt>
      <trkpt lat="48.73964" lon="-3.3552">
        <ele>-8</ele>
        <time>2015-11-03T15:15:57Z</time>
      </trkpt>
      <trkpt lat="48.73959" lon="-3.35545">
        <ele>-8</ele>
        <time>2015-11-03T15:16:00Z</time>
      </trkpt>
      <trkpt lat="48.73953" lon="-3.3557">
        <ele>-8</ele>
        <time>2015-11-03T15:16:03Z</time>
      </trkpt>
      <trkpt lat="48.73946" lon="-3.35596">
        <ele>-7</ele>
        <time>2015-11-03T15:16:06Z</time>
      </trkpt>
      <trkpt lat="48.7394" lon="-3.35622">
        <ele>-7</ele>
        <time>2015-11-03T15:16:09Z</time>
      </trkpt>
      <trkpt lat="48.73934" lon="-3.35648">
        <ele>-7</ele>
        <time>2015-11-03T15:16:12Z</time>
      </trkpt>
      <trkpt lat="48.7393" lon="-3.35665">
        <ele>-7</ele>
        <time>2015-11-03T15:16:14Z</time>
      </trkpt>
      <trkpt lat="48.73925" lon="-3.35682">
        <ele>-7</ele>
        <time>2015-11-03T15:16:16Z</time>
      </trkpt>
      <trkpt lat="48.73919" lon="-3.35707">
        <ele>-6</ele>
        <time>2015-11-03T15:16:19Z</time>
      </trkpt>
      <trkpt lat="48.73913" lon="-3.35734">
        <ele>-6</ele>
        <time>2015-11-03T15:16:22Z</time>
      </trkpt>
      <trkpt lat="48.73905" lon="-3.3576">
        <ele>-6</ele>
        <time>2015-11-03T15:16:25Z</time>
      </trkpt>
      <trkpt lat="48.73898" lon="-3.35786">
        <ele>-6</ele>
        <time>2015-11-03T15:16:28Z</time>
      </trkpt>
      <trkpt lat="48.73888" lon="-3.35809">
        <ele>-6</ele>
        <time>2015-11-03T15:16:31Z</time>
      </trkpt>
      <trkpt lat="48.73879" lon="-3.3583">
        <ele>-6</ele>
        <time>2015-11-03T15:16:34Z</time>
      </trkpt>
      <trkpt lat="48.7387" lon="-3.3585">
        <ele>-7</ele>
        <time>2015-11-03T15:16:37Z</time>
      </trkpt>
      <trkpt lat="48.73859" lon="-3.35875">
        <ele>-7</ele>
        <time>2015-11-03T15:16:41Z</time>
      </trkpt>
      <trkpt lat="48.73848" lon="-3.35901">
        <ele>-8</ele>
        <time>2015-11-03T15:16:45Z</time>
      </trkpt>
      <trkpt lat="48.73838" lon="-3.35927">
        <ele>-9</ele>
        <time>2015-11-03T15:16:49Z</time>
      </trkpt>
      <trkpt lat="48.73831" lon="-3.35955">
        <ele>-9</ele>
        <time>2015-11-03T15:16:53Z</time>
      </trkpt>
      <trkpt lat="48.73826" lon="-3.35983">
        <ele>-10</ele>
        <time>2015-11-03T15:16:57Z</time>
      </trkpt>
      <trkpt lat="48.73823" lon="-3.35998">
        <ele>-10</ele>
        <time>2015-11-03T15:16:59Z</time>
      </trkpt>
      <trkpt lat="48.73817" lon="-3.36027">
        <ele>-11</ele>
        <time>2015-11-03T15:17:03Z</time>
      </trkpt>
      <trkpt lat="48.7381" lon="-3.36048">
        <ele>-11</ele>
        <time>2015-11-03T15:17:06Z</time>
      </trkpt>
      <trkpt lat="48.73803" lon="-3.36069">
        <ele>-11</ele>
        <time>2015-11-03T15:17:09Z</time>
      </trkpt>
      <trkpt lat="48.73795" lon="-3.36089">
        <ele>-11</ele>
        <time>2015-11-03T15:17:12Z</time>
      </trkpt>
      <trkpt lat="48.73783" lon="-3.36115">
        <ele>-12</ele>
        <time>2015-11-03T15:17:16Z</time>
      </trkpt>
      <trkpt lat="48.73774" lon="-3.36134">
        <ele>-12</ele>
        <time>2015-11-03T15:17:19Z</time>
      </trkpt>
      <trkpt lat="48.73764" lon="-3.3616">
        <ele>-11</ele>
        <time>2015-11-03T15:17:23Z</time>
      </trkpt>
      <trkpt lat="48.73759" lon="-3.36173">
        <ele>-11</ele>
        <time>2015-11-03T15:17:25Z</time>
      </trkpt>
      <trkpt lat="48.73752" lon="-3.362">
        <ele>-11</ele>
        <time>2015-11-03T15:17:29Z</time>
      </trkpt>
      <trkpt lat="48.73745" lon="-3.36227">
        <ele>-11</ele>
        <time>2015-11-03T15:17:33Z</time>
      </trkpt>
      <trkpt lat="48.73741" lon="-3.36247">
        <ele>-11</ele>
        <time>2015-11-03T15:17:36Z</time>
      </trkpt>
      <trkpt lat="48.73737" lon="-3.36267">
        <ele>-11</ele>
        <time>2015-11-03T15:17:39Z</time>
      </trkpt>
      <trkpt lat="48.73735" lon="-3.3628">
        <ele>-11</ele>
        <time>2015-11-03T15:17:41Z</time>
      </trkpt>
      <trkpt lat="48.73733" lon="-3.36294">
        <ele>-10</ele>
        <time>2015-11-03T15:17:43Z</time>
      </trkpt>
      <trkpt lat="48.73729" lon="-3.3632">
        <ele>-10</ele>
        <time>2015-11-03T15:17:47Z</time>
      </trkpt>
      <trkpt lat="48.73727" lon="-3.36339">
        <ele>-10</ele>
        <time>2015-11-03T15:17:50Z</time>
      </trkpt>
      <trkpt lat="48.73727" lon="-3.36373">
        <ele>-10</ele>
        <time>2015-11-03T15:17:55Z</time>
      </trkpt>
      <trkpt lat="48.73728" lon="-3.36387">
        <ele>-10</ele>
        <time>2015-11-03T15:17:57Z</time>
      </trkpt>
      <trkpt lat="48.7373" lon="-3.364">
        <ele>-10</ele>
        <time>2015-11-03T15:17:59Z</time>
      </trkpt>
      <trkpt lat="48.73732" lon="-3.36414">
        <ele>-9</ele>
        <time>2015-11-03T15:18:01Z</time>
      </trkpt>
      <trkpt lat="48.73733" lon="-3.36427">
        <ele>-9</ele>
        <time>2015-11-03T15:18:03Z</time>
      </trkpt>
      <trkpt lat="48.73735" lon="-3.36441">
        <ele>-9</ele>
        <time>2015-11-03T15:18:05Z</time>
      </trkpt>
      <trkpt lat="48.73736" lon="-3.36475">
        <ele>-8</ele>
        <time>2015-11-03T15:18:10Z</time>
      </trkpt>
      <trkpt lat="48.73676" lon="-3.3693">
        <ele>-9</ele>
        <time>2015-11-03T15:19:13Z</time>
      </trkpt>
      <trkpt lat="48.73669" lon="-3.36952">
        <ele>-10</ele>
        <time>2015-11-03T15:19:16Z</time>
      </trkpt>
      <trkpt lat="48.73661" lon="-3.3698">
        <ele>-9</ele>
        <time>2015-11-03T15:19:21Z</time>
      </trkpt>
      <trkpt lat="48.73654" lon="-3.37">
        <ele>-9</ele>
        <time>2015-11-03T15:19:25Z</time>
      </trkpt>
      <trkpt lat="48.73643" lon="-3.37021">
        <ele>-9</ele>
        <time>2015-11-03T15:19:30Z</time>
      </trkpt>
      <trkpt lat="48.73635" lon="-3.37045">
        <ele>-8</ele>
        <time>2015-11-03T15:19:36Z</time>
      </trkpt>
      <trkpt lat="48.73632" lon="-3.37071">
        <ele>-8</ele>
        <time>2015-11-03T15:19:42Z</time>
      </trkpt>
      <trkpt lat="48.73628" lon="-3.37094">
        <ele>-8</ele>
        <time>2015-11-03T15:19:47Z</time>
      </trkpt>
      <trkpt lat="48.73624" lon="-3.37113">
        <ele>-7</ele>
        <time>2015-11-03T15:19:51Z</time>
      </trkpt>
      <trkpt lat="48.73619" lon="-3.37137">
        <ele>-7</ele>
        <time>2015-11-03T15:19:56Z</time>
      </trkpt>
      <trkpt lat="48.73615" lon="-3.37159">
        <ele>-6</ele>
        <time>2015-11-03T15:20:01Z</time>
      </trkpt>
      <trkpt lat="48.7361" lon="-3.37193">
        <ele>-6</ele>
        <time>2015-11-03T15:20:09Z</time>
      </trkpt>
      <trkpt lat="48.73606" lon="-3.37215">
        <ele>-6</ele>
        <time>2015-11-03T15:20:15Z</time>
      </trkpt>
      <trkpt lat="48.736" lon="-3.37237">
        <ele>-5</ele>
        <time>2015-11-03T15:20:23Z</time>
      </trkpt>
      <trkpt lat="48.73597" lon="-3.37269">
        <ele>-5</ele>
        <time>2015-11-03T15:20:29Z</time>
      </trkpt>
      <trkpt lat="48.73598" lon="-3.37298">
        <ele>-5</ele>
        <time>2015-11-03T15:20:35Z</time>
      </trkpt>
      <trkpt lat="48.73598" lon="-3.37323">
        <ele>-5</ele>
        <time>2015-11-03T15:20:40Z</time>
      </trkpt>
      <trkpt lat="48.73598" lon="-3.37347">
        <ele>-4</ele>
        <time>2015-11-03T15:20:45Z</time>
      </trkpt>
      <trkpt lat="48.73596" lon="-3.37373">
        <ele>-4</ele>
        <time>2015-11-03T15:20:51Z</time>
      </trkpt>
      <trkpt lat="48.73593" lon="-3.37397">
        <ele>-3</ele>
        <time>2015-11-03T15:20:57Z</time>
      </trkpt>
      <trkpt lat="48.73592" lon="-3.37426">
        <ele>-3</ele>
        <time>2015-11-03T15:21:04Z</time>
      </trkpt>
      <trkpt lat="48.7359" lon="-3.37452">
        <ele>-2</ele>
        <time>2015-11-03T15:21:10Z</time>
      </trkpt>
      <trkpt lat="48.73584" lon="-3.37478">
        <ele>-1</ele>
        <time>2015-11-03T15:21:16Z</time>
      </trkpt>
      <trkpt lat="48.73579" lon="-3.3749">
        <ele>65.3</ele>
        <time>2015-11-03T15:21:19Z</time>
      </trkpt>
      <trkpt lat="48.73568" lon="-3.3751">
        <ele>1</ele>
        <time>2015-11-03T15:21:24Z</time>
      </trkpt>
      <trkpt lat="48.73555" lon="-3.37528">
        <ele>2</ele>
        <time>2015-11-03T15:21:29Z</time>
      </trkpt>
      <trkpt lat="48.73544" lon="-3.37537">
        <ele>2</ele>
        <time>2015-11-03T15:21:32Z</time>
      </trkpt>
      <trkpt lat="48.73536" lon="-3.37542">
        <ele>3</ele>
        <time>2015-11-03T15:21:34Z</time>
      </trkpt>
      <trkpt lat="48.73528" lon="-3.37548">
        <ele>4</ele>
        <time>2015-11-03T15:21:36Z</time>
      </trkpt>
      <trkpt lat="48.73517" lon="-3.37559">
        <ele>4</ele>
        <time>2015-11-03T15:21:39Z</time>
      </trkpt>
      <trkpt lat="48.7351" lon="-3.37568">
        <ele>5</ele>
        <time>2015-11-03T15:21:41Z</time>
      </trkpt>
      <trkpt lat="48.73502" lon="-3.37584">
        <ele>6</ele>
        <time>2015-11-03T15:21:44Z</time>
      </trkpt>
      <trkpt lat="48.73492" lon="-3.37606">
        <ele>7</ele>
        <time>2015-11-03T15:21:48Z</time>
      </trkpt>
      <trkpt lat="48.73486" lon="-3.37629">
        <ele>7</ele>
        <time>2015-11-03T15:21:52Z</time>
      </trkpt>
      <trkpt lat="48.73481" lon="-3.37654">
        <ele>8</ele>
        <time>2015-11-03T15:21:56Z</time>
      </trkpt>
      <trkpt lat="48.73477" lon="-3.37679">
        <ele>9</ele>
        <time>2015-11-03T15:22:00Z</time>
      </trkpt>
      <trkpt lat="48.73473" lon="-3.37703">
        <ele>10</ele>
        <time>2015-11-03T15:22:04Z</time>
      </trkpt>
      <trkpt lat="48.7347" lon="-3.37721">
        <ele>10</ele>
        <time>2015-11-03T15:22:07Z</time>
      </trkpt>
      <trkpt lat="48.73462" lon="-3.37744">
        <ele>11</ele>
        <time>2015-11-03T15:22:11Z</time>
      </trkpt>
      <trkpt lat="48.73457" lon="-3.37756">
        <ele>12</ele>
        <time>2015-11-03T15:22:13Z</time>
      </trkpt>
      <trkpt lat="48.73452" lon="-3.37767">
        <ele>12</ele>
        <time>2015-11-03T15:22:15Z</time>
      </trkpt>
      <trkpt lat="48.73447" lon="-3.37778">
        <ele>12</ele>
        <time>2015-11-03T15:22:17Z</time>
      </trkpt>
      <trkpt lat="48.73441" lon="-3.37788">
        <ele>13</ele>
        <time>2015-11-03T15:22:19Z</time>
      </trkpt>
      <trkpt lat="48.73436" lon="-3.37799">
        <ele>13</ele>
        <time>2015-11-03T15:22:21Z</time>
      </trkpt>
      <trkpt lat="48.7343" lon="-3.3781">
        <ele>14</ele>
        <time>2015-11-03T15:22:23Z</time>
      </trkpt>
      <trkpt lat="48.73425" lon="-3.37821">
        <ele>14</ele>
        <time>2015-11-03T15:22:25Z</time>
      </trkpt>
      <trkpt lat="48.73419" lon="-3.37832">
        <ele>14</ele>
        <time>2015-11-03T15:22:27Z</time>
      </trkpt>
      <trkpt lat="48.73412" lon="-3.37842">
        <ele>15</ele>
        <time>2015-11-03T15:22:29Z</time>
      </trkpt>
      <trkpt lat="48.73405" lon="-3.37851">
        <ele>15</ele>
        <time>2015-11-03T15:22:31Z</time>
      </trkpt>
      <trkpt lat="48.73397" lon="-3.37859">
        <ele>15</ele>
        <time>2015-11-03T15:22:33Z</time>
      </trkpt>
      <trkpt lat="48.73389" lon="-3.37866">
        <ele>16</ele>
        <time>2015-11-03T15:22:35Z</time>
      </trkpt>
      <trkpt lat="48.73378" lon="-3.37873">
        <ele>16</ele>
        <time>2015-11-03T15:22:37Z</time>
      </trkpt>
      <trkpt lat="48.73368" lon="-3.3788">
        <ele>16</ele>
        <time>2015-11-03T15:22:39Z</time>
      </trkpt>
      <trkpt lat="48.73353" lon="-3.37893">
        <ele>16</ele>
        <time>2015-11-03T15:22:42Z</time>
      </trkpt>
      <trkpt lat="48.73343" lon="-3.37901">
        <ele>17</ele>
        <time>2015-11-03T15:22:44Z</time>
      </trkpt>
      <trkpt lat="48.73334" lon="-3.37909">
        <ele>17</ele>
        <time>2015-11-03T15:22:46Z</time>
      </trkpt>
      <trkpt lat="48.7332" lon="-3.37921">
        <ele>17</ele>
        <time>2015-11-03T15:22:49Z</time>
      </trkpt>
      <trkpt lat="48.73307" lon="-3.37934">
        <ele>17</ele>
        <time>2015-11-03T15:22:52Z</time>
      </trkpt>
      <trkpt lat="48.73292" lon="-3.37954">
        <ele>18</ele>
        <time>2015-11-03T15:22:56Z</time>
      </trkpt>
      <trkpt lat="48.73286" lon="-3.37964">
        <ele>18</ele>
        <time>2015-11-03T15:22:58Z</time>
      </trkpt>
      <trkpt lat="48.7328" lon="-3.37975">
        <ele>18</ele>
        <time>2015-11-03T15:23:00Z</time>
      </trkpt>
      <trkpt lat="48.73272" lon="-3.3799">
        <ele>19</ele>
        <time>2015-11-03T15:23:03Z</time>
      </trkpt>
      <trkpt lat="48.73265" lon="-3.38003">
        <ele>19</ele>
        <time>2015-11-03T15:23:06Z</time>
      </trkpt>
      <trkpt lat="48.73255" lon="-3.3802">
        <ele>19</ele>
        <time>2015-11-03T15:23:10Z</time>
      </trkpt>
      <trkpt lat="48.73248" lon="-3.38032">
        <ele>19</ele>
        <time>2015-11-03T15:23:13Z</time>
      </trkpt>
      <trkpt lat="48.73241" lon="-3.38043">
        <ele>19</ele>
        <time>2015-11-03T15:23:16Z</time>
      </trkpt>
      <trkpt lat="48.73234" lon="-3.38054">
        <ele>19</ele>
        <time>2015-11-03T15:23:19Z</time>
      </trkpt>
      <trkpt lat="48.73227" lon="-3.38065">
        <ele>20</ele>
        <time>2015-11-03T15:23:22Z</time>
      </trkpt>
      <trkpt lat="48.7322" lon="-3.38075">
        <ele>20</ele>
        <time>2015-11-03T15:23:25Z</time>
      </trkpt>
      <trkpt lat="48.73212" lon="-3.38085">
        <ele>20</ele>
        <time>2015-11-03T15:23:28Z</time>
      </trkpt>
      <trkpt lat="48.73204" lon="-3.38094">
        <ele>20</ele>
        <time>2015-11-03T15:23:31Z</time>
      </trkpt>
      <trkpt lat="48.73193" lon="-3.38107">
        <ele>20</ele>
        <time>2015-11-03T15:23:35Z</time>
      </trkpt>
      <trkpt lat="48.73179" lon="-3.38122">
        <ele>20</ele>
        <time>2015-11-03T15:23:40Z</time>
      </trkpt>
      <trkpt lat="48.7317" lon="-3.38131">
        <ele>21</ele>
        <time>2015-11-03T15:23:43Z</time>
      </trkpt>
      <trkpt lat="48.73157" lon="-3.38147">
        <ele>21</ele>
        <time>2015-11-03T15:23:48Z</time>
      </trkpt>
      <trkpt lat="48.73149" lon="-3.38157">
        <ele>21</ele>
        <time>2015-11-03T15:23:51Z</time>
      </trkpt>
      <trkpt lat="48.73141" lon="-3.38166">
        <ele>22</ele>
        <time>2015-11-03T15:23:54Z</time>
      </trkpt>
      <trkpt lat="48.7313" lon="-3.38178">
        <ele>22</ele>
        <time>2015-11-03T15:23:58Z</time>
      </trkpt>
      <trkpt lat="48.73122" lon="-3.38188">
        <ele>23</ele>
        <time>2015-11-03T15:24:01Z</time>
      </trkpt>
      <trkpt lat="48.73114" lon="-3.38198">
        <ele>23</ele>
        <time>2015-11-03T15:24:04Z</time>
      </trkpt>
      <trkpt lat="48.72934" lon="-3.38476">
        <ele>30</ele>
        <time>2015-11-03T15:25:09Z</time>
      </trkpt>
      <trkpt lat="48.72927" lon="-3.38501">
        <ele>29</ele>
        <time>2015-11-03T15:25:12Z</time>
      </trkpt>
      <trkpt lat="48.72918" lon="-3.38525">
        <ele>29</ele>
        <time>2015-11-03T15:25:16Z</time>
      </trkpt>
      <trkpt lat="48.72913" lon="-3.38551">
        <ele>29</ele>
        <time>2015-11-03T15:25:20Z</time>
      </trkpt>
      <trkpt lat="48.72918" lon="-3.38579">
        <ele>29</ele>
        <time>2015-11-03T15:25:24Z</time>
      </trkpt>
      <trkpt lat="48.72921" lon="-3.38602">
        <ele>29</ele>
        <time>2015-11-03T15:25:27Z</time>
      </trkpt>
      <trkpt lat="48.72922" lon="-3.3862">
        <ele>29</ele>
        <time>2015-11-03T15:25:29Z</time>
      </trkpt>
      <trkpt lat="48.72923" lon="-3.3864">
        <ele>29</ele>
        <time>2015-11-03T15:25:31Z</time>
      </trkpt>
      <trkpt lat="48.72926" lon="-3.38672">
        <ele>29</ele>
        <time>2015-11-03T15:25:34Z</time>
      </trkpt>
      <trkpt lat="48.72927" lon="-3.38703">
        <ele>29</ele>
        <time>2015-11-03T15:25:37Z</time>
      </trkpt>
      <trkpt lat="48.72923" lon="-3.38734">
        <ele>29</ele>
        <time>2015-11-03T15:25:40Z</time>
      </trkpt>
      <trkpt lat="48.72917" lon="-3.38753">
        <ele>30</ele>
        <time>2015-11-03T15:25:42Z</time>
      </trkpt>
      <trkpt lat="48.72908" lon="-3.38779">
        <ele>29</ele>
        <time>2015-11-03T15:25:45Z</time>
      </trkpt>
      <trkpt lat="48.72898" lon="-3.38804">
        <ele>29</ele>
        <time>2015-11-03T15:25:48Z</time>
      </trkpt>
      <trkpt lat="48.72893" lon="-3.3882">
        <ele>29</ele>
        <time>2015-11-03T15:25:50Z</time>
      </trkpt>
      <trkpt lat="48.72885" lon="-3.38845">
        <ele>29</ele>
        <time>2015-11-03T15:25:53Z</time>
      </trkpt>
      <trkpt lat="48.72882" lon="-3.38861">
        <ele>29</ele>
        <time>2015-11-03T15:25:55Z</time>
      </trkpt>
      <trkpt lat="48.72879" lon="-3.38885">
        <ele>30</ele>
        <time>2015-11-03T15:25:58Z</time>
      </trkpt>
      <trkpt lat="48.72877" lon="-3.38901">
        <ele>30</ele>
        <time>2015-11-03T15:26:00Z</time>
      </trkpt>
      <trkpt lat="48.72875" lon="-3.38923">
        <ele>30</ele>
        <time>2015-11-03T15:26:03Z</time>
      </trkpt>
      <trkpt lat="48.72873" lon="-3.38937">
        <ele>30</ele>
        <time>2015-11-03T15:26:05Z</time>
      </trkpt>
      <trkpt lat="48.72871" lon="-3.38951">
        <ele>30</ele>
        <time>2015-11-03T15:26:07Z</time>
      </trkpt>
      <trkpt lat="48.7287" lon="-3.38964">
        <ele>30</ele>
        <time>2015-11-03T15:26:09Z</time>
      </trkpt>
      <trkpt lat="48.72867" lon="-3.38983">
        <ele>30</ele>
        <time>2015-11-03T15:26:12Z</time>
      </trkpt>
      <trkpt lat="48.72865" lon="-3.39001">
        <ele>30</ele>
        <time>2015-11-03T15:26:15Z</time>
      </trkpt>
      <trkpt lat="48.72864" lon="-3.39014">
        <ele>30</ele>
        <time>2015-11-03T15:26:17Z</time>
      </trkpt>
      <trkpt lat="48.72861" lon="-3.3904">
        <ele>31</ele>
        <time>2015-11-03T15:26:21Z</time>
      </trkpt>
      <trkpt lat="48.72859" lon="-3.3906">
        <ele>31</ele>
        <time>2015-11-03T15:26:24Z</time>
      </trkpt>
      <trkpt lat="48.72855" lon="-3.39087">
        <ele>31</ele>
        <time>2015-11-03T15:26:28Z</time>
      </trkpt>
      <trkpt lat="48.72853" lon="-3.391">
        <ele>31</ele>
        <time>2015-11-03T15:26:30Z</time>
      </trkpt>
      <trkpt lat="48.7285" lon="-3.39128">
        <ele>32</ele>
        <time>2015-11-03T15:26:34Z</time>
      </trkpt>
      <trkpt lat="48.72848" lon="-3.39141">
        <ele>32</ele>
        <time>2015-11-03T15:26:36Z</time>
      </trkpt>
      <trkpt lat="48.72846" lon="-3.39162">
        <ele>32</ele>
        <time>2015-11-03T15:26:39Z</time>
      </trkpt>
      <trkpt lat="48.72844" lon="-3.39188">
        <ele>32</ele>
        <time>2015-11-03T15:26:43Z</time>
      </trkpt>
      <trkpt lat="48.72843" lon="-3.39215">
        <ele>32</ele>
        <time>2015-11-03T15:26:47Z</time>
      </trkpt>
      <trkpt lat="48.72842" lon="-3.39244">
        <ele>32</ele>
        <time>2015-11-03T15:26:51Z</time>
      </trkpt>
      <trkpt lat="48.72842" lon="-3.39273">
        <ele>33</ele>
        <time>2015-11-03T15:26:55Z</time>
      </trkpt>
      <trkpt lat="48.72842" lon="-3.39296">
        <ele>33</ele>
        <time>2015-11-03T15:26:58Z</time>
      </trkpt>
      <trkpt lat="48.72843" lon="-3.39312">
        <ele>33</ele>
        <time>2015-11-03T15:27:00Z</time>
      </trkpt>
      <trkpt lat="48.72844" lon="-3.39337">
        <ele>33</ele>
        <time>2015-11-03T15:27:03Z</time>
      </trkpt>
      <trkpt lat="48.72844" lon="-3.39362">
        <ele>33</ele>
        <time>2015-11-03T15:27:06Z</time>
      </trkpt>
      <trkpt lat="48.72844" lon="-3.39386">
        <ele>33</ele>
        <time>2015-11-03T15:27:09Z</time>
      </trkpt>
      <trkpt lat="48.72844" lon="-3.39411">
        <ele>33</ele>
        <time>2015-11-03T15:27:12Z</time>
      </trkpt>
      <trkpt lat="48.72843" lon="-3.39436">
        <ele>33</ele>
        <time>2015-11-03T15:27:15Z</time>
      </trkpt>
      <trkpt lat="48.72841" lon="-3.3946">
        <ele>33</ele>
        <time>2015-11-03T15:27:18Z</time>
      </trkpt>
      <trkpt lat="48.72838" lon="-3.39485">
        <ele>34</ele>
        <time>2015-11-03T15:27:21Z</time>
      </trkpt>
      <trkpt lat="48.72837" lon="-3.39502">
        <ele>34</ele>
        <time>2015-11-03T15:27:23Z</time>
      </trkpt>
      <trkpt lat="48.72835" lon="-3.39526">
        <ele>34</ele>
        <time>2015-11-03T15:27:26Z</time>
      </trkpt>
      <trkpt lat="48.72834" lon="-3.39549">
        <ele>34</ele>
        <time>2015-11-03T15:27:29Z</time>
      </trkpt>
      <trkpt lat="48.72834" lon="-3.39565">
        <ele>35</ele>
        <time>2015-11-03T15:27:31Z</time>
      </trkpt>
      <trkpt lat="48.72834" lon="-3.39589">
        <ele>35</ele>
        <time>2015-11-03T15:27:34Z</time>
      </trkpt>
      <trkpt lat="48.72835" lon="-3.39613">
        <ele>35</ele>
        <time>2015-11-03T15:27:37Z</time>
      </trkpt>
      <trkpt lat="48.72837" lon="-3.39638">
        <ele>35</ele>
        <time>2015-11-03T15:27:40Z</time>
      </trkpt>
      <trkpt lat="48.7284" lon="-3.39655">
        <ele>36</ele>
        <time>2015-11-03T15:27:42Z</time>
      </trkpt>
      <trkpt lat="48.72843" lon="-3.39673">
        <ele>36</ele>
        <time>2015-11-03T15:27:44Z</time>
      </trkpt>
      <trkpt lat="48.72847" lon="-3.39691">
        <ele>36</ele>
        <time>2015-11-03T15:27:46Z</time>
      </trkpt>
      <trkpt lat="48.72852" lon="-3.39709">
        <ele>36</ele>
        <time>2015-11-03T15:27:48Z</time>
      </trkpt>
      <trkpt lat="48.72858" lon="-3.39727">
        <ele>37</ele>
        <time>2015-11-03T15:27:50Z</time>
      </trkpt>
      <trkpt lat="48.72865" lon="-3.39745">
        <ele>37</ele>
        <time>2015-11-03T15:27:52Z</time>
      </trkpt>
      <trkpt lat="48.72873" lon="-3.39762">
        <ele>37</ele>
        <time>2015-11-03T15:27:54Z</time>
      </trkpt>
      <trkpt lat="48.72886" lon="-3.39787">
        <ele>37</ele>
        <time>2015-11-03T15:27:57Z</time>
      </trkpt>
      <trkpt lat="48.72895" lon="-3.39803">
        <ele>37</ele>
        <time>2015-11-03T15:27:59Z</time>
      </trkpt>
      <trkpt lat="48.72909" lon="-3.39828">
        <ele>38</ele>
        <time>2015-11-03T15:28:02Z</time>
      </trkpt>
      <trkpt lat="48.7292" lon="-3.39855">
        <ele>38</ele>
        <time>2015-11-03T15:28:05Z</time>
      </trkpt>
      <trkpt lat="48.72931" lon="-3.39883">
        <ele>38</ele>
        <time>2015-11-03T15:28:08Z</time>
      </trkpt>
      <trkpt lat="48.72941" lon="-3.39913">
        <ele>39</ele>
        <time>2015-11-03T15:28:11Z</time>
      </trkpt>
      <trkpt lat="48.7295" lon="-3.39943">
        <ele>39</ele>
        <time>2015-11-03T15:28:14Z</time>
      </trkpt>
      <trkpt lat="48.7296" lon="-3.39973">
        <ele>40</ele>
        <time>2015-11-03T15:28:17Z</time>
      </trkpt>
      <trkpt lat="48.72965" lon="-3.39993">
        <ele>40</ele>
        <time>2015-11-03T15:28:19Z</time>
      </trkpt>
      <trkpt lat="48.72971" lon="-3.40013">
        <ele>40</ele>
        <time>2015-11-03T15:28:21Z</time>
      </trkpt>
      <trkpt lat="48.72978" lon="-3.40043">
        <ele>41</ele>
        <time>2015-11-03T15:28:24Z</time>
      </trkpt>
      <trkpt lat="48.72983" lon="-3.40063">
        <ele>41</ele>
        <time>2015-11-03T15:28:26Z</time>
      </trkpt>
      <trkpt lat="48.72986" lon="-3.40084">
        <ele>41</ele>
        <time>2015-11-03T15:28:28Z</time>
      </trkpt>
      <trkpt lat="48.72987" lon="-3.40106">
        <ele>41</ele>
        <time>2015-11-03T15:28:30Z</time>
      </trkpt>
      <trkpt lat="48.72989" lon="-3.40128">
        <ele>41</ele>
        <time>2015-11-03T15:28:32Z</time>
      </trkpt>
      <trkpt lat="48.72994" lon="-3.4016">
        <ele>41</ele>
        <time>2015-11-03T15:28:35Z</time>
      </trkpt>
      <trkpt lat="48.72999" lon="-3.40181">
        <ele>42</ele>
        <time>2015-11-03T15:28:37Z</time>
      </trkpt>
      <trkpt lat="48.73005" lon="-3.40201">
        <ele>42</ele>
        <time>2015-11-03T15:28:39Z</time>
      </trkpt>
      <trkpt lat="48.73011" lon="-3.40221">
        <ele>42</ele>
        <time>2015-11-03T15:28:41Z</time>
      </trkpt>
      <trkpt lat="48.73015" lon="-3.40241">
        <ele>42</ele>
        <time>2015-11-03T15:28:43Z</time>
      </trkpt>
      <trkpt lat="48.7302" lon="-3.40273">
        <ele>42</ele>
        <time>2015-11-03T15:28:46Z</time>
      </trkpt>
      <trkpt lat="48.73022" lon="-3.40305">
        <ele>42</ele>
        <time>2015-11-03T15:28:49Z</time>
      </trkpt>
      <trkpt lat="48.73023" lon="-3.40326">
        <ele>42</ele>
        <time>2015-11-03T15:28:51Z</time>
      </trkpt>
      <trkpt lat="48.73025" lon="-3.40346">
        <ele>42</ele>
        <time>2015-11-03T15:28:53Z</time>
      </trkpt>
      <trkpt lat="48.7303" lon="-3.40374">
        <ele>42</ele>
        <time>2015-11-03T15:28:56Z</time>
      </trkpt>
      <trkpt lat="48.73035" lon="-3.40392">
        <ele>42</ele>
        <time>2015-11-03T15:28:58Z</time>
      </trkpt>
      <trkpt lat="48.73043" lon="-3.40414">
        <ele>42</ele>
        <time>2015-11-03T15:29:01Z</time>
      </trkpt>
      <trkpt lat="48.73049" lon="-3.40437">
        <ele>42</ele>
        <time>2015-11-03T15:29:04Z</time>
      </trkpt>
      <trkpt lat="48.73054" lon="-3.40461">
        <ele>42</ele>
        <time>2015-11-03T15:29:07Z</time>
      </trkpt>
      <trkpt lat="48.73058" lon="-3.40487">
        <ele>42</ele>
        <time>2015-11-03T15:29:10Z</time>
      </trkpt>
      <trkpt lat="48.73058" lon="-3.40505">
        <ele>42</ele>
        <time>2015-11-03T15:29:12Z</time>
      </trkpt>
      <trkpt lat="48.73058" lon="-3.40523">
        <ele>42</ele>
        <time>2015-11-03T15:29:14Z</time>
      </trkpt>
      <trkpt lat="48.73058" lon="-3.40542">
        <ele>43</ele>
        <time>2015-11-03T15:29:16Z</time>
      </trkpt>
      <trkpt lat="48.73059" lon="-3.40561">
        <ele>43</ele>
        <time>2015-11-03T15:29:18Z</time>
      </trkpt>
      <trkpt lat="48.73062" lon="-3.4058">
        <ele>43</ele>
        <time>2015-11-03T15:29:20Z</time>
      </trkpt>
      <trkpt lat="48.73069" lon="-3.40609">
        <ele>43</ele>
        <time>2015-11-03T15:29:23Z</time>
      </trkpt>
      <trkpt lat="48.7308" lon="-3.40637">
        <ele>43</ele>
        <time>2015-11-03T15:29:26Z</time>
      </trkpt>
      <trkpt lat="48.73093" lon="-3.40663">
        <ele>43</ele>
        <time>2015-11-03T15:29:29Z</time>
      </trkpt>
      <trkpt lat="48.73102" lon="-3.40681">
        <ele>43</ele>
        <time>2015-11-03T15:29:31Z</time>
      </trkpt>
      <trkpt lat="48.73114" lon="-3.40709">
        <ele>43</ele>
        <time>2015-11-03T15:29:34Z</time>
      </trkpt>
      <trkpt lat="48.73121" lon="-3.4073">
        <ele>43</ele>
        <time>2015-11-03T15:29:36Z</time>
      </trkpt>
      <trkpt lat="48.73127" lon="-3.40753">
        <ele>43</ele>
        <time>2015-11-03T15:29:38Z</time>
      </trkpt>
      <trkpt lat="48.73133" lon="-3.40777">
        <ele>43</ele>
        <time>2015-11-03T15:29:40Z</time>
      </trkpt>
      <trkpt lat="48.73138" lon="-3.40803">
        <ele>43</ele>
        <time>2015-11-03T15:29:42Z</time>
      </trkpt>
      <trkpt lat="48.73144" lon="-3.40827">
        <ele>43</ele>
        <time>2015-11-03T15:29:44Z</time>
      </trkpt>
      <trkpt lat="48.73146" lon="-3.40839">
        <ele>43</ele>
        <time>2015-11-03T15:29:45Z</time>
      </trkpt>
      <trkpt lat="48.73151" lon="-3.40862">
        <ele>43</ele>
        <time>2015-11-03T15:29:47Z</time>
      </trkpt>
      <trkpt lat="48.73157" lon="-3.40885">
        <ele>43</ele>
        <time>2015-11-03T15:29:49Z</time>
      </trkpt>
      <trkpt lat="48.73162" lon="-3.40908">
        <ele>43</ele>
        <time>2015-11-03T15:29:51Z</time>
      </trkpt>
      <trkpt lat="48.73167" lon="-3.40929">
        <ele>43</ele>
        <time>2015-11-03T15:29:53Z</time>
      </trkpt>
      <trkpt lat="48.73173" lon="-3.40959">
        <ele>43</ele>
        <time>2015-11-03T15:29:56Z</time>
      </trkpt>
      <trkpt lat="48.73179" lon="-3.40989">
        <ele>42</ele>
        <time>2015-11-03T15:29:59Z</time>
      </trkpt>
      <trkpt lat="48.73183" lon="-3.41008">
        <ele>42</ele>
        <time>2015-11-03T15:30:01Z</time>
      </trkpt>
      <trkpt lat="48.73189" lon="-3.41036">
        <ele>42</ele>
        <time>2015-11-03T15:30:04Z</time>
      </trkpt>
      <trkpt lat="48.73195" lon="-3.41065">
        <ele>42</ele>
        <time>2015-11-03T15:30:07Z</time>
      </trkpt>
      <trkpt lat="48.73198" lon="-3.41084">
        <ele>42</ele>
        <time>2015-11-03T15:30:09Z</time>
      </trkpt>
      <trkpt lat="48.73202" lon="-3.41114">
        <ele>42</ele>
        <time>2015-11-03T15:30:12Z</time>
      </trkpt>
      <trkpt lat="48.73205" lon="-3.41145">
        <ele>42</ele>
        <time>2015-11-03T15:30:15Z</time>
      </trkpt>
      <trkpt lat="48.73207" lon="-3.41175">
        <ele>42</ele>
        <time>2015-11-03T15:30:18Z</time>
      </trkpt>
      <trkpt lat="48.7321" lon="-3.41207">
        <ele>42</ele>
        <time>2015-11-03T15:30:21Z</time>
      </trkpt>
      <trkpt lat="48.73212" lon="-3.4123">
        <ele>42</ele>
        <time>2015-11-03T15:30:23Z</time>
      </trkpt>
      <trkpt lat="48.73213" lon="-3.41256">
        <ele>42</ele>
        <time>2015-11-03T15:30:25Z</time>
      </trkpt>
      <trkpt lat="48.73215" lon="-3.41281">
        <ele>42</ele>
        <time>2015-11-03T15:30:27Z</time>
      </trkpt>
      <trkpt lat="48.73217" lon="-3.41305">
        <ele>42</ele>
        <time>2015-11-03T15:30:29Z</time>
      </trkpt>
      <trkpt lat="48.73219" lon="-3.41339">
        <ele>42</ele>
        <time>2015-11-03T15:30:32Z</time>
      </trkpt>
      <trkpt lat="48.73219" lon="-3.41371">
        <ele>42</ele>
        <time>2015-11-03T15:30:35Z</time>
      </trkpt>
      <trkpt lat="48.73219" lon="-3.41401">
        <ele>42</ele>
        <time>2015-11-03T15:30:38Z</time>
      </trkpt>
      <trkpt lat="48.73218" lon="-3.4143">
        <ele>42</ele>
        <time>2015-11-03T15:30:41Z</time>
      </trkpt>
      <trkpt lat="48.73216" lon="-3.41458">
        <ele>41</ele>
        <time>2015-11-03T15:30:44Z</time>
      </trkpt>
      <trkpt lat="48.73215" lon="-3.41477">
        <ele>41</ele>
        <time>2015-11-03T15:30:46Z</time>
      </trkpt>
      <trkpt lat="48.73214" lon="-3.41496">
        <ele>41</ele>
        <time>2015-11-03T15:30:48Z</time>
      </trkpt>
      <trkpt lat="48.73213" lon="-3.41526">
        <ele>40</ele>
        <time>2015-11-03T15:30:51Z</time>
      </trkpt>
      <trkpt lat="48.73419" lon="-3.43488">
        <ele>15</ele>
        <time>2015-11-03T15:34:12Z</time>
      </trkpt>
      <trkpt lat="48.73422" lon="-3.43515">
        <ele>15</ele>
        <time>2015-11-03T15:34:13Z</time>
      </trkpt>
      <trkpt lat="48.73426" lon="-3.43542">
        <ele>14</ele>
        <time>2015-11-03T15:34:15Z</time>
      </trkpt>
      <trkpt lat="48.73448" lon="-3.43599">
        <ele>50.4</ele>
        <time>2015-11-03T15:34:20Z</time>
      </trkpt>
      <trkpt lat="48.73476" lon="-3.43626">
        <ele>14</ele>
        <time>2015-11-03T15:34:24Z</time>
      </trkpt>
      <trkpt lat="48.73492" lon="-3.43627">
        <ele>14</ele>
        <time>2015-11-03T15:34:26Z</time>
      </trkpt>
      <trkpt lat="48.73512" lon="-3.43641">
        <ele>14</ele>
        <time>2015-11-03T15:34:29Z</time>
      </trkpt>
      <trkpt lat="48.73531" lon="-3.43657">
        <ele>14</ele>
        <time>2015-11-03T15:34:32Z</time>
      </trkpt>
      <trkpt lat="48.73546" lon="-3.43681">
        <ele>13</ele>
        <time>2015-11-03T15:34:35Z</time>
      </trkpt>
      <trkpt lat="48.73545" lon="-3.43714">
        <ele>13</ele>
        <time>2015-11-03T15:34:38Z</time>
      </trkpt>
      <trkpt lat="48.73531" lon="-3.43736">
        <ele>13</ele>
        <time>2015-11-03T15:34:41Z</time>
      </trkpt>
      <trkpt lat="48.73514" lon="-3.43748">
        <ele>12</ele>
        <time>2015-11-03T15:34:44Z</time>
      </trkpt>
      <trkpt lat="48.735" lon="-3.43769">
        <ele>12</ele>
        <time>2015-11-03T15:34:47Z</time>
      </trkpt>
      <trkpt lat="48.73488" lon="-3.43794">
        <ele>11</ele>
        <time>2015-11-03T15:34:50Z</time>
      </trkpt>
      <trkpt lat="48.73476" lon="-3.43821">
        <ele>10</ele>
        <time>2015-11-03T15:34:53Z</time>
      </trkpt>
      <trkpt lat="48.73467" lon="-3.4384">
        <ele>10</ele>
        <time>2015-11-03T15:34:55Z</time>
      </trkpt>
      <trkpt lat="48.73459" lon="-3.43862">
        <ele>9</ele>
        <time>2015-11-03T15:34:57Z</time>
      </trkpt>
      <trkpt lat="48.73451" lon="-3.43885">
        <ele>9</ele>
        <time>2015-11-03T15:34:59Z</time>
      </trkpt>
      <trkpt lat="48.73444" lon="-3.43909">
        <ele>9</ele>
        <time>2015-11-03T15:35:01Z</time>
      </trkpt>
      <trkpt lat="48.7344" lon="-3.43935">
        <ele>9</ele>
        <time>2015-11-03T15:35:03Z</time>
      </trkpt>
      <trkpt lat="48.73437" lon="-3.43961">
        <ele>8</ele>
        <time>2015-11-03T15:35:05Z</time>
      </trkpt>
      <trkpt lat="48.73435" lon="-3.43974">
        <ele>8</ele>
        <time>2015-11-03T15:35:06Z</time>
      </trkpt>
      <trkpt lat="48.73432" lon="-3.44">
        <ele>8</ele>
        <time>2015-11-03T15:35:08Z</time>
      </trkpt>
      <trkpt lat="48.73432" lon="-3.44014">
        <ele>8</ele>
        <time>2015-11-03T15:35:09Z</time>
      </trkpt>
      <trkpt lat="48.73431" lon="-3.44027">
        <ele>7</ele>
        <time>2015-11-03T15:35:10Z</time>
      </trkpt>
      <trkpt lat="48.73426" lon="-3.44054">
        <ele>7</ele>
        <time>2015-11-03T15:35:12Z</time>
      </trkpt>
      <trkpt lat="48.7342" lon="-3.44079">
        <ele>7</ele>
        <time>2015-11-03T15:35:14Z</time>
      </trkpt>
      <trkpt lat="48.73416" lon="-3.44092">
        <ele>7</ele>
        <time>2015-11-03T15:35:15Z</time>
      </trkpt>
      <trkpt lat="48.73413" lon="-3.44105">
        <ele>7</ele>
        <time>2015-11-03T15:35:16Z</time>
      </trkpt>
      <trkpt lat="48.7341" lon="-3.44118">
        <ele>6</ele>
        <time>2015-11-03T15:35:17Z</time>
      </trkpt>
      <trkpt lat="48.73406" lon="-3.44132">
        <ele>6</ele>
        <time>2015-11-03T15:35:18Z</time>
      </trkpt>
      <trkpt lat="48.73403" lon="-3.44145">
        <ele>6</ele>
        <time>2015-11-03T15:35:19Z</time>
      </trkpt>
      <trkpt lat="48.734" lon="-3.44159">
        <ele>6</ele>
        <time>2015-11-03T15:35:20Z</time>
      </trkpt>
      <trkpt lat="48.73397" lon="-3.44172">
        <ele>6</ele>
        <time>2015-11-03T15:35:21Z</time>
      </trkpt>
      <trkpt lat="48.73395" lon="-3.44186">
        <ele>6</ele>
        <time>2015-11-03T15:35:22Z</time>
      </trkpt>
      <trkpt lat="48.73393" lon="-3.442">
        <ele>6</ele>
        <time>2015-11-03T15:35:23Z</time>
      </trkpt>
      <trkpt lat="48.73393" lon="-3.44214">
        <ele>5</ele>
        <time>2015-11-03T15:35:24Z</time>
      </trkpt>
      <trkpt lat="48.73393" lon="-3.44228">
        <ele>5</ele>
        <time>2015-11-03T15:35:25Z</time>
      </trkpt>
      <trkpt lat="48.73393" lon="-3.44242">
        <ele>5</ele>
        <time>2015-11-03T15:35:26Z</time>
      </trkpt>
      <trkpt lat="48.73395" lon="-3.44256">
        <ele>5</ele>
        <time>2015-11-03T15:35:27Z</time>
      </trkpt>
      <trkpt lat="48.73397" lon="-3.44282">
        <ele>5</ele>
        <time>2015-11-03T15:35:29Z</time>
      </trkpt>
      <trkpt lat="48.73399" lon="-3.44295">
        <ele>5</ele>
        <time>2015-11-03T15:35:30Z</time>
      </trkpt>
      <trkpt lat="48.734" lon="-3.44307">
        <ele>4</ele>
        <time>2015-11-03T15:35:31Z</time>
      </trkpt>
      <trkpt lat="48.73402" lon="-3.44333">
        <ele>4</ele>
        <time>2015-11-03T15:35:33Z</time>
      </trkpt>
      <trkpt lat="48.73404" lon="-3.44355">
        <ele>4</ele>
        <time>2015-11-03T15:35:35Z</time>
      </trkpt>
      <trkpt lat="48.73406" lon="-3.44382">
        <ele>3</ele>
        <time>2015-11-03T15:35:39Z</time>
      </trkpt>
      <trkpt lat="48.73409" lon="-3.44404">
        <ele>3</ele>
        <time>2015-11-03T15:35:43Z</time>
      </trkpt>
      <trkpt lat="48.73421" lon="-3.44422">
        <ele>2</ele>
        <time>2015-11-03T15:35:48Z</time>
      </trkpt>
      <trkpt lat="48.73436" lon="-3.44425">
        <ele>2</ele>
        <time>2015-11-03T15:35:51Z</time>
      </trkpt>
      <trkpt lat="48.73454" lon="-3.44429">
        <ele>1</ele>
        <time>2015-11-03T15:35:54Z</time>
      </trkpt>
      <trkpt lat="48.73473" lon="-3.44426">
        <ele>1</ele>
        <time>2015-11-03T15:35:57Z</time>
      </trkpt>
      <trkpt lat="48.73492" lon="-3.44415">
        <ele>1</ele>
        <time>2015-11-03T15:36:00Z</time>
      </trkpt>
      <trkpt lat="48.73512" lon="-3.44405">
        <ele>1</ele>
        <time>2015-11-03T15:36:03Z</time>
      </trkpt>
      <trkpt lat="48.73533" lon="-3.44399">
        <ele>30.7</ele>
        <time>2015-11-03T15:36:06Z</time>
      </trkpt>
      <trkpt lat="48.73549" lon="-3.44397">
        <ele>29.7</ele>
        <time>2015-11-03T15:36:08Z</time>
      </trkpt>
      <trkpt lat="48.73565" lon="-3.44396">
        <ele>28.9</ele>
        <time>2015-11-03T15:36:10Z</time>
      </trkpt>
      <trkpt lat="48.73583" lon="-3.44397">
        <ele>-1</ele>
        <time>2015-11-03T15:36:12Z</time>
      </trkpt>
      <trkpt lat="48.73593" lon="-3.44398">
        <ele>-1</ele>
        <time>2015-11-03T15:36:13Z</time>
      </trkpt>
      <trkpt lat="48.73602" lon="-3.444">
        <ele>-1</ele>
        <time>2015-11-03T15:36:14Z</time>
      </trkpt>
      <trkpt lat="48.73612" lon="-3.44403">
        <ele>-1</ele>
        <time>2015-11-03T15:36:15Z</time>
      </trkpt>
      <trkpt lat="48.73621" lon="-3.44407">
        <ele>-1</ele>
        <time>2015-11-03T15:36:16Z</time>
      </trkpt>
      <trkpt lat="48.73631" lon="-3.44412">
        <ele>-1</ele>
        <time>2015-11-03T15:36:17Z</time>
      </trkpt>
      <trkpt lat="48.7365" lon="-3.44424">
        <ele>-2</ele>
        <time>2015-11-03T15:36:19Z</time>
      </trkpt>
      <trkpt lat="48.73667" lon="-3.44438">
        <ele>-2</ele>
        <time>2015-11-03T15:36:21Z</time>
      </trkpt>
      <trkpt lat="48.7368" lon="-3.4445">
        <ele>-2</ele>
        <time>2015-11-03T15:36:23Z</time>
      </trkpt>
      <trkpt lat="48.73694" lon="-3.44462">
        <ele>-2</ele>
        <time>2015-11-03T15:36:25Z</time>
      </trkpt>
      <trkpt lat="48.73708" lon="-3.44474">
        <ele>-3</ele>
        <time>2015-11-03T15:36:27Z</time>
      </trkpt>
      <trkpt lat="48.73722" lon="-3.44485">
        <ele>-3</ele>
        <time>2015-11-03T15:36:29Z</time>
      </trkpt>
      <trkpt lat="48.73736" lon="-3.44491">
        <ele>-4</ele>
        <time>2015-11-03T15:36:31Z</time>
      </trkpt>
      <trkpt lat="48.73754" lon="-3.44488">
        <ele>-4</ele>
        <time>2015-11-03T15:36:34Z</time>
      </trkpt>
      <trkpt lat="48.73769" lon="-3.44474">
        <ele>-5</ele>
        <time>2015-11-03T15:36:38Z</time>
      </trkpt>
      <trkpt lat="48.73783" lon="-3.44454">
        <ele>-7</ele>
        <time>2015-11-03T15:36:47Z</time>
      </trkpt>
      <trkpt lat="48.73805" lon="-3.44443">
        <ele>-7</ele>
        <time>2015-11-03T15:36:59Z</time>
      </trkpt>
      <trkpt lat="48.73827" lon="-3.44437">
        <ele>-9</ele>
        <time>2015-11-03T15:37:08Z</time>
      </trkpt>
      <trkpt lat="48.73844" lon="-3.44437">
        <ele>-10</ele>
        <time>2015-11-03T15:37:14Z</time>
      </trkpt>
      <trkpt lat="48.73859" lon="-3.4444">
        <ele>-11</ele>
        <time>2015-11-03T15:37:19Z</time>
      </trkpt>
      <trkpt lat="48.73875" lon="-3.44445">
        <ele>-13</ele>
        <time>2015-11-03T15:37:24Z</time>
      </trkpt>
      <trkpt lat="48.73883" lon="-3.44449">
        <ele>-13</ele>
        <time>2015-11-03T15:37:27Z</time>
      </trkpt>
      <trkpt lat="48.73894" lon="-3.44454">
        <ele>-14</ele>
        <time>2015-11-03T15:37:31Z</time>
      </trkpt>
      <trkpt lat="48.73903" lon="-3.44457">
        <ele>-14</ele>
        <time>2015-11-03T15:37:34Z</time>
      </trkpt>
      <trkpt lat="48.73918" lon="-3.44462">
        <ele>-14</ele>
        <time>2015-11-03T15:37:40Z</time>
      </trkpt>
      <trkpt lat="48.73931" lon="-3.44464">
        <ele>-14</ele>
        <time>2015-11-03T15:37:45Z</time>
      </trkpt>
      <trkpt lat="48.73946" lon="-3.44461">
        <ele>-14</ele>
        <time>2015-11-03T15:37:51Z</time>
      </trkpt>
      <trkpt lat="48.73959" lon="-3.44452">
        <ele>-14</ele>
        <time>2015-11-03T15:37:56Z</time>
      </trkpt>
      <trkpt lat="48.73971" lon="-3.44451">
        <ele>-13</ele>
        <time>2015-11-03T15:38:00Z</time>
      </trkpt>
      <trkpt lat="48.73986" lon="-3.44465">
        <ele>-13</ele>
        <time>2015-11-03T15:38:05Z</time>
      </trkpt>
      <trkpt lat="48.74" lon="-3.44481">
        <ele>-13</ele>
        <time>2015-11-03T15:38:09Z</time>
      </trkpt>
      <trkpt lat="48.74013" lon="-3.44487">
        <ele>-13</ele>
        <time>2015-11-03T15:38:12Z</time>
      </trkpt>
      <trkpt lat="48.74026" lon="-3.44492">
        <ele>-13</ele>
        <time>2015-11-03T15:38:15Z</time>
      </trkpt>
      <trkpt lat="48.74034" lon="-3.44495">
        <ele>-12</ele>
        <time>2015-11-03T15:38:17Z</time>
      </trkpt>
      <trkpt lat="48.74043" lon="-3.44498">
        <ele>-12</ele>
        <time>2015-11-03T15:38:19Z</time>
      </trkpt>
      <trkpt lat="48.74054" lon="-3.44501">
        <ele>-12</ele>
        <time>2015-11-03T15:38:22Z</time>
      </trkpt>
      <trkpt lat="48.7428" lon="-3.4479">
        <ele>-2</ele>
        <time>2015-11-03T15:40:15Z</time>
      </trkpt>
      <trkpt lat="48.7428" lon="-3.44804">
        <ele>-1</ele>
        <time>2015-11-03T15:40:18Z</time>
      </trkpt>
      <trkpt lat="48.74279" lon="-3.44828">
        <ele>-1</ele>
        <time>2015-11-03T15:40:25Z</time>
      </trkpt>
      <trkpt lat="48.74279" lon="-3.44846">
        <ele>51.6</ele>
        <time>2015-11-03T15:40:30Z</time>
      </trkpt>
      <trkpt lat="48.74279" lon="-3.4486">
        <ele>52</ele>
        <time>2015-11-03T15:40:34Z</time>
      </trkpt>
      <trkpt lat="48.74278" lon="-3.44874">
        <ele>1</ele>
        <time>2015-11-03T15:40:38Z</time>
      </trkpt>
      <trkpt lat="48.74277" lon="-3.44899">
        <ele>1</ele>
        <time>2015-11-03T15:40:45Z</time>
      </trkpt>
      <trkpt lat="48.74278" lon="-3.44925">
        <ele>2</ele>
        <time>2015-11-03T15:40:52Z</time>
      </trkpt>
      <trkpt lat="48.74277" lon="-3.4494">
        <ele>3</ele>
        <time>2015-11-03T15:40:56Z</time>
      </trkpt>
      <trkpt lat="48.74277" lon="-3.44963">
        <ele>5</ele>
        <time>2015-11-03T15:41:02Z</time>
      </trkpt>
      <trkpt lat="48.74277" lon="-3.44978">
        <ele>6</ele>
        <time>2015-11-03T15:41:06Z</time>
      </trkpt>
      <trkpt lat="48.74276" lon="-3.44995">
        <ele>7</ele>
        <time>2015-11-03T15:41:11Z</time>
      </trkpt>
      <trkpt lat="48.74275" lon="-3.45015">
        <ele>8</ele>
        <time>2015-11-03T15:41:17Z</time>
      </trkpt>
      <trkpt lat="48.74274" lon="-3.4504">
        <ele>9</ele>
        <time>2015-11-03T15:41:24Z</time>
      </trkpt>
      <trkpt lat="48.74274" lon="-3.45055">
        <ele>10</ele>
        <time>2015-11-03T15:41:28Z</time>
      </trkpt>
      <trkpt lat="48.74276" lon="-3.4508">
        <ele>11</ele>
        <time>2015-11-03T15:41:35Z</time>
      </trkpt>
      <trkpt lat="48.74279" lon="-3.45105">
        <ele>12</ele>
        <time>2015-11-03T15:41:42Z</time>
      </trkpt>
      <trkpt lat="48.74285" lon="-3.45124">
        <ele>13</ele>
        <time>2015-11-03T15:41:48Z</time>
      </trkpt>
      <trkpt lat="48.74289" lon="-3.45137">
        <ele>13</ele>
        <time>2015-11-03T15:41:52Z</time>
      </trkpt>
      <trkpt lat="48.74299" lon="-3.45156">
        <ele>13</ele>
        <time>2015-11-03T15:41:59Z</time>
      </trkpt>
      <trkpt lat="48.74305" lon="-3.45166">
        <ele>14</ele>
        <time>2015-11-03T15:42:03Z</time>
      </trkpt>
      <trkpt lat="48.74312" lon="-3.45176">
        <ele>14</ele>
        <time>2015-11-03T15:42:07Z</time>
      </trkpt>
      <trkpt lat="48.74321" lon="-3.45186">
        <ele>14</ele>
        <time>2015-11-03T15:42:12Z</time>
      </trkpt>
      <trkpt lat="48.74335" lon="-3.452">
        <ele>15</ele>
        <time>2015-11-03T15:42:19Z</time>
      </trkpt>
      <trkpt lat="48.74348" lon="-3.45213">
        <ele>15</ele>
        <time>2015-11-03T15:42:25Z</time>
      </trkpt>
      <trkpt lat="48.74356" lon="-3.45218">
        <ele>16</ele>
        <time>2015-11-03T15:42:28Z</time>
      </trkpt>
      <trkpt lat="48.74364" lon="-3.45222">
        <ele>16</ele>
        <time>2015-11-03T15:42:31Z</time>
      </trkpt>
      <trkpt lat="48.74374" lon="-3.45225">
        <ele>16</ele>
        <time>2015-11-03T15:42:34Z</time>
      </trkpt>
      <trkpt lat="48.74391" lon="-3.45233">
        <ele>17</ele>
        <time>2015-11-03T15:42:40Z</time>
      </trkpt>
      <trkpt lat="48.74404" lon="-3.45248">
        <ele>17</ele>
        <time>2015-11-03T15:43:03Z</time>
      </trkpt>
      <trkpt lat="48.74405" lon="-3.45264">
        <ele>17</ele>
        <time>2015-11-03T15:43:06Z</time>
      </trkpt>
      <trkpt lat="48.74403" lon="-3.45286">
        <ele>17</ele>
        <time>2015-11-03T15:43:09Z</time>
      </trkpt>
      <trkpt lat="48.74403" lon="-3.45304">
        <ele>17</ele>
        <time>2015-11-03T15:43:11Z</time>
      </trkpt>
      <trkpt lat="48.74404" lon="-3.45332">
        <ele>17</ele>
        <time>2015-11-03T15:43:14Z</time>
      </trkpt>
      <trkpt lat="48.74404" lon="-3.45352">
        <ele>17</ele>
        <time>2015-11-03T15:43:16Z</time>
      </trkpt>
      <trkpt lat="48.74406" lon="-3.45374">
        <ele>17</ele>
        <time>2015-11-03T15:43:18Z</time>
      </trkpt>
      <trkpt lat="48.74406" lon="-3.45397">
        <ele>17</ele>
        <time>2015-11-03T15:43:20Z</time>
      </trkpt>
      <trkpt lat="48.74405" lon="-3.45421">
        <ele>17</ele>
        <time>2015-11-03T15:43:22Z</time>
      </trkpt>
      <trkpt lat="48.74401" lon="-3.45445">
        <ele>17</ele>
        <time>2015-11-03T15:43:24Z</time>
      </trkpt>
      <trkpt lat="48.74394" lon="-3.45467">
        <ele>17</ele>
        <time>2015-11-03T15:43:26Z</time>
      </trkpt>
      <trkpt lat="48.74384" lon="-3.45486">
        <ele>17</ele>
        <time>2015-11-03T15:43:28Z</time>
      </trkpt>
      <trkpt lat="48.7437" lon="-3.455">
        <ele>17</ele>
        <time>2015-11-03T15:43:30Z</time>
      </trkpt>
      <trkpt lat="48.74363" lon="-3.45506">
        <ele>17</ele>
        <time>2015-11-03T15:43:31Z</time>
      </trkpt>
      <trkpt lat="48.74348" lon="-3.45518">
        <ele>17</ele>
        <time>2015-11-03T15:43:33Z</time>
      </trkpt>
      <trkpt lat="48.74339" lon="-3.45524">
        <ele>17</ele>
        <time>2015-11-03T15:43:34Z</time>
      </trkpt>
      <trkpt lat="48.74331" lon="-3.45531">
        <ele>17</ele>
        <time>2015-11-03T15:43:35Z</time>
      </trkpt>
      <trkpt lat="48.74322" lon="-3.45537">
        <ele>17</ele>
        <time>2015-11-03T15:43:36Z</time>
      </trkpt>
      <trkpt lat="48.74314" lon="-3.45544">
        <ele>17</ele>
        <time>2015-11-03T15:43:37Z</time>
      </trkpt>
      <trkpt lat="48.74306" lon="-3.45551">
        <ele>17</ele>
        <time>2015-11-03T15:43:38Z</time>
      </trkpt>
      <trkpt lat="48.74297" lon="-3.45557">
        <ele>17</ele>
        <time>2015-11-03T15:43:39Z</time>
      </trkpt>
      <trkpt lat="48.74289" lon="-3.45564">
        <ele>17</ele>
        <time>2015-11-03T15:43:40Z</time>
      </trkpt>
      <trkpt lat="48.7428" lon="-3.4557">
        <ele>17</ele>
        <time>2015-11-03T15:43:41Z</time>
      </trkpt>
      <trkpt lat="48.74272" lon="-3.45575">
        <ele>17</ele>
        <time>2015-11-03T15:43:42Z</time>
      </trkpt>
      <trkpt lat="48.74263" lon="-3.45579">
        <ele>16</ele>
        <time>2015-11-03T15:43:43Z</time>
      </trkpt>
      <trkpt lat="48.74245" lon="-3.45584">
        <ele>16</ele>
        <time>2015-11-03T15:43:45Z</time>
      </trkpt>
      <trkpt lat="48.74227" lon="-3.45587">
        <ele>16</ele>
        <time>2015-11-03T15:43:47Z</time>
      </trkpt>
      <trkpt lat="48.74209" lon="-3.45589">
        <ele>16</ele>
        <time>2015-11-03T15:43:49Z</time>
      </trkpt>
      <trkpt lat="48.74183" lon="-3.45592">
        <ele>16</ele>
        <time>2015-11-03T15:43:52Z</time>
      </trkpt>
      <trkpt lat="48.74166" lon="-3.45593">
        <ele>15</ele>
        <time>2015-11-03T15:43:54Z</time>
      </trkpt>
      <trkpt lat="48.74149" lon="-3.45595">
        <ele>15</ele>
        <time>2015-11-03T15:43:56Z</time>
      </trkpt>
      <trkpt lat="48.74132" lon="-3.45595">
        <ele>15</ele>
        <time>2015-11-03T15:43:58Z</time>
      </trkpt>
      <trkpt lat="48.74052" lon="-3.45575">
        <ele>14</ele>
        <time>2015-11-03T15:44:07Z</time>
      </trkpt>
      <trkpt lat="48.74043" lon="-3.45578">
        <ele>14</ele>
        <time>2015-11-03T15:44:08Z</time>
      </trkpt>
      <trkpt lat="48.74033" lon="-3.45582">
        <ele>13</ele>
        <time>2015-11-03T15:44:09Z</time>
      </trkpt>
      <trkpt lat="48.74023" lon="-3.45587">
        <ele>13</ele>
        <time>2015-11-03T15:44:10Z</time>
      </trkpt>
      <trkpt lat="48.74012" lon="-3.45591">
        <ele>13</ele>
        <time>2015-11-03T15:44:11Z</time>
      </trkpt>
      <trkpt lat="48.74002" lon="-3.45597">
        <ele>12</ele>
        <time>2015-11-03T15:44:12Z</time>
      </trkpt>
      <trkpt lat="48.73992" lon="-3.45604">
        <ele>12</ele>
        <time>2015-11-03T15:44:13Z</time>
      </trkpt>
      <trkpt lat="48.73983" lon="-3.45613">
        <ele>12</ele>
        <time>2015-11-03T15:44:14Z</time>
      </trkpt>
      <trkpt lat="48.73966" lon="-3.4564">
        <ele>11</ele>
        <time>2015-11-03T15:44:17Z</time>
      </trkpt>
      <trkpt lat="48.73959" lon="-3.45654">
        <ele>10</ele>
        <time>2015-11-03T15:44:19Z</time>
      </trkpt>
      <trkpt lat="48.73955" lon="-3.45665">
        <ele>9</ele>
        <time>2015-11-03T15:44:21Z</time>
      </trkpt>
      <trkpt lat="48.73949" lon="-3.45677">
        <ele>8</ele>
        <time>2015-11-03T15:44:24Z</time>
      </trkpt>
      <trkpt lat="48.73944" lon="-3.4569">
        <ele>7</ele>
        <time>2015-11-03T15:44:28Z</time>
      </trkpt>
      <trkpt lat="48.7369" lon="-3.46153">
        <ele>52.1</ele>
        <time>2015-11-03T15:46:06Z</time>
      </trkpt>
      <trkpt lat="48.737" lon="-3.46164">
        <ele>51.2</ele>
        <time>2015-11-03T15:46:08Z</time>
      </trkpt>
      <trkpt lat="48.73711" lon="-3.46172">
        <ele>1</ele>
        <time>2015-11-03T15:46:10Z</time>
      </trkpt>
      <trkpt lat="48.73722" lon="-3.4618">
        <ele>1</ele>
        <time>2015-11-03T15:46:12Z</time>
      </trkpt>
      <trkpt lat="48.73733" lon="-3.46187">
        <ele>1</ele>
        <time>2015-11-03T15:46:14Z</time>
      </trkpt>
      <trkpt lat="48.73741" lon="-3.46195">
        <ele>1</ele>
        <time>2015-11-03T15:46:16Z</time>
      </trkpt>
      <trkpt lat="48.73746" lon="-3.46215">
        <ele>1</ele>
        <time>2015-11-03T15:46:19Z</time>
      </trkpt>
      <trkpt lat="48.73738" lon="-3.46228">
        <ele>1</ele>
        <time>2015-11-03T15:46:21Z</time>
      </trkpt>
      <trkpt lat="48.73728" lon="-3.46239">
        <ele>1</ele>
        <time>2015-11-03T15:46:23Z</time>
      </trkpt>
      <trkpt lat="48.73718" lon="-3.46249">
        <ele>2</ele>
        <time>2015-11-03T15:46:25Z</time>
      </trkpt>
      <trkpt lat="48.73702" lon="-3.46263">
        <ele>2</ele>
        <time>2015-11-03T15:46:28Z</time>
      </trkpt>
      <trkpt lat="48.73691" lon="-3.46272">
        <ele>2</ele>
        <time>2015-11-03T15:46:30Z</time>
      </trkpt>
      <trkpt lat="48.7368" lon="-3.46282">
        <ele>2</ele>
        <time>2015-11-03T15:46:32Z</time>
      </trkpt>
      <trkpt lat="48.73669" lon="-3.46291">
        <ele>2</ele>
        <time>2015-11-03T15:46:34Z</time>
      </trkpt>
      <trkpt lat="48.73659" lon="-3.463">
        <ele>2</ele>
        <time>2015-11-03T15:46:36Z</time>
      </trkpt>
      <trkpt lat="48.7365" lon="-3.46307">
        <ele>2</ele>
        <time>2015-11-03T15:46:38Z</time>
      </trkpt>
    </trkseg>
  </trk>
</gpx>